AXGD100 Flymaster F1, V1.21, S/N 1200
HFDTE080912
HOPLTPILOT: Alain Marco Curion Cirerol
HOGTYGLIDERTYPE: Wintech Fenix
HOGIDGLIDERID: None
HODTM100GPSDATUM: WGS-84
HOCIDCOMPETITIONID: 
HOCCLCOMPETITION CLASS: Sport
HOSITSite: None
B1220163743341N00355577WA0104201169
B1220173743341N00355577WA0104201169
B1220183743341N00355577WA0104201169
B1220193743341N00355577WA0104201169
B1220203743340N00355578WA0104201169
B1220213743340N00355578WA0104201169
B1220223743340N00355578WA0104201169
B1220233743340N00355578WA0104201169
B1220243743340N00355578WA0104201169
B1220253743340N00355578WA0104201169
B1220263743340N00355579WA0104201169
B1220273743339N00355580WA0104301169
B1220283743339N00355581WA0104201169
B1220293743339N00355581WA0104201169
B1220303743339N00355580WA0104201169
B1220313743340N00355579WA0104201169
B1220323743340N00355579WA0104201169
B1220333743339N00355580WA0104301169
B1220343743339N00355580WA0104201169
B1220353743339N00355580WA0104201169
B1220363743339N00355580WA0104201169
B1220373743339N00355581WA0104201169
B1220383743339N00355581WA0104301169
B1220393743340N00355581WA0104201169
B1220403743340N00355581WA0104301169
B1220413743340N00355581WA0104301169
B1220423743340N00355580WA0104301169
B1220433743340N00355580WA0104301169
B1220443743340N00355580WA0104201169
B1220453743340N00355580WA0104301169
B1220463743339N00355581WA0104301169
B1220473743339N00355581WA0104201169
B1220483743339N00355582WA0104201169
B1220493743339N00355582WA0104201168
B1220503743339N00355582WA0104201168
B1220513743339N00355582WA0104201168
B1220523743339N00355582WA0104201168
B1220533743339N00355582WA0104201168
B1220543743339N00355582WA0104201168
B1220553743339N00355582WA0104201168
B1220563743340N00355581WA0104201168
B1220573743340N00355581WA0104201169
B1220583743340N00355581WA0104301169
B1220593743340N00355581WA0104201168
B1221003743340N00355581WA0104301169
B1221013743340N00355581WA0104201168
B1221023743340N00355580WA0104201168
B1221033743340N00355581WA0104201168
B1221043743340N00355582WA0104301168
B1221053743340N00355582WA0104201168
B1221063743340N00355581WA0104201168
B1221073743340N00355581WA0104201168
B1221083743340N00355581WA0104201168
B1221093743340N00355580WA0104201168
B1221103743340N00355580WA0104201168
B1221113743340N00355580WA0104201168
B1221123743340N00355580WA0104201168
B1221133743340N00355580WA0104201168
B1221143743340N00355581WA0104201168
B1221153743340N00355582WA0104201168
B1221163743340N00355582WA0104201168
B1221173743340N00355582WA0104201168
B1221183743340N00355582WA0104201168
B1221193743340N00355582WA0104201168
B1221203743340N00355582WA0104201168
B1221213743340N00355582WA0104201168
B1221223743340N00355582WA0104201168
B1221233743340N00355582WA0104201168
B1221243743340N00355581WA0104201168
B1221253743340N00355581WA0104201168
B1221263743340N00355581WA0104301168
B1221273743340N00355581WA0104201168
B1221283743341N00355580WA0104201168
B1221293743341N00355580WA0104301168
B1221303743341N00355580WA0104201168
B1221313743341N00355580WA0104301168
B1221323743340N00355580WA0104301168
B1221333743340N00355580WA0104301168
B1221343743340N00355581WA0104301168
B1221353743340N00355581WA0104201168
B1221363743339N00355581WA0104301168
B1221373743339N00355582WA0104201168
B1221383743339N00355582WA0104301168
B1221393743339N00355582WA0104301168
B1221403743340N00355581WA0104301168
B1221413743341N00355581WA0104301168
B1221423743341N00355581WA0104301168
B1221433743342N00355581WA0104301168
B1221443743342N00355582WA0104201168
B1221453743341N00355582WA0104201168
B1221463743341N00355582WA0104201168
B1221473743340N00355582WA0104301168
B1221483743340N00355582WA0104201168
B1221493743340N00355582WA0104301168
B1221503743340N00355582WA0104201168
B1221513743340N00355582WA0104201168
B1221523743340N00355582WA0104301168
B1221533743340N00355582WA0104201168
B1221543743340N00355582WA0104201168
B1221553743340N00355582WA0104201168
B1221563743339N00355583WA0104301168
B1221573743339N00355583WA0104301168
B1221583743339N00355583WA0104301168
B1221593743339N00355583WA0104301168
B1222003743339N00355583WA0104301168
B1222013743339N00355583WA0104301168
B1222023743339N00355583WA0104301168
B1222033743339N00355583WA0104201168
B1222043743339N00355583WA0104301168
B1222053743339N00355583WA0104201168
B1222063743339N00355583WA0104301168
B1222073743339N00355583WA0104301168
B1222083743339N00355582WA0104201168
B1222093743339N00355583WA0104201168
B1222103743339N00355582WA0104201168
B1222113743339N00355582WA0104201168
B1222123743339N00355582WA0104201168
B1222133743340N00355581WA0104201168
B1222143743340N00355581WA0104201168
B1222153743340N00355581WA0104301168
B1222163743340N00355581WA0104201168
B1222173743340N00355582WA0104201168
B1222183743340N00355582WA0104301168
B1222193743339N00355582WA0104201168
B1222203743339N00355582WA0104301168
B1222213743339N00355582WA0104201168
B1222223743339N00355582WA0104201168
B1222233743339N00355582WA0104201168
B1222243743339N00355583WA0104201168
B1222253743339N00355582WA0104201167
B1222263743339N00355582WA0104201167
B1222273743340N00355582WA0104201167
B1222283743340N00355581WA0104201167
B1222293743340N00355582WA0104201167
B1222303743340N00355582WA0104301167
B1222313743340N00355581WA0104201167
B1222323743340N00355582WA0104301167
B1222333743340N00355581WA0104301167
B1222343743340N00355582WA0104301167
B1222353743340N00355582WA0104301167
B1222363743340N00355582WA0104201167
B1222373743340N00355582WA0104201167
B1222383743340N00355582WA0104301167
B1222393743340N00355581WA0104301167
B1222403743340N00355581WA0104201167
B1222413743340N00355582WA0104301167
B1222423743340N00355583WA0104201167
B1222433743340N00355583WA0104201167
B1222443743340N00355584WA0104201167
B1222453743339N00355584WA0104201167
B1222463743339N00355584WA0104301167
B1222473743339N00355584WA0104301167
B1222483743338N00355584WA0104201167
B1222493743338N00355584WA0104201167
B1222503743338N00355584WA0104301167
B1222513743339N00355584WA0104201167
B1222523743338N00355584WA0104201167
B1222533743338N00355584WA0104301167
B1222543743338N00355584WA0104301167
B1222553743338N00355584WA0104301167
B1222563743338N00355584WA0104201167
B1222573743339N00355584WA0104201167
B1222583743339N00355583WA0104201167
B1222593743339N00355583WA0104201167
B1223003743339N00355583WA0104201167
B1223013743339N00355583WA0104201167
B1223023743339N00355583WA0104201167
B1223033743339N00355583WA0104301167
B1223043743339N00355583WA0104301167
B1223053743339N00355583WA0104301167
B1223063743339N00355583WA0104201167
B1223073743339N00355583WA0104201167
B1223083743339N00355583WA0104201167
B1223093743339N00355583WA0104301167
B1223103743340N00355583WA0104201166
B1223113743340N00355583WA0104201166
B1223123743340N00355583WA0104301166
B1223133743340N00355583WA0104201166
B1223143743340N00355583WA0104201166
B1223153743340N00355583WA0104201166
B1223163743339N00355583WA0104201166
B1223173743339N00355583WA0104201166
B1223183743339N00355583WA0104201166
B1223193743339N00355583WA0104201167
B1223203743339N00355583WA0104301166
B1223213743339N00355584WA0104201167
B1223223743339N00355584WA0104201167
B1223233743339N00355584WA0104201167
B1223243743338N00355584WA0104201167
B1223253743338N00355584WA0104201167
B1223263743339N00355584WA0104201167
B1223273743339N00355584WA0104201167
B1223283743339N00355584WA0104201167
B1223293743339N00355584WA0104201167
B1223303743339N00355584WA0104301167
B1223313743339N00355583WA0104201166
B1223323743339N00355583WA0104301166
B1223333743339N00355583WA0104201166
B1223343743339N00355583WA0104201166
B1223353743339N00355583WA0104201165
B1223363743339N00355584WA0104201166
B1223373743339N00355584WA0104201166
B1223383743339N00355584WA0104201166
B1223393743339N00355584WA0104201166
B1223403743339N00355584WA0104201166
B1223413743338N00355584WA0104201166
B1223423743338N00355584WA0104301166
B1223433743338N00355584WA0104301166
B1223443743338N00355584WA0104301166
B1223453743338N00355584WA0104301166
B1223463743339N00355584WA0104201166
B1223473743339N00355584WA0104301166
B1223483743339N00355584WA0104301166
B1223493743339N00355584WA0104301166
B1223503743339N00355583WA0104201166
B1223513743340N00355583WA0104301166
B1223523743340N00355583WA0104201166
B1223533743340N00355583WA0104201166
B1223543743340N00355583WA0104201166
B1223553743340N00355583WA0104301166
B1223563743340N00355583WA0104301166
B1223573743340N00355583WA0104301166
B1223583743340N00355583WA0104301166
B1223593743340N00355583WA0104301166
B1224003743340N00355583WA0104301166
B1224013743340N00355584WA0104301166
B1224023743340N00355584WA0104201165
B1224033743340N00355584WA0104201165
B1224043743340N00355584WA0104201165
B1224053743339N00355585WA0104201165
B1224063743339N00355586WA0104201166
B1224073743339N00355586WA0104201166
B1224083743339N00355586WA0104201166
B1224093743339N00355586WA0104201166
B1224103743339N00355586WA0104201166
B1224113743338N00355586WA0104201166
B1224123743338N00355586WA0104201166
B1224133743338N00355586WA0104201166
B1224143743338N00355586WA0104201166
B1224153743338N00355587WA0104201166
B1224163743338N00355587WA0104201166
B1224173743338N00355587WA0104201166
B1224183743337N00355587WA0104201166
B1224193743337N00355587WA0104201166
B1224203743337N00355587WA0104201167
B1224213743337N00355587WA0104201167
B1224223743337N00355587WA0104201167
B1224233743337N00355587WA0104301167
B1224243743338N00355587WA0104201167
B1224253743338N00355587WA0104201167
B1224263743339N00355587WA0104201167
B1224273743338N00355587WA0104201167
B1224283743338N00355587WA0104201167
B1224293743338N00355587WA0104201167
B1224303743338N00355588WA0104101167
B1224313743338N00355590WA0104101167
B1224323743339N00355592WA0104101167
B1224333743339N00355592WA0104101167
B1224343743339N00355593WA0104201167
B1224353743341N00355593WA0104101167
B1224363743343N00355593WA0103901167
B1224373743345N00355593WA0103801167
B1224383743347N00355593WA0103801167
B1224393743350N00355592WA0103901167
B1224403743352N00355592WA0104001167
B1224413743355N00355593WA0103601166
B1224423743358N00355594WA0103601165
B1224433743362N00355597WA0103701163
B1224443743365N00355600WA0103701163
B1224453743367N00355602WA0103801164
B1224463743369N00355605WA0104001165
B1224473743370N00355607WA0103901165
B1224483743371N00355610WA0103901165
B1224493743372N00355614WA0103801164
B1224503743373N00355619WA0103701164
B1224513743372N00355623WA0103701164
B1224523743371N00355626WA0104001165
B1224533743369N00355629WA0104201167
B1224543743368N00355631WA0104401168
B1224553743368N00355634WA0104401168
B1224563743368N00355638WA0104301167
B1224573743369N00355642WA0104301167
B1224583743371N00355645WA0104501169
B1224593743373N00355646WA0104701171
B1225003743377N00355644WA0104901172
B1225013743381N00355641WA0104501173
B1225023743385N00355635WA0104301173
B1225033743389N00355628WA0104301173
B1225043743393N00355623WA0104601174
B1225053743396N00355620WA0104601176
B1225063743400N00355620WA0104401176
B1225073743403N00355621WA0104301176
B1225083743405N00355622WA0104301176
B1225093743407N00355622WA0104301176
B1225103743409N00355624WA0104201174
B1225113743409N00355627WA0103901173
B1225123743408N00355632WA0103701172
B1225133743405N00355636WA0103601170
B1225143743400N00355639WA0103801169
B1225153743396N00355641WA0103901169
B1225163743393N00355644WA0104001169
B1225173743390N00355647WA0104001170
B1225183743386N00355651WA0104001170
B1225193743382N00355654WA0104001169
B1225203743378N00355657WA0103801168
B1225213743373N00355659WA0103701168
B1225223743369N00355662WA0103701167
B1225233743365N00355665WA0103601166
B1225243743361N00355668WA0103501165
B1225253743355N00355670WA0103501164
B1225263743350N00355673WA0103501163
B1225273743345N00355676WA0103501163
B1225283743341N00355680WA0103501163
B1225293743337N00355684WA0103401163
B1225303743334N00355688WA0103401162
B1225313743330N00355691WA0103501162
B1225323743326N00355694WA0103501162
B1225333743322N00355697WA0103401162
B1225343743317N00355700WA0103201162
B1225353743313N00355703WA0103201161
B1225363743309N00355707WA0103201160
B1225373743304N00355712WA0103301161
B1225383743301N00355715WA0103601163
B1225393743298N00355718WA0103901166
B1225403743295N00355721WA0104101169
B1225413743293N00355723WA0104401171
B1225423743292N00355726WA0104701173
B1225433743291N00355729WA0104801175
B1225443743291N00355732WA0105101177
B1225453743291N00355734WA0105101179
B1225463743291N00355736WA0105301181
B1225473743292N00355738WA0105501182
B1225483743293N00355738WA0105501183
B1225493743296N00355738WA0105301183
B1225503743300N00355735WA0105101183
B1225513743303N00355730WA0105101183
B1225523743305N00355723WA0105501184
B1225533743306N00355716WA0105701184
B1225543743305N00355708WA0105801185
B1225553743302N00355700WA0106001186
B1225563743298N00355693WA0106101186
B1225573743292N00355689WA0106201189
B1225583743285N00355686WA0106301190
B1225593743278N00355687WA0106501191
B1226003743273N00355689WA0106601193
B1226013743269N00355692WA0107001195
B1226023743266N00355695WA0107201197
B1226033743263N00355698WA0107301199
B1226043743262N00355701WA0107401201
B1226053743262N00355705WA0107301200
B1226063743262N00355708WA0107301199
B1226073743264N00355711WA0107301199
B1226083743266N00355712WA0107301200
B1226093743269N00355713WA0107401200
B1226103743273N00355712WA0107401200
B1226113743277N00355710WA0107401200
B1226123743280N00355706WA0107501201
B1226133743284N00355701WA0107501201
B1226143743287N00355694WA0107701202
B1226153743290N00355688WA0107801204
B1226163743292N00355681WA0108001205
B1226173743292N00355673WA0108301207
B1226183743290N00355666WA0108301208
B1226193743286N00355659WA0108101209
B1226203743280N00355654WA0108101210
B1226213743273N00355651WA0108601210
B1226223743267N00355650WA0108701212
B1226233743261N00355652WA0108801214
B1226243743257N00355656WA0108801214
B1226253743254N00355660WA0108801215
B1226263743253N00355665WA0108801215
B1226273743252N00355669WA0109001216
B1226283743252N00355672WA0109201219
B1226293743253N00355674WA0109401221
B1226303743255N00355675WA0109501222
B1226313743258N00355675WA0109501223
B1226323743262N00355675WA0109201222
B1226333743266N00355674WA0109101222
B1226343743271N00355672WA0109201222
B1226353743275N00355669WA0109301223
B1226363743279N00355664WA0109501223
B1226373743282N00355658WA0109701224
B1226383743284N00355653WA0109901226
B1226393743286N00355648WA0110001227
B1226403743289N00355643WA0109701227
B1226413743292N00355637WA0109501226
B1226423743295N00355632WA0109501226
B1226433743298N00355626WA0109401226
B1226443743301N00355622WA0109601227
B1226453743305N00355619WA0109801228
B1226463743309N00355617WA0109901229
B1226473743312N00355617WA0110001230
B1226483743316N00355618WA0110001231
B1226493743318N00355619WA0110201232
B1226503743320N00355621WA0110301233
B1226513743321N00355624WA0110301234
B1226523743323N00355627WA0110501235
B1226533743323N00355629WA0110701236
B1226543743322N00355631WA0110701237
B1226553743321N00355635WA0110601237
B1226563743320N00355638WA0110401237
B1226573743318N00355642WA0110501236
B1226583743316N00355647WA0110601236
B1226593743314N00355651WA0110701236
B1227003743313N00355654WA0110801237
B1227013743312N00355658WA0110901238
B1227023743312N00355661WA0111101240
B1227033743313N00355663WA0111301242
B1227043743314N00355665WA0111601245
B1227053743316N00355666WA0111901248
B1227063743319N00355665WA0112101250
B1227073743322N00355662WA0112201252
B1227083743326N00355657WA0112201253
B1227093743330N00355649WA0112301254
B1227103743331N00355640WA0112501256
B1227113743329N00355630WA0112501257
B1227123743325N00355622WA0112701258
B1227133743318N00355616WA0112801259
B1227143743310N00355614WA0112801258
B1227153743303N00355616WA0112801258
B1227163743299N00355620WA0113001259
B1227173743297N00355624WA0113201262
B1227183743296N00355628WA0113601265
B1227193743297N00355631WA0113801268
B1227203743299N00355633WA0114101271
B1227213743301N00355634WA0114501273
B1227223743304N00355634WA0114901277
B1227233743308N00355633WA0115201280
B1227243743312N00355631WA0115201282
B1227253743316N00355627WA0115501284
B1227263743321N00355622WA0115801287
B1227273743324N00355615WA0116001290
B1227283743326N00355607WA0116301292
B1227293743327N00355597WA0116401294
B1227303743326N00355588WA0116501295
B1227313743323N00355580WA0116601296
B1227323743319N00355573WA0116801298
B1227333743313N00355567WA0116901300
B1227343743307N00355564WA0117001301
B1227353743301N00355563WA0117201302
B1227363743294N00355564WA0117301303
B1227373743289N00355567WA0117501304
B1227383743286N00355571WA0117901306
B1227393743285N00355575WA0118201312
B1227403743284N00355578WA0118501317
B1227413743285N00355581WA0118901321
B1227423743286N00355583WA0119201324
B1227433743289N00355585WA0119401327
B1227443743292N00355585WA0119801330
B1227453743295N00355584WA0120101334
B1227463743299N00355581WA0120401337
B1227473743303N00355575WA0120701340
B1227483743305N00355567WA0120801342
B1227493743306N00355557WA0120901344
B1227503743305N00355546WA0121101346
B1227513743301N00355537WA0121401348
B1227523743295N00355531WA0121601351
B1227533743289N00355527WA0121801353
B1227543743282N00355527WA0122001355
B1227553743277N00355529WA0122201357
B1227563743274N00355532WA0122501360
B1227573743272N00355536WA0122801363
B1227583743272N00355539WA0123201366
B1227593743272N00355543WA0123501369
B1228003743274N00355545WA0123801372
B1228013743276N00355547WA0124101376
B1228023743279N00355546WA0124401378
B1228033743283N00355545WA0124801381
B1228043743287N00355543WA0125201385
B1228053743290N00355540WA0125501390
B1228063743293N00355535WA0125901394
B1228073743297N00355530WA0126201397
B1228083743300N00355523WA0126401400
B1228093743302N00355513WA0126601403
B1228103743302N00355503WA0126701405
B1228113743300N00355494WA0126801407
B1228123743295N00355488WA0126901409
B1228133743289N00355484WA0127101411
B1228143743282N00355483WA0127401412
B1228153743277N00355484WA0127701415
B1228163743273N00355486WA0128001418
B1228173743270N00355489WA0128401421
B1228183743269N00355493WA0128701424
B1228193743269N00355496WA0129101429
B1228203743269N00355500WA0129701433
B1228213743270N00355503WA0129901438
B1228223743271N00355506WA0130201442
B1228233743273N00355508WA0130601446
B1228243743276N00355508WA0130901449
B1228253743280N00355507WA0131101453
B1228263743284N00355502WA0131401455
B1228273743288N00355495WA0131601457
B1228283743290N00355487WA0131901459
B1228293743291N00355478WA0132201462
B1228303743289N00355469WA0132601465
B1228313743286N00355462WA0133001468
B1228323743281N00355457WA0133201471
B1228333743276N00355453WA0133401472
B1228343743270N00355452WA0133601475
B1228353743265N00355453WA0133701477
B1228363743261N00355456WA0133701479
B1228373743259N00355459WA0134201482
B1228383743257N00355463WA0134701485
B1228393743257N00355466WA0135101491
B1228403743257N00355470WA0135401494
B1228413743258N00355472WA0135601498
B1228423743260N00355474WA0135801501
B1228433743264N00355473WA0136001504
B1228443743268N00355471WA0136301505
B1228453743273N00355468WA0136601507
B1228463743278N00355466WA0136901510
B1228473743282N00355464WA0137201513
B1228483743287N00355463WA0137501518
B1228493743290N00355462WA0137901522
B1228503743294N00355460WA0138101525
B1228513743298N00355458WA0138201527
B1228523743303N00355456WA0138401529
B1228533743307N00355453WA0138501530
B1228543743312N00355451WA0138601532
B1228553743316N00355448WA0138801534
B1228563743319N00355444WA0139001535
B1228573743320N00355437WA0139001537
B1228583743321N00355430WA0138801538
B1228593743320N00355421WA0138601538
B1229003743317N00355414WA0138901539
B1229013743313N00355407WA0139101539
B1229023743308N00355403WA0139201540
B1229033743301N00355402WA0139301541
B1229043743295N00355403WA0139501543
B1229053743290N00355406WA0139701545
B1229063743286N00355409WA0139901547
B1229073743283N00355413WA0140201549
B1229083743280N00355417WA0140501551
B1229093743278N00355422WA0140601552
B1229103743276N00355426WA0140801554
B1229113743276N00355431WA0141101556
B1229123743276N00355436WA0141301559
B1229133743278N00355439WA0141401560
B1229143743280N00355442WA0141501562
B1229153743283N00355442WA0141601563
B1229163743287N00355440WA0141701564
B1229173743291N00355437WA0141801565
B1229183743294N00355433WA0142001567
B1229193743298N00355428WA0142201569
B1229203743301N00355422WA0142401572
B1229213743303N00355416WA0142601574
B1229223743305N00355410WA0142901576
B1229233743305N00355403WA0143001578
B1229243743304N00355396WA0143101579
B1229253743301N00355389WA0142701579
B1229263743296N00355384WA0142901579
B1229273743290N00355381WA0143101580
B1229283743284N00355381WA0143201581
B1229293743279N00355383WA0143401581
B1229303743274N00355386WA0143401583
B1229313743271N00355390WA0143501584
B1229323743268N00355396WA0143601584
B1229333743265N00355401WA0143601585
B1229343743263N00355407WA0143801585
B1229353743262N00355412WA0143801587
B1229363743261N00355417WA0144001588
B1229373743260N00355422WA0144201590
B1229383743260N00355426WA0144401592
B1229393743259N00355431WA0144501594
B1229403743259N00355437WA0144601595
B1229413743259N00355442WA0144801596
B1229423743260N00355448WA0145001598
B1229433743260N00355453WA0145501600
B1229443743260N00355457WA0146001604
B1229453743260N00355462WA0146301609
B1229463743260N00355466WA0146801614
B1229473743261N00355470WA0147101617
B1229483743263N00355473WA0147301619
B1229493743267N00355476WA0147501621
B1229503743271N00355477WA0147701622
B1229513743276N00355475WA0148101625
B1229523743281N00355469WA0148601629
B1229533743283N00355462WA0149101633
B1229543743282N00355454WA0149801638
B1229553743278N00355448WA0150201643
B1229563743271N00355445WA0150301646
B1229573743264N00355441WA0150701650
B1229583743258N00355436WA0151201656
B1229593743254N00355432WA0151901662
B1230003743249N00355429WA0152301668
B1230013743243N00355431WA0152701672
B1230023743237N00355436WA0152401672
B1230033743232N00355442WA0152701675
B1230043743229N00355448WA0153801683
B1230053743227N00355452WA0154401691
B1230063743226N00355456WA0154801696
B1230073743226N00355460WA0155001698
B1230083743225N00355466WA0154801699
B1230093743223N00355474WA0154601697
B1230103743222N00355482WA0154601697
B1230113743224N00355490WA0155001698
B1230123743227N00355496WA0155201700
B1230133743232N00355498WA0155401702
B1230143743237N00355497WA0155501703
B1230153743241N00355496WA0155601704
B1230163743245N00355495WA0155801706
B1230173743249N00355494WA0156001707
B1230183743252N00355492WA0156001708
B1230193743255N00355490WA0156001709
B1230203743258N00355485WA0156001710
B1230213743260N00355478WA0156201711
B1230223743260N00355470WA0156401711
B1230233743258N00355463WA0156701713
B1230243743254N00355457WA0156901717
B1230253743249N00355455WA0157201720
B1230263743244N00355456WA0157301723
B1230273743240N00355459WA0157401725
B1230283743238N00355463WA0157401726
B1230293743237N00355469WA0157301725
B1230303743237N00355476WA0157201724
B1230313743238N00355484WA0157201724
B1230323743239N00355491WA0157401725
B1230333743242N00355498WA0157701727
B1230343743246N00355502WA0157901730
B1230353743250N00355504WA0158001732
B1230363743255N00355505WA0158001734
B1230373743260N00355506WA0158201735
B1230383743266N00355505WA0158401736
B1230393743271N00355501WA0158601738
B1230403743274N00355497WA0159001741
B1230413743277N00355491WA0159401743
B1230423743278N00355486WA0159601745
B1230433743279N00355479WA0160001747
B1230443743278N00355472WA0160401751
B1230453743275N00355467WA0160801756
B1230463743271N00355463WA0161101760
B1230473743267N00355462WA0161501764
B1230483743263N00355464WA0161801768
B1230493743259N00355467WA0162201772
B1230503743256N00355471WA0162501777
B1230513743255N00355476WA0162801781
B1230523743255N00355482WA0162801784
B1230533743257N00355488WA0162901784
B1230543743260N00355495WA0163001783
B1230553743265N00355501WA0163101783
B1230563743271N00355505WA0163201784
B1230573743277N00355506WA0163401786
B1230583743283N00355503WA0163601789
B1230593743287N00355498WA0163801791
B1231003743290N00355492WA0164101793
B1231013743291N00355486WA0164501795
B1231023743291N00355480WA0164601797
B1231033743289N00355472WA0165001800
B1231043743286N00355465WA0165301803
B1231053743281N00355461WA0165901808
B1231063743276N00355460WA0166201815
B1231073743271N00355462WA0166501820
B1231083743267N00355467WA0166801823
B1231093743266N00355474WA0166701826
B1231103743267N00355480WA0167201828
B1231113743270N00355486WA0167401830
B1231123743274N00355490WA0167801833
B1231133743279N00355491WA0167901835
B1231143743284N00355490WA0168101837
B1231153743289N00355486WA0168301839
B1231163743293N00355482WA0168501841
B1231173743297N00355476WA0168901844
B1231183743300N00355471WA0169301847
B1231193743300N00355465WA0169801850
B1231203743299N00355459WA0170101854
B1231213743294N00355455WA0170301857
B1231223743289N00355451WA0170601860
B1231233743283N00355451WA0170901864
B1231243743277N00355454WA0171201867
B1231253743273N00355460WA0171501870
B1231263743271N00355467WA0171901875
B1231273743272N00355474WA0172101880
B1231283743275N00355478WA0172301883
B1231293743280N00355480WA0172501885
B1231303743285N00355481WA0172701888
B1231313743290N00355479WA0173001891
B1231323743294N00355475WA0173401894
B1231333743296N00355469WA0173701897
B1231343743296N00355463WA0174001900
B1231353743295N00355458WA0174201902
B1231363743293N00355452WA0174401905
B1231373743288N00355447WA0174501907
B1231383743283N00355444WA0174401903
B1231393743276N00355443WA0174701905
B1231403743270N00355445WA0175201907
B1231413743265N00355448WA0175501909
B1231423743261N00355454WA0175701912
B1231433743258N00355461WA0175801914
B1231443743256N00355468WA0176101916
B1231453743255N00355473WA0176201918
B1231463743256N00355477WA0176101919
B1231473743260N00355482WA0175901915
B1231483743265N00355487WA0176001913
B1231493743270N00355489WA0176201915
B1231503743274N00355489WA0176401920
B1231513743276N00355487WA0176601923
B1231523743278N00355484WA0176701925
B1231533743282N00355481WA0176701926
B1231543743287N00355479WA0176801927
B1231553743292N00355477WA0177001929
B1231563743296N00355475WA0177401932
B1231573743299N00355472WA0177701934
B1231583743301N00355468WA0178001936
B1231593743302N00355463WA0178101938
B1232003743302N00355457WA0178101940
B1232013743300N00355452WA0178201940
B1232023743297N00355447WA0178201941
B1232033743293N00355445WA0178301942
B1232043743287N00355444WA0178101943
B1232053743282N00355447WA0178001944
B1232063743276N00355451WA0177901945
B1232073743271N00355457WA0178401947
B1232083743269N00355463WA0178901949
B1232093743268N00355469WA0179301954
B1232103743267N00355476WA0179401955
B1232113743267N00355483WA0179501956
B1232123743268N00355489WA0179601958
B1232133743271N00355494WA0179801960
B1232143743276N00355497WA0179801962
B1232153743281N00355498WA0179801963
B1232163743286N00355497WA0179801965
B1232173743291N00355495WA0180001966
B1232183743295N00355494WA0180301966
B1232193743299N00355492WA0180501968
B1232203743302N00355490WA0180601969
B1232213743306N00355487WA0180801970
B1232223743310N00355483WA0180801971
B1232233743312N00355478WA0180901972
B1232243743312N00355472WA0181101973
B1232253743311N00355466WA0181201974
B1232263743309N00355461WA0181501978
B1232273743305N00355459WA0181801981
B1232283743301N00355461WA0181801983
B1232293743296N00355465WA0181701982
B1232303743292N00355470WA0181601982
B1232313743289N00355477WA0181801983
B1232323743287N00355484WA0181901984
B1232333743286N00355491WA0181901984
B1232343743287N00355499WA0182001985
B1232353743290N00355505WA0182201986
B1232363743293N00355511WA0182201988
B1232373743298N00355515WA0182201989
B1232383743304N00355517WA0182301990
B1232393743309N00355519WA0182201990
B1232403743315N00355518WA0182201990
B1232413743319N00355516WA0182101990
B1232423743324N00355513WA0181901990
B1232433743327N00355510WA0182001990
B1232443743331N00355508WA0182101990
B1232453743335N00355505WA0181901989
B1232463743340N00355502WA0181801988
B1232473743343N00355498WA0181801987
B1232483743346N00355493WA0181801987
B1232493743347N00355487WA0181801986
B1232503743347N00355481WA0182101986
B1232513743345N00355476WA0182301987
B1232523743342N00355472WA0182401991
B1232533743338N00355470WA0182601994
B1232543743335N00355469WA0182701996
B1232553743331N00355469WA0182901998
B1232563743327N00355470WA0182902000
B1232573743322N00355472WA0183002000
B1232583743318N00355477WA0182902001
B1232593743315N00355483WA0182802002
B1233003743313N00355490WA0182502003
B1233013743313N00355499WA0182502001
B1233023743316N00355507WA0182602000
B1233033743320N00355514WA0182601997
B1233043743326N00355519WA0182501997
B1233053743331N00355521WA0182601997
B1233063743335N00355522WA0182601998
B1233073743340N00355522WA0182401997
B1233083743345N00355521WA0182201995
B1233093743351N00355520WA0181901993
B1233103743358N00355518WA0181601989
B1233113743363N00355513WA0181601987
B1233123743366N00355508WA0181501985
B1233133743368N00355503WA0181501983
B1233143743371N00355497WA0181401981
B1233153743374N00355491WA0181201980
B1233163743378N00355485WA0181101978
B1233173743383N00355480WA0181001977
B1233183743388N00355476WA0181101977
B1233193743392N00355472WA0181301980
B1233203743395N00355469WA0181501982
B1233213743398N00355465WA0181701983
B1233223743402N00355461WA0181801984
B1233233743406N00355457WA0181901986
B1233243743409N00355453WA0182101988
B1233253743411N00355449WA0182201989
B1233263743413N00355443WA0182101990
B1233273743414N00355437WA0182001989
B1233283743416N00355431WA0181601989
B1233293743419N00355426WA0181601989
B1233303743421N00355422WA0181601989
B1233313743424N00355418WA0181901989
B1233323743425N00355413WA0181801989
B1233333743425N00355408WA0181701989
B1233343743425N00355403WA0181601987
B1233353743425N00355398WA0181601986
B1233363743425N00355393WA0181601986
B1233373743425N00355389WA0181701986
B1233383743428N00355384WA0181501985
B1233393743432N00355379WA0181301984
B1233403743436N00355374WA0181101983
B1233413743440N00355368WA0181101983
B1233423743442N00355362WA0181101982
B1233433743443N00355356WA0181301983
B1233443743445N00355352WA0181401983
B1233453743448N00355347WA0181301984
B1233463743452N00355344WA0181201984
B1233473743456N00355340WA0181101982
B1233483743461N00355335WA0181101982
B1233493743466N00355331WA0181001981
B1233503743471N00355327WA0181101981
B1233513743475N00355323WA0181201982
B1233523743478N00355320WA0181101982
B1233533743482N00355316WA0180901982
B1233543743487N00355313WA0180801981
B1233553743493N00355310WA0180601980
B1233563743499N00355307WA0180501978
B1233573743506N00355303WA0180501977
B1233583743511N00355297WA0180601977
B1233593743516N00355291WA0180801978
B1234003743519N00355284WA0181001980
B1234013743521N00355277WA0181301982
B1234023743522N00355271WA0181501985
B1234033743522N00355264WA0181701988
B1234043743521N00355257WA0181801989
B1234053743519N00355251WA0181801990
B1234063743515N00355247WA0181901990
B1234073743511N00355245WA0182001991
B1234083743506N00355245WA0182101992
B1234093743504N00355248WA0182101994
B1234103743502N00355253WA0182001994
B1234113743502N00355259WA0181901993
B1234123743504N00355266WA0181701990
B1234133743507N00355273WA0181501988
B1234143743512N00355278WA0181501988
B1234153743519N00355281WA0181501987
B1234163743525N00355282WA0181701988
B1234173743532N00355282WA0181901989
B1234183743539N00355281WA0182201992
B1234193743546N00355280WA0182301995
B1234203743552N00355278WA0182501997
B1234213743558N00355275WA0182701999
B1234223743564N00355271WA0182702000
B1234233743569N00355265WA0182802001
B1234243743573N00355259WA0182802002
B1234253743575N00355252WA0183002003
B1234263743577N00355244WA0183002004
B1234273743578N00355238WA0183102005
B1234283743579N00355231WA0183202006
B1234293743578N00355225WA0183202006
B1234303743577N00355219WA0183202006
B1234313743575N00355213WA0183102005
B1234323743572N00355209WA0182902006
B1234333743568N00355206WA0183202006
B1234343743564N00355204WA0183402007
B1234353743560N00355204WA0183602007
B1234363743556N00355205WA0183702008
B1234373743553N00355207WA0183902011
B1234383743552N00355210WA0184202013
B1234393743551N00355214WA0184302015
B1234403743551N00355218WA0184402016
B1234413743552N00355222WA0184602018
B1234423743554N00355226WA0184802020
B1234433743557N00355230WA0184802021
B1234443743562N00355234WA0184902021
B1234453743567N00355237WA0185002022
B1234463743573N00355240WA0185102023
B1234473743579N00355242WA0185402026
B1234483743585N00355243WA0185602028
B1234493743591N00355242WA0185802030
B1234503743596N00355240WA0185902032
B1234513743601N00355237WA0185902033
B1234523743605N00355232WA0185602034
B1234533743609N00355226WA0185202035
B1234543743611N00355219WA0185402035
B1234553743612N00355211WA0185602035
B1234563743612N00355204WA0185702034
B1234573743611N00355199WA0185802035
B1234583743609N00355195WA0185902035
B1234593743605N00355192WA0186002036
B1235003743602N00355192WA0186002036
B1235013743599N00355193WA0186002036
B1235023743596N00355196WA0185802037
B1235033743594N00355201WA0185802035
B1235043743594N00355207WA0186102035
B1235053743594N00355213WA0186402036
B1235063743596N00355218WA0186502037
B1235073743599N00355223WA0186702038
B1235083743603N00355228WA0186802039
B1235093743607N00355231WA0186802039
B1235103743613N00355235WA0186902040
B1235113743618N00355237WA0186902040
B1235123743624N00355239WA0186802041
B1235133743630N00355240WA0186902041
B1235143743636N00355241WA0186902041
B1235153743643N00355240WA0186902042
B1235163743649N00355239WA0187102042
B1235173743655N00355237WA0187102043
B1235183743661N00355236WA0187102044
B1235193743667N00355233WA0187002044
B1235203743672N00355229WA0187002043
B1235213743677N00355223WA0187002043
B1235223743681N00355218WA0187002043
B1235233743685N00355212WA0187002043
B1235243743689N00355208WA0187002044
B1235253743694N00355205WA0186902043
B1235263743698N00355200WA0186802042
B1235273743702N00355195WA0186702041
B1235283743706N00355188WA0186502039
B1235293743709N00355181WA0186402038
B1235303743711N00355175WA0186402038
B1235313743712N00355168WA0186402038
B1235323743714N00355160WA0186402038
B1235333743715N00355153WA0186402038
B1235343743716N00355144WA0186402038
B1235353743718N00355136WA0186502037
B1235363743719N00355128WA0186802039
B1235373743721N00355122WA0187202043
B1235383743721N00355117WA0187502048
B1235393743721N00355113WA0187702051
B1235403743720N00355107WA0187802053
B1235413743718N00355100WA0187902055
B1235423743715N00355094WA0187902055
B1235433743711N00355089WA0188002055
B1235443743706N00355085WA0188102057
B1235453743702N00355083WA0188202058
B1235463743697N00355082WA0188402059
B1235473743692N00355081WA0188502060
B1235483743688N00355081WA0188602061
B1235493743683N00355082WA0188802063
B1235503743679N00355085WA0189002064
B1235513743675N00355089WA0189302066
B1235523743672N00355094WA0189402068
B1235533743671N00355100WA0189702070
B1235543743672N00355106WA0189902072
B1235553743674N00355111WA0190002074
B1235563743678N00355114WA0190102075
B1235573743682N00355116WA0190102075
B1235583743688N00355115WA0190102076
B1235593743694N00355113WA0190202077
B1236003743699N00355109WA0190502078
B1236013743702N00355105WA0190802080
B1236023743703N00355099WA0190802081
B1236033743702N00355094WA0190702083
B1236043743700N00355089WA0190902083
B1236053743696N00355085WA0191102083
B1236063743691N00355082WA0191302084
B1236073743686N00355079WA0191402085
B1236083743681N00355078WA0191702087
B1236093743676N00355079WA0191902089
B1236103743672N00355081WA0192002091
B1236113743669N00355084WA0192202093
B1236123743667N00355087WA0192202095
B1236133743665N00355091WA0192202097
B1236143743663N00355098WA0192302097
B1236153743662N00355104WA0192302095
B1236163743661N00355111WA0192302096
B1236173743661N00355118WA0192402097
B1236183743663N00355124WA0192402097
B1236193743666N00355130WA0192302097
B1236203743670N00355135WA0192102097
B1236213743676N00355138WA0192002094
B1236223743682N00355139WA0191802093
B1236233743688N00355138WA0191802092
B1236243743694N00355136WA0191702091
B1236253743699N00355133WA0191702090
B1236263743703N00355130WA0191502089
B1236273743707N00355125WA0191302087
B1236283743711N00355119WA0191102085
B1236293743715N00355112WA0191002083
B1236303743719N00355106WA0191002082
B1236313743723N00355099WA0191002082
B1236323743725N00355092WA0191202083
B1236333743726N00355085WA0191202083
B1236343743727N00355078WA0191202084
B1236353743727N00355071WA0191302085
B1236363743727N00355063WA0191302086
B1236373743726N00355056WA0191402087
B1236383743725N00355049WA0191502088
B1236393743722N00355042WA0191702090
B1236403743719N00355036WA0191802091
B1236413743715N00355032WA0192002092
B1236423743711N00355029WA0192202094
B1236433743707N00355027WA0192302096
B1236443743702N00355027WA0192402097
B1236453743696N00355027WA0192502098
B1236463743691N00355029WA0192602099
B1236473743686N00355032WA0192802101
B1236483743683N00355036WA0192902103
B1236493743681N00355042WA0193102104
B1236503743681N00355048WA0193202105
B1236513743681N00355054WA0193302106
B1236523743683N00355061WA0193502107
B1236533743687N00355067WA0193702109
B1236543743691N00355071WA0193802111
B1236553743697N00355073WA0193902111
B1236563743703N00355074WA0193802112
B1236573743708N00355073WA0193802112
B1236583743713N00355070WA0193902112
B1236593743718N00355066WA0193902113
B1237003743722N00355062WA0194102113
B1237013743726N00355057WA0194102114
B1237023743730N00355052WA0194102114
B1237033743734N00355047WA0194102115
B1237043743738N00355041WA0194202115
B1237053743740N00355034WA0194302116
B1237063743742N00355027WA0194402117
B1237073743742N00355021WA0194402118
B1237083743742N00355014WA0194502119
B1237093743741N00355007WA0194602119
B1237103743740N00355001WA0194602119
B1237113743738N00354995WA0194602120
B1237123743736N00354989WA0194702121
B1237133743733N00354984WA0194902122
B1237143743730N00354980WA0195002123
B1237153743726N00354977WA0195102124
B1237163743721N00354977WA0195102125
B1237173743717N00354978WA0195202126
B1237183743713N00354981WA0195402127
B1237193743709N00354986WA0195702130
B1237203743707N00354991WA0195802132
B1237213743705N00354997WA0196002134
B1237223743705N00355003WA0196102135
B1237233743706N00355008WA0196202136
B1237243743708N00355014WA0196302137
B1237253743712N00355018WA0196302138
B1237263743716N00355022WA0196202138
B1237273743719N00355026WA0196202138
B1237283743723N00355031WA0196202138
B1237293743727N00355036WA0196102137
B1237303743732N00355041WA0196002136
B1237313743736N00355047WA0196002135
B1237323743740N00355052WA0196102135
B1237333743744N00355057WA0196202134
B1237343743748N00355062WA0196302135
B1237353743751N00355066WA0196302136
B1237363743755N00355074WA0196302136
B1237373743759N00355080WA0196202136
B1237383743763N00355087WA0196202136
B1237393743767N00355092WA0196402136
B1237403743771N00355096WA0196502137
B1237413743776N00355099WA0196502138
B1237423743782N00355100WA0196402138
B1237433743790N00355099WA0196402137
B1237443743796N00355096WA0196402137
B1237453743803N00355092WA0196502137
B1237463743808N00355087WA0196602138
B1237473743813N00355082WA0196702138
B1237483743817N00355076WA0196802139
B1237493743820N00355070WA0196902140
B1237503743822N00355063WA0196802141
B1237513743824N00355056WA0196702139
B1237523743824N00355048WA0196602139
B1237533743824N00355040WA0196702139
B1237543743824N00355032WA0196802141
B1237553743825N00355025WA0197002142
B1237563743827N00355018WA0197002144
B1237573743829N00355011WA0197102145
B1237583743832N00355005WA0197002145
B1237593743834N00354998WA0196902145
B1238003743836N00354990WA0196902145
B1238013743838N00354982WA0196802144
B1238023743839N00354975WA0196902144
B1238033743841N00354968WA0196802145
B1238043743843N00354961WA0196802144
B1238053743845N00354955WA0196702144
B1238063743847N00354947WA0196602144
B1238073743850N00354940WA0196502143
B1238083743853N00354933WA0196502143
B1238093743856N00354926WA0196502143
B1238103743858N00354920WA0196502143
B1238113743860N00354913WA0196502142
B1238123743862N00354906WA0196402141
B1238133743863N00354898WA0196402141
B1238143743863N00354892WA0196402141
B1238153743861N00354887WA0196402140
B1238163743858N00354883WA0196302140
B1238173743854N00354880WA0196202139
B1238183743851N00354878WA0196102139
B1238193743847N00354877WA0195802138
B1238203743843N00354878WA0196002138
B1238213743840N00354879WA0196202138
B1238223743837N00354881WA0196202138
B1238233743835N00354883WA0196202137
B1238243743833N00354886WA0196202137
B1238253743831N00354889WA0196102137
B1238263743829N00354893WA0196102137
B1238273743827N00354897WA0196202137
B1238283743826N00354902WA0196302138
B1238293743826N00354906WA0196402139
B1238303743827N00354910WA0196402139
B1238313743828N00354915WA0196302139
B1238323743831N00354919WA0196202138
B1238333743833N00354923WA0196102138
B1238343743837N00354927WA0196102137
B1238353743841N00354930WA0196102137
B1238363743845N00354934WA0196002136
B1238373743849N00354936WA0195902136
B1238383743853N00354938WA0195902135
B1238393743858N00354939WA0195702134
B1238403743864N00354939WA0195602132
B1238413743870N00354938WA0195502131
B1238423743876N00354936WA0195302129
B1238433743882N00354932WA0195102128
B1238443743888N00354926WA0195002127
B1238453743893N00354920WA0195002125
B1238463743898N00354914WA0195102125
B1238473743902N00354909WA0195102125
B1238483743906N00354904WA0195002125
B1238493743910N00354898WA0194802124
B1238503743914N00354891WA0194602122
B1238513743918N00354884WA0194402120
B1238523743922N00354877WA0194302119
B1238533743925N00354870WA0194402119
B1238543743928N00354864WA0194302120
B1238553743930N00354858WA0194202119
B1238563743933N00354852WA0194102118
B1238573743936N00354845WA0193902117
B1238583743941N00354839WA0193702115
B1238593743945N00354833WA0193602114
B1239003743950N00354826WA0193602113
B1239013743953N00354819WA0193602111
B1239023743956N00354811WA0193602111
B1239033743958N00354804WA0193702112
B1239043743961N00354797WA0193702113
B1239053743963N00354791WA0193702113
B1239063743966N00354783WA0193502113
B1239073743969N00354775WA0193502112
B1239083743971N00354766WA0193402111
B1239093743974N00354757WA0193402111
B1239103743978N00354748WA0193402110
B1239113743982N00354740WA0193602112
B1239123743986N00354733WA0193602113
B1239133743990N00354726WA0193602114
B1239143743994N00354718WA0193602114
B1239153743998N00354710WA0193602114
B1239163744002N00354703WA0193602113
B1239173744005N00354695WA0193602113
B1239183744008N00354688WA0193702114
B1239193744011N00354681WA0193602114
B1239203744014N00354674WA0193502113
B1239213744017N00354666WA0193102112
B1239223744020N00354657WA0192602109
B1239233744024N00354646WA0192502107
B1239243744027N00354635WA0192302104
B1239253744030N00354625WA0192502103
B1239263744034N00354617WA0192502104
B1239273744039N00354611WA0192602105
B1239283744043N00354608WA0192702106
B1239293744046N00354605WA0192602105
B1239303744049N00354601WA0192302103
B1239313744052N00354593WA0191702100
B1239323744054N00354585WA0191202097
B1239333744055N00354577WA0191002093
B1239343744056N00354572WA0191002093
B1239353744058N00354569WA0191002092
B1239363744059N00354566WA0190702089
B1239373744060N00354562WA0190102085
B1239383744061N00354556WA0189302081
B1239393744062N00354549WA0189002076
B1239403744064N00354541WA0188302071
B1239413744067N00354533WA0188202066
B1239423744069N00354527WA0188102064
B1239433744070N00354522WA0188102062
B1239443744071N00354517WA0187802059
B1239453744072N00354512WA0187602056
B1239463744073N00354507WA0187402053
B1239473744075N00354502WA0187102050
B1239483744077N00354496WA0186902047
B1239493744080N00354491WA0186802044
B1239503744082N00354485WA0186702042
B1239513744084N00354480WA0186502040
B1239523744086N00354475WA0186402039
B1239533744088N00354469WA0186302037
B1239543744090N00354463WA0186102036
B1239553744093N00354457WA0185902034
B1239563744096N00354451WA0185702031
B1239573744099N00354444WA0185602029
B1239583744102N00354439WA0185502029
B1239593744104N00354433WA0185402028
B1240003744106N00354428WA0185302027
B1240013744109N00354422WA0185102025
B1240023744112N00354416WA0185002024
B1240033744115N00354410WA0184902022
B1240043744118N00354404WA0184702021
B1240053744120N00354399WA0184602019
B1240063744122N00354393WA0184502018
B1240073744124N00354387WA0184302016
B1240083744125N00354381WA0184302014
B1240093744127N00354375WA0184202014
B1240103744127N00354370WA0184202013
B1240113744128N00354366WA0184102013
B1240123744128N00354362WA0184002012
B1240133744127N00354358WA0183802011
B1240143744126N00354353WA0183702010
B1240153744125N00354349WA0183602009
B1240163744124N00354345WA0183502007
B1240173744124N00354341WA0183402006
B1240183744123N00354337WA0183302005
B1240193744124N00354332WA0183102003
B1240203744124N00354326WA0183002002
B1240213744125N00354320WA0182902000
B1240223744126N00354314WA0182901999
B1240233744127N00354309WA0182701998
B1240243744129N00354304WA0182601997
B1240253744130N00354299WA0182501996
B1240263744131N00354293WA0182501995
B1240273744133N00354287WA0182401994
B1240283744134N00354280WA0182301993
B1240293744136N00354274WA0182301992
B1240303744137N00354269WA0182201991
B1240313744138N00354263WA0182101990
B1240323744139N00354258WA0182001989
B1240333744140N00354253WA0181901988
B1240343744141N00354248WA0181801987
B1240353744141N00354244WA0181701986
B1240363744141N00354239WA0181501984
B1240373744141N00354234WA0181401983
B1240383744141N00354230WA0181201981
B1240393744141N00354226WA0181101979
B1240403744141N00354222WA0180901978
B1240413744140N00354218WA0180901977
B1240423744140N00354213WA0180701975
B1240433744141N00354207WA0180501974
B1240443744142N00354202WA0180401972
B1240453744143N00354196WA0180201971
B1240463744144N00354191WA0179801969
B1240473744144N00354186WA0179501967
B1240483744144N00354180WA0179501966
B1240493744144N00354174WA0179501964
B1240503744144N00354168WA0179501963
B1240513744144N00354161WA0179501963
B1240523744145N00354155WA0179401962
B1240533744146N00354149WA0179301961
B1240543744146N00354143WA0179201960
B1240553744144N00354136WA0179001959
B1240563744142N00354130WA0178901957
B1240573744139N00354125WA0178801956
B1240583744136N00354120WA0178901958
B1240593744135N00354115WA0179001958
B1241003744134N00354110WA0179001959
B1241013744134N00354104WA0178901959
B1241023744135N00354097WA0178701958
B1241033744135N00354090WA0178601956
B1241043744135N00354084WA0178601956
B1241053744135N00354079WA0178701956
B1241063744135N00354074WA0178601956
B1241073744135N00354069WA0178401955
B1241083744136N00354062WA0178201954
B1241093744136N00354055WA0177801952
B1241103744137N00354047WA0177501949
B1241113744139N00354039WA0177301947
B1241123744141N00354032WA0177401946
B1241133744145N00354025WA0177501945
B1241143744148N00354019WA0177401944
B1241153744151N00354012WA0177301943
B1241163744153N00354005WA0177201942
B1241173744154N00353999WA0177101942
B1241183744155N00353992WA0177101941
B1241193744157N00353986WA0177001941
B1241203744158N00353980WA0176901940
B1241213744159N00353973WA0176701938
B1241223744160N00353965WA0176501937
B1241233744161N00353958WA0176401935
B1241243744162N00353951WA0176401935
B1241253744163N00353945WA0176401936
B1241263744164N00353939WA0176401936
B1241273744166N00353933WA0176401935
B1241283744167N00353925WA0176201933
B1241293744169N00353918WA0176001932
B1241303744170N00353910WA0175901930
B1241313744172N00353903WA0175801929
B1241323744174N00353896WA0175801928
B1241333744176N00353889WA0175601927
B1241343744177N00353882WA0175301926
B1241353744179N00353874WA0175101925
B1241363744181N00353866WA0175201923
B1241373744184N00353858WA0175301922
B1241383744187N00353851WA0175201922
B1241393744189N00353844WA0175201921
B1241403744191N00353836WA0175201920
B1241413744192N00353829WA0175101920
B1241423744194N00353822WA0175001919
B1241433744196N00353815WA0174901918
B1241443744198N00353808WA0174901917
B1241453744200N00353800WA0174801916
B1241463744202N00353793WA0174901916
B1241473744203N00353786WA0174801916
B1241483744203N00353780WA0174801916
B1241493744203N00353774WA0174801915
B1241503744202N00353768WA0174701915
B1241513744201N00353762WA0174601914
B1241523744201N00353755WA0174601914
B1241533744201N00353748WA0174601913
B1241543744201N00353742WA0174501913
B1241553744201N00353735WA0174401912
B1241563744201N00353729WA0174401912
B1241573744201N00353723WA0174301911
B1241583744200N00353716WA0174201911
B1241593744200N00353709WA0174101910
B1242003744201N00353702WA0173801909
B1242013744201N00353693WA0173501907
B1242023744202N00353684WA0173301905
B1242033744202N00353674WA0173101903
B1242043744202N00353665WA0173001901
B1242053744202N00353656WA0172901900
B1242063744202N00353648WA0172901899
B1242073744202N00353639WA0172601898
B1242083744203N00353629WA0172401897
B1242093744204N00353619WA0172601895
B1242103744205N00353610WA0172601894
B1242113744205N00353600WA0172501894
B1242123744205N00353590WA0172401894
B1242133744206N00353580WA0172401893
B1242143744207N00353570WA0172301893
B1242153744209N00353560WA0172301892
B1242163744209N00353550WA0172201891
B1242173744210N00353540WA0172001890
B1242183744210N00353529WA0171801889
B1242193744211N00353519WA0171801887
B1242203744212N00353508WA0171701886
B1242213744212N00353497WA0171701885
B1242223744212N00353487WA0171701885
B1242233744212N00353477WA0171701885
B1242243744212N00353467WA0171701885
B1242253744213N00353458WA0171601885
B1242263744214N00353447WA0171401883
B1242273744214N00353436WA0171101882
B1242283744214N00353425WA0171101879
B1242293744214N00353414WA0171201879
B1242303744216N00353405WA0171301879
B1242313744218N00353397WA0171301880
B1242323744220N00353389WA0171201880
B1242333744221N00353381WA0171101879
B1242343744221N00353372WA0170801877
B1242353744221N00353364WA0170501875
B1242363744222N00353356WA0170501872
B1242373744222N00353349WA0170301871
B1242383744222N00353342WA0170101869
B1242393744222N00353335WA0169901867
B1242403744222N00353328WA0169501865
B1242413744221N00353321WA0169401861
B1242423744220N00353315WA0169001858
B1242433744218N00353308WA0168701855
B1242443744216N00353301WA0168401851
B1242453744215N00353293WA0168101848
B1242463744214N00353285WA0167801844
B1242473744213N00353277WA0167601841
B1242483744212N00353268WA0167301838
B1242493744211N00353260WA0167101835
B1242503744211N00353253WA0166901834
B1242513744210N00353245WA0166601831
B1242523744209N00353237WA0166101828
B1242533744208N00353229WA0165701825
B1242543744207N00353220WA0165601822
B1242553744206N00353211WA0165501819
B1242563744206N00353203WA0165401817
B1242573744205N00353195WA0165501818
B1242583744205N00353189WA0165501818
B1242593744204N00353181WA0165201817
B1243003744203N00353173WA0164801815
B1243013744202N00353164WA0164601814
B1243023744201N00353156WA0164401810
B1243033744200N00353149WA0164301808
B1243043744199N00353142WA0164001805
B1243053744198N00353135WA0163801803
B1243063744197N00353128WA0163501800
B1243073744196N00353120WA0163201797
B1243083744194N00353112WA0163001794
B1243093744193N00353104WA0162901791
B1243103744192N00353097WA0162801790
B1243113744191N00353091WA0162501788
B1243123744189N00353084WA0162301785
B1243133744187N00353078WA0162101783
B1243143744185N00353071WA0161801780
B1243153744182N00353064WA0161601776
B1243163744180N00353056WA0161301774
B1243173744178N00353050WA0161201772
B1243183744175N00353043WA0161001770
B1243193744172N00353037WA0160901768
B1243203744170N00353030WA0160601766
B1243213744168N00353023WA0160601764
B1243223744166N00353017WA0160501763
B1243233744163N00353010WA0160401761
B1243243744161N00353004WA0160301760
B1243253744158N00352998WA0160201760
B1243263744154N00352993WA0160101759
B1243273744151N00352987WA0160101759
B1243283744147N00352982WA0159901758
B1243293744144N00352976WA0159801757
B1243303744141N00352970WA0159601756
B1243313744138N00352963WA0159501754
B1243323744135N00352955WA0159301753
B1243333744132N00352947WA0159201751
B1243343744130N00352939WA0159201750
B1243353744129N00352931WA0159201751
B1243363744129N00352923WA0159101750
B1243373744129N00352915WA0159001750
B1243383744129N00352907WA0158701750
B1243393744128N00352899WA0158601749
B1243403744128N00352890WA0158901749
B1243413744128N00352881WA0159001748
B1243423744129N00352874WA0159301750
B1243433744129N00352867WA0159401752
B1243443744129N00352861WA0159401753
B1243453744129N00352854WA0159301752
B1243463744129N00352845WA0159201751
B1243473744129N00352837WA0159001750
B1243483744128N00352829WA0159001749
B1243493744127N00352823WA0158901749
B1243503744127N00352817WA0158801748
B1243513744126N00352811WA0158601747
B1243523744126N00352803WA0158201745
B1243533744124N00352795WA0158001743
B1243543744123N00352786WA0157801740
B1243553744121N00352778WA0157601738
B1243563744120N00352769WA0157501736
B1243573744120N00352761WA0157101734
B1243583744119N00352753WA0157101733
B1243593744118N00352746WA0157001732
B1244003744116N00352740WA0156901731
B1244013744113N00352734WA0156701729
B1244023744111N00352728WA0156501726
B1244033744109N00352720WA0156201723
B1244043744108N00352713WA0155801718
B1244053744107N00352704WA0155301715
B1244063744106N00352696WA0155101711
B1244073744105N00352687WA0154901708
B1244083744105N00352679WA0154701706
B1244093744106N00352671WA0154501703
B1244103744107N00352663WA0154301700
B1244113744108N00352655WA0154201698
B1244123744108N00352646WA0154101696
B1244133744108N00352638WA0153901694
B1244143744108N00352630WA0153701692
B1244153744109N00352622WA0153501690
B1244163744109N00352614WA0153101687
B1244173744110N00352605WA0152901684
B1244183744110N00352596WA0152601682
B1244193744111N00352587WA0152401679
B1244203744111N00352578WA0152001677
B1244213744113N00352569WA0151701674
B1244223744114N00352561WA0151401672
B1244233744116N00352553WA0151001669
B1244243744118N00352544WA0150801666
B1244253744120N00352536WA0150601663
B1244263744122N00352527WA0150401661
B1244273744124N00352520WA0150401660
B1244283744127N00352514WA0150401659
B1244293744129N00352509WA0150401658
B1244303744130N00352505WA0150301658
B1244313744131N00352498WA0150201657
B1244323744132N00352490WA0150001655
B1244333744132N00352479WA0149901654
B1244343744132N00352469WA0150101654
B1244353744132N00352461WA0150401658
B1244363744131N00352454WA0150701662
B1244373744130N00352447WA0150801663
B1244383744128N00352439WA0150901664
B1244393744124N00352432WA0151001664
B1244403744119N00352425WA0151201665
B1244413744113N00352419WA0151401666
B1244423744107N00352414WA0151601668
B1244433744101N00352411WA0151601669
B1244443744097N00352411WA0151401669
B1244453744093N00352411WA0151201668
B1244463744090N00352413WA0150801667
B1244473744088N00352415WA0150601661
B1244483744087N00352418WA0150301657
B1244493744088N00352420WA0149901654
B1244503744089N00352421WA0149701652
B1244513744091N00352421WA0149601651
B1244523744093N00352420WA0149501650
B1244533744096N00352417WA0149301648
B1244543744099N00352414WA0149101647
B1244553744103N00352409WA0149001645
B1244563744107N00352404WA0149001643
B1244573744112N00352400WA0149101643
B1244583744117N00352398WA0149401645
B1244593744120N00352396WA0149801649
B1245003744123N00352394WA0150101652
B1245013744126N00352392WA0150301655
B1245023744130N00352388WA0150701658
B1245033744133N00352384WA0151001661
B1245043744136N00352378WA0151201664
B1245053744139N00352371WA0151501667
B1245063744140N00352365WA0151701670
B1245073744141N00352357WA0152001673
B1245083744142N00352349WA0152301675
B1245093744140N00352341WA0152501677
B1245103744136N00352333WA0152601679
B1245113744131N00352329WA0152701680
B1245123744124N00352327WA0152801681
B1245133744119N00352330WA0152901682
B1245143744115N00352334WA0153201684
B1245153744115N00352339WA0153501686
B1245163744117N00352342WA0153901689
B1245173744121N00352341WA0154101693
B1245183744124N00352339WA0154301696
B1245193744128N00352334WA0154601699
B1245203744130N00352328WA0154901702
B1245213744132N00352321WA0155101705
B1245223744133N00352312WA0155201707
B1245233744132N00352302WA0155401709
B1245243744131N00352293WA0155601711
B1245253744129N00352284WA0155601714
B1245263744125N00352278WA0155701716
B1245273744121N00352273WA0155901718
B1245283744115N00352270WA0155801718
B1245293744108N00352270WA0155601716
B1245303744103N00352274WA0155601715
B1245313744099N00352278WA0155801714
B1245323744096N00352283WA0156001715
B1245333744094N00352287WA0156201718
B1245343744093N00352289WA0156401721
B1245353744093N00352292WA0156601722
B1245363744094N00352294WA0156801724
B1245373744096N00352295WA0156901725
B1245383744098N00352295WA0157101727
B1245393744099N00352293WA0157201729
B1245403744102N00352290WA0157101728
B1245413744106N00352286WA0156901728
B1245423744111N00352281WA0156901727
B1245433744115N00352275WA0156901727
B1245443744118N00352269WA0157201728
B1245453744120N00352262WA0157201729
B1245463744122N00352255WA0157201730
B1245473744123N00352247WA0157201730
B1245483744125N00352238WA0157101730
B1245493744128N00352228WA0157101730
B1245503744131N00352217WA0157101730
B1245513744133N00352207WA0157201730
B1245523744133N00352198WA0157201732
B1245533744132N00352189WA0157201733
B1245543744128N00352181WA0157001732
B1245553744123N00352174WA0156801733
B1245563744118N00352169WA0156901732
B1245573744113N00352164WA0156801731
B1245583744108N00352161WA0156801730
B1245593744103N00352159WA0156801729
B1246003744097N00352158WA0156801728
B1246013744092N00352158WA0156901728
B1246023744088N00352159WA0157101728
B1246033744085N00352161WA0157101729
B1246043744083N00352164WA0156901729
B1246053744084N00352168WA0156801729
B1246063744087N00352172WA0156501727
B1246073744093N00352173WA0156501725
B1246083744100N00352170WA0156601724
B1246093744105N00352165WA0157001726
B1246103744109N00352159WA0157201730
B1246113744110N00352153WA0157401733
B1246123744111N00352147WA0157301733
B1246133744113N00352140WA0156901733
B1246143744116N00352132WA0156501732
B1246153744120N00352123WA0156501732
B1246163744124N00352114WA0156301731
B1246173744127N00352106WA0156301730
B1246183744130N00352098WA0156201728
B1246193744133N00352091WA0156101726
B1246203744135N00352084WA0156001724
B1246213744138N00352075WA0155801723
B1246223744140N00352066WA0155801721
B1246233744143N00352058WA0155801721
B1246243744146N00352050WA0155901720
B1246253744148N00352043WA0155701719
B1246263744150N00352034WA0155501718
B1246273744151N00352025WA0155201717
B1246283744153N00352016WA0154801714
B1246293744155N00352007WA0154601710
B1246303744157N00351998WA0154401706
B1246313744158N00351991WA0154401704
B1246323744159N00351983WA0154201702
B1246333744159N00351977WA0154001700
B1246343744159N00351970WA0153501698
B1246353744158N00351962WA0153101694
B1246363744159N00351954WA0152701691
B1246373744160N00351945WA0152101687
B1246383744163N00351937WA0151701683
B1246393744166N00351929WA0151401679
B1246403744168N00351922WA0151201676
B1246413744169N00351915WA0151001673
B1246423744171N00351908WA0150501669
B1246433744172N00351901WA0150101664
B1246443744174N00351893WA0149701660
B1246453744176N00351885WA0149601655
B1246463744177N00351877WA0149501653
B1246473744178N00351869WA0149601653
B1246483744178N00351862WA0149601653
B1246493744179N00351854WA0149501652
B1246503744180N00351845WA0149101651
B1246513744183N00351837WA0149101650
B1246523744185N00351829WA0149501650
B1246533744186N00351821WA0149901651
B1246543744186N00351813WA0150501653
B1246553744186N00351806WA0150801660
B1246563744183N00351799WA0151101663
B1246573744179N00351793WA0151201664
B1246583744174N00351787WA0151201665
B1246593744167N00351784WA0151301666
B1247003744161N00351783WA0151401668
B1247013744155N00351783WA0151601670
B1247023744150N00351786WA0151701672
B1247033744147N00351791WA0151801673
B1247043744146N00351797WA0151901673
B1247053744147N00351803WA0152001674
B1247063744150N00351806WA0152201676
B1247073744153N00351807WA0152201677
B1247083744156N00351807WA0152201677
B1247093744160N00351805WA0152001678
B1247103744164N00351801WA0152001678
B1247113744169N00351796WA0152001677
B1247123744174N00351790WA0152301678
B1247133744177N00351784WA0152601679
B1247143744180N00351778WA0152901681
B1247153744182N00351772WA0153301685
B1247163744183N00351765WA0153601687
B1247173744184N00351759WA0153701689
B1247183744183N00351752WA0153501689
B1247193744180N00351745WA0153401689
B1247203744175N00351738WA0153301688
B1247213744169N00351733WA0153001688
B1247223744162N00351730WA0152801688
B1247233744156N00351729WA0153201689
B1247243744151N00351729WA0153401690
B1247253744147N00351730WA0153601691
B1247263744143N00351731WA0153601691
B1247273744138N00351734WA0153601692
B1247283744135N00351737WA0153601692
B1247293744131N00351741WA0153701692
B1247303744128N00351747WA0153701693
B1247313744125N00351752WA0153701694
B1247323744124N00351756WA0154101695
B1247333744123N00351760WA0154101698
B1247343744124N00351764WA0154001698
B1247353744127N00351766WA0154101698
B1247363744131N00351768WA0153801695
B1247373744136N00351767WA0153701693
B1247383744140N00351763WA0153601691
B1247393744143N00351758WA0153601690
B1247403744146N00351753WA0153801691
B1247413744147N00351748WA0153901691
B1247423744148N00351742WA0153901691
B1247433744149N00351736WA0153701691
B1247443744150N00351730WA0153701691
B1247453744152N00351723WA0153701692
B1247463744154N00351716WA0153701692
B1247473744155N00351710WA0153801693
B1247483744156N00351703WA0153801693
B1247493744157N00351696WA0153901693
B1247503744158N00351688WA0154101693
B1247513744159N00351680WA0154201696
B1247523744162N00351674WA0154401700
B1247533744164N00351669WA0154801702
B1247543744166N00351663WA0155201705
B1247553744168N00351657WA0155401708
B1247563744169N00351650WA0155601710
B1247573744169N00351641WA0155901712
B1247583744166N00351633WA0156101714
B1247593744163N00351625WA0156501716
B1248003744157N00351619WA0156801720
B1248013744152N00351617WA0157201724
B1248023744147N00351616WA0157501728
B1248033744143N00351618WA0157501731
B1248043744140N00351621WA0157601733
B1248053744138N00351625WA0157901736
B1248063744137N00351629WA0158301738
B1248073744138N00351633WA0158601741
B1248083744141N00351636WA0158701743
B1248093744146N00351636WA0159001745
B1248103744151N00351635WA0159301748
B1248113744156N00351632WA0159601751
B1248123744160N00351627WA0159901753
B1248133744163N00351622WA0160201756
B1248143744165N00351616WA0160501758
B1248153744168N00351609WA0160701762
B1248163744170N00351601WA0161201767
B1248173744169N00351593WA0161601772
B1248183744167N00351585WA0162001776
B1248193744163N00351577WA0162501779
B1248203744158N00351570WA0163001784
B1248213744153N00351565WA0163501789
B1248223744147N00351564WA0164201796
B1248233744143N00351565WA0164401800
B1248243744140N00351570WA0164601804
B1248253744139N00351575WA0164701807
B1248263744139N00351580WA0165001810
B1248273744141N00351583WA0165401814
B1248283744144N00351585WA0165601817
B1248293744149N00351586WA0165901819
B1248303744154N00351586WA0166101821
B1248313744160N00351585WA0166701825
B1248323744164N00351580WA0167201829
B1248333744166N00351574WA0167601832
B1248343744166N00351565WA0167901835
B1248353744163N00351555WA0168201838
B1248363744158N00351548WA0168701843
B1248373744153N00351543WA0169201850
B1248383744148N00351543WA0169501855
B1248393744143N00351545WA0169901859
B1248403744139N00351549WA0170301863
B1248413744137N00351553WA0170701867
B1248423744136N00351557WA0171201871
B1248433744137N00351561WA0171401876
B1248443744141N00351564WA0171601878
B1248453744146N00351564WA0171801880
B1248463744152N00351561WA0172201883
B1248473744156N00351555WA0172701887
B1248483744159N00351548WA0173201891
B1248493744158N00351540WA0173701896
B1248503744156N00351533WA0174001900
B1248513744152N00351528WA0174201905
B1248523744148N00351524WA0174701909
B1248533744142N00351521WA0175001913
B1248543744136N00351521WA0175401917
B1248553744131N00351523WA0175701920
B1248563744126N00351526WA0176101925
B1248573744124N00351530WA0176401929
B1248583744122N00351534WA0176701933
B1248593744122N00351538WA0176901936
B1249003744124N00351542WA0176801937
B1249013744128N00351547WA0176701937
B1249023744134N00351552WA0176901936
B1249033744139N00351554WA0177101938
B1249043744144N00351555WA0177501941
B1249053744149N00351555WA0177901945
B1249063744153N00351554WA0178201948
B1249073744157N00351552WA0178501950
B1249083744160N00351549WA0178801953
B1249093744163N00351546WA0179001956
B1249103744165N00351541WA0179001958
B1249113744167N00351534WA0179101959
B1249123744168N00351526WA0179101960
B1249133744169N00351518WA0179201959
B1249143744169N00351510WA0179501961
B1249153744168N00351504WA0179701964
B1249163744166N00351499WA0180101968
B1249173744163N00351494WA0180401971
B1249183744159N00351490WA0180601973
B1249193744154N00351488WA0180901976
B1249203744149N00351489WA0181201978
B1249213744144N00351492WA0181401981
B1249223744140N00351496WA0181701984
B1249233744137N00351502WA0181901986
B1249243744135N00351509WA0182101988
B1249253744135N00351516WA0182301990
B1249263744137N00351522WA0182401992
B1249273744139N00351528WA0182401993
B1249283744143N00351533WA0182501994
B1249293744147N00351536WA0182101995
B1249303744153N00351536WA0181901996
B1249313744159N00351533WA0182201996
B1249323744164N00351528WA0182501996
B1249333744167N00351522WA0182601996
B1249343744169N00351517WA0182701997
B1249353744171N00351511WA0182801997
B1249363744172N00351504WA0182701997
B1249373744172N00351497WA0182601997
B1249383744171N00351489WA0182701997
B1249393744168N00351483WA0182901998
B1249403744164N00351479WA0183102001
B1249413744161N00351476WA0183302003
B1249423744157N00351474WA0183402004
B1249433744152N00351473WA0183502005
B1249443744148N00351472WA0183502006
B1249453744144N00351473WA0183702007
B1249463744140N00351474WA0183802008
B1249473744136N00351477WA0183702009
B1249483744133N00351482WA0183402008
B1249493744131N00351488WA0183102007
B1249503744130N00351495WA0183102005
B1249513744130N00351502WA0183102004
B1249523744132N00351508WA0183102004
B1249533744135N00351514WA0182902002
B1249543744139N00351518WA0182802001
B1249553744143N00351521WA0182602000
B1249563744149N00351523WA0182401998
B1249573744154N00351524WA0182301996
B1249583744159N00351523WA0182201995
B1249593744164N00351520WA0182101993
B1250003744169N00351516WA0182001992
B1250013744172N00351511WA0181901990
B1250023744174N00351505WA0181901990
B1250033744175N00351500WA0181801989
B1250043744177N00351495WA0181701989
B1250053744179N00351490WA0181701989
B1250063744180N00351485WA0181701989
B1250073744181N00351480WA0181601988
B1250083744181N00351474WA0181501987
B1250093744181N00351467WA0181401986
B1250103744181N00351459WA0181301983
B1250113744181N00351451WA0181301982
B1250123744181N00351442WA0181501982
B1250133744181N00351435WA0181701986
B1250143744181N00351428WA0182001988
B1250153744181N00351422WA0182101991
B1250163744183N00351415WA0182101992
B1250173744186N00351409WA0182001993
B1250183744189N00351402WA0182001993
B1250193744192N00351394WA0182101994
B1250203744194N00351387WA0182201994
B1250213744195N00351380WA0182401995
B1250223744197N00351373WA0182501998
B1250233744198N00351366WA0182701999
B1250243744201N00351360WA0182802000
B1250253744204N00351353WA0182902001
B1250263744208N00351347WA0183002002
B1250273744213N00351341WA0183202003
B1250283744218N00351335WA0183302005
B1250293744223N00351328WA0183502006
B1250303744228N00351322WA0183802008
B1250313744232N00351316WA0184102010
B1250323744237N00351311WA0184402014
B1250333744241N00351305WA0184702017
B1250343744246N00351300WA0184902020
B1250353744250N00351294WA0185202023
B1250363744254N00351288WA0185402026
B1250373744259N00351283WA0185702030
B1250383744263N00351278WA0186002033
B1250393744268N00351273WA0186302036
B1250403744271N00351268WA0186602039
B1250413744274N00351263WA0186902043
B1250423744277N00351258WA0187002045
B1250433744280N00351252WA0187202047
B1250443744283N00351246WA0187402049
B1250453744285N00351241WA0187602051
B1250463744286N00351236WA0187802053
B1250473744285N00351231WA0187902054
B1250483744283N00351226WA0187902054
B1250493744280N00351222WA0187802054
B1250503744276N00351219WA0187902054
B1250513744272N00351218WA0188002055
B1250523744268N00351218WA0188102056
B1250533744265N00351221WA0188002056
B1250543744262N00351227WA0188002055
B1250553744261N00351234WA0188202055
B1250563744263N00351241WA0188502056
B1250573744267N00351246WA0188802060
B1250583744273N00351249WA0189002063
B1250593744279N00351251WA0189102065
B1251003744286N00351251WA0189202066
B1251013744293N00351250WA0189302067
B1251023744299N00351247WA0189502069
B1251033744304N00351243WA0189802071
B1251043744308N00351238WA0189902073
B1251053744311N00351232WA0190102074
B1251063744313N00351226WA0190202076
B1251073744315N00351221WA0190202077
B1251083744317N00351216WA0190202077
B1251093744319N00351211WA0190102077
B1251103744321N00351205WA0190102076
B1251113744324N00351199WA0190102076
B1251123744326N00351193WA0190002076
B1251133744328N00351187WA0190202077
B1251143744330N00351182WA0190202078
B1251153744331N00351177WA0190102079
B1251163744333N00351173WA0190102080
B1251173744334N00351167WA0190202080
B1251183744333N00351161WA0190402080
B1251193744332N00351155WA0190502081
B1251203744330N00351149WA0190402081
B1251213744328N00351143WA0190402081
B1251223744327N00351137WA0190402082
B1251233744326N00351131WA0190702083
B1251243744325N00351126WA0190902085
B1251253744325N00351120WA0191002086
B1251263744324N00351114WA0191002088
B1251273744324N00351107WA0190902089
B1251283744324N00351099WA0190702089
B1251293744326N00351091WA0190802089
B1251303744328N00351084WA0190902089
B1251313744330N00351078WA0191102090
B1251323744332N00351072WA0191202092
B1251333744333N00351066WA0191302092
B1251343744335N00351059WA0191302093
B1251353744338N00351053WA0191302093
B1251363744340N00351046WA0191402094
B1251373744343N00351039WA0191402094
B1251383744345N00351032WA0191302093
B1251393744347N00351025WA0191202092
B1251403744350N00351017WA0191102092
B1251413744352N00351009WA0191002091
B1251423744356N00351001WA0190802090
B1251433744359N00350992WA0190502089
B1251443744361N00350983WA0190402088
B1251453744363N00350973WA0190402086
B1251463744364N00350964WA0190402085
B1251473744364N00350955WA0190502085
B1251483744365N00350946WA0190502085
B1251493744367N00350938WA0190402084
B1251503744367N00350929WA0190402084
B1251513744368N00350920WA0190402083
B1251523744367N00350911WA0190402083
B1251533744367N00350902WA0190602084
B1251543744367N00350895WA0190902087
B1251553744368N00350889WA0191202090
B1251563744369N00350882WA0191302092
B1251573744370N00350875WA0191302093
B1251583744370N00350866WA0190902093
B1251593744369N00350856WA0190702092
B1252003744369N00350847WA0190802092
B1252013744367N00350838WA0191002092
B1252023744366N00350830WA0191202093
B1252033744364N00350822WA0191402094
B1252043744362N00350814WA0191602095
B1252053744360N00350807WA0191802096
B1252063744358N00350800WA0191702096
B1252073744357N00350792WA0191602096
B1252083744356N00350785WA0191802096
B1252093744356N00350778WA0191902097
B1252103744356N00350771WA0192002098
B1252113744357N00350765WA0192002099
B1252123744357N00350757WA0191702100
B1252133744357N00350748WA0191302099
B1252143744357N00350738WA0191302098
B1252153744357N00350729WA0191402097
B1252163744358N00350721WA0191602097
B1252173744359N00350713WA0191502098
B1252183744361N00350706WA0191602098
B1252193744362N00350699WA0191502097
B1252203744362N00350692WA0191402095
B1252213744361N00350684WA0191202092
B1252223744362N00350676WA0191102091
B1252233744363N00350668WA0191002090
B1252243744366N00350660WA0190902088
B1252253744368N00350652WA0190902088
B1252263744369N00350644WA0191002088
B1252273744370N00350636WA0191002088
B1252283744371N00350629WA0191102089
B1252293744372N00350621WA0191102089
B1252303744374N00350612WA0190902089
B1252313744377N00350604WA0190802088
B1252323744380N00350595WA0190802087
B1252333744382N00350586WA0191002087
B1252343744385N00350578WA0190902089
B1252353744388N00350570WA0190802089
B1252363744391N00350562WA0190802089
B1252373744394N00350553WA0190702088
B1252383744397N00350544WA0190602087
B1252393744400N00350535WA0190702086
B1252403744403N00350526WA0190602085
B1252413744406N00350518WA0190602084
B1252423744408N00350509WA0190502084
B1252433744412N00350500WA0190302082
B1252443744415N00350490WA0190202081
B1252453744419N00350481WA0190002080
B1252463744422N00350471WA0189902078
B1252473744425N00350463WA0189802077
B1252483744428N00350454WA0189702076
B1252493744431N00350446WA0189502074
B1252503744435N00350437WA0189102073
B1252513744439N00350426WA0188802070
B1252523744442N00350416WA0188602068
B1252533744444N00350405WA0188402065
B1252543744446N00350394WA0188302063
B1252553744448N00350385WA0188202062
B1252563744451N00350375WA0188002061
B1252573744455N00350365WA0187802059
B1252583744457N00350354WA0187502056
B1252593744459N00350343WA0187302053
B1253003744461N00350333WA0187202050
B1253013744463N00350322WA0187002049
B1253023744465N00350312WA0187002048
B1253033744467N00350303WA0187002046
B1253043744469N00350293WA0187002045
B1253053744471N00350282WA0186802044
B1253063744473N00350272WA0186602043
B1253073744475N00350262WA0186402040
B1253083744478N00350251WA0186102038
B1253093744481N00350240WA0186002037
B1253103744484N00350229WA0185902035
B1253113744488N00350219WA0185802034
B1253123744491N00350210WA0185602033
B1253133744494N00350200WA0185302031
B1253143744497N00350189WA0185002029
B1253153744500N00350179WA0184602027
B1253163744504N00350168WA0184402024
B1253173744508N00350157WA0184202021
B1253183744512N00350147WA0184102019
B1253193744516N00350137WA0183902017
B1253203744520N00350127WA0183802014
B1253213744523N00350117WA0183502012
B1253223744527N00350107WA0183302010
B1253233744531N00350096WA0183302007
B1253243744535N00350086WA0183302005
B1253253744539N00350076WA0183002004
B1253263744543N00350065WA0182802002
B1253273744546N00350053WA0182602001
B1253283744549N00350042WA0182601999
B1253293744552N00350032WA0182501998
B1253303744555N00350021WA0182301997
B1253313744557N00350011WA0182201996
B1253323744558N00350001WA0181901994
B1253333744558N00349990WA0181701991
B1253343744558N00349979WA0181301989
B1253353744559N00349969WA0181001986
B1253363744561N00349958WA0180801984
B1253373744564N00349947WA0180701981
B1253383744566N00349936WA0180701980
B1253393744567N00349926WA0180701979
B1253403744568N00349916WA0180601981
B1253413744570N00349906WA0180301980
B1253423744572N00349895WA0180101977
B1253433744576N00349885WA0179701974
B1253443744579N00349875WA0179401971
B1253453744582N00349865WA0179301968
B1253463744584N00349855WA0179201966
B1253473744587N00349844WA0179101964
B1253483744591N00349834WA0179001963
B1253493744594N00349824WA0178901962
B1253503744598N00349815WA0178901962
B1253513744600N00349807WA0178901962
B1253523744602N00349798WA0178701960
B1253533744604N00349788WA0178401959
B1253543744606N00349778WA0177801956
B1253553744608N00349767WA0177401954
B1253563744609N00349757WA0177401953
B1253573744609N00349748WA0177601952
B1253583744609N00349739WA0177501951
B1253593744608N00349730WA0177301949
B1254003744608N00349720WA0177101947
B1254013744607N00349710WA0176701944
B1254023744607N00349698WA0176601940
B1254033744607N00349687WA0176601939
B1254043744607N00349678WA0176601938
B1254053744608N00349668WA0176401937
B1254063744609N00349659WA0176301936
B1254073744609N00349650WA0176101934
B1254083744610N00349639WA0175701930
B1254093744610N00349629WA0175501927
B1254103744612N00349618WA0175401924
B1254113744613N00349608WA0175201922
B1254123744614N00349599WA0175201921
B1254133744616N00349589WA0175001920
B1254143744617N00349580WA0174901918
B1254153744619N00349571WA0174701916
B1254163744621N00349561WA0174501914
B1254173744622N00349551WA0174401912
B1254183744624N00349542WA0174201911
B1254193744626N00349533WA0174001909
B1254203744628N00349523WA0173801908
B1254213744630N00349514WA0173601906
B1254223744632N00349504WA0173401904
B1254233744634N00349495WA0173301902
B1254243744636N00349485WA0173301901
B1254253744639N00349476WA0173501901
B1254263744641N00349467WA0173601903
B1254273744643N00349460WA0173701904
B1254283744644N00349452WA0173601904
B1254293744646N00349443WA0173501904
B1254303744648N00349434WA0173401904
B1254313744650N00349425WA0173201902
B1254323744652N00349416WA0173201900
B1254333744654N00349408WA0173101899
B1254343744656N00349401WA0173101899
B1254353744657N00349393WA0173101899
B1254363744657N00349385WA0173001898
B1254373744657N00349377WA0172901897
B1254383744657N00349369WA0172901896
B1254393744658N00349360WA0172901896
B1254403744658N00349350WA0172901895
B1254413744659N00349341WA0173001896
B1254423744659N00349332WA0173101897
B1254433744659N00349323WA0173101897
B1254443744660N00349315WA0173101898
B1254453744661N00349307WA0173001898
B1254463744663N00349299WA0172901898
B1254473744664N00349291WA0172701896
B1254483744664N00349283WA0172501894
B1254493744663N00349275WA0172201892
B1254503744663N00349267WA0172001888
B1254513744664N00349258WA0171601885
B1254523744667N00349250WA0171201882
B1254533744669N00349241WA0170901879
B1254543744671N00349232WA0170601876
B1254553744672N00349224WA0170601874
B1254563744673N00349215WA0170501872
B1254573744675N00349208WA0170401871
B1254583744679N00349201WA0170201870
B1254593744683N00349194WA0170001868
B1255003744687N00349186WA0169801866
B1255013744691N00349179WA0169501865
B1255023744694N00349171WA0169401863
B1255033744697N00349164WA0169501862
B1255043744701N00349158WA0169301861
B1255053744705N00349152WA0169201859
B1255063744709N00349146WA0169101857
B1255073744713N00349140WA0168901855
B1255083744716N00349134WA0168701854
B1255093744720N00349127WA0168401852
B1255103744724N00349121WA0168101850
B1255113744728N00349115WA0168101848
B1255123744732N00349109WA0168101847
B1255133744736N00349103WA0168001845
B1255143744739N00349097WA0168001845
B1255153744742N00349091WA0167801845
B1255163744745N00349084WA0167701843
B1255173744748N00349076WA0167501842
B1255183744752N00349069WA0167201840
B1255193744755N00349061WA0166901838
B1255203744757N00349054WA0166801836
B1255213744759N00349046WA0166501834
B1255223744761N00349038WA0166301832
B1255233744764N00349030WA0166001830
B1255243744766N00349021WA0165801827
B1255253744769N00349013WA0165601824
B1255263744771N00349004WA0165401821
B1255273744773N00348994WA0165301820
B1255283744774N00348986WA0165201819
B1255293744775N00348978WA0165101818
B1255303744776N00348970WA0165001817
B1255313744777N00348962WA0164701815
B1255323744778N00348954WA0164501813
B1255333744779N00348945WA0164301810
B1255343744781N00348936WA0164201807
B1255353744783N00348928WA0164001806
B1255363744784N00348921WA0163801804
B1255373744785N00348914WA0163601802
B1255383744785N00348905WA0163301800
B1255393744785N00348897WA0162901797
B1255403744785N00348888WA0162501793
B1255413744787N00348880WA0162301790
B1255423744788N00348872WA0162101787
B1255433744790N00348864WA0162001785
B1255443744792N00348856WA0161801782
B1255453744793N00348848WA0161601780
B1255463744794N00348840WA0161301778
B1255473744796N00348832WA0161101775
B1255483744798N00348823WA0160801772
B1255493744800N00348815WA0160601770
B1255503744802N00348807WA0160401767
B1255513744803N00348798WA0160301765
B1255523744804N00348790WA0160201764
B1255533744805N00348783WA0160101762
B1255543744806N00348775WA0160001761
B1255553744807N00348767WA0159901759
B1255563744807N00348760WA0159701758
B1255573744806N00348752WA0159601756
B1255583744806N00348744WA0159401755
B1255593744805N00348736WA0159301753
B1256003744805N00348728WA0159101753
B1256013744805N00348720WA0159001752
B1256023744805N00348712WA0158701751
B1256033744805N00348704WA0158701750
B1256043744805N00348696WA0158601748
B1256053744806N00348688WA0158601748
B1256063744808N00348680WA0158501747
B1256073744810N00348673WA0158301746
B1256083744812N00348664WA0158101745
B1256093744813N00348655WA0157701743
B1256103744814N00348644WA0157301741
B1256113744815N00348634WA0157201738
B1256123744817N00348623WA0157401737
B1256133744818N00348614WA0157401738
B1256143744819N00348607WA0157301738
B1256153744820N00348598WA0157201736
B1256163744822N00348590WA0156901734
B1256173744824N00348580WA0156301732
B1256183744826N00348569WA0155901730
B1256193744828N00348558WA0155601727
B1256203744830N00348548WA0155401724
B1256213744831N00348539WA0155201721
B1256223744832N00348530WA0155101719
B1256233744834N00348521WA0154801716
B1256243744835N00348511WA0154501714
B1256253744837N00348502WA0154301711
B1256263744839N00348492WA0154101708
B1256273744841N00348483WA0153901705
B1256283744842N00348474WA0153801702
B1256293744844N00348465WA0153701700
B1256303744846N00348456WA0153501698
B1256313744848N00348448WA0153201696
B1256323744851N00348439WA0152901693
B1256333744853N00348429WA0152701691
B1256343744856N00348420WA0152501688
B1256353744858N00348411WA0152301686
B1256363744860N00348402WA0152101683
B1256373744861N00348394WA0151901680
B1256383744863N00348385WA0151601677
B1256393744865N00348377WA0151201675
B1256403744866N00348368WA0151001672
B1256413744868N00348359WA0150701669
B1256423744870N00348350WA0150501665
B1256433744871N00348341WA0150301662
B1256443744872N00348332WA0150101659
B1256453744873N00348324WA0149701656
B1256463744874N00348315WA0149401653
B1256473744875N00348305WA0149001650
B1256483744876N00348296WA0148801647
B1256493744878N00348287WA0148601644
B1256503744880N00348278WA0148401641
B1256513744882N00348270WA0148101638
B1256523744884N00348261WA0147901635
B1256533744886N00348252WA0147501632
B1256543744888N00348243WA0147201629
B1256553744890N00348233WA0147001626
B1256563744891N00348224WA0146801623
B1256573744893N00348214WA0146601621
B1256583744893N00348205WA0146401618
B1256593744894N00348196WA0146201615
B1257003744895N00348187WA0146101613
B1257013744896N00348178WA0145601610
B1257023744897N00348169WA0145201607
B1257033744898N00348159WA0144901604
B1257043744898N00348150WA0144901600
B1257053744899N00348140WA0144501597
B1257063744899N00348130WA0144001594
B1257073744900N00348120WA0143801592
B1257083744901N00348111WA0143601589
B1257093744902N00348101WA0143301587
B1257103744903N00348091WA0143001584
B1257113744904N00348081WA0142701581
B1257123744905N00348071WA0142401578
B1257133744906N00348061WA0142201576
B1257143744907N00348052WA0141901573
B1257153744908N00348042WA0141701571
B1257163744909N00348032WA0141501568
B1257173744910N00348022WA0141301565
B1257183744911N00348011WA0141101562
B1257193744911N00348002WA0140901560
B1257203744912N00347992WA0140701558
B1257213744912N00347983WA0140501556
B1257223744913N00347973WA0140301554
B1257233744913N00347963WA0140001551
B1257243744914N00347953WA0139701549
B1257253744914N00347943WA0139501546
B1257263744915N00347932WA0139201543
B1257273744916N00347922WA0139101540
B1257283744918N00347912WA0138901539
B1257293744920N00347903WA0138801538
B1257303744922N00347894WA0138601537
B1257313744924N00347884WA0138301535
B1257323744925N00347874WA0138001532
B1257333744927N00347864WA0137701529
B1257343744928N00347853WA0137501525
B1257353744930N00347843WA0137401523
B1257363744931N00347833WA0137201521
B1257373744932N00347824WA0137201520
B1257383744933N00347815WA0137101519
B1257393744934N00347805WA0137101517
B1257403744935N00347796WA0136601515
B1257413744935N00347786WA0136301514
B1257423744936N00347776WA0136201512
B1257433744937N00347766WA0136201511
B1257443744937N00347757WA0136101510
B1257453744938N00347748WA0135901508
B1257463744938N00347739WA0135601506
B1257473744938N00347729WA0135301503
B1257483744938N00347719WA0135101500
B1257493744938N00347708WA0134801497
B1257503744938N00347698WA0134601495
B1257513744938N00347688WA0134401493
B1257523744938N00347679WA0134201491
B1257533744937N00347669WA0134101489
B1257543744936N00347659WA0133801487
B1257553744936N00347649WA0133701484
B1257563744935N00347639WA0133501482
B1257573744934N00347629WA0133301480
B1257583744934N00347619WA0133101477
B1257593744933N00347608WA0132901475
B1258003744933N00347597WA0132801474
B1258013744933N00347587WA0132901474
B1258023744933N00347577WA0133001475
B1258033744933N00347568WA0132801475
B1258043744932N00347559WA0132601474
B1258053744932N00347549WA0132401473
B1258063744932N00347538WA0132201472
B1258073744933N00347527WA0132001470
B1258083744934N00347517WA0132001469
B1258093744935N00347508WA0132001469
B1258103744936N00347499WA0132001468
B1258113744936N00347491WA0131801466
B1258123744937N00347481WA0131501463
B1258133744938N00347471WA0131101461
B1258143744940N00347462WA0131001459
B1258153744940N00347453WA0131001457
B1258163744939N00347444WA0131301458
B1258173744938N00347437WA0131501461
B1258183744938N00347431WA0131601462
B1258193744939N00347424WA0131801463
B1258203744940N00347418WA0131901465
B1258213744942N00347413WA0132001466
B1258223744944N00347409WA0132101467
B1258233744947N00347405WA0132001468
B1258243744951N00347404WA0132201469
B1258253744954N00347403WA0132401469
B1258263744957N00347404WA0132501470
B1258273744960N00347406WA0132701472
B1258283744961N00347410WA0132901473
B1258293744960N00347415WA0132601474
B1258303744956N00347420WA0132501475
B1258313744949N00347424WA0132701477
B1258323744942N00347426WA0133101479
B1258333744937N00347426WA0133701482
B1258343744932N00347427WA0133901486
B1258353744927N00347427WA0134001488
B1258363744922N00347426WA0134001489
B1258373744916N00347423WA0133801490
B1258383744909N00347418WA0133701488
B1258393744903N00347412WA0133701488
B1258403744897N00347407WA0134001489
B1258413744892N00347403WA0134101489
B1258423744887N00347398WA0134201490
B1258433744882N00347393WA0134201489
B1258443744877N00347387WA0134101489
B1258453744873N00347379WA0134101488
B1258463744869N00347370WA0134001487
B1258473744867N00347362WA0134101487
B1258483744865N00347355WA0134201488
B1258493744863N00347348WA0134001488
B1258503744861N00347341WA0133701487
B1258513744859N00347332WA0133201486
B1258523744859N00347322WA0133201484
B1258533744860N00347312WA0133201482
B1258543744861N00347304WA0133001481
B1258553744864N00347297WA0133101481
B1258563744865N00347290WA0133101481
B1258573744867N00347282WA0133101481
B1258583744868N00347274WA0133101480
B1258593744870N00347265WA0133201479
B1259003744871N00347256WA0133101479
B1259013744873N00347248WA0133301479
B1259023744875N00347241WA0133301480
B1259033744876N00347234WA0133301480
B1259043744877N00347227WA0133201479
B1259053744879N00347219WA0133001478
B1259063744882N00347210WA0132901478
B1259073744885N00347202WA0133101478
B1259083744888N00347195WA0133401479
B1259093744890N00347190WA0133601481
B1259103744893N00347185WA0133601482
B1259113744895N00347182WA0133501482
B1259123744899N00347178WA0133401482
B1259133744902N00347173WA0133301481
B1259143744906N00347166WA0133101481
B1259153744909N00347159WA0132901480
B1259163744912N00347151WA0132901479
B1259173744914N00347145WA0133001479
B1259183744915N00347139WA0133101479
B1259193744917N00347133WA0133001479
B1259203744919N00347127WA0133001478
B1259213744920N00347121WA0132901478
B1259223744922N00347114WA0132901477
B1259233744924N00347107WA0132801476
B1259243744927N00347101WA0132901476
B1259253744929N00347094WA0133001477
B1259263744931N00347088WA0133201477
B1259273744933N00347082WA0133301478
B1259283744935N00347076WA0133201479
B1259293744936N00347070WA0133101478
B1259303744938N00347063WA0132901477
B1259313744941N00347056WA0132601474
B1259323744943N00347047WA0132301472
B1259333744946N00347039WA0132201470
B1259343744947N00347031WA0132201469
B1259353744949N00347024WA0132101469
B1259363744950N00347017WA0132001467
B1259373744952N00347009WA0131501466
B1259383744953N00347001WA0131401464
B1259393744955N00346993WA0131601463
B1259403744957N00346985WA0131401462
B1259413744959N00346977WA0131301460
B1259423744961N00346970WA0131301460
B1259433744963N00346962WA0131301459
B1259443744964N00346955WA0131201458
B1259453744966N00346948WA0131001457
B1259463744969N00346940WA0130901455
B1259473744972N00346933WA0130701454
B1259483744974N00346926WA0130601453
B1259493744976N00346919WA0130501452
B1259503744976N00346911WA0130401450
B1259513744977N00346904WA0130301448
B1259523744979N00346896WA0130201446
B1259533744982N00346888WA0130201445
B1259543744985N00346882WA0130201444
B1259553744987N00346876WA0130201444
B1259563744989N00346870WA0130201445
B1259573744990N00346864WA0130101445
B1259583744992N00346857WA0129901443
B1259593744996N00346850WA0129901442
B1300003744999N00346843WA0129601441
B1300013745002N00346838WA0129701443
B1300023745003N00346833WA0130101444
B1300033745004N00346827WA0130201446
B1300043745006N00346821WA0130001446
B1300053745009N00346815WA0129901446
B1300063745014N00346809WA0129801446
B1300073745018N00346805WA0129901445
B1300083745022N00346801WA0130201447
B1300093745025N00346797WA0130401450
B1300103745026N00346794WA0130601451
B1300113745028N00346790WA0130601452
B1300123745030N00346786WA0130501452
B1300133745033N00346780WA0130301451
B1300143745035N00346774WA0130201451
B1300153745039N00346767WA0130201451
B1300163745042N00346761WA0130301451
B1300173745045N00346756WA0130401452
B1300183745048N00346752WA0130501452
B1300193745050N00346747WA0130401451
B1300203745052N00346741WA0130301451
B1300213745054N00346735WA0130201449
B1300223745056N00346727WA0130201449
B1300233745059N00346720WA0130101448
B1300243745061N00346712WA0130201448
B1300253745064N00346704WA0130401449
B1300263745065N00346697WA0130801453
B1300273745067N00346692WA0131101456
B1300283745069N00346688WA0131301459
B1300293745071N00346687WA0131301460
B1300303745074N00346687WA0131201462
B1300313745077N00346687WA0131601464
B1300323745079N00346689WA0132001466
B1300333745080N00346691WA0132201468
B1300343745079N00346694WA0132301470
B1300353745077N00346699WA0132301470
B1300363745074N00346702WA0132201471
B1300373745069N00346705WA0132301472
B1300383745063N00346707WA0132501472
B1300393745059N00346707WA0132701474
B1300403745054N00346706WA0132701474
B1300413745049N00346704WA0132601474
B1300423745043N00346700WA0132201475
B1300433745037N00346694WA0132101475
B1300443745031N00346687WA0132301475
B1300453745027N00346680WA0132401474
B1300463745022N00346672WA0132601474
B1300473745018N00346665WA0132801475
B1300483745014N00346657WA0132801475
B1300493745010N00346649WA0132901475
B1300503745007N00346640WA0133001476
B1300513745004N00346630WA0133101476
B1300523745003N00346621WA0133201477
B1300533745002N00346611WA0133301478
B1300543745001N00346602WA0133501480
B1300553745001N00346594WA0133601481
B1300563745001N00346586WA0133701481
B1300573745001N00346579WA0133601482
B1300583745004N00346572WA0133201482
B1300593745008N00346568WA0133201482
B1301003745011N00346567WA0133501481
B1301013745013N00346568WA0133501481
B1301023745014N00346569WA0133601482
B1301033745014N00346571WA0133701483
B1301043745013N00346573WA0133601483
B1301053745010N00346576WA0133401482
B1301063745006N00346580WA0133501482
B1301073744999N00346582WA0133401482
B1301083744991N00346581WA0133401482
B1301093744983N00346577WA0133401483
B1301103744976N00346572WA0133701483
B1301113744970N00346568WA0134001484
B1301123744965N00346563WA0134201485
B1301133744959N00346557WA0134201486
B1301143744952N00346551WA0134001486
B1301153744946N00346543WA0133901486
B1301163744939N00346535WA0133801485
B1301173744933N00346526WA0133801483
B1301183744928N00346518WA0133801483
B1301193744924N00346508WA0133701483
B1301203744921N00346499WA0133601482
B1301213744918N00346489WA0133401479
B1301223744916N00346479WA0133201477
B1301233744914N00346470WA0132801475
B1301243744913N00346459WA0132501472
B1301253744912N00346449WA0132201470
B1301263744911N00346440WA0132101469
B1301273744911N00346430WA0132001466
B1301283744911N00346419WA0131801464
B1301293744911N00346409WA0131601462
B1301303744911N00346399WA0131601460
B1301313744911N00346389WA0131601460
B1301323744912N00346380WA0131601461
B1301333744911N00346372WA0131401461
B1301343744911N00346362WA0131201460
B1301353744911N00346351WA0130901459
B1301363744912N00346341WA0130801457
B1301373744912N00346332WA0130701454
B1301383744913N00346323WA0130601453
B1301393744912N00346314WA0130501452
B1301403744912N00346305WA0130201450
B1301413744912N00346295WA0130001448
B1301423744912N00346285WA0129801446
B1301433744913N00346274WA0129501444
B1301443744914N00346265WA0129401442
B1301453744915N00346256WA0129401441
B1301463744916N00346248WA0129401440
B1301473744916N00346240WA0129201438
B1301483744917N00346231WA0129101437
B1301493744917N00346222WA0129001436
B1301503744917N00346212WA0128901434
B1301513744917N00346202WA0128801432
B1301523744916N00346193WA0128801431
B1301533744915N00346184WA0128801431
B1301543744914N00346176WA0128801430
B1301553744912N00346167WA0128601429
B1301563744911N00346158WA0128501427
B1301573744910N00346148WA0128401425
B1301583744909N00346139WA0128201423
B1301593744908N00346130WA0128101421
B1302003744907N00346121WA0127901420
B1302013744906N00346113WA0127701418
B1302023744904N00346104WA0127401416
B1302033744904N00346095WA0127001415
B1302043744904N00346086WA0126901413
B1302053744904N00346077WA0126901411
B1302063744904N00346068WA0126901410
B1302073744905N00346061WA0126701409
B1302083744906N00346053WA0126701408
B1302093744906N00346046WA0126601407
B1302103744907N00346038WA0126301405
B1302113744907N00346030WA0126001403
B1302123744908N00346021WA0125901401
B1302133744910N00346014WA0126001401
B1302143744911N00346008WA0125901401
B1302153744912N00346003WA0125801400
B1302163744913N00345996WA0125501399
B1302173744914N00345988WA0125101397
B1302183744915N00345980WA0124801395
B1302193744918N00345973WA0124601393
B1302203744920N00345967WA0124601392
B1302213744922N00345961WA0124601391
B1302223744924N00345955WA0124501390
B1302233744925N00345949WA0124301388
B1302243744928N00345943WA0123801385
B1302253744931N00345936WA0123801383
B1302263744934N00345930WA0123801381
B1302273744937N00345924WA0123801381
B1302283744939N00345919WA0124001382
B1302293744941N00345915WA0123901381
B1302303744944N00345910WA0123801381
B1302313744946N00345905WA0123601379
B1302323744950N00345900WA0123401377
B1302333744955N00345895WA0123201374
B1302343744958N00345890WA0123201372
B1302353744961N00345885WA0123201372
B1302363744964N00345881WA0123201372
B1302373744967N00345876WA0123001372
B1302383744971N00345871WA0122801371
B1302393744975N00345865WA0122701369
B1302403744978N00345860WA0122501368
B1302413744981N00345854WA0122501367
B1302423744983N00345850WA0122501366
B1302433744986N00345845WA0122301365
B1302443744989N00345841WA0122201363
B1302453744992N00345835WA0121901361
B1302463744995N00345830WA0121701359
B1302473744998N00345825WA0121801358
B1302483745001N00345819WA0121801358
B1302493745003N00345814WA0121901358
B1302503745006N00345809WA0121701357
B1302513745008N00345803WA0121201355
B1302523745011N00345797WA0120901351
B1302533745013N00345790WA0120801348
B1302543745015N00345783WA0120501346
B1302553745017N00345776WA0120401344
B1302563745018N00345770WA0120301343
B1302573745020N00345764WA0120101341
B1302583745021N00345758WA0120001340
B1302593745023N00345752WA0119701337
B1303003745025N00345745WA0119601335
B1303013745026N00345739WA0119501333
B1303023745028N00345733WA0119401333
B1303033745030N00345728WA0119201331
B1303043745032N00345722WA0118701329
B1303053745033N00345714WA0118301327
B1303063745035N00345707WA0118101325
B1303073745038N00345699WA0118001322
B1303083745040N00345692WA0117901319
B1303093745042N00345684WA0117801318
B1303103745044N00345678WA0117701317
B1303113745045N00345671WA0117601316
B1303123745048N00345664WA0117301314
B1303133745050N00345657WA0116901311
B1303143745053N00345650WA0116901307
B1303153745056N00345643WA0116701305
B1303163745058N00345638WA0116601304
B1303173745060N00345633WA0116501303
B1303183745062N00345627WA0116201300
B1303193745065N00345621WA0115901298
B1303203745068N00345614WA0115601295
B1303213745072N00345608WA0115401292
B1303223745075N00345602WA0115201290
B1303233745078N00345596WA0115101288
B1303243745079N00345590WA0114901286
B1303253745081N00345583WA0114501282
B1303263745082N00345575WA0114201278
B1303273745084N00345567WA0113901275
B1303283745085N00345559WA0113701273
B1303293745087N00345552WA0113601271
B1303303745089N00345545WA0113401269
B1303313745091N00345538WA0113301267
B1303323745093N00345531WA0113001264
B1303333745094N00345523WA0112801262
B1303343745096N00345515WA0112601260
B1303353745096N00345508WA0112501258
B1303363745096N00345501WA0112301256
B1303373745097N00345494WA0112101254
B1303383745097N00345487WA0111501251
B1303393745099N00345479WA0111201249
B1303403745100N00345471WA0111201246
B1303413745102N00345464WA0111201244
B1303423745103N00345457WA0111101242
B1303433745105N00345451WA0110901241
B1303443745107N00345445WA0110701239
B1303453745109N00345438WA0110501237
B1303463745111N00345431WA0110201235
B1303473745112N00345425WA0110001233
B1303483745114N00345418WA0110001232
B1303493745115N00345412WA0109801230
B1303503745116N00345405WA0109701228
B1303513745118N00345398WA0109501226
B1303523745119N00345390WA0109301224
B1303533745121N00345383WA0109001222
B1303543745122N00345376WA0108801220
B1303553745122N00345369WA0108701219
B1303563745120N00345361WA0108601217
B1303573745118N00345354WA0108301215
B1303583745117N00345346WA0108001212
B1303593745117N00345338WA0107701209
B1304003745118N00345330WA0107601206
B1304013745118N00345322WA0107501205
B1304023745117N00345315WA0107401203
B1304033745116N00345307WA0107201201
B1304043745116N00345299WA0106901198
B1304053745115N00345290WA0106601195
B1304063745115N00345282WA0106501193
B1304073745115N00345274WA0106301191
B1304083745115N00345266WA0106301190
B1304093745114N00345258WA0106001188
B1304103745114N00345251WA0105701185
B1304113745113N00345242WA0105401182
B1304123745113N00345234WA0105201179
B1304133745113N00345226WA0105101177
B1304143745112N00345218WA0104901175
B1304153745111N00345210WA0104601173
B1304163745110N00345203WA0104401171
B1304173745110N00345195WA0104101168
B1304183745109N00345187WA0103801165
B1304193745109N00345179WA0103601162
B1304203745109N00345172WA0103301159
B1304213745109N00345164WA0103001156
B1304223745108N00345156WA0102801153
B1304233745108N00345148WA0102401150
B1304243745108N00345140WA0102001147
B1304253745108N00345133WA0101801144
B1304263745109N00345126WA0101601142
B1304273745109N00345119WA0101301139
B1304283745109N00345111WA0100801136
B1304293745109N00345103WA0100401132
B1304303745109N00345096WA0100301129
B1304313745109N00345088WA0100001126
B1304323745110N00345081WA0099601123
B1304333745110N00345074WA0099401120
B1304343745110N00345066WA0099201116
B1304353745110N00345058WA0099001114
B1304363745110N00345050WA0098801111
B1304373745110N00345042WA0098601108
B1304383745111N00345034WA0098401106
B1304393745111N00345026WA0098201103
B1304403745110N00345019WA0098101102
B1304413745109N00345012WA0098101101
B1304423745109N00345006WA0098001101
B1304433745109N00345000WA0097801100
B1304443745109N00344994WA0097601098
B1304453745108N00344987WA0097301096
B1304463745107N00344980WA0097001093
B1304473745105N00344972WA0096701091
B1304483745104N00344966WA0096501089
B1304493745102N00344960WA0096301087
B1304503745101N00344954WA0096101084
B1304513745100N00344947WA0095701081
B1304523745099N00344940WA0095501079
B1304533745097N00344934WA0095401076
B1304543745095N00344927WA0095301075
B1304553745092N00344922WA0095201074
B1304563745090N00344917WA0095001072
B1304573745087N00344912WA0094501070
B1304583745083N00344905WA0094101068
B1304593745078N00344898WA0093701066
B1305003745074N00344892WA0093601063
B1305013745069N00344887WA0093901062
B1305023745064N00344883WA0094101062
B1305033745061N00344880WA0094201063
B1305043745057N00344877WA0094101063
B1305053745052N00344874WA0093801062
B1305063745047N00344870WA0093501060
B1305073745042N00344865WA0093301057
B1305083745036N00344860WA0093301056
B1305093745031N00344857WA0093301055
B1305103745027N00344854WA0093301055
B1305113745023N00344852WA0093101054
B1305123745018N00344849WA0092901053
B1305133745014N00344845WA0092601051
B1305143745008N00344841WA0092201049
B1305153745003N00344837WA0092001047
B1305163744998N00344833WA0091901045
B1305173744993N00344830WA0091801043
B1305183744988N00344827WA0091701042
B1305193744983N00344824WA0091401040
B1305203744978N00344822WA0091201038
B1305213744973N00344819WA0091001036
B1305223744967N00344816WA0090701030
B1305233744961N00344812WA0090501027
B1305243744955N00344808WA0090401025
B1305253744949N00344805WA0090401024
B1305263744943N00344801WA0090201022
B1305273744938N00344797WA0090101021
B1305283744933N00344793WA0089901019
B1305293744928N00344789WA0089701016
B1305303744923N00344784WA0089401014
B1305313744919N00344778WA0089101011
B1305323744915N00344771WA0088501007
B1305333744911N00344765WA0088401005
B1305343744906N00344759WA0088101002
B1305353744902N00344753WA0088101000
B1305363744898N00344748WA0087800998
B1305373744893N00344743WA0087500996
B1305383744889N00344737WA0087200994
B1305393744884N00344732WA0087200991
B1305403744878N00344728WA0087300990
B1305413744873N00344724WA0087400989
B1305423744869N00344720WA0087400989
B1305433744865N00344717WA0087300989
B1305443744860N00344713WA0087200988
B1305453744856N00344708WA0086900986
B1305463744851N00344703WA0086600985
B1305473744848N00344695WA0086600983
B1305483744847N00344687WA0086000981
B1305493744847N00344678WA0086000980
B1305503744847N00344670WA0086000978
B1305513744847N00344662WA0086000978
B1305523744846N00344655WA0085900977
B1305533744845N00344647WA0085700976
B1305543744845N00344639WA0085500975
B1305553744846N00344630WA0085500974
B1305563744847N00344622WA0085500973
B1305573744848N00344614WA0085700973
B1305583744848N00344607WA0085800974
B1305593744849N00344601WA0085900974
B1306003744849N00344594WA0085800974
B1306013744849N00344586WA0085800974
B1306023744849N00344578WA0085800974
B1306033744849N00344571WA0085800974
B1306043744849N00344564WA0085800974
B1306053744850N00344557WA0085800973
B1306063744850N00344550WA0085700973
B1306073744850N00344542WA0085600972
B1306083744851N00344533WA0085600972
B1306093744851N00344526WA0085800973
B1306103744850N00344520WA0086200975
B1306113744848N00344515WA0086300978
B1306123744845N00344511WA0086400979
B1306133744842N00344505WA0086500980
B1306143744838N00344498WA0086500981
B1306153744833N00344491WA0086700982
B1306163744827N00344487WA0086900984
B1306173744820N00344486WA0086900985
B1306183744815N00344489WA0086700984
B1306193744809N00344493WA0086300983
B1306203744804N00344498WA0086200982
B1306213744801N00344505WA0086200980
B1306223744799N00344512WA0086200979
B1306233744799N00344520WA0086200979
B1306243744800N00344526WA0086400979
B1306253744802N00344529WA0086600982
B1306263744805N00344531WA0086800984
B1306273744807N00344531WA0086800985
B1306283744809N00344529WA0086800986
B1306293744812N00344526WA0086800987
B1306303744815N00344522WA0086700987
B1306313744818N00344516WA0086600986
B1306323744821N00344510WA0086700985
B1306333744823N00344504WA0086900985
B1306343744823N00344501WA0087100987
B1306353744823N00344498WA0087200989
B1306363744823N00344495WA0087200989
B1306373744824N00344491WA0087100989
B1306383744827N00344486WA0086900989
B1306393744829N00344480WA0086800988
B1306403744831N00344474WA0086800988
B1306413744832N00344468WA0087100989
B1306423744831N00344463WA0087200991
B1306433744830N00344459WA0087200991
B1306443744830N00344453WA0087000989
B1306453744830N00344446WA0086800988
B1306463744832N00344439WA0086900987
B1306473744833N00344433WA0087100988
B1306483744834N00344428WA0087300991
B1306493744833N00344424WA0087500993
B1306503744831N00344419WA0087600994
B1306513744828N00344413WA0087500994
B1306523744824N00344406WA0087300993
B1306533744817N00344401WA0087200991
B1306543744810N00344397WA0087200990
B1306553744803N00344396WA0087400991
B1306563744796N00344396WA0087700992
B1306573744790N00344398WA0087800994
B1306583744784N00344401WA0087900996
B1306593744779N00344405WA0087700996
B1307003744775N00344411WA0087700995
B1307013744772N00344418WA0087400994
B1307023744772N00344425WA0087300992
B1307033744774N00344430WA0087300991
B1307043744778N00344432WA0087400991
B1307053744780N00344432WA0087600992
B1307063744782N00344429WA0087800993
B1307073744783N00344425WA0087900994
B1307083744783N00344419WA0088000994
B1307093744782N00344411WA0087900994
B1307103744780N00344403WA0087900993
B1307113744776N00344396WA0088000993
B1307123744772N00344389WA0088100994
B1307133744767N00344384WA0088200996
B1307143744762N00344379WA0088300997
B1307153744756N00344374WA0088300997
B1307163744749N00344371WA0088300997
B1307173744741N00344371WA0088500998
B1307183744734N00344372WA0088600999
B1307193744728N00344374WA0088701001
B1307203744722N00344377WA0088801002
B1307213744718N00344382WA0089001003
B1307223744715N00344387WA0089001004
B1307233744715N00344392WA0089001004
B1307243744715N00344396WA0088901003
B1307253744717N00344399WA0088501003
B1307263744720N00344400WA0088901003
B1307273744722N00344399WA0088901004
B1307283744724N00344397WA0089001004
B1307293744726N00344393WA0089101004
B1307303744727N00344389WA0089101004
B1307313744728N00344385WA0089101006
B1307323744729N00344380WA0089201006
B1307333744729N00344374WA0089201007
B1307343744728N00344367WA0089101007
B1307353744727N00344360WA0089101006
B1307363744726N00344351WA0089201005
B1307373744724N00344343WA0089401007
B1307383744722N00344336WA0089701009
B1307393744719N00344330WA0089901011
B1307403744715N00344325WA0090101014
B1307413744710N00344320WA0090201016
B1307423744704N00344317WA0090401017
B1307433744698N00344315WA0090501019
B1307443744691N00344315WA0090801022
B1307453744685N00344316WA0091001024
B1307463744679N00344318WA0091101026
B1307473744675N00344322WA0091401028
B1307483744672N00344327WA0091501030
B1307493744671N00344333WA0091701032
B1307503744671N00344339WA0091901033
B1307513744672N00344342WA0092001035
B1307523744673N00344345WA0092101036
B1307533744675N00344346WA0092201038
B1307543744677N00344346WA0092301039
B1307553744680N00344344WA0092201039
B1307563744683N00344341WA0092101040
B1307573744686N00344337WA0092201040
B1307583744688N00344332WA0092401041
B1307593744690N00344328WA0092701043
B1308003744692N00344324WA0093001045
B1308013744693N00344319WA0093101048
B1308023744694N00344315WA0093301050
B1308033744694N00344309WA0093301050
B1308043744695N00344303WA0093501051
B1308053744694N00344296WA0093601052
B1308063744692N00344289WA0093801053
B1308073744689N00344283WA0093901054
B1308083744685N00344279WA0094101056
B1308093744680N00344275WA0094301059
B1308103744675N00344274WA0094401061
B1308113744671N00344274WA0094501063
B1308123744665N00344275WA0094701064
B1308133744660N00344279WA0094701066
B1308143744656N00344285WA0094901067
B1308153744652N00344292WA0095201068
B1308163744650N00344298WA0095501071
B1308173744648N00344303WA0095901075
B1308183744648N00344309WA0096101078
B1308193744650N00344314WA0096001079
B1308203744653N00344317WA0095901077
B1308213744657N00344318WA0095801077
B1308223744662N00344317WA0095801077
B1308233744666N00344315WA0095901078
B1308243744668N00344312WA0096101079
B1308253744670N00344308WA0096201080
B1308263744673N00344304WA0096301081
B1308273744675N00344300WA0096501082
B1308283744677N00344296WA0096701084
B1308293744678N00344291WA0096801085
B1308303744677N00344284WA0096901086
B1308313744674N00344278WA0097001087
B1308323744670N00344271WA0097101088
B1308333744665N00344268WA0097401092
B1308343744661N00344265WA0097601095
B1308353744657N00344264WA0097801097
B1308363744652N00344264WA0098001099
B1308373744646N00344266WA0098101101
B1308383744641N00344270WA0098201101
B1308393744636N00344275WA0098301102
B1308403744633N00344281WA0098301103
B1308413744631N00344288WA0098201104
B1308423744629N00344296WA0098401106
B1308433744629N00344304WA0098701107
B1308443744629N00344311WA0098901109
B1308453744630N00344318WA0099001111
B1308463744632N00344323WA0099201113
B1308473744633N00344327WA0099301115
B1308483744635N00344331WA0099301115
B1308493744638N00344334WA0099401115
B1308503744642N00344336WA0099301116
B1308513744646N00344336WA0099501117
B1308523744649N00344336WA0099601118
B1308533744652N00344336WA0099901121
B1308543744654N00344335WA0100101123
B1308553744656N00344332WA0100201125
B1308563744658N00344328WA0100401126
B1308573744659N00344324WA0100501127
B1308583744660N00344319WA0100801129
B1308593744661N00344314WA0101201132
B1309003744662N00344309WA0101501136
B1309013744663N00344306WA0101701139
B1309023744662N00344301WA0102001142
B1309033744660N00344296WA0102101144
B1309043744656N00344292WA0102101146
B1309053744650N00344288WA0102201147
B1309063744644N00344285WA0102401148
B1309073744639N00344285WA0102601149
B1309083744634N00344286WA0102801151
B1309093744630N00344288WA0102801153
B1309103744625N00344292WA0103001154
B1309113744621N00344297WA0103001155
B1309123744617N00344303WA0103001155
B1309133744614N00344309WA0102801156
B1309143744613N00344316WA0102901156
B1309153744613N00344322WA0103101156
B1309163744615N00344327WA0103001156
B1309173744618N00344330WA0103001155
B1309183744621N00344333WA0103301156
B1309193744624N00344334WA0103501158
B1309203744626N00344336WA0103701161
B1309213744628N00344336WA0103901163
B1309223744631N00344335WA0104001165
B1309233744633N00344331WA0104001166
B1309243744634N00344325WA0104201167
B1309253744632N00344320WA0104401169
B1309263744629N00344315WA0104501170
B1309273744625N00344310WA0104601170
B1309283744620N00344303WA0104701171
B1309293744615N00344296WA0104901172
B1309303744610N00344291WA0105101175
B1309313744605N00344287WA0105501179
B1309323744601N00344286WA0105701182
B1309333744596N00344286WA0105601184
B1309343744589N00344289WA0105701183
B1309353744583N00344294WA0105501182
B1309363744578N00344299WA0105601183
B1309373744575N00344305WA0105901184
B1309383744573N00344311WA0106101186
B1309393744572N00344316WA0106301189
B1309403744573N00344320WA0106401191
B1309413744575N00344323WA0106701193
B1309423744578N00344323WA0106901194
B1309433744581N00344322WA0107301197
B1309443744582N00344320WA0107501200
B1309453744582N00344315WA0107801202
B1309463744581N00344309WA0108001204
B1309473744579N00344303WA0108001205
B1309483744576N00344297WA0108001206
B1309493744571N00344292WA0108101206
B1309503744565N00344289WA0108201207
B1309513744559N00344286WA0108301208
B1309523744553N00344284WA0108601209
B1309533744547N00344285WA0108701212
B1309543744541N00344287WA0108701213
B1309553744535N00344292WA0108701214
B1309563744531N00344298WA0108701215
B1309573744529N00344306WA0108401215
B1309583744528N00344312WA0108801216
B1309593744530N00344318WA0109101216
B1310003744532N00344322WA0109401219
B1310013744534N00344322WA0109801225
B1310023744536N00344320WA0110001228
B1310033744537N00344314WA0110201231
B1310043744536N00344308WA0110301233
B1310053744532N00344302WA0110401234
B1310063744527N00344299WA0110501236
B1310073744521N00344296WA0110601237
B1310083744514N00344295WA0110701238
B1310093744508N00344296WA0110801238
B1310103744502N00344298WA0110901239
B1310113744496N00344303WA0111001239
B1310123744491N00344308WA0111101240
B1310133744486N00344315WA0111201240
B1310143744483N00344321WA0111401243
B1310153744481N00344327WA0111701246
B1310163744481N00344331WA0111801247
B1310173744482N00344335WA0111901248
B1310183744483N00344338WA0111701248
B1310193744486N00344340WA0111701248
B1310203744489N00344341WA0111701248
B1310213744492N00344342WA0111901248
B1310223744495N00344341WA0111901249
B1310233744498N00344339WA0112001249
B1310243744501N00344337WA0112001249
B1310253744503N00344334WA0112101250
B1310263744505N00344331WA0112301251
B1310273744506N00344327WA0112301251
B1310283744508N00344322WA0112401252
B1310293744509N00344318WA0112601253
B1310303744509N00344313WA0112701255
B1310313744507N00344308WA0112901257
B1310323744504N00344303WA0113101258
B1310333744499N00344298WA0113301260
B1310343744493N00344295WA0113401261
B1310353744487N00344293WA0113601263
B1310363744481N00344292WA0113801265
B1310373744474N00344292WA0113901267
B1310383744468N00344294WA0114101269
B1310393744462N00344297WA0114201270
B1310403744456N00344300WA0114401271
B1310413744451N00344305WA0114501272
B1310423744447N00344311WA0114601274
B1310433744445N00344317WA0114601274
B1310443744444N00344325WA0114401274
B1310453744446N00344332WA0114501274
B1310463744447N00344338WA0114601274
B1310473744449N00344342WA0114801276
B1310483744451N00344344WA0114801278
B1310493744452N00344344WA0114701278
B1310503744456N00344343WA0114601278
B1310513744460N00344340WA0114501278
B1310523744464N00344338WA0114501277
B1310533744467N00344335WA0114801278
B1310543744469N00344331WA0114901280
B1310553744470N00344326WA0115001281
B1310563744470N00344321WA0114701281
B1310573744469N00344314WA0114501281
B1310583744469N00344309WA0114901281
B1310593744469N00344303WA0115001282
B1311003744469N00344298WA0115001282
B1311013744469N00344292WA0114901281
B1311023744468N00344286WA0114801280
B1311033744468N00344281WA0114801280
B1311043744468N00344275WA0114801280
B1311053744469N00344269WA0114801279
B1311063744470N00344262WA0115101280
B1311073744471N00344257WA0115201281
B1311083744473N00344252WA0115501284
B1311093744474N00344248WA0115701287
B1311103744475N00344245WA0115601288
B1311113744477N00344241WA0115701289
B1311123744479N00344236WA0115701289
B1311133744483N00344232WA0115701289
B1311143744486N00344229WA0116001290
B1311153744489N00344226WA0116301293
B1311163744491N00344223WA0116701296
B1311173744491N00344219WA0117001299
B1311183744491N00344215WA0117301302
B1311193744489N00344210WA0117401304
B1311203744485N00344204WA0117401305
B1311213744479N00344199WA0117501306
B1311223744472N00344194WA0117601307
B1311233744464N00344191WA0117901308
B1311243744456N00344190WA0118001310
B1311253744449N00344192WA0118201312
B1311263744444N00344197WA0118401314
B1311273744441N00344204WA0118501316
B1311283744439N00344211WA0118501315
B1311293744439N00344218WA0118301315
B1311303744441N00344224WA0118001316
B1311313744444N00344228WA0118301317
B1311323744448N00344230WA0118701318
B1311333744451N00344231WA0118901320
B1311343744455N00344230WA0119101321
B1311353744458N00344229WA0119301323
B1311363744460N00344228WA0119701326
B1311373744461N00344227WA0120001329
B1311383744462N00344224WA0120101332
B1311393744463N00344220WA0120001334
B1311403744460N00344213WA0119701333
B1311413744458N00344205WA0119601330
B1311423744454N00344198WA0119701329
B1311433744449N00344193WA0119801330
B1311443744444N00344189WA0119901332
B1311453744438N00344185WA0119901332
B1311463744431N00344184WA0119601332
B1311473744423N00344183WA0119301331
B1311483744415N00344186WA0119701331
B1311493744409N00344191WA0119801331
B1311503744405N00344196WA0120001331
B1311513744402N00344202WA0120201332
B1311523744401N00344208WA0120401333
B1311533744400N00344214WA0120601336
B1311543744401N00344220WA0120701338
B1311553744402N00344225WA0120801340
B1311563744403N00344229WA0121001342
B1311573744405N00344232WA0121101344
B1311583744407N00344233WA0121101344
B1311593744410N00344233WA0121101345
B1312003744412N00344232WA0121101345
B1312013744414N00344230WA0121301346
B1312023744416N00344229WA0121401348
B1312033744418N00344228WA0121501349
B1312043744420N00344227WA0121601350
B1312053744421N00344225WA0121701351
B1312063744422N00344222WA0121701351
B1312073744423N00344219WA0121601351
B1312083744425N00344216WA0121501350
B1312093744427N00344214WA0121501350
B1312103744429N00344211WA0121601350
B1312113744431N00344209WA0121701351
B1312123744432N00344207WA0121701351
B1312133744433N00344205WA0121601352
B1312143744434N00344201WA0121501351
B1312153744436N00344198WA0121401350
B1312163744437N00344193WA0121401349
B1312173744437N00344188WA0121401349
B1312183744437N00344183WA0121401349
B1312193744436N00344177WA0121401349
B1312203744437N00344172WA0121201348
B1312213744438N00344167WA0120901347
B1312223744440N00344162WA0120601345
B1312233744441N00344156WA0120901344
B1312243744443N00344151WA0120901344
B1312253744444N00344146WA0121101344
B1312263744445N00344142WA0121101346
B1312273744447N00344138WA0121001346
B1312283744448N00344133WA0120901345
B1312293744451N00344126WA0120901344
B1312303744453N00344120WA0121001343
B1312313744454N00344113WA0121401346
B1312323744455N00344108WA0121801350
B1312333744454N00344104WA0122001353
B1312343744454N00344099WA0122101356
B1312353744454N00344093WA0122201357
B1312363744455N00344087WA0122201358
B1312373744456N00344081WA0122201359
B1312383744458N00344077WA0122501362
B1312393744460N00344074WA0122801365
B1312403744461N00344071WA0123101367
B1312413744462N00344067WA0123301369
B1312423744462N00344063WA0123401371
B1312433744461N00344057WA0123501372
B1312443744459N00344052WA0123701373
B1312453744455N00344046WA0123801374
B1312463744450N00344042WA0123801375
B1312473744445N00344040WA0123901376
B1312483744438N00344039WA0124001377
B1312493744431N00344040WA0124101377
B1312503744423N00344042WA0124101377
B1312513744416N00344045WA0124301378
B1312523744409N00344048WA0124501380
B1312533744403N00344053WA0124601381
B1312543744399N00344059WA0124701382
B1312553744397N00344066WA0124801383
B1312563744396N00344072WA0124901384
B1312573744396N00344078WA0125101385
B1312583744397N00344084WA0125201387
B1312593744399N00344089WA0125301388
B1313003744401N00344093WA0125401389
B1313013744404N00344096WA0125601391
B1313023744407N00344098WA0125801393
B1313033744411N00344099WA0126001395
B1313043744413N00344098WA0126201397
B1313053744415N00344097WA0126301399
B1313063744417N00344095WA0126401400
B1313073744420N00344092WA0126401401
B1313083744422N00344089WA0126501402
B1313093744425N00344085WA0126401402
B1313103744427N00344082WA0126501402
B1313113744429N00344078WA0126701403
B1313123744431N00344075WA0126901404
B1313133744432N00344071WA0127001407
B1313143744432N00344068WA0127101409
B1313153744433N00344064WA0127401411
B1313163744432N00344060WA0127501412
B1313173744431N00344055WA0127601414
B1313183744429N00344051WA0127801415
B1313193744426N00344046WA0128001417
B1313203744423N00344042WA0128101418
B1313213744419N00344037WA0128001418
B1313223744415N00344031WA0128001418
B1313233744412N00344026WA0127801418
B1313243744410N00344020WA0127501417
B1313253744410N00344014WA0127601417
B1313263744410N00344009WA0127601416
B1313273744411N00344005WA0127601415
B1313283744412N00344000WA0127301414
B1313293744413N00343996WA0127201412
B1313303744415N00343991WA0127201411
B1313313744417N00343985WA0127201410
B1313323744419N00343980WA0127401411
B1313333744420N00343976WA0127601412
B1313343744421N00343971WA0127801413
B1313353744421N00343966WA0128101416
B1313363744423N00343963WA0128101417
B1313373744425N00343959WA0128101418
B1313383744428N00343956WA0128201418
B1313393744430N00343951WA0128401419
B1313403744432N00343947WA0128401420
B1313413744434N00343942WA0128501421
B1313423744435N00343939WA0128501422
B1313433744438N00343935WA0128301421
B1313443744442N00343932WA0128201420
B1313453744446N00343930WA0128201419
B1313463744449N00343927WA0128401420
B1313473744452N00343924WA0128501422
B1313483744454N00343920WA0128601424
B1313493744456N00343916WA0128701425
B1313503744459N00343912WA0128801426
B1313513744462N00343909WA0128901427
B1313523744466N00343906WA0129101428
B1313533744469N00343903WA0129101429
B1313543744473N00343902WA0129201430
B1313553744477N00343899WA0129201431
B1313563744480N00343896WA0129201431
B1313573744484N00343892WA0129001430
B1313583744487N00343888WA0128901430
B1313593744490N00343885WA0128801429
B1314003744492N00343882WA0128601428
B1314013744495N00343878WA0128201426
B1314023744498N00343874WA0127801424
B1314033744500N00343869WA0127701421
B1314043744502N00343864WA0127301419
B1314053744504N00343859WA0127201417
B1314063744505N00343856WA0127101415
B1314073744506N00343852WA0126901412
B1314083744508N00343847WA0126401409
B1314093744510N00343841WA0125801404
B1314103744512N00343835WA0125301399
B1314113744514N00343828WA0125101394
B1314123744515N00343822WA0124801392
B1314133744517N00343816WA0124701389
B1314143744518N00343811WA0124401386
B1314153744519N00343805WA0124001383
B1314163744521N00343799WA0123701379
B1314173744523N00343792WA0123301375
B1314183744525N00343786WA0122901371
B1314193744528N00343781WA0122601367
B1314203744531N00343778WA0122301363
B1314213744534N00343775WA0122201360
B1314223744537N00343771WA0121801357
B1314233744539N00343766WA0121501354
B1314243744541N00343761WA0121001350
B1314253744543N00343756WA0120801346
B1314263744546N00343751WA0120501343
B1314273744548N00343747WA0120201340
B1314283744551N00343743WA0119901336
B1314293744554N00343738WA0119601333
B1314303744557N00343734WA0119401329
B1314313744560N00343729WA0119301327
B1314323744562N00343724WA0119001324
B1314333744564N00343719WA0118801322
B1314343744565N00343714WA0118601320
B1314353744567N00343709WA0118401318
B1314363744569N00343704WA0118001316
B1314373744572N00343699WA0117601313
B1314383744575N00343693WA0117601311
B1314393744578N00343687WA0117801309
B1314403744581N00343682WA0117801309
B1314413744583N00343677WA0117701309
B1314423744584N00343671WA0117701308
B1314433744585N00343664WA0117601307
B1314443744586N00343658WA0117501306
B1314453744587N00343651WA0117401305
B1314463744587N00343644WA0117201304
B1314473744587N00343636WA0117201303
B1314483744586N00343629WA0117101302
B1314493744585N00343621WA0117101302
B1314503744584N00343614WA0117101302
B1314513744583N00343606WA0117001301
B1314523744582N00343598WA0117001301
B1314533744581N00343590WA0116901300
B1314543744582N00343582WA0116901299
B1314553744582N00343574WA0116901299
B1314563744583N00343566WA0117001299
B1314573744583N00343558WA0117101300
B1314583744583N00343550WA0117101300
B1314593744583N00343541WA0117101300
B1315003744583N00343533WA0117001301
B1315013744584N00343525WA0117001301
B1315023744585N00343516WA0117001301
B1315033744587N00343508WA0117001300
B1315043744589N00343500WA0117101301
B1315053744590N00343492WA0117301302
B1315063744591N00343484WA0117401304
B1315073744592N00343477WA0117501304
B1315083744593N00343469WA0117501305
B1315093744594N00343462WA0117501305
B1315103744595N00343455WA0117601306
B1315113744596N00343448WA0117601306
B1315123744596N00343441WA0117701307
B1315133744597N00343434WA0117901307
B1315143744597N00343427WA0117901308
B1315153744596N00343420WA0118001310
B1315163744596N00343414WA0118201312
B1315173744595N00343408WA0118301313
B1315183744595N00343402WA0118401314
B1315193744595N00343396WA0118401315
B1315203744595N00343390WA0118401315
B1315213744596N00343384WA0118401314
B1315223744597N00343378WA0118501314
B1315233744597N00343372WA0118501315
B1315243744598N00343366WA0118701316
B1315253744597N00343360WA0118801317
B1315263744597N00343354WA0118801318
B1315273744598N00343347WA0118801318
B1315283744600N00343340WA0118701319
B1315293744602N00343333WA0118901319
B1315303744604N00343328WA0119101321
B1315313744605N00343324WA0119301323
B1315323744605N00343320WA0119301324
B1315333744605N00343314WA0119101325
B1315343744606N00343306WA0119001324
B1315353744607N00343299WA0119001322
B1315363744608N00343293WA0119101322
B1315373744607N00343288WA0119301325
B1315383744606N00343284WA0119301326
B1315393744605N00343279WA0119201326
B1315403744604N00343272WA0118801326
B1315413744605N00343266WA0118801326
B1315423744605N00343260WA0118701325
B1315433744606N00343255WA0118701324
B1315443744606N00343251WA0118701324
B1315453744606N00343247WA0118601323
B1315463744606N00343242WA0118301320
B1315473744606N00343236WA0117901318
B1315483744607N00343229WA0117701316
B1315493744607N00343222WA0117601314
B1315503744606N00343217WA0117601312
B1315513744605N00343211WA0117501311
B1315523744604N00343205WA0117401310
B1315533744604N00343199WA0117101307
B1315543744604N00343192WA0116901305
B1315553744605N00343185WA0116801303
B1315563744605N00343179WA0116701302
B1315573744606N00343173WA0116501300
B1315583744607N00343167WA0116501298
B1315593744608N00343161WA0116301296
B1316003744609N00343154WA0116001294
B1316013744610N00343147WA0116001292
B1316023744612N00343141WA0116101291
B1316033744614N00343135WA0116001291
B1316043744616N00343130WA0116001291
B1316053744617N00343125WA0115901291
B1316063744618N00343119WA0115801290
B1316073744618N00343112WA0115701289
B1316083744619N00343106WA0115501287
B1316093744621N00343100WA0115201285
B1316103744623N00343093WA0115101284
B1316113744624N00343086WA0115001282
B1316123744623N00343078WA0114901280
B1316133744622N00343071WA0114801279
B1316143744621N00343064WA0114601278
B1316153744621N00343058WA0114501277
B1316163744620N00343052WA0114301276
B1316173744620N00343045WA0114001274
B1316183744619N00343039WA0113801272
B1316193744617N00343032WA0113801270
B1316203744616N00343025WA0113901269
B1316213744615N00343018WA0113801268
B1316223744614N00343012WA0113601267
B1316233744613N00343004WA0113401265
B1316243744612N00342996WA0113301263
B1316253744610N00342987WA0113301261
B1316263744609N00342979WA0113401261
B1316273744608N00342972WA0113501262
B1316283744607N00342965WA0113401262
B1316293744605N00342958WA0113101261
B1316303744603N00342950WA0112801258
B1316313744602N00342942WA0112601256
B1316323744601N00342934WA0112501253
B1316333744601N00342927WA0112501252
B1316343744601N00342921WA0112301251
B1316353744601N00342914WA0112101249
B1316363744601N00342907WA0111701246
B1316373744600N00342899WA0111501243
B1316383744600N00342891WA0111301240
B1316393744599N00342884WA0111201239
B1316403744599N00342877WA0111201238
B1316413744598N00342871WA0111101237
B1316423744599N00342863WA0110801235
B1316433744598N00342855WA0110701233
B1316443744598N00342847WA0110801232
B1316453744596N00342840WA0111001233
B1316463744595N00342835WA0111101235
B1316473744594N00342830WA0111101236
B1316483744594N00342824WA0110901235
B1316493744594N00342817WA0110701235
B1316503744595N00342809WA0110501231
B1316513744594N00342800WA0110501231
B1316523744593N00342793WA0110701232
B1316533744592N00342788WA0110701234
B1316543744591N00342782WA0110601235
B1316553744591N00342776WA0110301234
B1316563744591N00342769WA0110001232
B1316573744591N00342761WA0109801231
B1316583744592N00342755WA0109901230
B1316593744594N00342750WA0110201231
B1317003744595N00342746WA0110301231
B1317013744596N00342741WA0110201232
B1317023744596N00342736WA0110001232
B1317033744597N00342730WA0109801231
B1317043744599N00342725WA0109901230
B1317053744601N00342721WA0109701227
B1317063744603N00342717WA0109601225
B1317073744605N00342714WA0109501223
B1317083744607N00342710WA0109201221
B1317093744608N00342705WA0108901218
B1317103744610N00342699WA0108701216
B1317113744611N00342693WA0108601214
B1317123744611N00342687WA0108501212
B1317133744611N00342681WA0108301212
B1317143744610N00342676WA0108201210
B1317153744610N00342671WA0108001208
B1317163744610N00342665WA0107801206
B1317173744610N00342659WA0107601204
B1317183744610N00342652WA0107401202
B1317193744610N00342645WA0107201200
B1317203744609N00342637WA0107101198
B1317213744609N00342630WA0107001197
B1317223744609N00342624WA0106801195
B1317233744610N00342618WA0106701194
B1317243744610N00342612WA0106401192
B1317253744610N00342605WA0106301190
B1317263744609N00342598WA0106001187
B1317273744609N00342590WA0105801184
B1317283744609N00342584WA0105701182
B1317293744608N00342578WA0105401181
B1317303744609N00342572WA0105201179
B1317313744610N00342565WA0104901176
B1317323744610N00342559WA0104601173
B1317333744611N00342552WA0104301170
B1317343744611N00342546WA0104001166
B1317353744611N00342538WA0103601163
B1317363744612N00342531WA0103201160
B1317373744614N00342524WA0102901157
B1317383744616N00342519WA0102501153
B1317393744619N00342514WA0102201150
B1317403744621N00342509WA0102101147
B1317413744624N00342504WA0101901144
B1317423744626N00342498WA0101601140
B1317433744628N00342493WA0101301137
B1317443744630N00342487WA0101001133
B1317453744631N00342480WA0100601130
B1317463744632N00342473WA0100401126
B1317473744633N00342466WA0100101123
B1317483744634N00342459WA0099801120
B1317493744636N00342452WA0099601117
B1317503744637N00342446WA0099501115
B1317513744637N00342440WA0099301114
B1317523744638N00342434WA0099001111
B1317533744638N00342427WA0098701108
B1317543744639N00342419WA0098401105
B1317553744639N00342412WA0098301102
B1317563744640N00342405WA0098101100
B1317573744640N00342399WA0097901099
B1317583744641N00342394WA0097701097
B1317593744641N00342388WA0097301094
B1318003744642N00342381WA0097101091
B1318013744642N00342374WA0096901088
B1318023744641N00342365WA0096601084
B1318033744640N00342357WA0096401082
B1318043744639N00342350WA0096201081
B1318053744638N00342343WA0096201080
B1318063744638N00342338WA0095801077
B1318073744639N00342331WA0095401074
B1318083744638N00342323WA0095101071
B1318093744637N00342315WA0094701068
B1318103744636N00342306WA0094501065
B1318113744634N00342298WA0094201063
B1318123744633N00342291WA0094101060
B1318133744632N00342282WA0093801057
B1318143744631N00342273WA0093401054
B1318153744630N00342265WA0093101051
B1318163744630N00342256WA0093001048
B1318173744629N00342248WA0092801045
B1318183744628N00342241WA0092401043
B1318193744628N00342233WA0092101039
B1318203744628N00342225WA0091701035
B1318213744629N00342216WA0091201031
B1318223744629N00342208WA0091001027
B1318233744629N00342200WA0090801025
B1318243744628N00342192WA0090601023
B1318253744628N00342186WA0090401022
B1318263744628N00342179WA0090201020
B1318273744629N00342173WA0090001017
B1318283744629N00342166WA0089801014
B1318293744630N00342160WA0089501012
B1318303744630N00342154WA0089301009
B1318313744629N00342147WA0089101007
B1318323744629N00342141WA0089101005
B1318333744628N00342134WA0089001003
B1318343744627N00342127WA0088701001
B1318353744626N00342120WA0088500999
B1318363744625N00342113WA0088400997
B1318373744624N00342106WA0088200995
B1318383744622N00342099WA0088100993
B1318393744620N00342092WA0088100992
B1318403744618N00342085WA0087900991
B1318413744617N00342078WA0087800990
B1318423744615N00342072WA0087600988
B1318433744613N00342065WA0087400986
B1318443744611N00342058WA0087200984
B1318453744610N00342051WA0087100982
B1318463744608N00342044WA0087000980
B1318473744607N00342037WA0086800978
B1318483744606N00342030WA0086800977
B1318493744604N00342024WA0086700976
B1318503744603N00342018WA0086500975
B1318513744601N00342011WA0086000974
B1318523744600N00342003WA0085300971
B1318533744600N00341995WA0085100969
B1318543744600N00341987WA0085100966
B1318553744600N00341980WA0085200966
B1318563744600N00341975WA0085100965
B1318573744600N00341970WA0084900963
B1318583744599N00341963WA0084600960
B1318593744599N00341956WA0084200958
B1319003744598N00341949WA0083800955
B1319013744597N00341941WA0083500951
B1319023744597N00341934WA0083300947
B1319033744598N00341928WA0083000944
B1319043744598N00341921WA0082800940
B1319053744597N00341913WA0082500937
B1319063744596N00341906WA0082300934
B1319073744594N00341898WA0081900931
B1319083744592N00341890WA0081600928
B1319093744590N00341882WA0081300925
B1319103744589N00341874WA0081000921
B1319113744589N00341865WA0080900919
B1319123744589N00341857WA0080900917
B1319133744589N00341850WA0080900917
B1319143744590N00341843WA0080800917
B1319153744590N00341836WA0080700916
B1319163744590N00341829WA0080600914
B1319173744589N00341821WA0080600912
B1319183744589N00341813WA0080500911
B1319193744588N00341805WA0080500911
B1319203744587N00341798WA0080600910
B1319213744586N00341791WA0080700910
B1319223744585N00341784WA0080900911
B1319233744585N00341779WA0081000913
B1319243744585N00341774WA0081200915
B1319253744586N00341770WA0081300916
B1319263744587N00341766WA0081400917
B1319273744588N00341761WA0081500919
B1319283744589N00341757WA0081700920
B1319293744589N00341752WA0081900922
B1319303744589N00341747WA0082100924
B1319313744588N00341742WA0082300926
B1319323744587N00341738WA0082300928
B1319333744587N00341732WA0082100927
B1319343744588N00341726WA0081800926
B1319353744590N00341719WA0081900925
B1319363744592N00341712WA0082300926
B1319373744593N00341706WA0082700931
B1319383744593N00341701WA0083200935
B1319393744593N00341696WA0083400939
B1319403744593N00341689WA0083400941
B1319413744595N00341683WA0083500941
B1319423744597N00341678WA0083500942
B1319433744598N00341674WA0083800944
B1319443744600N00341671WA0084000946
B1319453744601N00341667WA0084200948
B1319463744603N00341664WA0084200950
B1319473744604N00341659WA0084300951
B1319483744607N00341656WA0084400952
B1319493744610N00341653WA0084600954
B1319503744612N00341653WA0084900955
B1319513744614N00341652WA0085100958
B1319523744616N00341652WA0085300960
B1319533744618N00341651WA0085300962
B1319543744620N00341651WA0085300962
B1319553744623N00341651WA0085400962
B1319563744626N00341651WA0085500963
B1319573744629N00341650WA0085600964
B1319583744631N00341648WA0085800966
B1319593744633N00341645WA0085800967
B1320003744634N00341642WA0085900967
B1320013744635N00341639WA0086000968
B1320023744637N00341636WA0086000969
B1320033744639N00341632WA0086200969
B1320043744641N00341627WA0086200969
B1320053744642N00341621WA0086100969
B1320063744642N00341615WA0086300971
B1320073744641N00341609WA0086300972
B1320083744639N00341602WA0086300973
B1320093744636N00341596WA0086200973
B1320103744633N00341589WA0086000973
B1320113744629N00341583WA0086200974
B1320123744625N00341577WA0086500975
B1320133744621N00341571WA0086600975
B1320143744618N00341565WA0086500974
B1320153744615N00341558WA0086500974
B1320163744612N00341551WA0086500973
B1320173744609N00341545WA0086600973
B1320183744606N00341540WA0086800974
B1320193744603N00341535WA0087000974
B1320203744600N00341531WA0087100975
B1320213744598N00341525WA0087200976
B1320223744596N00341518WA0087200976
B1320233744595N00341511WA0087400979
B1320243744593N00341506WA0087700981
B1320253744592N00341501WA0087800983
B1320263744592N00341497WA0087900984
B1320273744593N00341492WA0087900985
B1320283744595N00341488WA0087800986
B1320293744597N00341485WA0087900986
B1320303744598N00341483WA0088000988
B1320313744599N00341481WA0088100989
B1320323744600N00341479WA0088100990
B1320333744601N00341478WA0088000991
B1320343744604N00341475WA0087900990
B1320353744605N00341471WA0087800988
B1320363744606N00341464WA0087900987
B1320373744605N00341457WA0088000986
B1320383744603N00341450WA0088100987
B1320393744600N00341444WA0088300988
B1320403744598N00341438WA0088300989
B1320413744596N00341433WA0088200990
B1320423744594N00341426WA0087900989
B1320433744592N00341418WA0087600988
B1320443744589N00341410WA0087900988
B1320453744587N00341403WA0088100988
B1320463744585N00341396WA0088200990
B1320473744583N00341391WA0088200991
B1320483744581N00341385WA0088200992
B1320493744579N00341379WA0088100991
B1320503744577N00341371WA0087900989
B1320513744574N00341364WA0087700988
B1320523744571N00341357WA0087700987
B1320533744568N00341350WA0087800988
B1320543744565N00341343WA0087900989
B1320553744562N00341336WA0087900989
B1320563744559N00341329WA0087800989
B1320573744555N00341321WA0087700988
B1320583744552N00341313WA0087700987
B1320593744550N00341305WA0087800987
B1321003744547N00341297WA0087900987
B1321013744544N00341291WA0087900988
B1321023744540N00341284WA0088000988
B1321033744537N00341276WA0087800988
B1321043744534N00341268WA0087700987
B1321053744532N00341261WA0087800986
B1321063744529N00341254WA0087800987
B1321073744527N00341248WA0087900987
B1321083744525N00341241WA0087600987
B1321093744524N00341232WA0087200986
B1321103744523N00341225WA0087200985
B1321113744522N00341217WA0087200984
B1321123744522N00341209WA0087000982
B1321133744521N00341202WA0086800981
B1321143744521N00341194WA0086700979
B1321153744520N00341187WA0086500977
B1321163744520N00341180WA0086400975
B1321173744520N00341173WA0086300974
B1321183744519N00341167WA0086100972
B1321193744518N00341160WA0085800971
B1321203744517N00341152WA0085600969
B1321213744515N00341145WA0085500967
B1321223744514N00341138WA0085400965
B1321233744512N00341132WA0085200963
B1321243744511N00341126WA0084900961
B1321253744509N00341119WA0084400957
B1321263744506N00341111WA0084100954
B1321273744504N00341102WA0083900951
B1321283744502N00341095WA0083900949
B1321293744500N00341088WA0083800949
B1321303744499N00341082WA0083700948
B1321313744496N00341075WA0083400946
B1321323744494N00341068WA0083000944
B1321333744492N00341060WA0083000942
B1321343744491N00341053WA0083200941
B1321353744490N00341046WA0083400943
B1321363744488N00341041WA0083400943
B1321373744486N00341034WA0083300942
B1321383744484N00341027WA0083200941
B1321393744482N00341019WA0083200941
B1321403744480N00341013WA0083400941
B1321413744478N00341008WA0083400941
B1321423744476N00341002WA0083400941
B1321433744475N00340995WA0082800940
B1321443744473N00340987WA0082500939
B1321453744470N00340979WA0082500937
B1321463744467N00340972WA0082700937
B1321473744464N00340966WA0082600937
B1321483744461N00340959WA0082500936
B1321493744459N00340952WA0082100936
B1321503744457N00340943WA0081900934
B1321513744454N00340935WA0081600931
B1321523744450N00340927WA0081800930
B1321533744447N00340920WA0082100930
B1321543744444N00340915WA0082200933
B1321553744441N00340909WA0082100932
B1321563744438N00340903WA0081800931
B1321573744434N00340895WA0081600929
B1321583744429N00340887WA0081300927
B1321593744424N00340879WA0081400926
B1322003744420N00340872WA0081500927
B1322013744416N00340866WA0081500926
B1322023744411N00340859WA0081200925
B1322033744406N00340853WA0080700922
B1322043744400N00340845WA0080700918
B1322053744395N00340837WA0080700917
B1322063744391N00340830WA0080900919
B1322073744386N00340824WA0081000920
B1322083744382N00340818WA0081000919
B1322093744378N00340811WA0080800918
B1322103744373N00340805WA0080700916
B1322113744369N00340798WA0080700915
B1322123744364N00340792WA0080500914
B1322133744360N00340785WA0080300913
B1322143744355N00340778WA0079800910
B1322153744350N00340770WA0079600908
B1322163744345N00340763WA0079300906
B1322173744341N00340755WA0079200903
B1322183744338N00340748WA0078900901
B1322193744335N00340739WA0078700898
B1322203744332N00340730WA0078500895
B1322213744330N00340722WA0078400893
B1322223744327N00340714WA0078400891
B1322233744324N00340706WA0078200889
B1322243744322N00340698WA0078000886
B1322253744320N00340690WA0077700884
B1322263744318N00340682WA0077500881
B1322273744315N00340674WA0077400880
B1322283744313N00340666WA0077300878
B1322293744310N00340659WA0077200877
B1322303744308N00340651WA0077000875
B1322313744306N00340643WA0076800873
B1322323744305N00340635WA0076600871
B1322333744303N00340626WA0076400868
B1322343744301N00340618WA0076300866
B1322353744299N00340610WA0076100864
B1322363744297N00340601WA0075800862
B1322373744295N00340593WA0075600860
B1322383744294N00340585WA0075400859
B1322393744292N00340577WA0075400857
B1322403744291N00340569WA0075200855
B1322413744289N00340561WA0075000854
B1322423744288N00340552WA0074700852
B1322433744286N00340543WA0074500850
B1322443744284N00340535WA0074400849
B1322453744282N00340527WA0074600848
B1322463744281N00340519WA0074600848
B1322473744280N00340512WA0074200846
B1322483744279N00340504WA0073800845
B1322493744279N00340495WA0073700843
B1322503744278N00340487WA0073500841
B1322513744278N00340478WA0073300839
B1322523744277N00340471WA0073300838
B1322533744276N00340463WA0073200837
B1322543744276N00340456WA0073100836
B1322553744275N00340449WA0072900834
B1322563744274N00340441WA0072700832
B1322573744273N00340432WA0072400830
B1322583744273N00340424WA0072500828
B1322593744272N00340416WA0072600828
B1323003744271N00340409WA0072800828
B1323013744270N00340402WA0072900829
B1323023744270N00340394WA0073100831
B1323033744270N00340388WA0073300833
B1323043744269N00340382WA0073400834
B1323053744269N00340376WA0073400835
B1323063744269N00340371WA0073200836
B1323073744271N00340365WA0072800836
B1323083744274N00340360WA0072500836
B1323093744278N00340355WA0072800836
B1323103744281N00340350WA0073200837
B1323113744283N00340347WA0073500839
B1323123744285N00340344WA0073700841
B1323133744287N00340341WA0073700842
B1323143744290N00340338WA0073600843
B1323153744292N00340335WA0073200840
B1323163744295N00340332WA0073100841
B1323173744299N00340328WA0073300840
B1323183744302N00340325WA0073700841
B1323193744304N00340322WA0073700841
B1323203744306N00340318WA0073700841
B1323213744309N00340313WA0073700842
B1323223744312N00340309WA0073700842
B1323233744316N00340305WA0073700842
B1323243744319N00340301WA0073800843
B1323253744322N00340298WA0074100844
B1323263744324N00340295WA0074300845
B1323273744326N00340293WA0074300846
B1323283744329N00340291WA0074100847
B1323293744333N00340289WA0073700847
B1323303744338N00340286WA0073700845
B1323313744342N00340283WA0073700845
B1323323744346N00340280WA0073800845
B1323333744350N00340278WA0073800846
B1323343744354N00340276WA0073900846
B1323353744358N00340274WA0073900846
B1323363744362N00340271WA0073700846
B1323373744367N00340269WA0073700846
B1323383744372N00340267WA0073800846
B1323393744377N00340265WA0074000847
B1323403744381N00340263WA0074200848
B1323413744385N00340260WA0074300850
B1323423744388N00340257WA0074300851
B1323433744392N00340254WA0074300851
B1323443744396N00340251WA0074400851
B1323453744400N00340247WA0074600851
B1323463744404N00340243WA0074600851
B1323473744408N00340239WA0074600852
B1323483744411N00340235WA0074800851
B1323493744415N00340231WA0074800852
B1323503744419N00340228WA0074700852
B1323513744422N00340225WA0074600852
B1323523744426N00340222WA0074600851
B1323533744430N00340219WA0074600851
B1323543744434N00340215WA0074600851
B1323553744438N00340212WA0074700851
B1323563744442N00340209WA0074700852
B1323573744446N00340205WA0074800852
B1323583744450N00340201WA0074900852
B1323593744454N00340198WA0075100853
B1324003744457N00340194WA0075300855
B1324013744459N00340190WA0075400858
B1324023744462N00340187WA0075600860
B1324033744465N00340184WA0075700861
B1324043744468N00340181WA0075500862
B1324053744472N00340178WA0075500863
B1324063744476N00340175WA0075500863
B1324073744479N00340170WA0075700864
B1324083744483N00340166WA0075800865
B1324093744486N00340160WA0076100866
B1324103744488N00340155WA0076300867
B1324113744491N00340150WA0076500869
B1324123744494N00340146WA0076600871
B1324133744496N00340142WA0076700872
B1324143744499N00340139WA0076700873
B1324153744502N00340135WA0076800873
B1324163744505N00340134WA0077000874
B1324173744508N00340133WA0077100875
B1324183744510N00340132WA0077200876
B1324193744513N00340132WA0077300877
B1324203744517N00340133WA0077400878
B1324213744518N00340135WA0077300878
B1324223744518N00340140WA0077100878
B1324233744515N00340146WA0076600875
B1324243744510N00340151WA0076300875
B1324253744504N00340153WA0076700875
B1324263744499N00340154WA0077200876
B1324273744495N00340154WA0077700878
B1324283744492N00340156WA0077800879
B1324293744490N00340160WA0077600880
B1324303744486N00340164WA0077500880
B1324313744481N00340169WA0077500881
B1324323744475N00340171WA0078000882
B1324333744471N00340174WA0078300885
B1324343744469N00340176WA0078400887
B1324353744468N00340180WA0078400888
B1324363744468N00340185WA0078300888
B1324373744468N00340190WA0078300888
B1324383744469N00340193WA0078600890
B1324393744471N00340196WA0078700891
B1324403744473N00340197WA0078800892
B1324413744475N00340198WA0078800893
B1324423744478N00340196WA0078900895
B1324433744480N00340193WA0079100896
B1324443744482N00340188WA0079300897
B1324453744483N00340182WA0079600899
B1324463744484N00340176WA0079800901
B1324473744485N00340170WA0079900903
B1324483744486N00340166WA0080000905
B1324493744489N00340162WA0079900906
B1324503744491N00340159WA0080000907
B1324513744493N00340156WA0080400908
B1324523744495N00340153WA0080700910
B1324533744497N00340149WA0080700912
B1324543744498N00340145WA0081000914
B1324553744499N00340141WA0081300917
B1324563744499N00340137WA0081600920
B1324573744500N00340134WA0081800923
B1324583744500N00340130WA0082000925
B1324593744501N00340128WA0082100928
B1325003744503N00340128WA0082200929
B1325013744505N00340129WA0082500931
B1325023744505N00340132WA0082600934
B1325033744504N00340136WA0082800936
B1325043744501N00340141WA0082800937
B1325053744496N00340147WA0082600937
B1325063744491N00340151WA0082700938
B1325073744485N00340154WA0083200941
B1325083744481N00340157WA0083400944
B1325093744478N00340160WA0083300945
B1325103744475N00340164WA0083200946
B1325113744473N00340169WA0083000946
B1325123744471N00340174WA0083000945
B1325133744470N00340178WA0082800944
B1325143744472N00340182WA0082600942
B1325153744474N00340184WA0082500941
B1325163744476N00340185WA0082700941
B1325173744479N00340185WA0082900942
B1325183744481N00340184WA0083000942
B1325193744482N00340183WA0083100943
B1325203744484N00340180WA0083100943
B1325213744485N00340176WA0082900943
B1325223744486N00340172WA0082800941
B1325233744488N00340168WA0082500940
B1325243744490N00340165WA0082500938
B1325253744492N00340161WA0082600938
B1325263744494N00340157WA0082600938
B1325273744495N00340152WA0082500937
B1325283744496N00340148WA0082500935
B1325293744498N00340144WA0082300933
B1325303744501N00340141WA0081700931
B1325313744504N00340137WA0081600929
B1325323744507N00340133WA0081600928
B1325333744509N00340130WA0081800927
B1325343744512N00340127WA0081700927
B1325353744514N00340123WA0081500926
B1325363744517N00340120WA0081200924
B1325373744521N00340117WA0081100923
B1325383744524N00340113WA0081200921
B1325393744526N00340108WA0081200921
B1325403744528N00340103WA0081200920
B1325413744529N00340098WA0081200920
B1325423744531N00340093WA0081200920
B1325433744533N00340089WA0081100919
B1325443744536N00340086WA0081300919
B1325453744539N00340083WA0081600920
B1325463744541N00340080WA0081700922
B1325473744544N00340077WA0081800923
B1325483744547N00340073WA0082100925
B1325493744549N00340068WA0082200927
B1325503744551N00340064WA0082400929
B1325513744553N00340059WA0082500930
B1325523744555N00340055WA0082500931
B1325533744557N00340051WA0082200931
B1325543744560N00340047WA0082100931
B1325553744564N00340043WA0082300931
B1325563744567N00340040WA0082300932
B1325573744569N00340036WA0082400932
B1325583744572N00340032WA0082500933
B1325593744574N00340027WA0082500935
B1326003744576N00340023WA0082600936
B1326013744577N00340018WA0082700936
B1326023744579N00340013WA0082700937
B1326033744581N00340008WA0082700937
B1326043744583N00340002WA0082500937
B1326053744585N00339997WA0082700937
B1326063744587N00339992WA0082600937
B1326073744589N00339986WA0082600937
B1326083744590N00339981WA0082500937
B1326093744593N00339975WA0082500936
B1326103744595N00339969WA0082500936
B1326113744597N00339963WA0082500935
B1326123744600N00339957WA0082500935
B1326133744602N00339951WA0082500934
B1326143744604N00339944WA0082500933
B1326153744607N00339938WA0082500933
B1326163744610N00339932WA0082500934
B1326173744613N00339926WA0082600934
B1326183744616N00339921WA0082700933
B1326193744619N00339915WA0082700933
B1326203744622N00339909WA0082700934
B1326213744624N00339903WA0082800934
B1326223744627N00339897WA0082700934
B1326233744630N00339890WA0082600934
B1326243744633N00339884WA0082700934
B1326253744637N00339878WA0082800934
B1326263744640N00339871WA0082500934
B1326273744643N00339864WA0082500934
B1326283744648N00339857WA0082500933
B1326293744652N00339851WA0082600934
B1326303744656N00339846WA0082700935
B1326313744660N00339841WA0082900936
B1326323744663N00339837WA0083000938
B1326333744666N00339834WA0083100938
B1326343744669N00339829WA0083100939
B1326353744672N00339824WA0083100939
B1326363744675N00339818WA0083200940
B1326373744678N00339812WA0083400941
B1326383744681N00339806WA0083300941
B1326393744685N00339800WA0083400942
B1326403744689N00339795WA0083400943
B1326413744693N00339789WA0083700944
B1326423744696N00339784WA0084000946
B1326433744699N00339778WA0084200948
B1326443744702N00339772WA0084400950
B1326453744705N00339765WA0084500951
B1326463744708N00339759WA0084600953
B1326473744711N00339753WA0084800953
B1326483744714N00339747WA0084800954
B1326493744718N00339743WA0085000955
B1326503744721N00339740WA0085200957
B1326513744724N00339739WA0085300959
B1326523744726N00339739WA0085300960
B1326533744729N00339740WA0085400961
B1326543744730N00339743WA0085500962
B1326553744730N00339746WA0085500963
B1326563744727N00339749WA0085300964
B1326573744722N00339752WA0085200964
B1326583744717N00339754WA0085300964
B1326593744712N00339755WA0085500965
B1327003744709N00339756WA0085800967
B1327013744707N00339758WA0086100968
B1327023744706N00339761WA0086200970
B1327033744705N00339763WA0086300971
B1327043744705N00339766WA0086500972
B1327053744707N00339769WA0086600973
B1327063744711N00339770WA0086600974
B1327073744714N00339770WA0086800975
B1327083744718N00339770WA0086700976
B1327093744722N00339768WA0086800977
B1327103744726N00339767WA0086500977
B1327113744731N00339765WA0086500978
B1327123744735N00339764WA0086800978
B1327133744739N00339762WA0087000979
B1327143744743N00339761WA0087100980
B1327153744746N00339760WA0087200981
B1327163744750N00339759WA0087200981
B1327173744754N00339757WA0087200982
B1327183744758N00339754WA0087300982
B1327193744761N00339750WA0087300983
B1327203744764N00339744WA0087300984
B1327213744766N00339737WA0087200983
B1327223744768N00339729WA0087000983
B1327233744769N00339721WA0087200983
B1327243744771N00339713WA0087400984
B1327253744773N00339706WA0087500984
B1327263744774N00339699WA0087800986
B1327273744775N00339691WA0087800988
B1327283744776N00339683WA0088000989
B1327293744777N00339676WA0088100990
B1327303744778N00339668WA0088300992
B1327313744779N00339661WA0088400993
B1327323744780N00339653WA0088600995
B1327333744781N00339646WA0088800996
B1327343744783N00339638WA0088900998
B1327353744784N00339630WA0089100999
B1327363744785N00339623WA0089201001
B1327373744786N00339615WA0089401002
B1327383744788N00339607WA0089501004
B1327393744790N00339599WA0089701006
B1327403744792N00339591WA0089901008
B1327413744794N00339583WA0090101010
B1327423744795N00339575WA0090301013
B1327433744797N00339567WA0090701015
B1327443744798N00339559WA0091001018
B1327453744798N00339551WA0091101020
B1327463744799N00339542WA0091201023
B1327473744798N00339534WA0091701026
B1327483744798N00339527WA0092101030
B1327493744799N00339520WA0092401034
B1327503744801N00339513WA0092601036
B1327513744803N00339507WA0092701038
B1327523744807N00339502WA0093101041
B1327533744811N00339499WA0093401044
B1327543744815N00339498WA0093501047
B1327553744819N00339496WA0093901049
B1327563744823N00339492WA0094101052
B1327573744826N00339489WA0094401054
B1327583744830N00339486WA0094601057
B1327593744834N00339484WA0094901059
B1328003744837N00339485WA0095201061
B1328013744839N00339486WA0095301064
B1328023744842N00339487WA0095501066
B1328033744845N00339487WA0095801069
B1328043744848N00339487WA0096001072
B1328053744852N00339486WA0096201074
B1328063744855N00339484WA0096301076
B1328073744858N00339481WA0096501078
B1328083744861N00339478WA0096701080
B1328093744864N00339474WA0096701081
B1328103744867N00339468WA0096701081
B1328113744870N00339460WA0096201080
B1328123744871N00339450WA0096001079
B1328133744870N00339439WA0096101077
B1328143744868N00339428WA0096201076
B1328153744866N00339419WA0096201077
B1328163744865N00339411WA0096201077
B1328173744865N00339403WA0096001076
B1328183744866N00339394WA0095601075
B1328193744866N00339384WA0095301073
B1328203744867N00339375WA0095201071
B1328213744869N00339367WA0095101069
B1328223744873N00339361WA0094701066
B1328233744877N00339356WA0094301063
B1328243744881N00339354WA0094201061
B1328253744885N00339354WA0094501059
B1328263744888N00339356WA0094501058
B1328273744889N00339359WA0094301057
B1328283744889N00339362WA0094201055
B1328293744888N00339366WA0094101053
B1328303744887N00339371WA0094001052
B1328313744884N00339375WA0093701051
B1328323744879N00339377WA0093601054
B1328333744874N00339379WA0093401053
B1328343744870N00339381WA0093301053
B1328353744867N00339384WA0093101052
B1328363744864N00339388WA0093001051
B1328373744862N00339392WA0093001050
B1328383744860N00339396WA0093101050
B1328393744858N00339399WA0093201051
B1328403744855N00339401WA0093201050
B1328413744852N00339403WA0093101050
B1328423744848N00339406WA0092901048
B1328433744844N00339410WA0092501046
B1328443744839N00339414WA0092201044
B1328453744835N00339419WA0092101042
B1328463744830N00339426WA0092301041
B1328473744825N00339431WA0092901045
B1328483744822N00339433WA0093501052
B1328493744820N00339434WA0093901057
B1328503744819N00339436WA0094001059
B1328513744817N00339439WA0094101059
B1328523744815N00339444WA0094001059
B1328533744811N00339449WA0094201060
B1328543744807N00339452WA0094501063
B1328553744803N00339455WA0094901066
B1328563744801N00339459WA0095101069
B1328573744801N00339464WA0095201070
B1328583744803N00339467WA0095301072
B1328593744805N00339469WA0095601074
B1329003744806N00339469WA0095901076
B1329013744808N00339468WA0095901077
B1329023744809N00339464WA0095901079
B1329033744812N00339459WA0095901080
B1329043744814N00339453WA0095801080
B1329053744814N00339445WA0095701080
B1329063744812N00339437WA0095601078
B1329073744807N00339430WA0095401077
B1329083744800N00339424WA0095001075
B1329093744792N00339422WA0095001073
B1329103744786N00339423WA0095401073
B1329113744780N00339427WA0096001076
B1329123744777N00339430WA0096401080
B1329133744776N00339433WA0096801083
B1329143744775N00339436WA0097101086
B1329153744773N00339438WA0097101087
B1329163744773N00339442WA0097001087
B1329173744772N00339447WA0096901087
B1329183744772N00339452WA0097101087
B1329193744771N00339456WA0097401089
B1329203744770N00339459WA0097801093
B1329213744769N00339462WA0098201097
B1329223744769N00339465WA0098401099
B1329233744770N00339468WA0098401102
B1329243744772N00339470WA0098701103
B1329253744775N00339472WA0098901106
B1329263744778N00339474WA0099301110
B1329273744781N00339474WA0099601114
B1329283744783N00339474WA0100001119
B1329293744785N00339471WA0100201122
B1329303744788N00339467WA0100301123
B1329313744792N00339461WA0100301122
B1329323744794N00339454WA0100101121
B1329333744795N00339444WA0100001121
B1329343744794N00339434WA0099901121
B1329353744793N00339426WA0100301122
B1329363744791N00339419WA0100601124
B1329373744790N00339412WA0100601125
B1329383744789N00339405WA0100301124
B1329393744789N00339396WA0099901122
B1329403744789N00339387WA0099601119
B1329413744790N00339377WA0099601118
B1329423744791N00339370WA0099801118
B1329433744791N00339364WA0100101118
B1329443744791N00339359WA0100001118
B1329453744792N00339353WA0099801117
B1329463744794N00339347WA0099501116
B1329473744796N00339340WA0099101114
B1329483744799N00339333WA0099101112
B1329493744803N00339327WA0099201112
B1329503744807N00339325WA0099401114
B1329513744810N00339325WA0099501115
B1329523744812N00339326WA0099501116
B1329533744813N00339328WA0099401116
B1329543744814N00339330WA0099201115
B1329553744815N00339334WA0099001114
B1329563744816N00339338WA0098901113
B1329573744814N00339342WA0098601111
B1329583744810N00339347WA0098501110
B1329593744804N00339351WA0098201108
B1330003744799N00339355WA0098401108
B1330013744795N00339358WA0098401108
B1330023744791N00339361WA0098601109
B1330033744787N00339364WA0098801110
B1330043744783N00339367WA0099001111
B1330053744780N00339369WA0099301113
B1330063744777N00339371WA0099501115
B1330073744774N00339373WA0099501117
B1330083744771N00339376WA0099501118
B1330093744767N00339380WA0099401119
B1330103744764N00339384WA0099501119
B1330113744760N00339388WA0099601120
B1330123744755N00339391WA0099901122
B1330133744751N00339394WA0100001123
B1330143744747N00339397WA0100001124
B1330153744743N00339401WA0099901125
B1330163744739N00339404WA0099901125
B1330173744734N00339407WA0099801125
B1330183744728N00339410WA0099701124
B1330193744723N00339413WA0099601123
B1330203744718N00339415WA0099601123
B1330213744713N00339418WA0099701123
B1330223744708N00339422WA0099801123
B1330233744705N00339425WA0100101124
B1330243744702N00339429WA0100401126
B1330253744700N00339431WA0100601128
B1330263744700N00339433WA0100601130
B1330273744700N00339435WA0100601130
B1330283744702N00339436WA0100701130
B1330293744704N00339437WA0100701130
B1330303744707N00339436WA0100901130
B1330313744710N00339435WA0101001131
B1330323744712N00339432WA0101101132
B1330333744715N00339427WA0101301133
B1330343744716N00339422WA0101301133
B1330353744717N00339415WA0101301134
B1330363744718N00339409WA0101101134
B1330373744719N00339401WA0101301135
B1330383744720N00339394WA0101601136
B1330393744719N00339388WA0101701137
B1330403744720N00339382WA0101701138
B1330413744721N00339378WA0101501138
B1330423744723N00339375WA0101101137
B1330433744727N00339373WA0101001137
B1330443744730N00339373WA0100901135
B1330453744733N00339375WA0101101136
B1330463744734N00339378WA0101101136
B1330473744733N00339382WA0101001135
B1330483744731N00339388WA0100801134
B1330493744728N00339394WA0100601133
B1330503744724N00339400WA0100701132
B1330513744721N00339405WA0101001132
B1330523744719N00339408WA0101401134
B1330533744718N00339410WA0101701137
B1330543744716N00339411WA0101801138
B1330553744716N00339412WA0101801139
B1330563744717N00339415WA0101701138
B1330573744719N00339417WA0101701138
B1330583744721N00339417WA0101701139
B1330593744724N00339415WA0101801141
B1331003744727N00339412WA0101801141
B1331013744729N00339407WA0101701141
B1331023744732N00339402WA0101701141
B1331033744734N00339397WA0101701141
B1331043744736N00339392WA0102101142
B1331053744736N00339387WA0102501144
B1331063744735N00339382WA0102601146
B1331073744734N00339376WA0102501145
B1331083744733N00339369WA0102101144
B1331093744734N00339361WA0101701142
B1331103744736N00339353WA0101601141
B1331113744737N00339346WA0101801141
B1331123744737N00339341WA0102001142
B1331133744738N00339335WA0101901142
B1331143744739N00339329WA0101701141
B1331153744741N00339323WA0101701140
B1331163744743N00339316WA0101601139
B1331173744744N00339310WA0101701139
B1331183744745N00339304WA0101801139
B1331193744747N00339300WA0101701140
B1331203744750N00339296WA0101701138
B1331213744753N00339292WA0101601138
B1331223744757N00339288WA0101601137
B1331233744760N00339283WA0101601137
B1331243744763N00339277WA0101501138
B1331253744766N00339271WA0101401137
B1331263744770N00339266WA0101201136
B1331273744773N00339261WA0101201134
B1331283744777N00339256WA0101201133
B1331293744781N00339252WA0101001131
B1331303744785N00339248WA0100801130
B1331313744789N00339244WA0100601129
B1331323744794N00339241WA0100601127
B1331333744800N00339239WA0100601126
B1331343744806N00339236WA0100501127
B1331353744811N00339234WA0100601126
B1331363744815N00339231WA0100901128
B1331373744819N00339227WA0101201130
B1331383744822N00339223WA0101301132
B1331393744824N00339218WA0101401132
B1331403744828N00339213WA0101501133
B1331413744832N00339208WA0101101132
B1331423744836N00339203WA0101301133
B1331433744839N00339197WA0101401133
B1331443744842N00339192WA0101501135
B1331453744844N00339186WA0101601135
B1331463744848N00339180WA0101601136
B1331473744852N00339174WA0101501136
B1331483744855N00339168WA0101601137
B1331493744859N00339162WA0101701137
B1331503744863N00339157WA0101701138
B1331513744867N00339153WA0101701137
B1331523744871N00339148WA0101701137
B1331533744876N00339144WA0101701137
B1331543744879N00339140WA0101801137
B1331553744883N00339137WA0101801138
B1331563744887N00339133WA0101701137
B1331573744891N00339130WA0101401136
B1331583744895N00339127WA0101501136
B1331593744900N00339124WA0101501135
B1332003744904N00339121WA0101501135
B1332013744909N00339117WA0101301134
B1332023744913N00339113WA0101201135
B1332033744916N00339108WA0101401136
B1332043744919N00339102WA0101601137
B1332053744922N00339095WA0101501137
B1332063744925N00339089WA0101201135
B1332073744929N00339083WA0101001132
B1332083744933N00339079WA0100901131
B1332093744938N00339074WA0100901130
B1332103744942N00339070WA0100901130
B1332113744946N00339065WA0101001130
B1332123744950N00339060WA0100901129
B1332133744954N00339056WA0100701128
B1332143744959N00339052WA0100601127
B1332153744964N00339049WA0100601126
B1332163744969N00339045WA0100801126
B1332173744974N00339042WA0100801127
B1332183744978N00339039WA0100801127
B1332193744981N00339035WA0100701128
B1332203744985N00339031WA0100601128
B1332213744989N00339026WA0100401127
B1332223744993N00339022WA0100201125
B1332233744999N00339018WA0100001123
B1332243745004N00339015WA0099901121
B1332253745010N00339013WA0099901120
B1332263745014N00339013WA0099801119
B1332273745018N00339013WA0099801118
B1332283745022N00339014WA0099601117
B1332293745026N00339014WA0099501116
B1332303745031N00339013WA0099201114
B1332313745036N00339012WA0099401114
B1332323745042N00339009WA0099501116
B1332333745046N00339005WA0099801117
B1332343745050N00339001WA0100201119
B1332353745054N00338997WA0100501121
B1332363745058N00338994WA0100601124
B1332373745063N00338990WA0100801125
B1332383745067N00338988WA0100901127
B1332393745071N00338983WA0101201129
B1332403745074N00338978WA0101401132
B1332413745077N00338972WA0101601135
B1332423745079N00338965WA0101801137
B1332433745083N00338960WA0102101139
B1332443745087N00338958WA0102101141
B1332453745092N00338958WA0102101142
B1332463745095N00338960WA0102401144
B1332473745096N00338963WA0102801147
B1332483745096N00338967WA0103001149
B1332493745093N00338971WA0102801151
B1332503745089N00338974WA0102801152
B1332513745083N00338975WA0103201153
B1332523745077N00338975WA0103501154
B1332533745071N00338971WA0103601157
B1332543745065N00338965WA0103801159
B1332553745060N00338957WA0104101161
B1332563745058N00338948WA0104101163
B1332573745058N00338940WA0104201165
B1332583745059N00338931WA0104301166
B1332593745062N00338925WA0104501168
B1333003745065N00338920WA0104901170
B1333013745068N00338918WA0105101172
B1333023745071N00338916WA0105201174
B1333033745074N00338915WA0105301176
B1333043745077N00338915WA0105401177
B1333053745080N00338916WA0105501178
B1333063745083N00338918WA0105501179
B1333073745085N00338922WA0105501179
B1333083745084N00338927WA0105201179
B1333093745082N00338934WA0105301179
B1333103745079N00338939WA0105701180
B1333113745075N00338943WA0106001182
B1333123745070N00338945WA0106301185
B1333133745066N00338945WA0106501187
B1333143745060N00338944WA0106801189
B1333153745054N00338942WA0106901190
B1333163745048N00338937WA0107101192
B1333173745043N00338932WA0107401194
B1333183745039N00338924WA0107501197
B1333193745036N00338916WA0107801200
B1333203745034N00338907WA0108001202
B1333213745035N00338899WA0108201204
B1333223745037N00338892WA0108101206
B1333233745041N00338885WA0108101207
B1333243745045N00338880WA0108301207
B1333253745049N00338877WA0108401209
B1333263745052N00338877WA0108701211
B1333273745054N00338878WA0108701213
B1333283745056N00338882WA0108601214
B1333293745057N00338887WA0108301214
B1333303745058N00338893WA0108001214
B1333313745058N00338899WA0108401214
B1333323745057N00338904WA0108601214
B1333333745053N00338909WA0108601215
B1333343745048N00338913WA0108501215
B1333353745041N00338916WA0108501215
B1333363745035N00338916WA0108901215
B1333373745029N00338915WA0109201221
B1333383745023N00338912WA0109401223
B1333393745018N00338907WA0109501224
B1333403745013N00338899WA0109701226
B1333413745010N00338891WA0109801226
B1333423745010N00338882WA0110001227
B1333433745012N00338875WA0110001228
B1333443745016N00338870WA0109801229
B1333453745020N00338868WA0109901231
B1333463745024N00338868WA0110201232
B1333473745026N00338869WA0110401234
B1333483745028N00338871WA0110401234
B1333493745030N00338874WA0110301234
B1333503745032N00338879WA0110101232
B1333513745034N00338883WA0110101231
B1333523745036N00338887WA0110301231
B1333533745037N00338890WA0110401232
B1333543745039N00338892WA0110501233
B1333553745040N00338894WA0110501234
B1333563745043N00338897WA0110501233
B1333573745047N00338899WA0110401233
B1333583745051N00338900WA0110601234
B1333593745054N00338901WA0111001238
B1334003745057N00338901WA0111301241
B1334013745059N00338901WA0111701246
B1334023745061N00338902WA0111901247
B1334033745064N00338904WA0112001248
B1334043745066N00338909WA0112001248
B1334053745067N00338914WA0111701249
B1334063745066N00338919WA0112001250
B1334073745065N00338922WA0112501253
B1334083745062N00338923WA0112501255
B1334093745058N00338923WA0112501256
B1334103745052N00338922WA0112501254
B1334113745045N00338920WA0112101253
B1334123745039N00338916WA0112201253
B1334133745033N00338912WA0112601256
B1334143745030N00338906WA0113001260
B1334153745027N00338899WA0113301263
B1334163745025N00338892WA0113401264
B1334173745023N00338883WA0113701265
B1334183745022N00338876WA0114001267
B1334193745022N00338869WA0114401270
B1334203745023N00338863WA0114601274
B1334213745027N00338858WA0114801275
B1334223745031N00338854WA0115101276
B1334233745036N00338851WA0115201279
B1334243745040N00338850WA0115601282
B1334253745042N00338851WA0115901286
B1334263745044N00338855WA0116101288
B1334273745043N00338860WA0116001288
B1334283745041N00338866WA0116001289
B1334293745037N00338870WA0116301291
B1334303745032N00338873WA0116601294
B1334313745027N00338874WA0116901297
B1334323745022N00338874WA0117201299
B1334333745017N00338873WA0117301301
B1334343745011N00338870WA0117401302
B1334353745005N00338865WA0117401303
B1334363744999N00338858WA0117601305
B1334373744995N00338852WA0117901307
B1334383744992N00338845WA0118301310
B1334393744990N00338839WA0118701313
B1334403744989N00338832WA0119101316
B1334413744989N00338825WA0119301319
B1334423744990N00338819WA0119501321
B1334433744991N00338813WA0119701324
B1334443744993N00338810WA0119801326
B1334453744997N00338809WA0119801327
B1334463745001N00338811WA0119601328
B1334473745006N00338813WA0119601328
B1334483745009N00338815WA0120401333
B1334493745012N00338817WA0121001337
B1334503745013N00338819WA0121401342
B1334513745013N00338822WA0121701345
B1334523745012N00338827WA0121701346
B1334533745009N00338833WA0121501347
B1334543745004N00338838WA0121601347
B1334553744999N00338841WA0122001349
B1334563744995N00338842WA0122201352
B1334573744990N00338840WA0122501354
B1334583744986N00338838WA0122701357
B1334593744982N00338834WA0122901358
B1335003744977N00338829WA0123101359
B1335013744973N00338823WA0123201360
B1335023744971N00338816WA0123501362
B1335033744969N00338809WA0123701364
B1335043744969N00338803WA0124001367
B1335053744969N00338796WA0124401370
B1335063744970N00338791WA0124701373
B1335073744972N00338786WA0124901376
B1335083744976N00338781WA0125201378
B1335093744979N00338778WA0125301380
B1335103744984N00338776WA0125501382
B1335113744988N00338775WA0125701385
B1335123744991N00338776WA0125901388
B1335133744993N00338778WA0126101390
B1335143744993N00338782WA0126401392
B1335153744991N00338786WA0126401393
B1335163744988N00338791WA0126401394
B1335173744983N00338794WA0126501395
B1335183744976N00338795WA0126701397
B1335193744970N00338794WA0126901399
B1335203744966N00338791WA0127301402
B1335213744962N00338788WA0127501406
B1335223744959N00338783WA0127801408
B1335233744956N00338776WA0127901409
B1335243744953N00338768WA0127901410
B1335253744951N00338760WA0128001413
B1335263744949N00338752WA0128401416
B1335273744949N00338745WA0128601418
B1335283744949N00338738WA0128701420
B1335293744951N00338731WA0128701421
B1335303744955N00338725WA0128601422
B1335313744959N00338718WA0128701422
B1335323744964N00338713WA0129101425
B1335333744967N00338708WA0129401428
B1335343744971N00338706WA0129801432
B1335353744973N00338706WA0130101436
B1335363744975N00338709WA0130401438
B1335373744975N00338713WA0130301439
B1335383744972N00338718WA0130301440
B1335393744967N00338721WA0130601441
B1335403744961N00338722WA0130701443
B1335413744954N00338719WA0131001445
B1335423744948N00338715WA0131601448
B1335433744943N00338709WA0131801452
B1335443744940N00338701WA0131901455
B1335453744940N00338692WA0131801456
B1335463744942N00338683WA0131801456
B1335473744946N00338674WA0131901457
B1335483744950N00338667WA0132201460
B1335493744953N00338662WA0132701463
B1335503744956N00338659WA0133001468
B1335513744958N00338658WA0133301471
B1335523744961N00338658WA0133501473
B1335533744963N00338660WA0133701475
B1335543744963N00338663WA0133801476
B1335553744962N00338668WA0133801477
B1335563744958N00338671WA0133901479
B1335573744953N00338674WA0134101480
B1335583744946N00338675WA0134301482
B1335593744940N00338672WA0134501484
B1336003744933N00338667WA0134801486
B1336013744929N00338660WA0135001488
B1336023744925N00338651WA0135201490
B1336033744924N00338642WA0135401492
B1336043744924N00338633WA0135601494
B1336053744926N00338625WA0135701496
B1336063744929N00338618WA0135801497
B1336073744932N00338613WA0136001500
B1336083744936N00338609WA0136301502
B1336093744939N00338607WA0136601505
B1336103744941N00338606WA0136901508
B1336113744943N00338607WA0137101510
B1336123744943N00338610WA0137201512
B1336133744940N00338615WA0137201513
B1336143744935N00338618WA0137201514
B1336153744928N00338619WA0137401515
B1336163744921N00338618WA0137601517
B1336173744914N00338613WA0137801519
B1336183744908N00338606WA0138101521
B1336193744904N00338597WA0138301524
B1336203744902N00338588WA0138401526
B1336213744901N00338579WA0138601527
B1336223744903N00338571WA0138801528
B1336233744905N00338564WA0138801529
B1336243744908N00338558WA0138901531
B1336253744911N00338555WA0139201532
B1336263744914N00338552WA0139501535
B1336273744916N00338550WA0139701538
B1336283744918N00338551WA0139801540
B1336293744918N00338554WA0139801542
B1336303744917N00338559WA0139801542
B1336313744915N00338564WA0140001543
B1336323744911N00338567WA0140401546
B1336333744907N00338569WA0140701550
B1336343744901N00338568WA0140901553
B1336353744894N00338564WA0141101554
B1336363744887N00338559WA0141101555
B1336373744881N00338552WA0141101555
B1336383744877N00338544WA0141301557
B1336393744874N00338535WA0141401558
B1336403744872N00338526WA0141501559
B1336413744872N00338517WA0141601560
B1336423744873N00338508WA0141601560
B1336433744875N00338501WA0141601561
B1336443744878N00338495WA0141701562
B1336453744881N00338489WA0142001564
B1336463744884N00338484WA0142201566
B1336473744886N00338480WA0142501569
B1336483744888N00338476WA0142601571
B1336493744890N00338474WA0142801573
B1336503744893N00338473WA0142801574
B1336513744896N00338473WA0142901575
B1336523744898N00338474WA0143001577
B1336533744898N00338478WA0143101577
B1336543744896N00338482WA0142901578
B1336553744893N00338486WA0142701578
B1336563744887N00338489WA0142701578
B1336573744881N00338490WA0143201580
B1336583744875N00338488WA0143601581
B1336593744868N00338484WA0143701582
B1337003744863N00338478WA0143901584
B1337013744857N00338471WA0143901585
B1337023744853N00338462WA0144101587
B1337033744850N00338453WA0144301588
B1337043744849N00338444WA0144301588
B1337053744849N00338435WA0144301589
B1337063744852N00338428WA0144401590
B1337073744854N00338423WA0144501591
B1337083744856N00338419WA0144801595
B1337093744859N00338416WA0145001598
B1337103744861N00338413WA0145001599
B1337113744864N00338410WA0144801599
B1337123744868N00338406WA0144801598
B1337133744872N00338402WA0144901597
B1337143744876N00338399WA0144901597
B1337153744879N00338397WA0145001598
B1337163744881N00338395WA0145001599
B1337173744883N00338393WA0144901599
B1337183744885N00338390WA0144601598
B1337193744889N00338387WA0144301596
B1337203744893N00338386WA0144501595
B1337213744896N00338384WA0144601595
B1337223744899N00338383WA0144701595
B1337233744901N00338382WA0144701595
B1337243744904N00338381WA0144601595
B1337253744907N00338379WA0144501594
B1337263744910N00338378WA0144401593
B1337273744913N00338378WA0144401593
B1337283744915N00338378WA0144501593
B1337293744918N00338378WA0144601594
B1337303744921N00338376WA0144701594
B1337313744924N00338375WA0144601594
B1337323744928N00338374WA0144601594
B1337333744931N00338373WA0144601594
B1337343744934N00338373WA0144501594
B1337353744937N00338373WA0144401594
B1337363744940N00338373WA0144101592
B1337373744943N00338371WA0143901590
B1337383744946N00338370WA0143901588
B1337393744950N00338369WA0143801586
B1337403744953N00338369WA0143801585
B1337413744955N00338369WA0143601584
B1337423744958N00338369WA0143601583
B1337433744961N00338368WA0143401582
B1337443744964N00338367WA0143301580
B1337453744966N00338367WA0143101579
B1337463744968N00338368WA0143001577
B1337473744970N00338371WA0142701576
B1337483744973N00338373WA0142401574
B1337493744976N00338375WA0141801571
B1337503744980N00338376WA0141901568
B1337513744985N00338376WA0142101567
B1337523744989N00338376WA0142001566
B1337533744993N00338376WA0142101568
B1337543744997N00338375WA0142201568
B1337553745001N00338374WA0142001568
B1337563745005N00338372WA0141901567
B1337573745009N00338371WA0141701566
B1337583745014N00338370WA0141701565
B1337593745018N00338369WA0141701564
B1338003745022N00338368WA0141701563
B1338013745026N00338367WA0141601562
B1338023745031N00338366WA0141401561
B1338033745035N00338364WA0141201559
B1338043745040N00338362WA0141001557
B1338053745045N00338360WA0140901555
B1338063745049N00338359WA0140901554
B1338073745054N00338358WA0140901554
B1338083745058N00338359WA0141101554
B1338093745061N00338359WA0141201555
B1338103745065N00338358WA0141201556
B1338113745068N00338359WA0141101556
B1338123745072N00338359WA0140701556
B1338133745077N00338358WA0140801555
B1338143745081N00338358WA0140701555
B1338153745086N00338358WA0140701554
B1338163745090N00338359WA0140801554
B1338173745093N00338360WA0140801555
B1338183745097N00338362WA0140701555
B1338193745101N00338363WA0140701554
B1338203745106N00338364WA0140601554
B1338213745110N00338364WA0140601553
B1338223745114N00338364WA0140601553
B1338233745118N00338363WA0140601553
B1338243745122N00338363WA0140501553
B1338253745126N00338362WA0140401552
B1338263745131N00338361WA0140301551
B1338273745136N00338360WA0140401550
B1338283745142N00338359WA0140801552
B1338293745145N00338360WA0141301555
B1338303745147N00338362WA0141701561
B1338313745148N00338363WA0142101566
B1338323745148N00338362WA0142401569
B1338333745150N00338359WA0142401571
B1338343745152N00338354WA0142301572
B1338353745153N00338348WA0142201571
B1338363745152N00338341WA0142301571
B1338373745148N00338333WA0142401571
B1338383745144N00338328WA0142501572
B1338393745138N00338324WA0142701573
B1338403745131N00338322WA0142701574
B1338413745125N00338321WA0142701574
B1338423745118N00338321WA0142601574
B1338433745110N00338323WA0142401574
B1338443745104N00338326WA0142501574
B1338453745099N00338330WA0143001575
B1338463745096N00338335WA0143201576
B1338473745094N00338340WA0143401577
B1338483745094N00338345WA0143601579
B1338493745094N00338350WA0143701582
B1338503745094N00338353WA0143801584
B1338513745095N00338356WA0144001586
B1338523745097N00338358WA0144201588
B1338533745099N00338358WA0144401589
B1338543745102N00338356WA0144601591
B1338553745104N00338352WA0144901593
B1338563745105N00338347WA0145001596
B1338573745105N00338339WA0145101597
B1338583745103N00338332WA0145101598
B1338593745099N00338324WA0144701599
B1339003745093N00338317WA0144801599
B1339013745087N00338313WA0145101599
B1339023745079N00338311WA0145201600
B1339033745071N00338310WA0145101599
B1339043745064N00338311WA0145201600
B1339053745058N00338314WA0145501601
B1339063745053N00338317WA0145701603
B1339073745049N00338320WA0145901605
B1339083745046N00338324WA0145901606
B1339093745044N00338330WA0145901607
B1339103745042N00338335WA0146001608
B1339113745041N00338341WA0146101608
B1339123745040N00338347WA0146201609
B1339133745039N00338353WA0146401611
B1339143745039N00338358WA0146601614
B1339153745038N00338363WA0146901617
B1339163745038N00338367WA0147101619
B1339173745039N00338370WA0147301621
B1339183745042N00338373WA0147501623
B1339193745045N00338373WA0147601624
B1339203745048N00338371WA0147901626
B1339213745050N00338366WA0148101628
B1339223745050N00338360WA0148301630
B1339233745048N00338353WA0148401631
B1339243745043N00338347WA0148501633
B1339253745037N00338341WA0148601634
B1339263745029N00338339WA0148901635
B1339273745022N00338339WA0149101638
B1339283745016N00338343WA0149301640
B1339293745012N00338349WA0149401642
B1339303745010N00338356WA0149501643
B1339313745010N00338362WA0149601644
B1339323745010N00338367WA0149901646
B1339333745011N00338371WA0150301649
B1339343745011N00338374WA0150501653
B1339353745013N00338376WA0150701656
B1339363745015N00338376WA0150901657
B1339373745018N00338373WA0151001658
B1339383745021N00338369WA0151001659
B1339393745022N00338362WA0151201660
B1339403745021N00338355WA0151501662
B1339413745017N00338348WA0151701665
B1339423745012N00338343WA0151901668
B1339433745005N00338340WA0152201670
B1339443744997N00338339WA0152301672
B1339453744990N00338340WA0152401673
B1339463744984N00338344WA0152401674
B1339473744979N00338350WA0152701675
B1339483744977N00338357WA0152801676
B1339493744975N00338364WA0153001678
B1339503744974N00338370WA0153301682
B1339513744975N00338375WA0153601684
B1339523744976N00338379WA0153701686
B1339533744978N00338382WA0153801688
B1339543744980N00338383WA0154001689
B1339553744983N00338382WA0154101691
B1339563744986N00338378WA0154101692
B1339573744988N00338372WA0154301693
B1339583744987N00338364WA0154401694
B1339593744985N00338356WA0154601696
B1340003744980N00338349WA0154801698
B1340013744975N00338344WA0155001700
B1340023744969N00338341WA0155201702
B1340033744963N00338340WA0155401705
B1340043744956N00338340WA0155601706
B1340053744951N00338344WA0155701707
B1340063744946N00338349WA0155801709
B1340073744944N00338355WA0156001710
B1340083744944N00338361WA0156101712
B1340093744945N00338365WA0156501714
B1340103744946N00338368WA0156601716
B1340113744948N00338369WA0156701718
B1340123744951N00338368WA0156901720
B1340133744954N00338365WA0156901720
B1340143744956N00338361WA0157101721
B1340153744958N00338356WA0157201723
B1340163744959N00338350WA0157401724
B1340173744959N00338344WA0157601727
B1340183744958N00338339WA0157801730
B1340193744956N00338332WA0158001733
B1340203744954N00338325WA0158201734
B1340213744950N00338318WA0158301736
B1340223744944N00338313WA0158401737
B1340233744938N00338309WA0158701740
B1340243744931N00338308WA0158901741
B1340253744924N00338309WA0159201743
B1340263744919N00338312WA0159401745
B1340273744916N00338317WA0159601748
B1340283744914N00338322WA0159801749
B1340293744914N00338327WA0159901751
B1340303744914N00338332WA0160101753
B1340313744916N00338336WA0160201754
B1340323744918N00338339WA0160301756
B1340333744920N00338340WA0160501757
B1340343744923N00338340WA0160601760
B1340353744925N00338340WA0160801762
B1340363744927N00338339WA0160901764
B1340373744929N00338337WA0161001765
B1340383744931N00338334WA0161101766
B1340393744933N00338330WA0161201767
B1340403744935N00338325WA0161401768
B1340413744936N00338318WA0161401769
B1340423744936N00338311WA0161501770
B1340433744934N00338302WA0161701772
B1340443744932N00338294WA0161901773
B1340453744928N00338287WA0162201777
B1340463744923N00338281WA0162201779
B1340473744917N00338277WA0162301779
B1340483744910N00338273WA0162301779
B1340493744902N00338271WA0162501779
B1340503744894N00338271WA0162801781
B1340513744887N00338272WA0163001783
B1340523744882N00338276WA0163301786
B1340533744878N00338280WA0163601789
B1340543744875N00338286WA0163901791
B1340553744875N00338291WA0164101795
B1340563744876N00338294WA0164401798
B1340573744879N00338296WA0164501800
B1340583744883N00338294WA0164501799
B1340593744888N00338290WA0164601800
B1341003744891N00338284WA0164901801
B1341013744892N00338277WA0165101804
B1341023744892N00338270WA0165401806
B1341033744890N00338263WA0165501808
B1341043744886N00338255WA0165801810
B1341053744880N00338247WA0165701811
B1341063744873N00338241WA0165701811
B1341073744866N00338236WA0165801812
B1341083744858N00338232WA0166001813
B1341093744850N00338230WA0166201815
B1341103744843N00338229WA0166501817
B1341113744836N00338230WA0166701819
B1341123744831N00338234WA0167001821
B1341133744827N00338240WA0167301824
B1341143744826N00338246WA0167601826
B1341153744827N00338251WA0167901830
B1341163744829N00338254WA0168201834
B1341173744833N00338253WA0168501838
B1341183744836N00338250WA0168701841
B1341193744838N00338244WA0169001843
B1341203744838N00338237WA0169301846
B1341213744835N00338228WA0169401848
B1341223744830N00338221WA0169501850
B1341233744823N00338217WA0169601852
B1341243744815N00338215WA0169801854
B1341253744807N00338216WA0169901855
B1341263744801N00338220WA0170201857
B1341273744797N00338225WA0170501860
B1341283744794N00338231WA0170901862
B1341293744794N00338236WA0171301864
B1341303744796N00338239WA0171501867
B1341313744799N00338240WA0171701870
B1341323744802N00338240WA0172001873
B1341333744805N00338237WA0172401877
B1341343744806N00338231WA0172601882
B1341353744804N00338223WA0172601885
B1341363744800N00338214WA0172701887
B1341373744794N00338208WA0172901888
B1341383744787N00338203WA0173201891
B1341393744780N00338201WA0173501894
B1341403744774N00338201WA0173901897
B1341413744769N00338203WA0174201900
B1341423744764N00338207WA0174501903
B1341433744761N00338213WA0174701905
B1341443744759N00338218WA0174901907
B1341453744760N00338223WA0175001910
B1341463744763N00338226WA0175201913
B1341473744766N00338226WA0175601915
B1341483744770N00338225WA0175901917
B1341493744773N00338221WA0176001920
B1341503744774N00338215WA0176301922
B1341513744773N00338208WA0176401925
B1341523744770N00338200WA0176401927
B1341533744764N00338193WA0176601927
B1341543744757N00338188WA0176801930
B1341553744751N00338185WA0177101933
B1341563744744N00338184WA0177301936
B1341573744738N00338186WA0177501939
B1341583744733N00338191WA0177801941
B1341593744730N00338197WA0178101943
B1342003744728N00338203WA0178301945
B1342013744728N00338208WA0178501947
B1342023744730N00338212WA0178701950
B1342033744733N00338213WA0178901953
B1342043744736N00338213WA0179101955
B1342053744739N00338212WA0179301957
B1342063744743N00338207WA0179501959
B1342073744744N00338201WA0179701961
B1342083744744N00338193WA0179901962
B1342093744741N00338186WA0180101964
B1342103744736N00338180WA0180301967
B1342113744730N00338176WA0180501969
B1342123744722N00338175WA0180701970
B1342133744715N00338178WA0180901971
B1342143744710N00338182WA0181101973
B1342153744708N00338187WA0181401976
B1342163744707N00338192WA0181601978
B1342173744707N00338197WA0181801982
B1342183744709N00338200WA0181901983
B1342193744712N00338202WA0182101985
B1342203744715N00338203WA0182201987
B1342213744718N00338203WA0182501990
B1342223744722N00338200WA0182701992
B1342233744725N00338195WA0182901994
B1342243744727N00338189WA0183101996
B1342253744727N00338181WA0183301997
B1342263744725N00338173WA0183501999
B1342273744721N00338166WA0183602001
B1342283744715N00338160WA0183802003
B1342293744708N00338157WA0184002005
B1342303744701N00338156WA0184102007
B1342313744694N00338158WA0184302008
B1342323744689N00338161WA0184402009
B1342333744685N00338166WA0184602011
B1342343744682N00338170WA0184902015
B1342353744682N00338174WA0185002017
B1342363744682N00338179WA0185102018
B1342373744684N00338183WA0185202019
B1342383744687N00338187WA0185302020
B1342393744691N00338190WA0185402021
B1342403744694N00338191WA0185702023
B1342413744697N00338191WA0185902026
B1342423744700N00338191WA0186202029
B1342433744704N00338190WA0186402032
B1342443744707N00338188WA0186602034
B1342453744710N00338184WA0186702035
B1342463744711N00338177WA0186802036
B1342473744711N00338169WA0186802036
B1342483744709N00338161WA0186902037
B1342493744705N00338153WA0187002038
B1342503744699N00338146WA0187102039
B1342513744692N00338143WA0187402041
B1342523744685N00338142WA0187602043
B1342533744678N00338144WA0187602044
B1342543744673N00338148WA0187802045
B1342553744668N00338153WA0187802046
B1342563744666N00338159WA0187902047
B1342573744665N00338165WA0188102048
B1342583744665N00338171WA0188202050
B1342593744666N00338175WA0188602053
B1343003744668N00338178WA0188902057
B1343013744670N00338179WA0189002060
B1343023744673N00338179WA0189102061
B1343033744676N00338178WA0189202063
B1343043744679N00338174WA0189302065
B1343053744682N00338168WA0189402066
B1343063744684N00338162WA0189502067
B1343073744684N00338154WA0189702068
B1343083744682N00338146WA0189902069
B1343093744679N00338139WA0190102071
B1343103744673N00338133WA0190202073
B1343113744667N00338127WA0190402074
B1343123744659N00338125WA0190602077
B1343133744653N00338125WA0190702079
B1343143744647N00338127WA0190802080
B1343153744642N00338131WA0190902081
B1343163744639N00338137WA0190902082
B1343173744638N00338143WA0190902082
B1343183744638N00338149WA0190902082
B1343193744640N00338154WA0191102082
B1343203744643N00338157WA0191402084
B1343213744646N00338158WA0191502087
B1343223744649N00338156WA0191602089
B1343233744651N00338153WA0191702091
B1343243744653N00338146WA0191702091
B1343253744654N00338139WA0191802092
B1343263744654N00338130WA0192002093
B1343273744650N00338122WA0192202094
B1343283744644N00338117WA0192302097
B1343293744638N00338113WA0192502099
B1343303744632N00338112WA0192702101
B1343313744626N00338111WA0192802103
B1343323744620N00338114WA0192802104
B1343333744615N00338119WA0192602104
B1343343744612N00338126WA0192602103
B1343353744610N00338134WA0192602103
B1343363744610N00338140WA0192802103
B1343373744610N00338145WA0193002105
B1343383744610N00338149WA0193202107
B1343393744612N00338152WA0193302108
B1343403744614N00338155WA0193402109
B1343413744616N00338158WA0193602110
B1343423744619N00338159WA0193702111
B1343433744623N00338158WA0193802113
B1343443744626N00338157WA0194002114
B1343453744630N00338153WA0194102115
B1343463744634N00338149WA0194202116
B1343473744636N00338142WA0194302117
B1343483744638N00338135WA0194202118
B1343493744637N00338128WA0194202119
B1343503744636N00338122WA0194602121
B1343513744633N00338115WA0194702122
B1343523744628N00338109WA0194802123
B1343533744623N00338104WA0194902123
B1343543744617N00338100WA0195002124
B1343553744611N00338098WA0195102125
B1343563744605N00338097WA0195202126
B1343573744599N00338098WA0195302128
B1343583744593N00338099WA0195302129
B1343593744587N00338101WA0195302129
B1344003744582N00338105WA0195302129
B1344013744578N00338110WA0195202129
B1344023744575N00338117WA0194902128
B1344033744574N00338124WA0194702127
B1344043744574N00338132WA0194802127
B1344053744575N00338138WA0195002127
B1344063744576N00338143WA0195202128
B1344073744578N00338148WA0195302129
B1344083744581N00338151WA0195402130
B1344093744583N00338154WA0195602131
B1344103744586N00338156WA0195602132
B1344113744590N00338157WA0195602132
B1344123744594N00338157WA0195502133
B1344133744598N00338157WA0195602132
B1344143744603N00338157WA0195802133
B1344153744607N00338157WA0195902134
B1344163744611N00338158WA0196102136
B1344173744615N00338158WA0196202137
B1344183744619N00338157WA0196302138
B1344193744622N00338155WA0196302139
B1344203744626N00338152WA0196302140
B1344213744629N00338149WA0196402140
B1344223744633N00338147WA0196502141
B1344233744638N00338145WA0196502141
B1344243744642N00338144WA0196502142
B1344253744646N00338143WA0196602143
B1344263744650N00338141WA0196502143
B1344273744654N00338138WA0196402142
B1344283744660N00338135WA0196302141
B1344293744665N00338133WA0196202139
B1344303744671N00338131WA0196302139
B1344313744675N00338129WA0196402140
B1344323744680N00338128WA0196402140
B1344333744686N00338126WA0196202140
B1344343744692N00338123WA0195902137
B1344353744698N00338120WA0195602135
B1344363744704N00338116WA0195502133
B1344373744710N00338113WA0195502132
B1344383744716N00338112WA0195602132
B1344393744722N00338112WA0195602132
B1344403744726N00338112WA0195602133
B1344413744730N00338111WA0195602134
B1344423744735N00338110WA0195402133
B1344433744740N00338109WA0195102131
B1344443744746N00338109WA0194902127
B1344453744752N00338108WA0194802125
B1344463744757N00338107WA0194602125
B1344473744763N00338105WA0194702124
B1344483744768N00338102WA0194702124
B1344493744773N00338100WA0194602123
B1344503744779N00338098WA0194502122
B1344513744784N00338096WA0194402121
B1344523744790N00338095WA0194302121
B1344533744795N00338093WA0194302120
B1344543744799N00338091WA0194102119
B1344553744805N00338089WA0194002118
B1344563744810N00338086WA0193802116
B1344573744816N00338084WA0193602114
B1344583744821N00338081WA0193502112
B1344593744827N00338080WA0193402110
B1345003744832N00338077WA0193302109
B1345013744837N00338075WA0193102108
B1345023744842N00338072WA0193002107
B1345033744847N00338070WA0192802105
B1345043744853N00338068WA0192602103
B1345053744859N00338067WA0192602102
B1345063744864N00338066WA0192602102
B1345073744869N00338064WA0192602103
B1345083744874N00338062WA0192402102
B1345093744879N00338059WA0192202101
B1345103744885N00338057WA0191902098
B1345113744891N00338055WA0191702096
B1345123744897N00338053WA0191502094
B1345133744903N00338050WA0191402092
B1345143744909N00338048WA0191202090
B1345153744914N00338046WA0191002088
B1345163744920N00338043WA0190702086
B1345173744926N00338040WA0190502083
B1345183744932N00338038WA0190302080
B1345193744938N00338035WA0190102078
B1345203744943N00338032WA0189902076
B1345213744948N00338028WA0189602075
B1345223744953N00338025WA0189302072
B1345233744959N00338021WA0188902069
B1345243744965N00338018WA0188502064
B1345253744971N00338014WA0188102060
B1345263744978N00338009WA0187802056
B1345273744984N00338005WA0187402052
B1345283744990N00338001WA0187002048
B1345293744996N00337998WA0186602044
B1345303745003N00337995WA0186102040
B1345313745009N00337993WA0185802035
B1345323745016N00337990WA0185402031
B1345333745022N00337987WA0185102028
B1345343745027N00337986WA0184602024
B1345353745033N00337984WA0184202020
B1345363745039N00337983WA0183702015
B1345373745046N00337982WA0183002010
B1345383745052N00337981WA0182402005
B1345393745058N00337979WA0182002000
B1345403745064N00337977WA0181801996
B1345413745071N00337976WA0181201991
B1345423745077N00337974WA0180801985
B1345433745084N00337972WA0180401980
B1345443745091N00337970WA0179901975
B1345453745098N00337967WA0179401970
B1345463745104N00337964WA0179001964
B1345473745110N00337962WA0178601959
B1345483745116N00337960WA0178201955
B1345493745122N00337958WA0177801950
B1345503745129N00337956WA0177401945
B1345513745135N00337953WA0177001940
B1345523745141N00337950WA0176701937
B1345533745147N00337946WA0176401933
B1345543745153N00337942WA0176201931
B1345553745159N00337939WA0175901927
B1345563745165N00337935WA0175601924
B1345573745171N00337931WA0175201921
B1345583745177N00337927WA0175001918
B1345593745182N00337922WA0174801916
B1346003745187N00337917WA0174501913
B1346013745192N00337913WA0174201911
B1346023745197N00337910WA0173901908
B1346033745203N00337906WA0173501904
B1346043745208N00337902WA0173201901
B1346053745214N00337899WA0172801897
B1346063745220N00337895WA0172501894
B1346073745225N00337892WA0172101890
B1346083745231N00337890WA0171801886
B1346093745237N00337887WA0171501883
B1346103745243N00337884WA0171201879
B1346113745248N00337881WA0170901876
B1346123745254N00337878WA0170601873
B1346133745258N00337875WA0170201870
B1346143745264N00337870WA0169801866
B1346153745269N00337866WA0169401861
B1346163745275N00337861WA0168901857
B1346173745281N00337858WA0168501852
B1346183745286N00337856WA0168101848
B1346193745291N00337855WA0167701843
B1346203745296N00337854WA0167201838
B1346213745302N00337851WA0166701833
B1346223745308N00337848WA0166301828
B1346233745313N00337845WA0165801823
B1346243745317N00337844WA0165501821
B1346253745323N00337843WA0165001817
B1346263745328N00337843WA0164601813
B1346273745335N00337842WA0164201808
B1346283745342N00337841WA0163901804
B1346293745348N00337841WA0163501801
B1346303745354N00337842WA0163101796
B1346313745360N00337844WA0162401792
B1346323745366N00337845WA0162201787
B1346333745373N00337845WA0161801782
B1346343745379N00337844WA0161601778
B1346353745385N00337844WA0161401775
B1346363745391N00337844WA0161201772
B1346373745396N00337844WA0161101771
B1346383745401N00337844WA0160901768
B1346393745406N00337843WA0160601766
B1346403745411N00337841WA0160301763
B1346413745416N00337841WA0160101760
B1346423745422N00337842WA0159901757
B1346433745428N00337844WA0159701755
B1346443745434N00337844WA0159501752
B1346453745440N00337844WA0159301749
B1346463745447N00337844WA0159001746
B1346473745453N00337844WA0158901744
B1346483745459N00337844WA0158601742
B1346493745464N00337844WA0158201740
B1346503745467N00337845WA0157901738
B1346513745469N00337846WA0157401735
B1346523745473N00337847WA0156901739
B1346533745479N00337846WA0156401736
B1346543745485N00337846WA0156001733
B1346553745491N00337846WA0155801731
B1346563745497N00337846WA0155501727
B1346573745502N00337845WA0155201724
B1346583745507N00337843WA0155001720
B1346593745513N00337841WA0154801715
B1347003745518N00337838WA0154601711
B1347013745522N00337836WA0154401708
B1347023745526N00337836WA0154101706
B1347033745531N00337835WA0154001703
B1347043745537N00337835WA0153801700
B1347053745543N00337834WA0153601697
B1347063745548N00337833WA0153601695
B1347073745552N00337831WA0153501695
B1347083745555N00337829WA0153501695
B1347093745558N00337827WA0153201694
B1347103745562N00337826WA0153001691
B1347113745568N00337824WA0152801688
B1347123745574N00337822WA0152601684
B1347133745580N00337820WA0152601682
B1347143745585N00337818WA0152801683
B1347153745589N00337817WA0152801683
B1347163745593N00337817WA0152701682
B1347173745598N00337816WA0152501680
B1347183745604N00337814WA0152301677
B1347193745609N00337811WA0152101674
B1347203745614N00337808WA0152101674
B1347213745617N00337806WA0152201677
B1347223745620N00337805WA0152101677
B1347233745623N00337804WA0151901676
B1347243745627N00337803WA0151701674
B1347253745632N00337801WA0151301671
B1347263745638N00337797WA0151201667
B1347273745643N00337794WA0151101664
B1347283745648N00337792WA0151201665
B1347293745652N00337791WA0151201665
B1347303745655N00337790WA0151201665
B1347313745659N00337787WA0151201665
B1347323745664N00337783WA0151101663
B1347333745668N00337779WA0151001662
B1347343745673N00337775WA0151001662
B1347353745676N00337771WA0151001662
B1347363745680N00337768WA0150901661
B1347373745683N00337764WA0150601660
B1347383745687N00337761WA0150401659
B1347393745691N00337757WA0150601658
B1347403745695N00337754WA0150601658
B1347413745699N00337752WA0150601657
B1347423745704N00337750WA0150601657
B1347433745707N00337748WA0151001659
B1347443745711N00337746WA0151201661
B1347453745714N00337743WA0151201662
B1347463745718N00337739WA0151301663
B1347473745721N00337736WA0151301664
B1347483745725N00337733WA0151301664
B1347493745729N00337730WA0151501665
B1347503745732N00337727WA0151601666
B1347513745735N00337724WA0151801668
B1347523745738N00337720WA0151801668
B1347533745740N00337717WA0151701669
B1347543745744N00337715WA0151601669
B1347553745748N00337714WA0151601670
B1347563745752N00337712WA0151601669
B1347573745756N00337709WA0151801670
B1347583745760N00337706WA0152101672
B1347593745763N00337702WA0152201674
B1348003745765N00337699WA0152301675
B1348013745769N00337697WA0152301676
B1348023745773N00337695WA0152301676
B1348033745777N00337693WA0152301676
B1348043745782N00337691WA0152401676
B1348053745786N00337689WA0152501677
B1348063745790N00337687WA0152501678
B1348073745795N00337685WA0152601679
B1348083745801N00337683WA0152601679
B1348093745807N00337681WA0152801679
B1348103745812N00337679WA0153101681
B1348113745817N00337676WA0153401684
B1348123745820N00337673WA0153601687
B1348133745823N00337668WA0153701689
B1348143745825N00337662WA0153801689
B1348153745827N00337655WA0153601689
B1348163745828N00337647WA0153601687
B1348173745827N00337638WA0153501687
B1348183745824N00337630WA0153601686
B1348193745820N00337623WA0153601686
B1348203745814N00337619WA0153501687
B1348213745808N00337617WA0153301688
B1348223745803N00337618WA0153701690
B1348233745799N00337621WA0153901690
B1348243745796N00337626WA0154001690
B1348253745795N00337631WA0154201692
B1348263745795N00337636WA0154401694
B1348273745796N00337641WA0154601696
B1348283745799N00337644WA0154701698
B1348293745803N00337646WA0154601699
B1348303745809N00337645WA0154601699
B1348313745814N00337643WA0154601699
B1348323745818N00337640WA0154801700
B1348333745822N00337637WA0155001702
B1348343745826N00337633WA0155101703
B1348353745830N00337630WA0155201704
B1348363745834N00337627WA0155301705
B1348373745838N00337624WA0155501707
B1348383745842N00337621WA0155601708
B1348393745846N00337618WA0155701709
B1348403745851N00337614WA0155801710
B1348413745856N00337610WA0156001711
B1348423745861N00337605WA0156101713
B1348433745866N00337601WA0156401714
B1348443745871N00337596WA0156501716
B1348453745876N00337591WA0156601718
B1348463745880N00337584WA0156801719
B1348473745882N00337575WA0156901720
B1348483745881N00337565WA0156901721
B1348493745879N00337556WA0157001722
B1348503745875N00337547WA0157101723
B1348513745871N00337540WA0157201724
B1348523745866N00337535WA0157301726
B1348533745861N00337534WA0157501728
B1348543745857N00337536WA0157601729
B1348553745855N00337539WA0157501729
B1348563745855N00337544WA0157501729
B1348573745857N00337548WA0157701730
B1348583745860N00337551WA0157901731
B1348593745865N00337552WA0158101732
B1349003745870N00337551WA0158201734
B1349013745875N00337549WA0158301737
B1349023745879N00337546WA0158401738
B1349033745884N00337543WA0158501739
B1349043745889N00337540WA0158601740
B1349053745895N00337535WA0158701741
B1349063745899N00337530WA0158801743
B1349073745904N00337525WA0159001745
B1349083745907N00337520WA0159101747
B1349093745911N00337514WA0159201748
B1349103745915N00337508WA0159301749
B1349113745920N00337501WA0159301749
B1349123745923N00337493WA0159501749
B1349133745924N00337484WA0159601750
B1349143745924N00337474WA0159601751
B1349153745922N00337465WA0159601751
B1349163745919N00337456WA0159701751
B1349173745915N00337448WA0159601752
B1349183745910N00337442WA0159401751
B1349193745905N00337438WA0159301752
B1349203745900N00337436WA0159601752
B1349213745895N00337435WA0159601752
B1349223745891N00337435WA0159601752
B1349233745886N00337437WA0159501752
B1349243745883N00337439WA0159401752
B1349253745879N00337442WA0159501752
B1349263745877N00337446WA0159501752
B1349273745876N00337448WA0159601753
B1349283745875N00337451WA0159701753
B1349293745875N00337454WA0159801754
B1349303745876N00337457WA0159701754
B1349313745879N00337460WA0159701753
B1349323745883N00337462WA0159701753
B1349333745887N00337464WA0159801753
B1349343745891N00337466WA0160001754
B1349353745894N00337467WA0160101756
B1349363745897N00337467WA0160101757
B1349373745901N00337467WA0160201758
B1349383745906N00337466WA0160101758
B1349393745910N00337465WA0160001758
B1349403745915N00337465WA0160101758
B1349413745920N00337464WA0160301759
B1349423745924N00337463WA0160401760
B1349433745928N00337462WA0160501761
B1349443745932N00337460WA0160501762
B1349453745935N00337457WA0160601763
B1349463745938N00337454WA0160401763
B1349473745942N00337451WA0160301763
B1349483745947N00337448WA0160101762
B1349493745952N00337445WA0160101761
B1349503745956N00337443WA0160101760
B1349513745960N00337440WA0160101761
B1349523745964N00337437WA0160101760
B1349533745968N00337435WA0160101760
B1349543745973N00337432WA0159901759
B1349553745978N00337429WA0159901758
B1349563745982N00337426WA0159801757
B1349573745986N00337423WA0159901757
B1349583745990N00337420WA0159901758
B1349593745993N00337417WA0159701757
B1350003745997N00337413WA0159401755
B1350013746002N00337410WA0158801751
B1350023746007N00337406WA0158901749
B1350033746012N00337403WA0158801746
B1350043746016N00337399WA0158601744
B1350053746020N00337395WA0158401742
B1350063746025N00337390WA0158301741
B1350073746029N00337385WA0158301739
B1350083746033N00337379WA0158101738
B1350093746037N00337374WA0158001737
B1350103746041N00337368WA0157801735
B1350113746045N00337363WA0157401733
B1350123746050N00337357WA0157001730
B1350133746054N00337351WA0156601728
B1350143746057N00337344WA0156701725
B1350153746060N00337338WA0156501721
B1350163746063N00337331WA0156201718
B1350173746067N00337324WA0155901714
B1350183746071N00337318WA0155601711
B1350193746076N00337312WA0155501709
B1350203746080N00337307WA0155301707
B1350213746083N00337302WA0155001705
B1350223746087N00337296WA0154701703
B1350233746091N00337289WA0154401699
B1350243746097N00337282WA0154101695
B1350253746103N00337277WA0154001692
B1350263746107N00337271WA0154101692
B1350273746111N00337265WA0154101693
B1350283746114N00337260WA0153901693
B1350293746117N00337254WA0153601691
B1350303746122N00337249WA0153301687
B1350313746128N00337244WA0153001685
B1350323746134N00337238WA0153001683
B1350333746139N00337232WA0153101683
B1350343746141N00337226WA0153101683
B1350353746144N00337220WA0153001682
B1350363746148N00337214WA0152701681
B1350373746153N00337207WA0152301677
B1350383746158N00337201WA0152101673
B1350393746164N00337195WA0152101672
B1350403746168N00337191WA0152101672
B1350413746171N00337187WA0152101672
B1350423746173N00337184WA0152001672
B1350433746176N00337181WA0151801671
B1350443746180N00337176WA0151501669
B1350453746185N00337170WA0151301665
B1350463746189N00337165WA0151201663
B1350473746193N00337161WA0151201662
B1350483746197N00337158WA0151101662
B1350493746200N00337155WA0150901661
B1350503746204N00337151WA0150701659
B1350513746208N00337146WA0150301656
B1350523746212N00337141WA0150101652
B1350533746217N00337136WA0149801650
B1350543746221N00337133WA0149601648
B1350553746225N00337130WA0149401647
B1350563746228N00337128WA0149301647
B1350573746232N00337125WA0149001644
B1350583746236N00337121WA0148901642
B1350593746240N00337118WA0148701639
B1351003746244N00337115WA0148601637
B1351013746248N00337112WA0148601635
B1351023746250N00337110WA0148201634
B1351033746253N00337107WA0147901632
B1351043746256N00337104WA0147501629
B1351053746260N00337102WA0147001625
B1351063746265N00337100WA0146601620
B1351073746270N00337098WA0146301616
B1351083746274N00337097WA0146101614
B1351093746279N00337095WA0146001611
B1351103746283N00337094WA0145701609
B1351113746286N00337093WA0145401606
B1351123746290N00337093WA0145101603
B1351133746294N00337093WA0144601600
B1351143746298N00337093WA0144001596
B1351153746303N00337092WA0143801592
B1351163746308N00337092WA0143701588
B1351173746313N00337092WA0143401585
B1351183746316N00337094WA0143101582
B1351193746319N00337097WA0142801580
B1351203746322N00337101WA0142601577
B1351213746324N00337105WA0142201574
B1351223746327N00337108WA0141801570
B1351233746330N00337111WA0141501567
B1351243746333N00337115WA0141101563
B1351253746335N00337120WA0140701559
B1351263746336N00337125WA0140401555
B1351273746338N00337129WA0140001552
B1351283746341N00337130WA0139601548
B1351293746346N00337130WA0139201542
B1351303746351N00337128WA0138601536
B1351313746357N00337123WA0138201531
B1351323746361N00337118WA0138001528
B1351333746364N00337113WA0137701525
B1351343746366N00337108WA0137401523
B1351353746370N00337102WA0137001519
B1351363746374N00337097WA0136401515
B1351373746378N00337091WA0136101510
B1351383746382N00337085WA0135701506
B1351393746384N00337079WA0135501502
B1351403746386N00337071WA0135101498
B1351413746388N00337064WA0134701494
B1351423746390N00337056WA0134501491
B1351433746392N00337049WA0134201488
B1351443746394N00337042WA0133701485
B1351453746396N00337036WA0133501482
B1351463746397N00337029WA0133301479
B1351473746399N00337023WA0133001475
B1351483746400N00337017WA0132601472
B1351493746402N00337010WA0132301468
B1351503746404N00337003WA0132001464
B1351513746406N00336996WA0131701460
B1351523746407N00336988WA0131301456
B1351533746409N00336981WA0131001452
B1351543746411N00336974WA0130501448
B1351553746413N00336967WA0130201445
B1351563746416N00336960WA0129901441
B1351573746418N00336953WA0129501438
B1351583746421N00336946WA0129201434
B1351593746423N00336939WA0128701430
B1352003746426N00336933WA0128501426
B1352013746430N00336927WA0128101421
B1352023746434N00336921WA0127801417
B1352033746438N00336916WA0127501413
B1352043746442N00336909WA0127001409
B1352053746445N00336902WA0126701405
B1352063746447N00336894WA0126501402
B1352073746449N00336887WA0126201399
B1352083746450N00336880WA0126101396
B1352093746450N00336874WA0125901393
B1352103746451N00336867WA0125701392
B1352113746452N00336860WA0125601391
B1352123746453N00336853WA0125601390
B1352133746454N00336846WA0125401388
B1352143746455N00336840WA0125301387
B1352153746455N00336833WA0125201386
B1352163746455N00336826WA0125001385
B1352173746454N00336819WA0124801383
B1352183746454N00336812WA0124601381
B1352193746454N00336804WA0124401380
B1352203746455N00336797WA0124301378
B1352213746455N00336790WA0124101377
B1352223746456N00336784WA0123901376
B1352233746457N00336777WA0123801375
B1352243746457N00336771WA0123801374
B1352253746457N00336764WA0123601373
B1352263746455N00336757WA0123701371
B1352273746452N00336749WA0123401370
B1352283746449N00336742WA0123301368
B1352293746446N00336736WA0123601368
B1352303746444N00336730WA0123501369
B1352313746443N00336724WA0123501368
B1352323746442N00336717WA0123201367
B1352333746440N00336710WA0122901367
B1352343746438N00336704WA0123001366
B1352353746436N00336698WA0123201366
B1352363746436N00336692WA0123201366
B1352373746435N00336687WA0123001365
B1352383746435N00336681WA0122701364
B1352393746435N00336674WA0122201362
B1352403746433N00336667WA0122201360
B1352413746433N00336660WA0122201358
B1352423746434N00336654WA0122101357
B1352433746434N00336648WA0122001356
B1352443746434N00336643WA0121701354
B1352453746435N00336637WA0121501352
B1352463746435N00336630WA0121101349
B1352473746435N00336622WA0121001346
B1352483746436N00336615WA0121101345
B1352493746436N00336609WA0121301344
B1352503746436N00336603WA0121501344
B1352513746435N00336598WA0121701345
B1352523746432N00336594WA0121801346
B1352533746429N00336590WA0121901348
B1352543746425N00336587WA0121901349
B1352553746420N00336587WA0121701349
B1352563746415N00336589WA0121401348
B1352573746411N00336596WA0121001347
B1352583746410N00336605WA0120801344
B1352593746412N00336613WA0120601341
B1353003746416N00336620WA0120401338
B1353013746421N00336622WA0120301337
B1353023746427N00336623WA0120101336
B1353033746432N00336623WA0120001335
B1353043746438N00336621WA0119901333
B1353053746443N00336618WA0119801332
B1353063746448N00336613WA0119801331
B1353073746452N00336608WA0119901330
B1353083746455N00336604WA0120101332
B1353093746458N00336600WA0120201335
B1353103746459N00336595WA0120201335
B1353113746461N00336590WA0120101334
B1353123746462N00336584WA0119901331
B1353133746463N00336578WA0119701329
B1353143746465N00336572WA0119501328
B1353153746465N00336565WA0119301326
B1353163746465N00336558WA0119101325
B1353173746466N00336552WA0119201324
B1353183746466N00336547WA0119101323
B1353193746468N00336541WA0118601322
B1353203746470N00336535WA0118401319
B1353213746474N00336528WA0118001316
B1353223746477N00336522WA0118001313
B1353233746481N00336516WA0117901311
B1353243746484N00336511WA0117901311
B1353253746488N00336508WA0117801310
B1353263746492N00336504WA0117601308
B1353273746496N00336500WA0117401306
B1353283746501N00336495WA0117401305
B1353293746505N00336490WA0117301304
B1353303746510N00336487WA0117401304
B1353313746515N00336486WA0117101305
B1353323746520N00336486WA0117101304
B1353333746524N00336486WA0117301305
B1353343746529N00336484WA0117001304
B1353353746534N00336483WA0116901303
B1353363746539N00336482WA0116701301
B1353373746544N00336483WA0116501299
B1353383746549N00336482WA0116501298
B1353393746554N00336481WA0116501297
B1353403746558N00336476WA0116001295
B1353413746562N00336471WA0115601290
B1353423746565N00336464WA0115401287
B1353433746568N00336457WA0115201284
B1353443746571N00336451WA0115201282
B1353453746573N00336444WA0115001279
B1353463746576N00336437WA0114901278
B1353473746578N00336431WA0114801276
B1353483746580N00336425WA0114701275
B1353493746582N00336418WA0114501274
B1353503746585N00336412WA0114301272
B1353513746587N00336405WA0114001270
B1353523746590N00336398WA0113801268
B1353533746593N00336391WA0113801267
B1353543746596N00336384WA0113801266
B1353553746600N00336378WA0113701265
B1353563746603N00336372WA0113701264
B1353573746606N00336366WA0113701263
B1353583746609N00336360WA0113701263
B1353593746612N00336353WA0113701262
B1354003746615N00336347WA0113601262
B1354013746618N00336341WA0113601263
B1354023746621N00336336WA0113601262
B1354033746624N00336330WA0113601262
B1354043746627N00336322WA0113501261
B1354053746630N00336313WA0113401260
B1354063746630N00336303WA0113301258
B1354073746629N00336294WA0113401258
B1354083746628N00336286WA0113301257
B1354093746625N00336277WA0112901257
B1354103746622N00336269WA0112801256
B1354113746619N00336260WA0113101256
B1354123746616N00336252WA0113301255
B1354133746612N00336244WA0113401256
B1354143746607N00336237WA0113601259
B1354153746602N00336232WA0113801262
B1354163746597N00336229WA0113801263
B1354173746591N00336229WA0113901264
B1354183746587N00336231WA0114201266
B1354193746585N00336234WA0114401268
B1354203746585N00336237WA0114601270
B1354213746586N00336240WA0114801272
B1354223746588N00336241WA0115001275
B1354233746591N00336241WA0115101276
B1354243746595N00336241WA0115101277
B1354253746600N00336239WA0115001276
B1354263746605N00336234WA0115001277
B1354273746609N00336226WA0114901277
B1354283746610N00336216WA0114501274
B1354293746609N00336206WA0114601273
B1354303746606N00336197WA0115201274
B1354313746602N00336191WA0115301277
B1354323746597N00336186WA0115501280
B1354333746592N00336182WA0115501282
B1354343746586N00336177WA0115401283
B1354353746579N00336172WA0115301283
B1354363746572N00336166WA0115301283
B1354373746565N00336161WA0115501284
B1354383746559N00336157WA0115701286
B1354393746553N00336155WA0115801287
B1354403746547N00336154WA0116001289
B1354413746541N00336155WA0116101290
B1354423746536N00336157WA0116401292
B1354433746533N00336160WA0116801295
B1354443746532N00336162WA0117001299
B1354453746532N00336165WA0117201302
B1354463746532N00336167WA0117401305
B1354473746535N00336168WA0117601307
B1354483746539N00336168WA0117801308
B1354493746542N00336164WA0117901310
B1354503746545N00336159WA0118001312
B1354513746547N00336151WA0118201313
B1354523746547N00336143WA0118401314
B1354533746545N00336135WA0118401316
B1354543746542N00336127WA0118601317
B1354553746536N00336120WA0118601317
B1354563746530N00336116WA0118701317
B1354573746523N00336114WA0118801318
B1354583746517N00336113WA0119101320
B1354593746512N00336112WA0119401323
B1355003746507N00336112WA0119701327
B1355013746504N00336113WA0119901330
B1355023746501N00336115WA0120101333
B1355033746500N00336118WA0120101334
B1355043746499N00336122WA0120301336
B1355053746501N00336125WA0120501337
B1355063746503N00336126WA0120701339
B1355073746507N00336125WA0120801341
B1355083746511N00336120WA0121001342
B1355093746514N00336113WA0121101343
B1355103746515N00336104WA0121401344
B1355113746514N00336095WA0121601346
B1355123746511N00336087WA0121901348
B1355133746507N00336079WA0122001351
B1355143746503N00336073WA0122201354
B1355153746498N00336068WA0122301356
B1355163746492N00336064WA0122401357
B1355173746485N00336060WA0122601358
B1355183746479N00336056WA0122701360
B1355193746473N00336053WA0123001363
B1355203746468N00336052WA0123201365
B1355213746463N00336053WA0123201366
B1355223746458N00336057WA0123201367
B1355233746456N00336061WA0123301368
B1355243746455N00336065WA0123401369
B1355253746455N00336068WA0123501370
B1355263746458N00336069WA0123501371
B1355273746460N00336069WA0123101371
B1355283746464N00336067WA0123301371
B1355293746467N00336064WA0123601371
B1355303746471N00336060WA0123701372
B1355313746475N00336053WA0123801373
B1355323746477N00336045WA0124001373
B1355333746478N00336036WA0124201375
B1355343746478N00336028WA0124401377
B1355353746476N00336020WA0124601379
B1355363746472N00336011WA0124601380
B1355373746467N00336004WA0124501380
B1355383746461N00335997WA0124501381
B1355393746454N00335992WA0124401381
B1355403746447N00335987WA0124501382
B1355413746440N00335984WA0124801384
B1355423746434N00335982WA0125201386
B1355433746428N00335983WA0125301387
B1355443746423N00335985WA0125401388
B1355453746418N00335987WA0125501389
B1355463746414N00335990WA0125701391
B1355473746411N00335993WA0125801392
B1355483746410N00335998WA0125701393
B1355493746411N00336002WA0125601392
B1355503746413N00336005WA0125701393
B1355513746416N00336006WA0125901394
B1355523746418N00336005WA0126001397
B1355533746420N00336002WA0126201399
B1355543746422N00335998WA0126101400
B1355553746425N00335992WA0126001400
B1355563746426N00335984WA0126001399
B1355573746427N00335974WA0126201399
B1355583746426N00335964WA0126401401
B1355593746424N00335956WA0126801404
B1356003746422N00335949WA0126901408
B1356013746420N00335941WA0127001410
B1356023746417N00335934WA0126901410
B1356033746413N00335926WA0126901411
B1356043746410N00335917WA0127001412
B1356053746406N00335910WA0127201413
B1356063746403N00335902WA0127401414
B1356073746399N00335895WA0127501415
B1356083746394N00335890WA0127401415
B1356093746388N00335887WA0127401413
B1356103746381N00335885WA0127201412
B1356113746374N00335884WA0126901412
B1356123746368N00335884WA0127001411
B1356133746362N00335885WA0127301412
B1356143746358N00335887WA0127301412
B1356153746354N00335891WA0127301412
B1356163746350N00335894WA0127201412
B1356173746348N00335899WA0127101411
B1356183746346N00335904WA0127001411
B1356193746345N00335910WA0127101410
B1356203746346N00335916WA0127201410
B1356213746346N00335920WA0127201411
B1356223746347N00335924WA0127301412
B1356233746348N00335926WA0127301413
B1356243746350N00335929WA0127401413
B1356253746353N00335932WA0127201413
B1356263746357N00335934WA0127301413
B1356273746360N00335935WA0127501414
B1356283746364N00335934WA0127701415
B1356293746367N00335934WA0127901417
B1356303746369N00335933WA0128001419
B1356313746372N00335932WA0128001420
B1356323746374N00335927WA0127601420
B1356333746376N00335920WA0127201420
B1356343746377N00335910WA0127201420
B1356353746377N00335900WA0127101420
B1356363746375N00335891WA0127401421
B1356373746372N00335883WA0127801423
B1356383746369N00335876WA0128001424
B1356393746364N00335869WA0128201424
B1356403746359N00335863WA0128401424
B1356413746353N00335857WA0128501424
B1356423746347N00335853WA0128601425
B1356433746340N00335851WA0128901427
B1356443746334N00335850WA0129101428
B1356453746329N00335851WA0129401431
B1356463746325N00335855WA0129701433
B1356473746323N00335859WA0130001435
B1356483746322N00335863WA0130201438
B1356493746324N00335865WA0130401441
B1356503746326N00335865WA0130401442
B1356513746330N00335863WA0130501443
B1356523746334N00335860WA0130401443
B1356533746337N00335854WA0130601444
B1356543746339N00335846WA0130801445
B1356553746340N00335837WA0131101446
B1356563746339N00335828WA0131401449
B1356573746337N00335820WA0131601451
B1356583746332N00335814WA0131701454
B1356593746325N00335810WA0131901456
B1357003746318N00335810WA0132001457
B1357013746313N00335814WA0132201459
B1357023746310N00335818WA0132401462
B1357033746309N00335823WA0132701465
B1357043746308N00335826WA0133001468
B1357053746309N00335828WA0133301471
B1357063746309N00335828WA0133401474
B1357073746311N00335828WA0133501475
B1357083746315N00335829WA0133501474
B1357093746320N00335829WA0133601474
B1357103746324N00335828WA0133801476
B1357113746326N00335826WA0134101479
B1357123746328N00335820WA0134301482
B1357133746329N00335812WA0134301482
B1357143746330N00335803WA0134501482
B1357153746329N00335794WA0134801483
B1357163746325N00335787WA0135201486
B1357173746320N00335784WA0135401490
B1357183746314N00335784WA0135501492
B1357193746309N00335785WA0135701493
B1357203746306N00335787WA0135901496
B1357213746303N00335789WA0136101499
B1357223746301N00335793WA0136301502
B1357233746301N00335796WA0136301504
B1357243746301N00335800WA0136601506
B1357253746302N00335804WA0136901508
B1357263746303N00335806WA0137101511
B1357273746305N00335807WA0137201513
B1357283746309N00335805WA0137201513
B1357293746313N00335802WA0136901511
B1357303746318N00335797WA0136801510
B1357313746323N00335790WA0137001509
B1357323746326N00335784WA0137201510
B1357333746328N00335777WA0137501515
B1357343746329N00335770WA0137801519
B1357353746329N00335763WA0138001522
B1357363746328N00335755WA0138201524
B1357373746327N00335746WA0138401526
B1357383746324N00335738WA0138701528
B1357393746321N00335730WA0139101532
B1357403746315N00335725WA0139301535
B1357413746309N00335721WA0139501537
B1357423746303N00335720WA0139601540
B1357433746297N00335721WA0139901542
B1357443746293N00335723WA0140101544
B1357453746289N00335725WA0140401547
B1357463746287N00335728WA0140601550
B1357473746286N00335731WA0140901553
B1357483746286N00335735WA0141101555
B1357493746288N00335738WA0141301557
B1357503746291N00335740WA0141601560
B1357513746295N00335739WA0141801563
B1357523746300N00335735WA0142001565
B1357533746303N00335729WA0142201567
B1357543746305N00335720WA0142401568
B1357553746304N00335711WA0142601570
B1357563746302N00335703WA0142801572
B1357573746299N00335695WA0143201575
B1357583746294N00335688WA0143301578
B1357593746288N00335684WA0143501580
B1358003746282N00335682WA0143501581
B1358013746275N00335683WA0143601582
B1358023746270N00335684WA0143801583
B1358033746265N00335685WA0143901586
B1358043746260N00335686WA0144101589
B1358053746257N00335688WA0144401591
B1358063746253N00335691WA0144601593
B1358073746250N00335695WA0144801594
B1358083746248N00335699WA0145001596
B1358093746246N00335704WA0145201598
B1358103746245N00335709WA0145501601
B1358113746246N00335712WA0145801603
B1358123746247N00335716WA0146001605
B1358133746249N00335718WA0146101607
B1358143746252N00335720WA0146301609
B1358153746256N00335720WA0146501611
B1358163746259N00335719WA0146801613
B1358173746263N00335715WA0146701614
B1358183746266N00335708WA0146601614
B1358193746268N00335700WA0146701613
B1358203746268N00335691WA0146701613
B1358213746267N00335683WA0146901614
B1358223746266N00335676WA0147101616
B1358233746264N00335669WA0147301619
B1358243746261N00335662WA0147401620
B1358253746257N00335655WA0147501621
B1358263746253N00335648WA0147601622
B1358273746248N00335641WA0147801623
B1358283746242N00335636WA0147901625
B1358293746236N00335632WA0148101626
B1358303746230N00335630WA0148201628
B1358313746224N00335630WA0148401629
B1358323746217N00335631WA0148601630
B1358333746211N00335631WA0148701632
B1358343746205N00335632WA0149001635
B1358353746200N00335634WA0149301639
B1358363746196N00335637WA0149601643
B1358373746192N00335641WA0149901646
B1358383746191N00335646WA0150101648
B1358393746191N00335651WA0150201650
B1358403746193N00335655WA0150401653
B1358413746196N00335657WA0150701656
B1358423746200N00335657WA0150901658
B1358433746204N00335655WA0151101660
B1358443746207N00335650WA0151201662
B1358453746209N00335643WA0151301663
B1358463746209N00335635WA0151401665
B1358473746207N00335626WA0151501666
B1358483746204N00335617WA0151601668
B1358493746199N00335610WA0151901670
B1358503746194N00335604WA0152101672
B1358513746188N00335599WA0152401674
B1358523746182N00335597WA0152601676
B1358533746175N00335596WA0152801678
B1358543746169N00335597WA0153001681
B1358553746164N00335599WA0153301683
B1358563746160N00335602WA0153701687
B1358573746156N00335604WA0154001690
B1358583746154N00335607WA0154101693
B1358593746153N00335611WA0154201695
B1359003746154N00335616WA0154301696
B1359013746156N00335620WA0154401697
B1359023746160N00335622WA0154501698
B1359033746165N00335623WA0154801700
B1359043746170N00335622WA0155101702
B1359053746174N00335619WA0155401704
B1359063746176N00335613WA0155601706
B1359073746178N00335607WA0155701706
B1359083746177N00335599WA0155801706
B1359093746176N00335590WA0155801707
B1359103746173N00335582WA0155801708
B1359113746169N00335574WA0155901709
B1359123746164N00335566WA0156001709
B1359133746158N00335560WA0156201711
B1359143746152N00335554WA0156401714
B1359153746146N00335549WA0156701717
B1359163746140N00335546WA0157101720
B1359173746134N00335543WA0157201722
B1359183746129N00335543WA0157401725
B1359193746124N00335543WA0157601727
B1359203746120N00335546WA0157701729
B1359213746117N00335550WA0157701730
B1359223746115N00335554WA0157801731
B1359233746114N00335558WA0158001733
B1359243746113N00335562WA0158201735
B1359253746113N00335565WA0158401737
B1359263746113N00335569WA0158601739
B1359273746115N00335572WA0158701740
B1359283746118N00335574WA0158801741
B1359293746122N00335573WA0158901741
B1359303746127N00335571WA0159101742
B1359313746131N00335566WA0159301743
B1359323746134N00335560WA0159501744
B1359333746135N00335553WA0159701747
B1359343746135N00335547WA0159701749
B1359353746134N00335539WA0159601749
B1359363746131N00335531WA0159501749
B1359373746128N00335523WA0159801749
B1359383746123N00335516WA0159801750
B1359393746117N00335509WA0159901750
B1359403746111N00335503WA0160101751
B1359413746105N00335497WA0160301754
B1359423746100N00335492WA0160501756
B1359433746094N00335488WA0160601758
B1359443746087N00335485WA0160701760
B1359453746081N00335484WA0160801762
B1359463746076N00335485WA0160901763
B1359473746070N00335487WA0161001764
B1359483746066N00335489WA0161101765
B1359493746063N00335492WA0161201766
B1359503746061N00335495WA0161201767
B1359513746058N00335499WA0161101768
B1359523746057N00335503WA0161201768
B1359533746056N00335508WA0161301768
B1359543746056N00335513WA0161401768
B1359553746058N00335516WA0161501769
B1359563746061N00335517WA0161701771
B1359573746065N00335516WA0161801773
B1359583746069N00335513WA0161901773
B1359593746073N00335509WA0162001774
B1400003746076N00335503WA0162101775
B1400013746079N00335496WA0162301776
B1400023746080N00335489WA0162501777
B1400033746080N00335482WA0162601779
B1400043746080N00335474WA0162701780
B1400053746079N00335466WA0162601781
B1400063746077N00335457WA0162201781
B1400073746075N00335448WA0162401780
B1400083746072N00335439WA0162701780
B1400093746069N00335431WA0162801781
B1400103746066N00335421WA0162901782
B1400113746063N00335412WA0163101783
B1400123746058N00335404WA0163201786
B1400133746053N00335399WA0163301788
B1400143746048N00335396WA0163201788
B1400153746041N00335393WA0163101787
B1400163746034N00335391WA0163001787
B1400173746027N00335389WA0163001787
B1400183746020N00335387WA0163101787
B1400193746014N00335385WA0163201788
B1400203746008N00335385WA0163201789
B1400213746003N00335386WA0163201789
B1400223745999N00335388WA0163101789
B1400233745996N00335392WA0162901787
B1400243745993N00335397WA0162501786
B1400253745993N00335402WA0162701786
B1400263745993N00335406WA0163001786
B1400273745994N00335408WA0163101786
B1400283745996N00335409WA0163201788
B1400293745998N00335409WA0163201788
B1400303746000N00335407WA0163201788
B1400313746002N00335403WA0163301789
B1400323746005N00335399WA0163401789
B1400333746007N00335393WA0163501789
B1400343746009N00335386WA0163501790
B1400353746010N00335379WA0163701791
B1400363746011N00335371WA0163801792
B1400373746011N00335364WA0164001793
B1400383746011N00335357WA0164101794
B1400393746011N00335349WA0164101795
B1400403746010N00335341WA0163901795
B1400413746009N00335333WA0163701793
B1400423746008N00335323WA0163601792
B1400433746007N00335313WA0163501791
B1400443746006N00335304WA0163501790
B1400453746004N00335295WA0163501790
B1400463746003N00335287WA0163401790
B1400473746001N00335278WA0163201789
B1400483745999N00335268WA0163001787
B1400493745996N00335258WA0162801785
B1400503745992N00335248WA0162601784
B1400513745987N00335240WA0162501783
B1400523745983N00335233WA0162401782
B1400533745980N00335225WA0162101780
B1400543745977N00335217WA0161701778
B1400553745975N00335208WA0161501776
B1400563745973N00335198WA0161301773
B1400573745973N00335188WA0161301770
B1400583745974N00335179WA0161101768
B1400593745976N00335171WA0161101766
B1401003745977N00335164WA0161101765
B1401013745979N00335158WA0161101764
B1401023745981N00335152WA0161001764
B1401033745983N00335149WA0160801763
B1401043745986N00335147WA0160601761
B1401053745989N00335147WA0160501759
B1401063745992N00335147WA0160401758
B1401073745995N00335148WA0160201756
B1401083745997N00335150WA0160001754
B1401093746000N00335152WA0159501752
B1401103746003N00335154WA0159401750
B1401113746005N00335156WA0159401748
B1401123746007N00335158WA0159401748
B1401133746010N00335159WA0159301747
B1401143746012N00335161WA0159201746
B1401153746014N00335164WA0159101744
B1401163746017N00335167WA0159001743
B1401173746018N00335170WA0159001743
B1401183746020N00335173WA0159101743
B1401193746021N00335175WA0159101743
B1401203746022N00335177WA0159201744
B1401213746023N00335179WA0159101744
B1401223746025N00335182WA0159101744
B1401233746027N00335184WA0159101744
B1401243746028N00335187WA0159001744
B1401253746030N00335188WA0158901744
B1401263746032N00335190WA0158801743
B1401273746034N00335193WA0158601741
B1401283746036N00335195WA0158401739
B1401293746038N00335197WA0158201737
B1401303746040N00335199WA0158101735
B1401313746043N00335199WA0157901733
B1401323746045N00335199WA0157701731
B1401333746049N00335199WA0157401729
B1401343746052N00335200WA0157201727
B1401353746054N00335202WA0157201725
B1401363746057N00335204WA0157001723
B1401373746059N00335205WA0156901722
B1401383746062N00335206WA0156801721
B1401393746064N00335208WA0156601720
B1401403746067N00335210WA0156301718
B1401413746069N00335213WA0156301715
B1401423746072N00335215WA0156201714
B1401433746073N00335217WA0156201713
B1401443746074N00335219WA0156201712
B1401453746075N00335221WA0156001712
B1401463746076N00335224WA0155701711
B1401473746078N00335228WA0155801710
B1401483746079N00335231WA0155901710
B1401493746080N00335234WA0156101711
B1401503746081N00335236WA0156201711
B1401513746082N00335237WA0156201712
B1401523746083N00335238WA0156201712
B1401533746084N00335238WA0156001712
B1401543746087N00335238WA0155901710
B1401553746090N00335237WA0155801708
B1401563746094N00335235WA0155801708
B1401573746097N00335232WA0156001708
B1401583746100N00335229WA0156201709
B1401593746102N00335224WA0156301709
B1402003746103N00335219WA0156201710
B1402013746104N00335214WA0156001710
B1402023746106N00335208WA0155701708
B1402033746108N00335201WA0155301704
B1402043746110N00335192WA0155101700
B1402053746112N00335184WA0155001698
B1402063746114N00335176WA0154901696
B1402073746115N00335168WA0154901695
B1402083746116N00335161WA0154901695
B1402093746118N00335154WA0154801694
B1402103746120N00335146WA0154701693
B1402113746123N00335138WA0154601693
B1402123746126N00335130WA0154401692
B1402133746129N00335123WA0154301692
B1402143746131N00335116WA0154201692
B1402153746133N00335110WA0154101692
B1402163746136N00335104WA0153801690
B1402173746140N00335098WA0153401689
B1402183746143N00335092WA0153201687
B1402193746146N00335087WA0153301686
B1402203746148N00335081WA0153201685
B1402213746151N00335076WA0153001683
B1402223746154N00335072WA0152801682
B1402233746159N00335068WA0152601679
B1402243746162N00335063WA0152501677
B1402253746166N00335058WA0152501676
B1402263746168N00335053WA0152301674
B1402273746171N00335048WA0152101673
B1402283746174N00335043WA0151801671
B1402293746178N00335038WA0151501668
B1402303746182N00335034WA0151201664
B1402313746187N00335029WA0151201661
B1402323746191N00335023WA0151101660
B1402333746195N00335017WA0150901658
B1402343746199N00335012WA0150801657
B1402353746203N00335008WA0150601657
B1402363746208N00335004WA0150401655
B1402373746213N00335001WA0150201653
B1402383746218N00334997WA0150201652
B1402393746223N00334993WA0150201650
B1402403746227N00334990WA0150201649
B1402413746231N00334986WA0150001648
B1402423746236N00334983WA0149801646
B1402433746241N00334979WA0149701645
B1402443746246N00334976WA0149601644
B1402453746251N00334972WA0149401643
B1402463746255N00334969WA0149201641
B1402473746260N00334966WA0149001640
B1402483746265N00334962WA0148701637
B1402493746271N00334959WA0148601635
B1402503746276N00334956WA0148601634
B1402513746281N00334953WA0148401632
B1402523746286N00334949WA0148301631
B1402533746291N00334946WA0148001629
B1402543746296N00334943WA0147801627
B1402553746302N00334941WA0147601624
B1402563746307N00334938WA0147401623
B1402573746312N00334935WA0147301621
B1402583746317N00334931WA0147101619
B1402593746322N00334928WA0146901617
B1403003746328N00334925WA0146601615
B1403013746333N00334922WA0146301612
B1403023746339N00334919WA0146301610
B1403033746344N00334915WA0146201609
B1403043746349N00334910WA0146101607
B1403053746354N00334906WA0145901605
B1403063746358N00334902WA0145601603
B1403073746364N00334898WA0145301600
B1403083746369N00334894WA0145001597
B1403093746375N00334889WA0144601594
B1403103746380N00334884WA0144101590
B1403113746387N00334879WA0143701586
B1403123746393N00334873WA0143601583
B1403133746399N00334867WA0143301579
B1403143746406N00334862WA0143101577
B1403153746411N00334856WA0142801574
B1403163746417N00334850WA0142601572
B1403173746423N00334844WA0142301569
B1403183746429N00334838WA0142001567
B1403193746435N00334831WA0141601564
B1403203746441N00334825WA0141401561
B1403213746448N00334819WA0141201558
B1403223746454N00334814WA0141001556
B1403233746460N00334808WA0140901554
B1403243746466N00334803WA0140601552
B1403253746472N00334797WA0140501551
B1403263746479N00334793WA0140201548
B1403273746485N00334788WA0139801545
B1403283746491N00334783WA0139601543
B1403293746497N00334776WA0139401540
B1403303746503N00334769WA0139101536
B1403313746508N00334763WA0138901534
B1403323746515N00334758WA0138601531
B1403333746522N00334754WA0138301528
B1403343746528N00334750WA0138101526
B1403353746534N00334745WA0137901524
B1403363746539N00334738WA0137701522
B1403373746544N00334731WA0137501520
B1403383746550N00334725WA0137301517
B1403393746556N00334720WA0137001515
B1403403746562N00334715WA0136801512
B1403413746569N00334710WA0136801510
B1403423746575N00334706WA0136701509
B1403433746581N00334701WA0136701508
B1403443746587N00334697WA0136701508
B1403453746593N00334694WA0136801508
B1403463746598N00334691WA0136801508
B1403473746603N00334688WA0136901509
B1403483746608N00334686WA0137201509
B1403493746612N00334685WA0137301510
B1403503746615N00334683WA0137401511
B1403513746619N00334681WA0137301512
B1403523746623N00334678WA0136901513
B1403533746628N00334675WA0136801512
B1403543746633N00334673WA0137201512
B1403553746638N00334671WA0137401513
B1403563746641N00334669WA0137501515
B1403573746645N00334667WA0137601517
B1403583746649N00334664WA0137601518
B1403593746654N00334661WA0137501518
B1404003746659N00334659WA0137501517
B1404013746664N00334657WA0137401516
B1404023746669N00334656WA0137501515
B1404033746675N00334654WA0137501516
B1404043746680N00334652WA0137701517
B1404053746685N00334651WA0137801518
B1404063746690N00334649WA0138001519
B1404073746694N00334647WA0138101521
B1404083746698N00334645WA0138101522
B1404093746702N00334643WA0138101522
B1404103746707N00334640WA0138001522
B1404113746712N00334637WA0137901521
B1404123746717N00334636WA0137801521
B1404133746722N00334634WA0137801520
B1404143746727N00334632WA0137701520
B1404153746732N00334629WA0137701520
B1404163746737N00334627WA0137501518
B1404173746742N00334624WA0137301516
B1404183746747N00334622WA0137101515
B1404193746753N00334620WA0136801512
B1404203746758N00334618WA0136601510
B1404213746764N00334615WA0136501508
B1404223746768N00334613WA0136301506
B1404233746773N00334610WA0136101505
B1404243746777N00334608WA0135901503
B1404253746782N00334606WA0135601500
B1404263746787N00334603WA0135201496
B1404273746792N00334600WA0134801493
B1404283746796N00334596WA0134601490
B1404293746801N00334593WA0134401487
B1404303746805N00334590WA0134101485
B1404313746809N00334587WA0133701481
B1404323746814N00334585WA0133301477
B1404333746820N00334582WA0132901473
B1404343746825N00334578WA0132601469
B1404353746831N00334575WA0132501466
B1404363746836N00334574WA0132201464
B1404373746841N00334573WA0132001461
B1404383746846N00334573WA0131801459
B1404393746851N00334571WA0131501456
B1404403746857N00334569WA0131201453
B1404413746862N00334567WA0131001449
B1404423746867N00334565WA0130801447
B1404433746871N00334565WA0130501445
B1404443746876N00334565WA0130201442
B1404453746880N00334565WA0130001439
B1404463746886N00334564WA0129601436
B1404473746891N00334562WA0129301432
B1404483746897N00334561WA0129101430
B1404493746902N00334560WA0128901428
B1404503746907N00334559WA0128701426
B1404513746911N00334559WA0128501424
B1404523746916N00334558WA0128201421
B1404533746921N00334556WA0127801417
B1404543746926N00334554WA0127301414
B1404553746932N00334552WA0126901411
B1404563746937N00334551WA0126901408
B1404573746942N00334549WA0127001406
B1404583746947N00334547WA0126901405
B1404593746951N00334547WA0126301402
B1405003746956N00334546WA0126001399
B1405013746963N00334544WA0125701395
B1405023746969N00334541WA0125401391
B1405033746974N00334538WA0125301389
B1405043746978N00334535WA0125001387
B1405053746982N00334532WA0124601384
B1405063746987N00334529WA0124101380
B1405073746992N00334526WA0123601376
B1405083746998N00334522WA0123201371
B1405093747003N00334518WA0122901366
B1405103747007N00334513WA0122501362
B1405113747011N00334509WA0122201358
B1405123747015N00334504WA0122001355
B1405133747020N00334500WA0121801351
B1405143747026N00334497WA0121701349
B1405153747031N00334495WA0121701348
B1405163747036N00334493WA0121601348
B1405173747040N00334493WA0121601346
B1405183747045N00334494WA0121401345
B1405193747050N00334496WA0121201343
B1405203747056N00334498WA0121201341
B1405213747062N00334499WA0121301341
B1405223747068N00334500WA0121301340
B1405233747072N00334501WA0121301341
B1405243747076N00334502WA0121401343
B1405253747081N00334503WA0121301343
B1405263747086N00334503WA0121001342
B1405273747091N00334502WA0120701340
B1405283747096N00334501WA0120601338
B1405293747102N00334501WA0120401336
B1405303747107N00334502WA0120101334
B1405313747111N00334503WA0119801332
B1405323747116N00334502WA0119401330
B1405333747121N00334501WA0119201328
B1405343747127N00334498WA0119201325
B1405353747133N00334494WA0118901321
B1405363747139N00334492WA0118601319
B1405373747145N00334490WA0118501316
B1405383747150N00334488WA0118201314
B1405393747155N00334485WA0118101313
B1405403747159N00334480WA0117901311
B1405413747164N00334475WA0117601309
B1405423747170N00334470WA0117301306
B1405433747176N00334467WA0117201304
B1405443747183N00334464WA0117001302
B1405453747188N00334462WA0116901300
B1405463747194N00334459WA0116701299
B1405473747200N00334457WA0116601297
B1405483747205N00334455WA0116501296
B1405493747210N00334453WA0116401295
B1405503747215N00334452WA0116101294
B1405513747221N00334452WA0116001292
B1405523747226N00334451WA0116001291
B1405533747231N00334450WA0115801289
B1405543747236N00334449WA0115701287
B1405553747242N00334448WA0115601285
B1405563747247N00334448WA0115301284
B1405573747252N00334448WA0115201282
B1405583747257N00334447WA0115201280
B1405593747262N00334446WA0115001278
B1406003747267N00334445WA0114701276
B1406013747272N00334444WA0114501274
B1406023747277N00334443WA0114401272
B1406033747283N00334441WA0114401271
B1406043747288N00334440WA0114301270
B1406053747292N00334438WA0114201269
B1406063747296N00334436WA0114101268
B1406073747300N00334434WA0113701267
B1406083747305N00334431WA0113401265
B1406093747309N00334428WA0113201263
B1406103747314N00334423WA0113201261
B1406113747318N00334418WA0112901259
B1406123747321N00334412WA0112701257
B1406133747324N00334405WA0112401254
B1406143747325N00334397WA0111901252
B1406153747327N00334389WA0111601249
B1406163747329N00334382WA0111401247
B1406173747331N00334375WA0111201245
B1406183747334N00334368WA0111101243
B1406193747336N00334360WA0110801240
B1406203747337N00334352WA0110401238
B1406213747337N00334343WA0110501236
B1406223747338N00334334WA0110501234
B1406233747339N00334325WA0110201232
B1406243747341N00334317WA0110001230
B1406253747342N00334308WA0109801227
B1406263747342N00334298WA0109601224
B1406273747342N00334289WA0109301221
B1406283747342N00334280WA0109101219
B1406293747341N00334271WA0108901217
B1406303747341N00334262WA0108601215
B1406313747341N00334254WA0108301213
B1406323747341N00334244WA0108001210
B1406333747341N00334235WA0107601206
B1406343747341N00334225WA0107401203
B1406353747342N00334215WA0107101200
B1406363747343N00334206WA0107101197
B1406373747344N00334197WA0107101196
B1406383747345N00334189WA0107101197
B1406393747346N00334181WA0107001196
B1406403747347N00334174WA0106801195
B1406413747347N00334165WA0106501193
B1406423747347N00334157WA0106301190
B1406433747346N00334148WA0106201189
B1406443747346N00334139WA0106001187
B1406453747346N00334131WA0105901185
B1406463747345N00334123WA0105601183
B1406473747343N00334114WA0105201181
B1406483747342N00334105WA0105001178
B1406493747342N00334095WA0104701175
B1406503747343N00334086WA0104501173
B1406513747345N00334077WA0104501171
B1406523747348N00334070WA0104501171
B1406533747349N00334062WA0104301170
B1406543747350N00334054WA0103901168
B1406553747352N00334045WA0103501165
B1406563747354N00334036WA0103401163
B1406573747358N00334028WA0103201160
B1406583747362N00334020WA0103101158
B1406593747366N00334014WA0103101156
B1407003747370N00334008WA0103201155
B1407013747374N00334002WA0102901154
B1407023747378N00333994WA0102601151
B1407033747382N00333987WA0102301149
B1407043747386N00333980WA0102201147
B1407053747391N00333974WA0102201145
B1407063747395N00333968WA0102201144
B1407073747398N00333962WA0102001142
B1407083747402N00333956WA0101601140
B1407093747407N00333950WA0101301137
B1407103747412N00333944WA0101401136
B1407113747416N00333939WA0101401134
B1407123747421N00333935WA0101301134
B1407133747425N00333930WA0101101132
B1407143747429N00333925WA0100701130
B1407153747434N00333920WA0100401128
B1407163747439N00333917WA0100101125
B1407173747445N00333914WA0099901123
B1407183747450N00333912WA0099801120
B1407193747454N00333910WA0099601118
B1407203747459N00333907WA0099501117
B1407213747464N00333905WA0099201114
B1407223747470N00333902WA0099101111
B1407233747475N00333900WA0099001109
B1407243747480N00333897WA0098901107
B1407253747485N00333894WA0098801106
B1407263747490N00333891WA0098701105
B1407273747495N00333887WA0098501104
B1407283747500N00333883WA0098501103
B1407293747504N00333880WA0098601102
B1407303747509N00333877WA0098601102
B1407313747513N00333874WA0098501101
B1407323747517N00333870WA0098401101
B1407333747522N00333865WA0098401100
B1407343747526N00333860WA0098301100
B1407353747530N00333854WA0098101099
B1407363747535N00333848WA0097701098
B1407373747539N00333843WA0097401097
B1407383747545N00333839WA0097301096
B1407393747550N00333836WA0097201095
B1407403747555N00333834WA0097401094
B1407413747559N00333833WA0097701095
B1407423747563N00333830WA0097601095
B1407433747566N00333828WA0097401093
B1407443747571N00333825WA0097201092
B1407453747576N00333824WA0096901090
B1407463747582N00333823WA0096801088
B1407473747588N00333822WA0097201088
B1407483747593N00333820WA0097301091
B1407493747597N00333817WA0097601093
B1407503747599N00333813WA0097601094
B1407513747601N00333808WA0097601095
B1407523747604N00333802WA0097301094
B1407533747607N00333794WA0097201092
B1407543747610N00333785WA0097101090
B1407553747611N00333776WA0097201089
B1407563747611N00333768WA0097301089
B1407573747609N00333761WA0097301090
B1407583747607N00333754WA0097101089
B1407593747604N00333747WA0096801089
B1408003747599N00333739WA0096701088
B1408013747593N00333734WA0096701087
B1408023747587N00333731WA0096601084
B1408033747581N00333730WA0096601083
B1408043747576N00333730WA0096701082
B1408053747573N00333730WA0096801082
B1408063747570N00333731WA0096701082
B1408073747566N00333732WA0096401082
B1408083747562N00333735WA0096201082
B1408093747559N00333740WA0096201081
B1408103747557N00333744WA0096201079
B1408113747556N00333748WA0096301079
B1408123747556N00333751WA0096501081
B1408133747556N00333753WA0096601082
B1408143747557N00333754WA0096701083
B1408153747558N00333756WA0096701083
B1408163747560N00333758WA0096601082
B1408173747563N00333759WA0096601081
B1408183747566N00333758WA0096501081
B1408193747570N00333755WA0096401080
B1408203747574N00333751WA0096401079
B1408213747577N00333745WA0096401079
B1408223747579N00333738WA0096201079
B1408233747581N00333730WA0096201078
B1408243747583N00333722WA0096101078
B1408253747584N00333714WA0096201078
B1408263747585N00333706WA0096301077
B1408273747586N00333697WA0096301077
B1408283747584N00333688WA0096301077
B1408293747582N00333679WA0096301077
B1408303747579N00333671WA0096301077
B1408313747574N00333664WA0096301078
B1408323747569N00333659WA0096201078
B1408333747562N00333656WA0095801078
B1408343747555N00333656WA0095601076
B1408353747549N00333659WA0095801074
B1408363747544N00333662WA0095901073
B1408373747541N00333666WA0096001074
B1408383747539N00333668WA0096101074
B1408393747538N00333671WA0096001075
B1408403747539N00333673WA0095901075
B1408413747541N00333675WA0095401074
B1408423747544N00333677WA0095201072
B1408433747548N00333676WA0095501071
B1408443747552N00333674WA0095401070
B1408453747556N00333669WA0095301069
B1408463747559N00333665WA0095401068
B1408473747561N00333659WA0095601068
B1408483747563N00333653WA0095601068
B1408493747564N00333647WA0095401068
B1408503747565N00333641WA0095201067
B1408513747564N00333631WA0095401067
B1408523747563N00333622WA0095201066
B1408533747563N00333613WA0095201065
B1408543747564N00333607WA0095301066
B1408553747566N00333603WA0095101066
B1408563747570N00333598WA0095101066
B1408573747573N00333591WA0095301066
B1408583747574N00333581WA0095401066
B1408593747571N00333572WA0095501067
B1409003747567N00333564WA0095601070
B1409013747562N00333559WA0095601071
B1409023747556N00333555WA0095401072
B1409033747550N00333552WA0095201071
B1409043747544N00333552WA0095401071
B1409053747538N00333554WA0095601071
B1409063747532N00333556WA0095801072
B1409073747528N00333559WA0096001074
B1409083747525N00333561WA0096201077
B1409093747522N00333563WA0096501079
B1409103747521N00333565WA0096501081
B1409113747521N00333568WA0096501082
B1409123747523N00333571WA0096301082
B1409133747527N00333573WA0096201081
B1409143747532N00333573WA0096401081
B1409153747537N00333572WA0096701082
B1409163747540N00333568WA0097001083
B1409173747542N00333563WA0097201085
B1409183747543N00333555WA0097201085
B1409193747542N00333547WA0097201086
B1409203747540N00333538WA0097201087
B1409213747535N00333530WA0097201088
B1409223747528N00333523WA0097301089
B1409233747522N00333518WA0097401091
B1409243747516N00333516WA0097701094
B1409253747511N00333515WA0097801095
B1409263747506N00333516WA0097901097
B1409273747501N00333520WA0097901098
B1409283747498N00333524WA0097901098
B1409293747495N00333528WA0097901099
B1409303747493N00333532WA0098001100
B1409313747492N00333536WA0098201102
B1409323747491N00333539WA0098401102
B1409333747490N00333541WA0098401103
B1409343747490N00333543WA0098401104
B1409353747491N00333546WA0098501105
B1409363747492N00333548WA0098401105
B1409373747495N00333550WA0098301104
B1409383747500N00333550WA0098201103
B1409393747505N00333547WA0098201102
B1409403747510N00333543WA0098301101
B1409413747514N00333538WA0098401101
B1409423747516N00333532WA0098401100
B1409433747519N00333525WA0098401100
B1409443747521N00333517WA0098401100
B1409453747522N00333508WA0098401099
B1409463747522N00333498WA0098401099
B1409473747521N00333487WA0098601098
B1409483747519N00333478WA0098801102
B1409493747515N00333471WA0098901108
B1409503747509N00333465WA0099001109
B1409513747501N00333462WA0099001110
B1409523747494N00333462WA0098901111
B1409533747488N00333465WA0098901109
B1409543747484N00333469WA0099001109
B1409553747482N00333472WA0099201111
B1409563747480N00333476WA0099401112
B1409573747480N00333479WA0099501114
B1409583747481N00333481WA0099701115
B1409593747484N00333483WA0099701116
B1410003747487N00333484WA0099701115
B1410013747491N00333483WA0099801115
B1410023747495N00333481WA0099701115
B1410033747500N00333478WA0099701116
B1410043747504N00333475WA0099801116
B1410053747508N00333471WA0099901116
B1410063747512N00333466WA0100101117
B1410073747515N00333460WA0100301118
B1410083747517N00333453WA0100501119
B1410093747518N00333445WA0100601120
B1410103747517N00333437WA0100501121
B1410113747515N00333428WA0100101120
B1410123747510N00333420WA0099801119
B1410133747503N00333414WA0099801117
B1410143747496N00333411WA0100001116
B1410153747489N00333408WA0100001115
B1410163747483N00333407WA0100001116
B1410173747477N00333405WA0100001117
B1410183747472N00333406WA0099901117
B1410193747466N00333409WA0099801116
B1410203747460N00333413WA0099601115
B1410213747457N00333418WA0099801115
B1410223747454N00333422WA0100201118
B1410233747453N00333425WA0100401122
B1410243747452N00333427WA0100501124
B1410253747452N00333431WA0100501125
B1410263747454N00333434WA0100501126
B1410273747457N00333437WA0100401125
B1410283747460N00333439WA0100601125
B1410293747464N00333440WA0100701127
B1410303747468N00333440WA0100901128
B1410313747472N00333438WA0101001130
B1410323747475N00333435WA0101201131
B1410333747479N00333430WA0101401132
B1410343747481N00333424WA0101501133
B1410353747483N00333416WA0101401133
B1410363747485N00333408WA0101501134
B1410373747485N00333399WA0101601135
B1410383747484N00333390WA0101701136
B1410393747481N00333381WA0101501136
B1410403747477N00333373WA0101501136
B1410413747471N00333366WA0101401135
B1410423747465N00333361WA0101301133
B1410433747459N00333357WA0101301133
B1410443747453N00333354WA0101001132
B1410453747447N00333352WA0100801131
B1410463747440N00333352WA0100801130
B1410473747434N00333355WA0100701128
B1410483747428N00333359WA0100701127
B1410493747424N00333363WA0100801126
B1410503747420N00333367WA0101101129
B1410513747417N00333369WA0101301133
B1410523747415N00333372WA0101401135
B1410533747414N00333376WA0101501135
B1410543747413N00333381WA0101501135
B1410553747412N00333385WA0101601136
B1410563747412N00333388WA0101601136
B1410573747414N00333391WA0101701137
B1410583747416N00333392WA0101701138
B1410593747419N00333393WA0101601137
B1411003747422N00333394WA0101301135
B1411013747427N00333394WA0101201133
B1411023747433N00333392WA0101201132
B1411033747438N00333389WA0101301132
B1411043747442N00333386WA0101601133
B1411053747446N00333381WA0101701133
B1411063747448N00333376WA0101901134
B1411073747449N00333369WA0102101134
B1411083747450N00333362WA0102101135
B1411093747450N00333354WA0102201135
B1411103747449N00333346WA0102201136
B1411113747448N00333337WA0102301136
B1411123747445N00333329WA0102301137
B1411133747441N00333322WA0102201137
B1411143747437N00333316WA0102201137
B1411153747432N00333309WA0102201137
B1411163747426N00333304WA0102101136
B1411173747420N00333300WA0101701136
B1411183747413N00333297WA0101701135
B1411193747407N00333296WA0101801134
B1411203747400N00333297WA0101701133
B1411213747394N00333298WA0101901133
B1411223747389N00333300WA0102001135
B1411233747385N00333301WA0102201138
B1411243747383N00333302WA0102301140
B1411253747381N00333305WA0102301141
B1411263747381N00333309WA0102201141
B1411273747382N00333313WA0101901142
B1411283747386N00333316WA0101901141
B1411293747390N00333317WA0102001141
B1411303747394N00333316WA0102201143
B1411313747397N00333314WA0102501145
B1411323747400N00333310WA0102501146
B1411333747403N00333306WA0102501147
B1411343747406N00333299WA0102601147
B1411353747408N00333291WA0102501145
B1411363747408N00333283WA0102501145
B1411373747406N00333274WA0102501145
B1411383747404N00333267WA0102501146
B1411393747401N00333260WA0102501145
B1411403747397N00333254WA0102301144
B1411413747391N00333249WA0101801143
B1411423747384N00333245WA0102001141
B1411433747376N00333245WA0101901140
B1411443747370N00333246WA0101901138
B1411453747365N00333250WA0101901138
B1411463747362N00333253WA0102101139
B1411473747361N00333255WA0102101141
B1411483747361N00333258WA0102101141
B1411493747361N00333260WA0102101141
B1411503747364N00333263WA0102001141
B1411513747367N00333265WA0101901140
B1411523747372N00333265WA0101901139
B1411533747376N00333264WA0102001139
B1411543747380N00333263WA0102101139
B1411553747384N00333261WA0102101140
B1411563747387N00333258WA0102201140
B1411573747390N00333256WA0102101140
B1411583747394N00333253WA0101801140
B1411593747397N00333249WA0101701139
B1412003747401N00333245WA0102101139
B1412013747405N00333241WA0102101139
B1412023747408N00333236WA0102301140
B1412033747410N00333231WA0102401140
B1412043747411N00333226WA0102601141
B1412053747411N00333219WA0102601142
B1412063747410N00333212WA0102601142
B1412073747408N00333205WA0102501142
B1412083747406N00333197WA0102401140
B1412093747403N00333190WA0102401139
B1412103747399N00333183WA0102401139
B1412113747395N00333176WA0102401139
B1412123747390N00333169WA0102501139
B1412133747385N00333164WA0102601140
B1412143747380N00333159WA0102601140
B1412153747375N00333156WA0102401140
B1412163747369N00333154WA0102301140
B1412173747363N00333155WA0102301139
B1412183747357N00333158WA0102201138
B1412193747353N00333161WA0102401138
B1412203747350N00333166WA0102701139
B1412213747348N00333170WA0102901141
B1412223747348N00333172WA0103001145
B1412233747349N00333175WA0103001146
B1412243747352N00333178WA0103101146
B1412253747355N00333180WA0103101145
B1412263747359N00333181WA0103301147
B1412273747363N00333179WA0103401148
B1412283747366N00333175WA0103601150
B1412293747369N00333169WA0103701151
B1412303747371N00333163WA0103801152
B1412313747372N00333156WA0103901153
B1412323747371N00333148WA0103901154
B1412333747368N00333140WA0103801155
B1412343747363N00333133WA0103701154
B1412353747359N00333126WA0103801155
B1412363747354N00333121WA0103901156
B1412373747350N00333118WA0104001157
B1412383747345N00333115WA0103801157
B1412393747339N00333114WA0103501156
B1412403747333N00333114WA0103801156
B1412413747328N00333116WA0104001156
B1412423747323N00333120WA0104201157
B1412433747319N00333124WA0104501160
B1412443747317N00333127WA0104701163
B1412453747316N00333130WA0105001165
B1412463747315N00333133WA0105001167
B1412473747315N00333138WA0105001168
B1412483747318N00333140WA0104701169
B1412493747321N00333142WA0104501166
B1412503747326N00333144WA0104401164
B1412513747330N00333144WA0104401164
B1412523747333N00333144WA0104601164
B1412533747337N00333142WA0104801165
B1412543747340N00333140WA0104901166
B1412553747344N00333135WA0104901166
B1412563747346N00333130WA0104901166
B1412573747348N00333122WA0105001166
B1412583747350N00333114WA0105101167
B1412593747349N00333105WA0105101167
B1413003747347N00333098WA0105201169
B1413013747343N00333091WA0105301170
B1413023747337N00333085WA0105301171
B1413033747331N00333081WA0105301170
B1413043747325N00333078WA0105301170
B1413053747319N00333076WA0105201170
B1413063747313N00333076WA0105401171
B1413073747307N00333076WA0105501171
B1413083747302N00333078WA0105501172
B1413093747299N00333082WA0105601173
B1413103747296N00333086WA0105701173
B1413113747294N00333089WA0105801174
B1413123747294N00333092WA0105901176
B1413133747296N00333094WA0106001176
B1413143747298N00333096WA0105801176
B1413153747302N00333097WA0105701174
B1413163747306N00333098WA0105601172
B1413173747311N00333097WA0105701172
B1413183747315N00333096WA0105901173
B1413193747319N00333093WA0106001173
B1413203747322N00333088WA0106101174
B1413213747324N00333082WA0106101174
B1413223747325N00333073WA0105901173
B1413233747324N00333063WA0105801173
B1413243747322N00333053WA0105901172
B1413253747317N00333043WA0106201175
B1413263747313N00333036WA0106301180
B1413273747309N00333030WA0106601184
B1413283747304N00333027WA0106601185
B1413293747299N00333025WA0106501185
B1413303747292N00333024WA0106401185
B1413313747285N00333024WA0106301185
B1413323747277N00333026WA0106401185
B1413333747272N00333028WA0106701186
B1413343747269N00333031WA0106901189
B1413353747267N00333034WA0107001189
B1413363747267N00333038WA0107101189
B1413373747268N00333042WA0107101190
B1413383747270N00333045WA0107201190
B1413393747273N00333047WA0107301191
B1413403747276N00333047WA0107501192
B1413413747280N00333045WA0107501193
B1413423747284N00333042WA0107601194
B1413433747287N00333037WA0107601195
B1413443747289N00333030WA0107601196
B1413453747290N00333022WA0107601196
B1413463747289N00333011WA0107601197
B1413473747285N00333002WA0107701197
B1413483747280N00332994WA0107901199
B1413493747274N00332988WA0108101201
B1413503747268N00332985WA0108201203
B1413513747261N00332983WA0108201203
B1413523747255N00332983WA0108301203
B1413533747249N00332984WA0108401203
B1413543747244N00332986WA0108401203
B1413553747240N00332990WA0108601204
B1413563747238N00332993WA0108701206
B1413573747237N00332997WA0108801207
B1413583747237N00333000WA0108901208
B1413593747237N00333003WA0109001209
B1414003747238N00333007WA0109101210
B1414013747240N00333010WA0109201211
B1414023747243N00333012WA0109401212
B1414033747247N00333013WA0109601214
B1414043747251N00333011WA0109701216
B1414053747254N00333008WA0109801217
B1414063747257N00333003WA0109901218
B1414073747259N00332996WA0109801218
B1414083747260N00332987WA0109701219
B1414093747261N00332978WA0109701218
B1414103747261N00332968WA0109801219
B1414113747259N00332959WA0109901220
B1414123747257N00332951WA0110001222
B1414133747253N00332943WA0110101222
B1414143747248N00332934WA0110101223
B1414153747241N00332926WA0110201223
B1414163747235N00332920WA0110501224
B1414173747228N00332916WA0110701227
B1414183747222N00332914WA0110801229
B1414193747216N00332913WA0110901230
B1414203747210N00332913WA0110701230
B1414213747204N00332914WA0110401229
B1414223747199N00332917WA0110701228
B1414233747195N00332922WA0110801228
B1414243747193N00332927WA0110901228
B1414253747191N00332931WA0111101230
B1414263747190N00332935WA0111201232
B1414273747189N00332938WA0111401234
B1414283747189N00332941WA0111601236
B1414293747189N00332945WA0111701238
B1414303747190N00332949WA0111801239
B1414313747192N00332951WA0111801240
B1414323747196N00332954WA0112001241
B1414333747199N00332956WA0112201243
B1414343747203N00332957WA0112401245
B1414353747207N00332957WA0112601247
B1414363747210N00332956WA0112601249
B1414373747214N00332952WA0112801250
B1414383747218N00332946WA0112801251
B1414393747220N00332938WA0112701250
B1414403747221N00332929WA0112701250
B1414413747219N00332920WA0112801251
B1414423747216N00332912WA0112901252
B1414433747212N00332906WA0112901252
B1414443747206N00332901WA0112601251
B1414453747199N00332898WA0112501251
B1414463747193N00332899WA0113001252
B1414473747187N00332901WA0113301253
B1414483747184N00332904WA0113601256
B1414493747182N00332907WA0113801259
B1414503747181N00332910WA0114001261
B1414513747181N00332913WA0114201263
B1414523747182N00332917WA0114401265
B1414533747184N00332920WA0114701267
B1414543747187N00332923WA0114801269
B1414553747189N00332925WA0115101271
B1414563747192N00332926WA0115201273
B1414573747194N00332926WA0115201274
B1414583747197N00332924WA0115201275
B1414593747201N00332921WA0115201275
B1415003747206N00332917WA0115101275
B1415013747210N00332911WA0115101275
B1415023747214N00332903WA0115201275
B1415033747216N00332896WA0115301276
B1415043747217N00332888WA0115501277
B1415053747216N00332880WA0115501278
B1415063747214N00332871WA0115301277
B1415073747211N00332862WA0115001277
B1415083747207N00332854WA0115201277
B1415093747201N00332847WA0115401277
B1415103747194N00332842WA0115601278
B1415113747188N00332838WA0115801280
B1415123747183N00332836WA0115901282
B1415133747177N00332834WA0116001283
B1415143747171N00332833WA0116201284
B1415153747165N00332834WA0116401285
B1415163747159N00332836WA0116601287
B1415173747154N00332839WA0116801289
B1415183747152N00332842WA0117101292
B1415193747152N00332844WA0117201295
B1415203747154N00332847WA0117201295
B1415213747156N00332849WA0117301296
B1415223747159N00332851WA0117301297
B1415233747163N00332850WA0117301297
B1415243747167N00332847WA0117301298
B1415253747171N00332841WA0117401298
B1415263747173N00332833WA0117301298
B1415273747174N00332824WA0117401298
B1415283747173N00332815WA0117701299
B1415293747170N00332807WA0117901301
B1415303747166N00332799WA0118001303
B1415313747161N00332792WA0118301305
B1415323747155N00332787WA0118501307
B1415333747149N00332783WA0118801310
B1415343747143N00332781WA0119001312
B1415353747137N00332779WA0119201314
B1415363747131N00332780WA0119301316
B1415373747126N00332782WA0119401317
B1415383747122N00332786WA0119401318
B1415393747120N00332790WA0119601320
B1415403747119N00332794WA0119801321
B1415413747119N00332798WA0120101324
B1415423747119N00332802WA0120301326
B1415433747120N00332805WA0120701329
B1415443747122N00332807WA0120901332
B1415453747125N00332807WA0121201335
B1415463747128N00332805WA0121301337
B1415473747132N00332800WA0121301339
B1415483747134N00332794WA0121301340
B1415493747136N00332786WA0121501340
B1415503747136N00332777WA0121601342
B1415513747134N00332769WA0121901344
B1415523747131N00332762WA0122101346
B1415533747127N00332756WA0122201348
B1415543747122N00332750WA0122301350
B1415553747116N00332747WA0122501351
B1415563747109N00332745WA0122601352
B1415573747103N00332745WA0122901353
B1415583747098N00332746WA0123101355
B1415593747094N00332747WA0123501358
B1416003747090N00332748WA0123701361
B1416013747086N00332751WA0123801364
B1416023747084N00332755WA0123801366
B1416033747083N00332760WA0124001366
B1416043747084N00332765WA0124101367
B1416053747086N00332769WA0124301369
B1416063747089N00332771WA0124601372
B1416073747093N00332772WA0125001375
B1416083747096N00332770WA0125301379
B1416093747100N00332766WA0125501381
B1416103747103N00332758WA0125701383
B1416113747104N00332748WA0125801385
B1416123747102N00332738WA0126001386
B1416133747098N00332730WA0126201389
B1416143747093N00332724WA0126501392
B1416153747089N00332719WA0126801395
B1416163747083N00332715WA0126901397
B1416173747077N00332714WA0127001400
B1416183747071N00332714WA0127201401
B1416193747066N00332716WA0127501403
B1416203747062N00332719WA0127701405
B1416213747060N00332722WA0127901408
B1416223747059N00332726WA0128101410
B1416233747060N00332730WA0128301412
B1416243747062N00332734WA0128501415
B1416253747065N00332737WA0128801418
B1416263747069N00332737WA0129101422
B1416273747072N00332736WA0129401425
B1416283747076N00332732WA0129701428
B1416293747079N00332726WA0129901430
B1416303747081N00332717WA0130001432
B1416313747080N00332707WA0130201433
B1416323747077N00332697WA0130401435
B1416333747072N00332690WA0130601438
B1416343747065N00332685WA0130801441
B1416353747058N00332683WA0131201443
B1416363747053N00332683WA0131401446
B1416373747048N00332684WA0131601449
B1416383747045N00332687WA0131801452
B1416393747043N00332692WA0132001454
B1416403747042N00332697WA0132101457
B1416413747043N00332701WA0132501460
B1416423747045N00332705WA0132801463
B1416433747048N00332707WA0133001465
B1416443747052N00332707WA0133301468
B1416453747057N00332706WA0133501470
B1416463747062N00332701WA0133801472
B1416473747066N00332694WA0134201475
B1416483747067N00332686WA0134501478
B1416493747066N00332677WA0134701481
B1416503747063N00332669WA0135001484
B1416513747058N00332662WA0135301487
B1416523747053N00332658WA0135501489
B1416533747046N00332655WA0135601491
B1416543747040N00332654WA0135901494
B1416553747035N00332655WA0136101496
B1416563747031N00332658WA0136401499
B1416573747029N00332662WA0136601501
B1416583747027N00332667WA0136701504
B1416593747028N00332672WA0136901506
B1417003747029N00332676WA0137201508
B1417013747032N00332679WA0137501511
B1417023747035N00332682WA0137701514
B1417033747040N00332683WA0137901516
B1417043747045N00332682WA0138101518
B1417053747051N00332679WA0138401520
B1417063747055N00332674WA0138701522
B1417073747058N00332668WA0139101525
B1417083747059N00332661WA0139401529
B1417093747059N00332653WA0139601532
B1417103747057N00332646WA0139801534
B1417113747053N00332637WA0139901536
B1417123747048N00332630WA0140201538
B1417133747041N00332625WA0140501541
B1417143747035N00332621WA0140901545
B1417153747030N00332620WA0141301550
B1417163747025N00332621WA0141601554
B1417173747021N00332623WA0141801557
B1417183747017N00332627WA0142101560
B1417193747015N00332630WA0142501565
B1417203747013N00332633WA0142901569
B1417213747012N00332637WA0143401573
B1417223747012N00332641WA0143801578
B1417233747014N00332646WA0144001581
B1417243747018N00332649WA0144201584
B1417253747023N00332650WA0144501587
B1417263747028N00332647WA0144801590
B1417273747033N00332643WA0144901593
B1417283747036N00332637WA0145301596
B1417293747038N00332631WA0145501599
B1417303747039N00332624WA0145801601
B1417313747038N00332616WA0146101604
B1417323747036N00332609WA0146201606
B1417333747032N00332602WA0146401608
B1417343747026N00332596WA0146701610
B1417353747020N00332593WA0146901612
B1417363747013N00332592WA0147301614
B1417373747008N00332593WA0147701618
B1417383747003N00332596WA0148201622
B1417393747000N00332599WA0148601627
B1417403746999N00332603WA0148901631
B1417413746999N00332607WA0149101634
B1417423747000N00332611WA0149401637
B1417433747003N00332616WA0149701640
B1417443747006N00332619WA0149801642
B1417453747010N00332621WA0150001645
B1417463747014N00332620WA0150101647
B1417473747018N00332616WA0149701648
B1417483747022N00332609WA0150101650
B1417493747024N00332600WA0150301651
B1417503747024N00332591WA0150701652
B1417513747024N00332584WA0151101656
B1417523747022N00332577WA0151401661
B1417533747018N00332572WA0151701665
B1417543747013N00332566WA0152001667
B1417553747006N00332562WA0152101668
B1417563746999N00332560WA0152501670
B1417573746993N00332561WA0152901673
B1417583746988N00332563WA0153401678
B1417593746985N00332566WA0153901683
B1418003746984N00332569WA0154201687
B1418013746984N00332573WA0154401690
B1418023746985N00332576WA0154601693
B1418033746988N00332578WA0154701695
B1418043746993N00332578WA0154801697
B1418053746999N00332574WA0154901697
B1418063747005N00332568WA0155001697
B1418073747008N00332559WA0155301698
B1418083747009N00332550WA0155601702
B1418093747008N00332542WA0156101706
B1418103747004N00332536WA0156401710
B1418113746999N00332530WA0156701713
B1418123746993N00332526WA0157001716
B1418133746987N00332524WA0157201719
B1418143746980N00332523WA0157601722
B1418153746974N00332523WA0157901725
B1418163746969N00332525WA0158301729
B1418173746965N00332528WA0158701734
B1418183746963N00332532WA0158901738
B1418193746962N00332536WA0159101741
B1418203746963N00332541WA0159301743
B1418213746965N00332544WA0159201744
B1418223746968N00332547WA0159401745
B1418233746973N00332548WA0159501746
B1418243746978N00332548WA0159701747
B1418253746982N00332546WA0159901750
B1418263746986N00332542WA0160101751
B1418273746990N00332537WA0160301753
B1418283746993N00332531WA0160501755
B1418293746996N00332524WA0160601757
B1418303746997N00332516WA0160801758
B1418313746996N00332508WA0161201760
B1418323746993N00332500WA0161501763
B1418333746989N00332493WA0161801768
B1418343746983N00332488WA0162201772
B1418353746977N00332484WA0162601775
B1418363746972N00332483WA0162901778
B1418373746967N00332484WA0163101782
B1418383746964N00332486WA0163401785
B1418393746962N00332490WA0163601787
B1418403746960N00332494WA0163801789
B1418413746959N00332498WA0164001791
B1418423746959N00332502WA0164101794
B1418433746960N00332505WA0164201796
B1418443746963N00332508WA0164301797
B1418453746967N00332509WA0164401797
B1418463746973N00332508WA0164401797
B1418473746978N00332505WA0164401797
B1418483746983N00332500WA0164601798
B1418493746987N00332493WA0164801799
B1418503746989N00332486WA0165201801
B1418513746990N00332479WA0165601803
B1418523746989N00332472WA0165801806
B1418533746987N00332464WA0166001808
B1418543746984N00332457WA0166301811
B1418553746979N00332449WA0166601813
B1418563746975N00332443WA0166801816
B1418573746969N00332438WA0167101820
B1418583746964N00332434WA0167501824
B1418593746959N00332432WA0167701827
B1419003746954N00332432WA0167901830
B1419013746949N00332433WA0168201832
B1419023746946N00332436WA0168401835
B1419033746945N00332440WA0168601837
B1419043746945N00332443WA0168701840
B1419053746947N00332446WA0168801842
B1419063746950N00332448WA0168901844
B1419073746954N00332449WA0169001845
B1419083746959N00332448WA0169101845
B1419093746964N00332445WA0169301846
B1419103746969N00332441WA0169501848
B1419113746974N00332436WA0169701850
B1419123746977N00332430WA0169901853
B1419133746979N00332422WA0170301855
B1419143746980N00332414WA0170501858
B1419153746980N00332405WA0170801860
B1419163746978N00332397WA0171001862
B1419173746975N00332389WA0171201865
B1419183746971N00332381WA0171401867
B1419193746966N00332376WA0171601869
B1419203746960N00332372WA0171401871
B1419213746954N00332372WA0171801873
B1419223746949N00332374WA0172201875
B1419233746945N00332377WA0172601877
B1419243746943N00332380WA0172801880
B1419253746943N00332383WA0173001884
B1419263746944N00332386WA0173301888
B1419273746947N00332388WA0173501890
B1419283746951N00332389WA0173501892
B1419293746956N00332388WA0173601893
B1419303746962N00332383WA0173901894
B1419313746966N00332376WA0174201896
B1419323746969N00332369WA0174501900
B1419333746969N00332361WA0174701904
B1419343746967N00332353WA0175001906
B1419353746963N00332346WA0175001908
B1419363746958N00332340WA0175101908
B1419373746952N00332336WA0175201909
B1419383746946N00332335WA0175401911
B1419393746941N00332336WA0175601913
B1419403746937N00332337WA0175901915
B1419413746935N00332340WA0176101917
B1419423746933N00332343WA0176401920
B1419433746933N00332346WA0176501923
B1419443746935N00332350WA0176601925
B1419453746939N00332353WA0176701927
B1419463746944N00332354WA0176901929
B1419473746949N00332352WA0177101930
B1419483746954N00332348WA0177301932
B1419493746957N00332342WA0177601934
B1419503746959N00332335WA0177901937
B1419513746959N00332327WA0178001939
B1419523746958N00332318WA0178001940
B1419533746954N00332310WA0178101941
B1419543746949N00332302WA0178101941
B1419553746943N00332297WA0178201941
B1419563746936N00332295WA0178301943
B1419573746930N00332294WA0178501945
B1419583746926N00332293WA0178901948
B1419593746921N00332293WA0179001951
B1420003746917N00332293WA0179201953
B1420013746914N00332295WA0179401955
B1420023746913N00332299WA0179701957
B1420033746913N00332303WA0179901959
B1420043746915N00332306WA0180001961
B1420053746918N00332308WA0180101962
B1420063746923N00332308WA0180301964
B1420073746928N00332306WA0180501965
B1420083746933N00332301WA0180601967
B1420093746937N00332293WA0180701968
B1420103746939N00332284WA0180801969
B1420113746938N00332274WA0180901970
B1420123746934N00332265WA0181101971
B1420133746929N00332259WA0181101972
B1420143746922N00332256WA0181201973
B1420153746916N00332254WA0181301974
B1420163746910N00332255WA0181401975
B1420173746905N00332256WA0181701977
B1420183746902N00332259WA0181801979
B1420193746900N00332262WA0182101981
B1420203746900N00332265WA0182201983
B1420213746900N00332269WA0182301985
B1420223746902N00332272WA0182401986
B1420233746905N00332275WA0182601987
B1420243746907N00332277WA0182701989
B1420253746911N00332278WA0182901991
B1420263746915N00332278WA0183001992
B1420273746920N00332275WA0183101993
B1420283746924N00332271WA0183301995
B1420293746928N00332265WA0183401996
B1420303746930N00332256WA0183501997
B1420313746930N00332247WA0183401998
B1420323746928N00332238WA0183401998
B1420333746924N00332230WA0183401998
B1420343746919N00332223WA0183501998
B1420353746912N00332218WA0183401997
B1420363746905N00332216WA0183401996
B1420373746899N00332217WA0183401996
B1420383746894N00332219WA0183601997
B1420393746890N00332221WA0183801999
B1420403746888N00332224WA0184002001
B1420413746886N00332227WA0184202003
B1420423746886N00332231WA0184202004
B1420433746887N00332235WA0184302004
B1420443746890N00332240WA0184402005
B1420453746892N00332244WA0184602007
B1420463746894N00332248WA0184902010
B1420473746896N00332250WA0185202013
B1420483746899N00332251WA0185402016
B1420493746903N00332251WA0185602017
B1420503746908N00332251WA0185702019
B1420513746913N00332248WA0185802020
B1420523746917N00332243WA0186002021
B1420533746920N00332236WA0186102023
B1420543746921N00332228WA0186002024
B1420553746920N00332220WA0185702025
B1420563746917N00332212WA0185702025
B1420573746913N00332205WA0186002024
B1420583746907N00332198WA0186002024
B1420593746900N00332193WA0186002024
B1421003746892N00332191WA0186002024
B1421013746886N00332191WA0186202025
B1421023746881N00332192WA0186302027
B1421033746877N00332193WA0186502028
B1421043746873N00332196WA0186702029
B1421053746870N00332198WA0186802031
B1421063746869N00332202WA0187002033
B1421073746868N00332206WA0187202035
B1421083746867N00332210WA0187402038
B1421093746867N00332214WA0187602041
B1421103746867N00332216WA0187802044
B1421113746868N00332219WA0188002046
B1421123746870N00332221WA0188102048
B1421133746874N00332223WA0188202048
B1421143746878N00332223WA0188202048
B1421153746884N00332221WA0188302049
B1421163746889N00332217WA0188402049
B1421173746892N00332210WA0188502050
B1421183746894N00332202WA0188602052
B1421193746894N00332193WA0188802053
B1421203746892N00332185WA0188802053
B1421213746887N00332177WA0188802053
B1421223746881N00332172WA0188902054
B1421233746875N00332170WA0189102055
B1421243746869N00332170WA0189202057
B1421253746864N00332172WA0189402058
B1421263746862N00332175WA0189502060
B1421273746861N00332180WA0189602061
B1421283746861N00332185WA0189702063
B1421293746862N00332189WA0190002065
B1421303746864N00332192WA0190102067
B1421313746867N00332194WA0190202068
B1421323746871N00332196WA0190302070
B1421333746875N00332195WA0190302070
B1421343746880N00332194WA0190302070
B1421353746886N00332191WA0190502071
B1421363746890N00332187WA0190602072
B1421373746894N00332181WA0190702073
B1421383746896N00332174WA0190802074
B1421393746897N00332165WA0190902075
B1421403746896N00332156WA0190902076
B1421413746892N00332147WA0190902076
B1421423746887N00332139WA0191002075
B1421433746881N00332135WA0191202077
B1421443746875N00332133WA0191302081
B1421453746871N00332132WA0191402083
B1421463746867N00332132WA0191502084
B1421473746862N00332134WA0191602085
B1421483746858N00332136WA0191702086
B1421493746856N00332139WA0191702087
B1421503746854N00332144WA0191902088
B1421513746854N00332148WA0192002089
B1421523746855N00332152WA0192102090
B1421533746856N00332156WA0192102091
B1421543746857N00332160WA0192202092
B1421553746857N00332163WA0192302093
B1421563746858N00332166WA0192302093
B1421573746858N00332170WA0192402094
B1421583746859N00332174WA0192402094
B1421593746861N00332177WA0192402095
B1422003746864N00332180WA0192502095
B1422013746868N00332183WA0192602095
B1422023746871N00332186WA0192702096
B1422033746874N00332188WA0192802097
B1422043746876N00332191WA0192902098
B1422053746879N00332193WA0192902099
B1422063746882N00332196WA0192802099
B1422073746884N00332198WA0192502099
B1422083746887N00332201WA0192502098
B1422093746890N00332203WA0192902098
B1422103746893N00332206WA0193002099
B1422113746896N00332209WA0193102100
B1422123746899N00332211WA0193202101
B1422133746902N00332213WA0193302102
B1422143746906N00332214WA0193302103
B1422153746910N00332215WA0193302103
B1422163746914N00332215WA0193202103
B1422173746918N00332216WA0193102103
B1422183746923N00332217WA0193002102
B1422193746927N00332219WA0192902101
B1422203746932N00332221WA0192902100
B1422213746936N00332222WA0192902099
B1422223746941N00332224WA0192902098
B1422233746945N00332225WA0192802098
B1422243746949N00332226WA0192802098
B1422253746953N00332227WA0192802098
B1422263746957N00332229WA0192802098
B1422273746962N00332230WA0192802097
B1422283746967N00332231WA0192902097
B1422293746972N00332232WA0192902097
B1422303746977N00332233WA0193102099
B1422313746981N00332234WA0193302100
B1422323746985N00332235WA0193302102
B1422333746989N00332235WA0193402103
B1422343746994N00332236WA0193402103
B1422353746999N00332236WA0193402103
B1422363747005N00332236WA0193502103
B1422373747010N00332236WA0193602104
B1422383747014N00332235WA0193602106
B1422393747018N00332235WA0193702107
B1422403747023N00332234WA0193602107
B1422413747029N00332234WA0193202107
B1422423747034N00332235WA0193502107
B1422433747040N00332235WA0193502106
B1422443747045N00332234WA0193702107
B1422453747049N00332232WA0193802108
B1422463747054N00332231WA0193802109
B1422473747059N00332231WA0193702109
B1422483747064N00332231WA0193702108
B1422493747069N00332230WA0193702108
B1422503747075N00332230WA0193802108
B1422513747080N00332230WA0193702108
B1422523747084N00332230WA0193702109
B1422533747089N00332231WA0193702109
B1422543747094N00332231WA0193702109
B1422553747099N00332232WA0193602108
B1422563747104N00332231WA0193602108
B1422573747110N00332231WA0193502108
B1422583747115N00332231WA0193602108
B1422593747119N00332231WA0193602108
B1423003747124N00332232WA0193502108
B1423013747129N00332233WA0193402107
B1423023747135N00332233WA0193202106
B1423033747140N00332234WA0193102105
B1423043747145N00332235WA0193102104
B1423053747149N00332236WA0193202104
B1423063747153N00332237WA0193202104
B1423073747157N00332238WA0193102103
B1423083747162N00332239WA0192802102
B1423093747167N00332241WA0192602100
B1423103747172N00332242WA0192502098
B1423113747177N00332244WA0192502097
B1423123747182N00332245WA0192502097
B1423133747186N00332245WA0192402096
B1423143747191N00332246WA0192202095
B1423153747196N00332247WA0192002093
B1423163747201N00332249WA0191902092
B1423173747206N00332251WA0191802091
B1423183747211N00332253WA0191802090
B1423193747216N00332255WA0191802089
B1423203747220N00332256WA0191602088
B1423213747225N00332259WA0191402086
B1423223747230N00332261WA0191402085
B1423233747235N00332264WA0191302084
B1423243747240N00332266WA0191202083
B1423253747245N00332267WA0191102082
B1423263747251N00332268WA0191002081
B1423273747256N00332269WA0190902080
B1423283747262N00332271WA0190802079
B1423293747267N00332273WA0190602078
B1423303747272N00332275WA0190402076
B1423313747278N00332277WA0190402074
B1423323747284N00332278WA0190302073
B1423333747290N00332279WA0190202072
B1423343747295N00332281WA0190002071
B1423353747300N00332283WA0189802069
B1423363747306N00332286WA0189602067
B1423373747312N00332289WA0189402065
B1423383747317N00332290WA0189202063
B1423393747323N00332291WA0189102062
B1423403747328N00332292WA0189002060
B1423413747332N00332294WA0188802059
B1423423747337N00332297WA0188502056
B1423433747342N00332299WA0188302054
B1423443747347N00332301WA0188002051
B1423453747353N00332302WA0187902049
B1423463747357N00332303WA0187802048
B1423473747361N00332305WA0187602047
B1423483747365N00332307WA0187402045
B1423493747369N00332309WA0187102043
B1423503747374N00332311WA0186902039
B1423513747379N00332314WA0186702037
B1423523747384N00332316WA0186502035
B1423533747389N00332318WA0186402033
B1423543747393N00332320WA0186202032
B1423553747397N00332323WA0186002030
B1423563747402N00332325WA0185802028
B1423573747407N00332328WA0185702026
B1423583747411N00332330WA0185602024
B1423593747415N00332332WA0185502023
B1424003747419N00332335WA0185402022
B1424013747422N00332338WA0185202021
B1424023747426N00332341WA0185102019
B1424033747430N00332344WA0184902018
B1424043747433N00332347WA0184902017
B1424053747437N00332350WA0184802016
B1424063747440N00332353WA0184702015
B1424073747443N00332357WA0184602014
B1424083747447N00332360WA0184302014
B1424093747451N00332362WA0184302013
B1424103747455N00332365WA0184302012
B1424113747459N00332367WA0184302011
B1424123747462N00332371WA0184202010
B1424133747465N00332374WA0184202009
B1424143747468N00332377WA0184102009
B1424153747471N00332379WA0184002008
B1424163747475N00332382WA0183902007
B1424173747479N00332385WA0183702006
B1424183747483N00332388WA0183702004
B1424193747487N00332391WA0183702003
B1424203747492N00332393WA0183802004
B1424213747496N00332394WA0183802004
B1424223747500N00332395WA0184002005
B1424233747504N00332397WA0184102006
B1424243747507N00332399WA0184102007
B1424253747510N00332401WA0184102007
B1424263747515N00332402WA0184202007
B1424273747519N00332402WA0184302007
B1424283747522N00332402WA0184502009
B1424293747525N00332403WA0184502010
B1424303747528N00332403WA0184602011
B1424313747532N00332403WA0184602012
B1424323747536N00332404WA0184702012
B1424333747540N00332405WA0184702012
B1424343747544N00332406WA0185002014
B1424353747547N00332406WA0185202016
B1424363747551N00332407WA0185302018
B1424373747555N00332407WA0185502020
B1424383747559N00332407WA0185702021
B1424393747564N00332407WA0185702022
B1424403747568N00332408WA0185802024
B1424413747571N00332408WA0186002026
B1424423747575N00332408WA0185902026
B1424433747579N00332408WA0185702026
B1424443747585N00332408WA0185402023
B1424453747590N00332409WA0185202021
B1424463747596N00332410WA0185102019
B1424473747601N00332410WA0185202019
B1424483747605N00332410WA0185302019
B1424493747610N00332411WA0185202020
B1424503747614N00332411WA0185002019
B1424513747619N00332412WA0184802018
B1424523747624N00332414WA0184702016
B1424533747629N00332415WA0184602014
B1424543747634N00332417WA0184602013
B1424553747639N00332418WA0184502013
B1424563747643N00332419WA0184302012
B1424573747647N00332422WA0184202012
B1424583747651N00332424WA0184402011
B1424593747655N00332426WA0184302010
B1425003747660N00332428WA0184202008
B1425013747665N00332429WA0184102008
B1425023747669N00332430WA0184002007
B1425033747673N00332432WA0183902006
B1425043747678N00332434WA0183802005
B1425053747684N00332436WA0183802003
B1425063747689N00332437WA0183702002
B1425073747694N00332437WA0183802002
B1425083747698N00332437WA0183902002
B1425093747702N00332437WA0183902003
B1425103747707N00332437WA0183802003
B1425113747712N00332437WA0183602003
B1425123747718N00332437WA0183502002
B1425133747723N00332438WA0183502001
B1425143747728N00332440WA0183502000
B1425153747732N00332442WA0183602001
B1425163747736N00332444WA0183702002
B1425173747740N00332445WA0183602002
B1425183747745N00332447WA0183202001
B1425193747750N00332449WA0182902000
B1425203747755N00332451WA0183202000
B1425213747760N00332452WA0183201999
B1425223747765N00332453WA0183001999
B1425233747770N00332453WA0182901998
B1425243747775N00332453WA0182801996
B1425253747780N00332453WA0182701995
B1425263747786N00332454WA0182501994
B1425273747791N00332453WA0182401993
B1425283747795N00332453WA0182401992
B1425293747800N00332453WA0182301991
B1425303747804N00332453WA0182201990
B1425313747809N00332453WA0181901988
B1425323747814N00332454WA0181701985
B1425333747819N00332455WA0181501982
B1425343747824N00332455WA0181401981
B1425353747828N00332457WA0181201979
B1425363747833N00332458WA0181101978
B1425373747837N00332459WA0180901977
B1425383747843N00332461WA0180701975
B1425393747848N00332463WA0180601973
B1425403747852N00332464WA0180401971
B1425413747857N00332465WA0180101969
B1425423747863N00332466WA0179901967
B1425433747868N00332467WA0179701964
B1425443747873N00332468WA0179501961
B1425453747879N00332469WA0179201959
B1425463747884N00332471WA0179201957
B1425473747889N00332472WA0179201956
B1425483747894N00332473WA0179301956
B1425493747898N00332473WA0179301956
B1425503747901N00332474WA0179101956
B1425513747905N00332474WA0178901954
B1425523747910N00332474WA0178601952
B1425533747916N00332475WA0178201947
B1425543747921N00332476WA0178001944
B1425553747926N00332476WA0178001942
B1425563747931N00332476WA0177901942
B1425573747935N00332476WA0177701940
B1425583747939N00332477WA0177501939
B1425593747943N00332479WA0177201936
B1426003747948N00332480WA0176901933
B1426013747954N00332481WA0176701930
B1426023747959N00332481WA0176601929
B1426033747963N00332481WA0176401928
B1426043747968N00332482WA0176301926
B1426053747972N00332484WA0176001924
B1426063747978N00332486WA0175801921
B1426073747984N00332487WA0175601918
B1426083747989N00332488WA0175501917
B1426093747994N00332488WA0175401915
B1426103747999N00332488WA0175301914
B1426113748003N00332488WA0175101913
B1426123748008N00332489WA0174801910
B1426133748014N00332489WA0174401906
B1426143748020N00332489WA0174201903
B1426153748026N00332488WA0174001901
B1426163748031N00332487WA0174001899
B1426173748036N00332487WA0173801898
B1426183748041N00332486WA0173601896
B1426193748047N00332485WA0173401893
B1426203748052N00332484WA0173201891
B1426213748057N00332483WA0173101890
B1426223748061N00332482WA0172901889
B1426233748065N00332481WA0172701888
B1426243748070N00332480WA0172601886
B1426253748076N00332479WA0172401883
B1426263748082N00332479WA0172301881
B1426273748088N00332478WA0172401880
B1426283748092N00332478WA0172401880
B1426293748096N00332478WA0172501881
B1426303748100N00332478WA0172401880
B1426313748105N00332479WA0172301879
B1426323748110N00332478WA0172201879
B1426333748115N00332477WA0172101878
B1426343748119N00332475WA0172001878
B1426353748124N00332473WA0171901877
B1426363748128N00332471WA0171701876
B1426373748134N00332470WA0171401874
B1426383748139N00332470WA0171201872
B1426393748144N00332469WA0171101870
B1426403748149N00332468WA0171001869
B1426413748154N00332467WA0171001868
B1426423748158N00332465WA0170901867
B1426433748163N00332465WA0170701866
B1426443748169N00332465WA0170501864
B1426453748174N00332464WA0170401863
B1426463748178N00332464WA0170201862
B1426473748183N00332463WA0170001860
B1426483748189N00332462WA0169901859
B1426493748195N00332462WA0169701856
B1426503748201N00332462WA0169501854
B1426513748207N00332463WA0169401852
B1426523748212N00332464WA0169301850
B1426533748217N00332463WA0169201849
B1426543748222N00332462WA0169001848
B1426553748227N00332460WA0168801847
B1426563748232N00332459WA0168701845
B1426573748238N00332459WA0168501843
B1426583748244N00332459WA0168301841
B1426593748249N00332458WA0168201840
B1427003748254N00332456WA0168101839
B1427013748259N00332454WA0167801839
B1427023748264N00332453WA0167401837
B1427033748270N00332453WA0167501836
B1427043748275N00332453WA0167501834
B1427053748281N00332452WA0167701834
B1427063748285N00332451WA0167701834
B1427073748290N00332450WA0167501833
B1427083748294N00332448WA0167501833
B1427093748299N00332447WA0167301832
B1427103748304N00332446WA0167201830
B1427113748310N00332445WA0167001828
B1427123748316N00332442WA0166901827
B1427133748321N00332439WA0166801826
B1427143748327N00332437WA0166801825
B1427153748332N00332435WA0166601824
B1427163748337N00332435WA0166601824
B1427173748342N00332434WA0166401822
B1427183748348N00332433WA0166301820
B1427193748354N00332431WA0166101819
B1427203748361N00332429WA0166001818
B1427213748367N00332427WA0166001817
B1427223748373N00332425WA0166001816
B1427233748379N00332423WA0166001815
B1427243748384N00332422WA0165901815
B1427253748389N00332420WA0165801815
B1427263748395N00332419WA0165601814
B1427273748401N00332417WA0165401812
B1427283748407N00332414WA0165201810
B1427293748414N00332412WA0165101808
B1427303748420N00332409WA0165101807
B1427313748426N00332407WA0165101807
B1427323748432N00332405WA0165001807
B1427333748437N00332404WA0164901806
B1427343748443N00332402WA0164701805
B1427353748450N00332400WA0164501803
B1427363748457N00332398WA0164401801
B1427373748464N00332396WA0164301799
B1427383748470N00332394WA0164201799
B1427393748476N00332393WA0164201798
B1427403748482N00332391WA0164101797
B1427413748488N00332389WA0164001796
B1427423748493N00332387WA0163801795
B1427433748499N00332384WA0163601793
B1427443748505N00332382WA0163301791
B1427453748511N00332379WA0163101788
B1427463748518N00332377WA0163001785
B1427473748525N00332374WA0162901783
B1427483748531N00332370WA0162701783
B1427493748536N00332366WA0162601782
B1427503748541N00332362WA0162201781
B1427513748547N00332357WA0161701778
B1427523748554N00332353WA0161301775
B1427533748561N00332351WA0161001770
B1427543748567N00332349WA0160901769
B1427553748572N00332346WA0160901768
B1427563748576N00332343WA0160701767
B1427573748581N00332340WA0160301765
B1427583748587N00332338WA0160001763
B1427593748592N00332335WA0159901760
B1428003748597N00332333WA0159701757
B1428013748602N00332331WA0159401753
B1428023748607N00332329WA0159001750
B1428033748612N00332327WA0158801747
B1428043748617N00332324WA0158501743
B1428053748622N00332322WA0158201739
B1428063748627N00332320WA0157901736
B1428073748632N00332318WA0157701733
B1428083748637N00332318WA0157401730
B1428093748642N00332318WA0157101727
B1428103748648N00332319WA0156801723
B1428113748653N00332320WA0156501720
B1428123748657N00332322WA0156201717
B1428133748661N00332324WA0155901714
B1428143748666N00332326WA0155501711
B1428153748671N00332328WA0155201707
B1428163748676N00332330WA0154901703
B1428173748682N00332332WA0154601700
B1428183748687N00332333WA0154301696
B1428193748692N00332333WA0154101693
B1428203748698N00332334WA0153701690
B1428213748704N00332334WA0153401686
B1428223748710N00332335WA0153001683
B1428233748715N00332336WA0152701679
B1428243748721N00332337WA0152501676
B1428253748726N00332338WA0152201674
B1428263748732N00332338WA0151901671
B1428273748738N00332337WA0151601668
B1428283748744N00332336WA0151301664
B1428293748751N00332336WA0151001661
B1428303748757N00332337WA0150601657
B1428313748763N00332339WA0150401654
B1428323748769N00332340WA0150201651
B1428333748775N00332341WA0150001648
B1428343748781N00332341WA0149901646
B1428353748786N00332342WA0149601645
B1428363748791N00332343WA0149501643
B1428373748796N00332344WA0149301641
B1428383748801N00332345WA0149001638
B1428393748807N00332346WA0148701635
B1428403748812N00332345WA0148501632
B1428413748818N00332343WA0148301630
B1428423748824N00332340WA0148201627
B1428433748830N00332338WA0148101626
B1428443748835N00332336WA0148001625
B1428453748840N00332336WA0147901624
B1428463748844N00332335WA0147601623
B1428473748849N00332333WA0147101620
B1428483748855N00332331WA0146701615
B1428493748862N00332330WA0146201611
B1428503748868N00332329WA0145901607
B1428513748874N00332329WA0145701605
B1428523748879N00332329WA0145501603
B1428533748884N00332328WA0145201600
B1428543748890N00332327WA0144801597
B1428553748896N00332325WA0144501593
B1428563748903N00332325WA0144401589
B1428573748909N00332324WA0144301587
B1428583748914N00332323WA0144201585
B1428593748918N00332321WA0144001584
B1429003748923N00332320WA0143701582
B1429013748929N00332318WA0143101579
B1429023748936N00332317WA0142901576
B1429033748942N00332316WA0142901573
B1429043748948N00332314WA0142901572
B1429053748952N00332313WA0142901574
B1429063748956N00332312WA0142901574
B1429073748959N00332309WA0142701573
B1429083748964N00332307WA0142401571
B1429093748970N00332305WA0142001568
B1429103748976N00332304WA0141801565
B1429113748981N00332304WA0141701563
B1429123748986N00332303WA0141701563
B1429133748990N00332302WA0141701563
B1429143748994N00332300WA0141601562
B1429153748998N00332299WA0141501561
B1429163749004N00332298WA0141301558
B1429173749010N00332298WA0141201556
B1429183749015N00332298WA0141201556
B1429193749020N00332298WA0141301556
B1429203749024N00332297WA0141401556
B1429213749028N00332296WA0141301556
B1429223749033N00332296WA0141101555
B1429233749038N00332297WA0140901553
B1429243749044N00332297WA0140901551
B1429253749050N00332297WA0140901550
B1429263749054N00332297WA0141101551
B1429273749058N00332297WA0141101552
B1429283749063N00332297WA0141101552
B1429293749067N00332297WA0141001550
B1429303749072N00332297WA0140901550
B1429313749077N00332296WA0140901549
B1429323749082N00332295WA0140901549
B1429333749087N00332293WA0141001549
B1429343749091N00332291WA0141001550
B1429353749096N00332288WA0140801550
B1429363749100N00332286WA0140601549
B1429373749105N00332283WA0140501547
B1429383749111N00332281WA0140401546
B1429393749115N00332280WA0140401546
B1429403749119N00332279WA0140401546
B1429413749123N00332278WA0140501547
B1429423749127N00332278WA0140601546
B1429433749131N00332277WA0140601546
B1429443749135N00332276WA0140601546
B1429453749139N00332276WA0140601546
B1429463749142N00332276WA0140501546
B1429473749146N00332276WA0140501546
B1429483749150N00332277WA0140101546
B1429493749154N00332277WA0139901545
B1429503749158N00332277WA0140301545
B1429513749162N00332276WA0140501546
B1429523749165N00332275WA0140501547
B1429533749168N00332275WA0140301546
B1429543749173N00332274WA0140101545
B1429553749178N00332274WA0139901542
B1429563749184N00332273WA0139901541
B1429573749189N00332272WA0139901540
B1429583749193N00332271WA0140001540
B1429593749196N00332270WA0140101541
B1430003749199N00332269WA0140001540
B1430013749203N00332269WA0139801539
B1430023749208N00332269WA0139601537
B1430033749213N00332269WA0139601535
B1430043749217N00332268WA0139601535
B1430053749221N00332267WA0139601536
B1430063749224N00332266WA0139601536
B1430073749227N00332266WA0139301535
B1430083749231N00332265WA0138701533
B1430093749236N00332264WA0138401529
B1430103749240N00332261WA0138301526
B1430113749244N00332257WA0137901523
B1430123749250N00332255WA0137501519
B1430133749255N00332254WA0137101514
B1430143749260N00332255WA0136701509
B1430153749266N00332256WA0136501506
B1430163749270N00332255WA0136301503
B1430173749274N00332254WA0136001501
B1430183749278N00332251WA0135701498
B1430193749283N00332249WA0135301495
B1430203749288N00332247WA0134901491
B1430213749293N00332246WA0134701488
B1430223749298N00332245WA0134501485
B1430233749302N00332244WA0134201483
B1430243749306N00332244WA0133901481
B1430253749310N00332243WA0133701477
B1430263749315N00332242WA0133301473
B1430273749319N00332240WA0133001469
B1430283749323N00332238WA0132601466
B1430293749327N00332234WA0132301463
B1430303749331N00332231WA0131901459
B1430313749335N00332228WA0131601455
B1430323749340N00332226WA0131201451
B1430333749344N00332223WA0130801447
B1430343749349N00332220WA0130501444
B1430353749353N00332217WA0130201440
B1430363749358N00332214WA0129801436
B1430373749363N00332212WA0129401433
B1430383749368N00332210WA0129001429
B1430393749373N00332208WA0128601425
B1430403749378N00332206WA0128301422
B1430413749383N00332205WA0128101419
B1430423749387N00332203WA0128001416
B1430433749392N00332201WA0127801415
B1430443749397N00332200WA0127501413
B1430453749402N00332198WA0127201410
B1430463749407N00332197WA0126901407
B1430473749413N00332196WA0126801404
B1430483749418N00332194WA0126601401
B1430493749423N00332192WA0126301399
B1430503749428N00332191WA0126001396
B1430513749434N00332191WA0125801393
B1430523749439N00332191WA0125601390
B1430533749444N00332190WA0125401388
B1430543749449N00332190WA0125301386
B1430553749454N00332189WA0125201384
B1430563749459N00332188WA0125001382
B1430573749464N00332187WA0124701380
B1430583749470N00332187WA0124501378
B1430593749475N00332187WA0124201375
B1431003749480N00332187WA0124001373
B1431013749486N00332187WA0123801371
B1431023749491N00332186WA0123701368
B1431033749496N00332185WA0123401366
B1431043749501N00332184WA0123201363
B1431053749507N00332183WA0123101362
B1431063749512N00332181WA0122901360
B1431073749517N00332179WA0122701358
B1431083749523N00332177WA0122401356
B1431093749529N00332174WA0122301354
B1431103749535N00332172WA0122201352
B1431113749540N00332169WA0122101350
B1431123749545N00332165WA0121901349
B1431133749550N00332161WA0121401347
B1431143749555N00332156WA0121101345
B1431153749561N00332151WA0120901341
B1431163749567N00332147WA0120801338
B1431173749574N00332143WA0120601336
B1431183749579N00332138WA0120501335
B1431193749585N00332133WA0120601334
B1431203749589N00332128WA0120601334
B1431213749594N00332123WA0120501334
B1431223749600N00332119WA0120301333
B1431233749606N00332115WA0120101332
B1431243749612N00332110WA0120001331
B1431253749618N00332106WA0120101331
B1431263749623N00332102WA0120101331
B1431273749627N00332099WA0120101332
B1431283749632N00332095WA0120101332
B1431293749638N00332092WA0120201331
B1431303749643N00332088WA0120001330
B1431313749648N00332084WA0120001330
B1431323749653N00332080WA0120001330
B1431333749658N00332076WA0119901329
B1431343749663N00332072WA0119801329
B1431353749668N00332069WA0119701328
B1431363749674N00332064WA0119501327
B1431373749679N00332059WA0119401326
B1431383749684N00332054WA0119401325
B1431393749688N00332049WA0119301324
B1431403749692N00332043WA0119201323
B1431413749697N00332037WA0119001321
B1431423749702N00332032WA0118801319
B1431433749708N00332027WA0118601318
B1431443749713N00332023WA0118601317
B1431453749718N00332019WA0118601316
B1431463749722N00332014WA0118401315
B1431473749727N00332010WA0118301314
B1431483749732N00332006WA0118101313
B1431493749738N00332002WA0118001311
B1431503749743N00331998WA0117901310
B1431513749748N00331993WA0117901309
B1431523749753N00331989WA0117901308
B1431533749758N00331985WA0117801307
B1431543749764N00331981WA0117601306
B1431553749769N00331977WA0117601305
B1431563749774N00331973WA0117601304
B1431573749780N00331970WA0117401303
B1431583749785N00331966WA0117401303
B1431593749790N00331963WA0117301302
B1432003749796N00331959WA0117101302
B1432013749802N00331954WA0117101301
B1432023749807N00331948WA0117001300
B1432033749812N00331943WA0117001300
B1432043749818N00331938WA0117001300
B1432053749823N00331933WA0116901299
B1432063749828N00331929WA0116701299
B1432073749834N00331924WA0116801299
B1432083749839N00331918WA0116701297
B1432093749845N00331912WA0116701297
B1432103749851N00331906WA0116801297
B1432113749856N00331900WA0116901298
B1432123749860N00331893WA0116901298
B1432133749865N00331886WA0116801298
B1432143749870N00331879WA0116701298
B1432153749875N00331872WA0116701297
B1432163749880N00331865WA0116601297
B1432173749884N00331857WA0116701297
B1432183749888N00331850WA0116801296
B1432193749892N00331843WA0116701296
B1432203749896N00331836WA0116601296
B1432213749900N00331829WA0116501295
B1432223749905N00331822WA0116501294
B1432233749909N00331814WA0116501293
B1432243749914N00331806WA0116401292
B1432253749918N00331798WA0116501292
B1432263749922N00331791WA0116401292
B1432273749927N00331783WA0116501292
B1432283749931N00331776WA0116401292
B1432293749936N00331769WA0116201292
B1432303749941N00331762WA0116101292
B1432313749946N00331755WA0116001291
B1432323749951N00331749WA0116301291
B1432333749956N00331742WA0116501292
B1432343749961N00331736WA0116501293
B1432353749965N00331730WA0116601293
B1432363749970N00331724WA0116701294
B1432373749973N00331718WA0116601295
B1432383749976N00331710WA0116601295
B1432393749977N00331701WA0116501295
B1432403749977N00331692WA0116501294
B1432413749976N00331682WA0116401294
B1432423749973N00331674WA0116401294
B1432433749970N00331667WA0116401294
B1432443749967N00331661WA0116301293
B1432453749963N00331656WA0116201293
B1432463749958N00331653WA0116101292
B1432473749953N00331651WA0116001291
B1432483749948N00331651WA0115901289
B1432493749944N00331653WA0115801288
B1432503749941N00331655WA0115801288
B1432513749939N00331656WA0115901288
B1432523749937N00331658WA0115901288
B1432533749936N00331661WA0115901288
B1432543749936N00331664WA0115801288
B1432553749937N00331668WA0115701287
B1432563749939N00331671WA0115701286
B1432573749941N00331674WA0115701286
B1432583749945N00331676WA0115701286
B1432593749949N00331677WA0115701285
B1433003749954N00331677WA0115701285
B1433013749959N00331676WA0115701285
B1433023749965N00331674WA0115401285
B1433033749970N00331672WA0115501285
B1433043749975N00331669WA0115801285
B1433053749981N00331665WA0115801285
B1433063749986N00331660WA0115701285
B1433073749991N00331654WA0115701285
B1433083749996N00331648WA0115801285
B1433093750001N00331642WA0115801285
B1433103750005N00331635WA0115801286
B1433113750008N00331628WA0115701286
B1433123750012N00331620WA0115501285
B1433133750016N00331611WA0115401284
B1433143750020N00331602WA0115301282
B1433153750024N00331594WA0115201281
B1433163750028N00331586WA0115201281
B1433173750031N00331578WA0115401282
B1433183750034N00331571WA0115301282
B1433193750036N00331563WA0115201282
B1433203750039N00331555WA0115001280
B1433213750043N00331546WA0114701278
B1433223750047N00331538WA0114301276
B1433233750050N00331530WA0114301274
B1433243750054N00331522WA0114301274
B1433253750058N00331515WA0114301273
B1433263750061N00331508WA0114201272
B1433273750066N00331500WA0114101270
B1433283750070N00331492WA0113901268
B1433293750073N00331484WA0113801267
B1433303750075N00331477WA0113801266
B1433313750077N00331469WA0113701265
B1433323750079N00331461WA0113401264
B1433333750081N00331453WA0113001262
B1433343750085N00331444WA0112501259
B1433353750088N00331436WA0112301256
B1433363750090N00331427WA0112401254
B1433373750092N00331419WA0112401252
B1433383750093N00331410WA0112101250
B1433393750095N00331402WA0111801248
B1433403750097N00331393WA0111501245
B1433413750100N00331384WA0111201242
B1433423750102N00331375WA0111001239
B1433433750104N00331365WA0110801236
B1433443750105N00331355WA0110601234
B1433453750106N00331345WA0110301231
B1433463750107N00331335WA0110101229
B1433473750108N00331326WA0110001227
B1433483750110N00331316WA0109701225
B1433493750111N00331306WA0109501223
B1433503750113N00331296WA0109201220
B1433513750114N00331286WA0109001218
B1433523750116N00331276WA0108801216
B1433533750117N00331266WA0108701214
B1433543750119N00331256WA0108601212
B1433553750120N00331247WA0108401210
B1433563750122N00331237WA0108201208
B1433573750124N00331227WA0108001206
B1433583750126N00331217WA0107801205
B1433593750128N00331207WA0107701203
B1434003750129N00331198WA0107601202
B1434013750131N00331188WA0107501201
B1434023750132N00331178WA0107401199
B1434033750133N00331168WA0107401198
B1434043750135N00331158WA0107401198
B1434053750137N00331149WA0107501199
B1434063750139N00331141WA0107701201
B1434073750141N00331133WA0107901203
B1434083750143N00331126WA0108201205
B1434093750145N00331117WA0108501207
B1434103750144N00331108WA0108701209
B1434113750140N00331100WA0108801210
B1434123750135N00331092WA0108901211
B1434133750129N00331087WA0109001213
B1434143750122N00331085WA0109201215
B1434153750116N00331086WA0109301216
B1434163750111N00331088WA0109401217
B1434173750107N00331091WA0109601218
B1434183750103N00331094WA0109801220
B1434193750101N00331097WA0109701222
B1434203750100N00331100WA0109601221
B1434213750100N00331103WA0109501221
B1434223750099N00331106WA0109401220
B1434233750100N00331106WA0109401221
B1434243750101N00331106WA0109201221
B1434253750104N00331104WA0109001220
B1434263750107N00331102WA0109101218
B1434273750111N00331098WA0109101218
B1434283750115N00331093WA0109401217
B1434293750118N00331088WA0109501219
B1434303750121N00331081WA0109601220
B1434313750123N00331075WA0109801222
B1434323750125N00331069WA0109901223
B1434333750127N00331063WA0109901224
B1434343750129N00331057WA0109901224
B1434353750131N00331052WA0109901225
B1434363750132N00331045WA0109901225
B1434373750134N00331038WA0109801224
B1434383750136N00331030WA0109801224
B1434393750137N00331022WA0109901224
B1434403750138N00331013WA0110001224
B1434413750139N00331005WA0110201226
B1434423750140N00330998WA0110301227
B1434433750140N00330990WA0110401229
B1434443750139N00330982WA0110401230
B1434453750136N00330973WA0110301230
B1434463750132N00330965WA0110001230
B1434473750126N00330957WA0109901229
B1434483750120N00330951WA0110401230
B1434493750113N00330946WA0110601234
B1434503750107N00330944WA0110801235
B1434513750102N00330942WA0110901236
B1434523750096N00330943WA0110901237
B1434533750091N00330944WA0111001237
B1434543750087N00330947WA0111001238
B1434553750085N00330951WA0111001238
B1434563750083N00330955WA0110901238
B1434573750083N00330959WA0111001238
B1434583750083N00330962WA0111101238
B1434593750085N00330964WA0111101238
B1435003750087N00330965WA0111101238
B1435013750089N00330965WA0111101237
B1435023750092N00330964WA0111001236
B1435033750097N00330963WA0111001236
B1435043750101N00330960WA0111101236
B1435053750105N00330956WA0111201236
B1435063750108N00330949WA0111401237
B1435073750110N00330942WA0111701240
B1435083750111N00330934WA0112001242
B1435093750111N00330925WA0112101244
B1435103750110N00330917WA0112401246
B1435113750108N00330908WA0112601248
B1435123750105N00330900WA0112701250
B1435133750100N00330893WA0112801251
B1435143750094N00330889WA0112701250
B1435153750087N00330888WA0112601248
B1435163750080N00330889WA0112601247
B1435173750075N00330892WA0112801248
B1435183750071N00330895WA0113001250
B1435193750068N00330898WA0113201252
B1435203750066N00330902WA0113301254
B1435213750065N00330906WA0113401255
B1435223750065N00330910WA0113501256
B1435233750067N00330913WA0113501257
B1435243750071N00330913WA0113501257
B1435253750076N00330912WA0113501257
B1435263750081N00330908WA0113701258
B1435273750084N00330902WA0113801259
B1435283750087N00330895WA0114001261
B1435293750088N00330887WA0114201263
B1435303750088N00330879WA0114501265
B1435313750088N00330871WA0114801267
B1435323750086N00330862WA0115001270
B1435333750082N00330855WA0115101271
B1435343750078N00330848WA0115201272
B1435353750072N00330844WA0115201273
B1435363750066N00330841WA0115201274
B1435373750059N00330840WA0115401275
B1435383750053N00330839WA0115601278
B1435393750048N00330839WA0115801280
B1435403750043N00330840WA0115901282
B1435413750039N00330843WA0116001283
B1435423750037N00330846WA0115901284
B1435433750036N00330851WA0115901282
B1435443750037N00330855WA0115901282
B1435453750040N00330856WA0115901283
B1435463750044N00330856WA0116001283
B1435473750047N00330854WA0116101284
B1435483750050N00330853WA0116301286
B1435493750053N00330851WA0116401287
B1435503750056N00330848WA0116501288
B1435513750060N00330844WA0116501289
B1435523750063N00330840WA0116601290
B1435533750067N00330836WA0116801292
B1435543750070N00330832WA0117001293
B1435553750074N00330829WA0117201295
B1435563750077N00330824WA0117301297
B1435573750081N00330819WA0117601299
B1435583750083N00330812WA0117801300
B1435593750084N00330804WA0117901302
B1436003750084N00330796WA0117901304
B1436013750081N00330787WA0118001305
B1436023750078N00330780WA0118001306
B1436033750074N00330775WA0118201308
B1436043750068N00330771WA0118101309
B1436053750062N00330768WA0117901310
B1436063750057N00330766WA0118101311
B1436073750051N00330767WA0118501312
B1436083750047N00330769WA0118701314
B1436093750043N00330773WA0118801315
B1436103750041N00330777WA0119101316
B1436113750039N00330781WA0119301319
B1436123750038N00330783WA0119401323
B1436133750037N00330786WA0119701326
B1436143750037N00330788WA0119801328
B1436153750038N00330790WA0119901330
B1436163750041N00330792WA0119901330
B1436173750043N00330793WA0120001330
B1436183750046N00330793WA0120301332
B1436193750049N00330794WA0120401333
B1436203750051N00330794WA0120601335
B1436213750053N00330794WA0120801337
B1436223750056N00330792WA0120801338
B1436233750059N00330789WA0120801338
B1436243750063N00330783WA0120801338
B1436253750066N00330775WA0120901339
B1436263750068N00330767WA0121201341
B1436273750067N00330759WA0121401343
B1436283750064N00330751WA0121601345
B1436293750060N00330744WA0121601346
B1436303750055N00330737WA0121601345
B1436313750049N00330732WA0121501345
B1436323750042N00330728WA0121601345
B1436333750035N00330727WA0121701346
B1436343750029N00330727WA0121801346
B1436353750023N00330727WA0121901348
B1436363750018N00330729WA0122101349
B1436373750014N00330731WA0122201351
B1436383750011N00330733WA0122301353
B1436393750010N00330736WA0122401353
B1436403750009N00330739WA0122501354
B1436413750010N00330741WA0122501355
B1436423750011N00330742WA0122501356
B1436433750013N00330743WA0122401354
B1436443750015N00330744WA0122301354
B1436453750018N00330744WA0122201353
B1436463750021N00330743WA0122201352
B1436473750024N00330743WA0122101352
B1436483750028N00330742WA0121801351
B1436493750031N00330742WA0121701351
B1436503750035N00330742WA0121901350
B1436513750039N00330743WA0121901350
B1436523750043N00330743WA0121901349
B1436533750046N00330743WA0121901349
B1436543750050N00330744WA0121901349
B1436553750053N00330746WA0121901349
B1436563750057N00330747WA0121901349
B1436573750061N00330748WA0121801348
B1436583750064N00330748WA0121701348
B1436593750066N00330748WA0121501347
B1437003750069N00330749WA0121301345
B1437013750072N00330751WA0120801341
B1437023750075N00330753WA0120501337
B1437033750080N00330755WA0120201332
B1437043750084N00330758WA0120101329
B1437053750088N00330760WA0120101327
B1437063750092N00330761WA0120101327
B1437073750095N00330762WA0120101328
B1437083750097N00330763WA0120001328
B1437093750099N00330765WA0119901327
B1437103750102N00330768WA0119601325
B1437113750106N00330770WA0119401323
B1437123750110N00330773WA0119401321
B1437133750114N00330775WA0119401321
B1437143750116N00330777WA0119301321
B1437153750118N00330779WA0119301321
B1437163750121N00330781WA0119001319
B1437173750125N00330784WA0118801316
B1437183750128N00330786WA0118601314
B1437193750132N00330788WA0118601312
B1437203750135N00330791WA0118401312
B1437213750137N00330794WA0118401311
B1437223750138N00330797WA0118201310
B1437233750139N00330801WA0117901309
B1437243750142N00330804WA0117701308
B1437253750145N00330806WA0117701306
B1437263750148N00330808WA0117901305
B1437273750152N00330809WA0117801305
B1437283750154N00330810WA0117701304
B1437293750157N00330811WA0117601303
B1437303750160N00330813WA0117401302
B1437313750163N00330814WA0117301301
B1437323750167N00330815WA0117201299
B1437333750172N00330815WA0117201298
B1437343750175N00330815WA0117101298
B1437353750179N00330816WA0117101298
B1437363750182N00330816WA0117101297
B1437373750185N00330818WA0117101297
B1437383750189N00330819WA0117001297
B1437393750192N00330821WA0117001297
B1437403750195N00330822WA0117001296
B1437413750199N00330824WA0117001297
B1437423750202N00330825WA0117001297
B1437433750206N00330826WA0117001297
B1437443750210N00330828WA0117001297
B1437453750214N00330829WA0116901296
B1437463750218N00330830WA0116901296
B1437473750222N00330832WA0116801296
B1437483750227N00330833WA0116801296
B1437493750231N00330834WA0116801295
B1437503750236N00330835WA0116701295
B1437513750240N00330836WA0116501295
B1437523750245N00330837WA0116401294
B1437533750249N00330839WA0116501294
B1437543750254N00330840WA0116601293
B1437553750259N00330840WA0116601293
B1437563750263N00330841WA0116601293
B1437573750267N00330842WA0116501293
B1437583750271N00330844WA0116501293
B1437593750276N00330845WA0116501292
B1438003750280N00330846WA0116501291
B1438013750285N00330847WA0116401290
B1438023750289N00330848WA0116401290
B1438033750293N00330850WA0116401290
B1438043750297N00330851WA0116501290
B1438053750301N00330852WA0116401290
B1438063750305N00330853WA0116401289
B1438073750309N00330854WA0116401289
B1438083750313N00330855WA0116501289
B1438093750317N00330855WA0116501289
B1438103750321N00330855WA0116501290
B1438113750324N00330855WA0116601290
B1438123750327N00330855WA0116601290
B1438133750330N00330854WA0116501290
B1438143750334N00330854WA0116501290
B1438153750338N00330853WA0116301289
B1438163750342N00330852WA0116301288
B1438173750345N00330852WA0116301287
B1438183750349N00330852WA0116501287
B1438193750353N00330851WA0116501288
B1438203750357N00330851WA0116601289
B1438213750360N00330851WA0116701291
B1438223750363N00330851WA0117001292
B1438233750366N00330851WA0117201294
B1438243750368N00330851WA0117301296
B1438253750371N00330851WA0117501298
B1438263750373N00330850WA0117501298
B1438273750377N00330850WA0117601299
B1438283750380N00330848WA0117701299
B1438293750384N00330844WA0117701300
B1438303750388N00330838WA0117701300
B1438313750390N00330830WA0117701300
B1438323750391N00330821WA0117801301
B1438333750391N00330811WA0117901301
B1438343750388N00330803WA0118001302
B1438353750385N00330795WA0118101304
B1438363750380N00330789WA0118201305
B1438373750375N00330783WA0118301306
B1438383750368N00330780WA0118301306
B1438393750362N00330778WA0118201305
B1438403750355N00330778WA0118001304
B1438413750350N00330781WA0118001303
B1438423750345N00330783WA0118001304
B1438433750342N00330786WA0118101305
B1438443750340N00330789WA0118201306
B1438453750338N00330791WA0118201307
B1438463750338N00330794WA0118101307
B1438473750339N00330796WA0117901307
B1438483750342N00330798WA0118001306
B1438493750345N00330800WA0118201306
B1438503750349N00330801WA0118301307
B1438513750352N00330802WA0118401309
B1438523750354N00330804WA0118601310
B1438533750357N00330805WA0118801312
B1438543750360N00330806WA0118901314
B1438553750363N00330807WA0119101315
B1438563750366N00330807WA0119101316
B1438573750370N00330806WA0119201317
B1438583750373N00330806WA0119101318
B1438593750378N00330806WA0119101317
B1439003750383N00330805WA0119001316
B1439013750387N00330805WA0119101316
B1439023750392N00330804WA0119301317
B1439033750396N00330804WA0119301318
B1439043750400N00330804WA0119301318
B1439053750405N00330804WA0119301319
B1439063750409N00330805WA0119301319
B1439073750413N00330806WA0119401320
B1439083750417N00330807WA0119601321
B1439093750421N00330808WA0119701322
B1439103750424N00330808WA0119901324
B1439113750427N00330808WA0120001325
B1439123750430N00330807WA0119901326
B1439133750434N00330806WA0119601326
B1439143750438N00330805WA0119601326
B1439153750442N00330804WA0119901325
B1439163750446N00330802WA0120001327
B1439173750449N00330801WA0120101328
B1439183750452N00330801WA0120301330
B1439193750455N00330800WA0120401331
B1439203750458N00330799WA0120501332
B1439213750460N00330798WA0120701333
B1439223750462N00330796WA0120701334
B1439233750465N00330794WA0120701334
B1439243750467N00330794WA0120601333
B1439253750470N00330794WA0120601333
B1439263750473N00330796WA0120601333
B1439273750475N00330797WA0120701333
B1439283750477N00330798WA0120801334
B1439293750479N00330799WA0120801334
B1439303750481N00330801WA0120801334
B1439313750483N00330802WA0120701335
B1439323750485N00330803WA0120601334
B1439333750487N00330806WA0120701334
B1439343750490N00330808WA0120801334
B1439353750493N00330810WA0120901335
B1439363750495N00330811WA0121001337
B1439373750497N00330812WA0121101338
B1439383750499N00330813WA0121101339
B1439393750501N00330814WA0121201339
B1439403750503N00330814WA0121301340
B1439413750506N00330815WA0121301340
B1439423750509N00330814WA0121301340
B1439433750513N00330814WA0121301340
B1439443750517N00330813WA0121501341
B1439453750523N00330811WA0121801342
B1439463750527N00330809WA0122101345
B1439473750532N00330805WA0122401349
B1439483750536N00330800WA0122701353
B1439493750540N00330794WA0123001356
B1439503750544N00330786WA0123401359
B1439513750546N00330777WA0123601362
B1439523750546N00330767WA0123801365
B1439533750545N00330757WA0123801367
B1439543750541N00330748WA0123801368
B1439553750537N00330741WA0123801369
B1439563750532N00330736WA0123801370
B1439573750528N00330733WA0124201372
B1439583750523N00330731WA0124601374
B1439593750519N00330731WA0124701376
B1440003750516N00330733WA0124701376
B1440013750514N00330735WA0124801377
B1440023750513N00330736WA0124801378
B1440033750513N00330739WA0124801379
B1440043750514N00330742WA0125001379
B1440053750515N00330746WA0125201380
B1440063750517N00330750WA0125301382
B1440073750520N00330752WA0125601385
B1440083750526N00330752WA0125901388
B1440093750532N00330750WA0126101392
B1440103750536N00330745WA0126501395
B1440113750540N00330740WA0126801398
B1440123750544N00330733WA0127101401
B1440133750547N00330724WA0127301404
B1440143750548N00330714WA0127501406
B1440153750548N00330704WA0127901408
B1440163750546N00330696WA0128101412
B1440173750543N00330691WA0128301414
B1440183750538N00330686WA0128401415
B1440193750533N00330684WA0128501416
B1440203750529N00330683WA0128701418
B1440213750525N00330683WA0128801420
B1440223750521N00330685WA0128901421
B1440233750520N00330689WA0129001422
B1440243750519N00330693WA0129201424
B1440253750520N00330698WA0129501426
B1440263750522N00330701WA0129801429
B1440273750526N00330704WA0130001431
B1440283750530N00330705WA0130201434
B1440293750536N00330703WA0130501436
B1440303750541N00330699WA0130701439
B1440313750546N00330692WA0130801441
B1440323750549N00330684WA0130901443
B1440333750552N00330674WA0131001444
B1440343750554N00330663WA0131001446
B1440353750555N00330653WA0131301447
B1440363750555N00330643WA0131501449
B1440373750554N00330634WA0131801452
B1440383750553N00330627WA0132001455
B1440393750552N00330619WA0132101457
B1440403750550N00330613WA0132301458
B1440413750548N00330606WA0132401459
B1440423750544N00330601WA0132501460
B1440433750540N00330596WA0132701461
B1440443750536N00330594WA0133001464
B1440453750533N00330593WA0133301467
B1440463750531N00330594WA0133401469
B1440473750530N00330595WA0133501470
B1440483750529N00330597WA0133501471
B1440493750529N00330600WA0133401470
B1440503750530N00330603WA0133601470
B1440513750532N00330607WA0133701471
B1440523750535N00330611WA0133901473
B1440533750538N00330613WA0134201475
B1440543750541N00330613WA0134401478
B1440553750543N00330613WA0134501480
B1440563750546N00330613WA0134601481
B1440573750549N00330612WA0134701482
B1440583750553N00330610WA0134701483
B1440593750558N00330606WA0134601483
B1441003750563N00330599WA0134201483
B1441013750567N00330590WA0134001482
B1441023750569N00330579WA0134201482
B1441033750570N00330569WA0134501481
B1441043750569N00330560WA0134601482
B1441053750568N00330551WA0134601482
B1441063750566N00330543WA0134601482
B1441073750563N00330534WA0134701481
B1441083750559N00330526WA0134901482
B1441093750556N00330519WA0135001485
B1441103750554N00330514WA0135201487
B1441113750552N00330509WA0135301489
B1441123750548N00330506WA0134901489
B1441133750545N00330503WA0134601487
B1441143750541N00330502WA0134901486
B1441153750538N00330502WA0134901485
B1441163750536N00330503WA0134901485
B1441173750534N00330505WA0134901485
B1441183750532N00330507WA0134801485
B1441193750530N00330510WA0134901485
B1441203750529N00330513WA0135101485
B1441213750528N00330516WA0135201487
B1441223750529N00330518WA0135401488
B1441233750529N00330520WA0135401489
B1441243750529N00330522WA0135501490
B1441253750530N00330523WA0135601491
B1441263750532N00330524WA0135601492
B1441273750533N00330525WA0135601492
B1441283750535N00330526WA0135601492
B1441293750537N00330528WA0135501492
B1441303750539N00330530WA0135601491
B1441313750541N00330533WA0135601491
B1441323750543N00330535WA0135701492
B1441333750545N00330537WA0135801492
B1441343750546N00330538WA0135901494
B1441353750548N00330540WA0136001494
B1441363750550N00330542WA0135901494
B1441373750552N00330544WA0135801494
B1441383750555N00330546WA0136001493
B1441393750558N00330548WA0136101495
B1441403750560N00330550WA0136201496
B1441413750562N00330551WA0136301497
B1441423750564N00330553WA0136401498
B1441433750566N00330554WA0136501499
B1441443750568N00330556WA0136501500
B1441453750571N00330557WA0136701500
B1441463750574N00330558WA0136701501
B1441473750577N00330560WA0136801502
B1441483750579N00330561WA0136801503
B1441493750582N00330563WA0136901503
B1441503750584N00330564WA0137001504
B1441513750587N00330564WA0136901504
B1441523750590N00330564WA0136901504
B1441533750594N00330564WA0136701503
B1441543750599N00330564WA0136701501
B1441553750604N00330564WA0136601500
B1441563750608N00330564WA0136601500
B1441573750612N00330563WA0136801500
B1441583750615N00330561WA0136801501
B1441593750619N00330559WA0136401500
B1442003750624N00330559WA0135901497
B1442013750629N00330559WA0135801495
B1442023750634N00330559WA0135801493
B1442033750639N00330559WA0135801493
B1442043750644N00330559WA0135801492
B1442053750648N00330560WA0135701492
B1442063750653N00330560WA0135601491
B1442073750658N00330561WA0135401488
B1442083750663N00330562WA0135401487
B1442093750668N00330563WA0135401486
B1442103750671N00330563WA0135401485
B1442113750674N00330564WA0135301485
B1442123750677N00330564WA0135101484
B1442133750681N00330565WA0135001482
B1442143750686N00330566WA0134701480
B1442153750690N00330568WA0134501477
B1442163750694N00330568WA0134501476
B1442173750698N00330568WA0134301475
B1442183750701N00330568WA0133901473
B1442193750705N00330569WA0133501470
B1442203750710N00330570WA0133401467
B1442213750715N00330571WA0133301465
B1442223750719N00330572WA0133301463
B1442233750723N00330572WA0133101463
B1442243750726N00330572WA0133001462
B1442253750730N00330571WA0132801460
B1442263750735N00330571WA0132501457
B1442273750741N00330571WA0132201454
B1442283750746N00330570WA0132101452
B1442293750750N00330568WA0132001450
B1442303750753N00330567WA0132001449
B1442313750756N00330566WA0131901448
B1442323750760N00330564WA0131601445
B1442333750765N00330563WA0131301442
B1442343750770N00330562WA0131101440
B1442353750776N00330560WA0131001438
B1442363750781N00330559WA0130801436
B1442373750785N00330557WA0130501436
B1442383750790N00330555WA0130201434
B1442393750796N00330552WA0130201433
B1442403750802N00330549WA0130101430
B1442413750808N00330545WA0130001428
B1442423750813N00330541WA0129901427
B1442433750819N00330536WA0129801426
B1442443750824N00330531WA0129601425
B1442453750829N00330525WA0129301423
B1442463750834N00330518WA0129001421
B1442473750840N00330512WA0128801418
B1442483750846N00330505WA0128501415
B1442493750852N00330499WA0128301412
B1442503750858N00330493WA0128101410
B1442513750863N00330488WA0127801408
B1442523750868N00330482WA0127301406
B1442533750874N00330476WA0126901403
B1442543750881N00330471WA0126701399
B1442553750887N00330467WA0126501395
B1442563750894N00330463WA0126301392
B1442573750899N00330460WA0126101390
B1442583750905N00330457WA0126001389
B1442593750910N00330454WA0125801387
B1443003750915N00330450WA0125401384
B1443013750921N00330446WA0125201381
B1443023750927N00330442WA0124901378
B1443033750933N00330439WA0124701375
B1443043750938N00330435WA0124501373
B1443053750944N00330432WA0124201371
B1443063750949N00330429WA0124001369
B1443073750954N00330426WA0123801367
B1443083750959N00330423WA0123601364
B1443093750965N00330421WA0123501362
B1443103750970N00330419WA0123501362
B1443113750975N00330416WA0123501361
B1443123750979N00330415WA0123601360
B1443133750983N00330414WA0123601360
B1443143750987N00330412WA0123601360
B1443153750991N00330411WA0123601359
B1443163750995N00330410WA0123401359
B1443173750999N00330410WA0123401358
B1443183751003N00330409WA0123401358
B1443193751007N00330407WA0123301357
B1443203751011N00330407WA0123201357
B1443213751014N00330406WA0123101356
B1443223751018N00330406WA0122901354
B1443233751022N00330406WA0122601353
B1443243751027N00330405WA0122201352
B1443253751032N00330403WA0122201350
B1443263751037N00330401WA0122201349
B1443273751042N00330400WA0122201348
B1443283751046N00330400WA0122101346
B1443293751049N00330402WA0121701344
B1443303751052N00330403WA0121501341
B1443313751057N00330404WA0121401339
B1443323751061N00330403WA0121201337
B1443333751066N00330401WA0121001335
B1443343751070N00330399WA0120901334
B1443353751073N00330399WA0120801333
B1443363751076N00330399WA0120501331
B1443373751079N00330399WA0120301328
B1443383751083N00330398WA0120101326
B1443393751087N00330396WA0119801323
B1443403751091N00330394WA0119501321
B1443413751095N00330393WA0119301319
B1443423751099N00330392WA0119101316
B1443433751104N00330392WA0118801313
B1443443751108N00330392WA0118601310
B1443453751113N00330392WA0118201307
B1443463751118N00330392WA0117901305
B1443473751122N00330391WA0117801302
B1443483751127N00330390WA0117401299
B1443493751132N00330389WA0116901296
B1443503751138N00330389WA0116501292
B1443513751143N00330389WA0116401289
B1443523751148N00330389WA0116201286
B1443533751153N00330390WA0116001284
B1443543751156N00330392WA0115901281
B1443553751160N00330393WA0115801280
B1443563751163N00330395WA0115501278
B1443573751166N00330395WA0115201276
B1443583751169N00330395WA0114801273
B1443593751174N00330396WA0114701270
B1444003751178N00330397WA0114501267
B1444013751182N00330399WA0114301265
B1444023751185N00330400WA0114101263
B1444033751188N00330401WA0113901261
B1444043751192N00330401WA0113801259
B1444053751195N00330402WA0113401256
B1444063751200N00330402WA0113101253
B1444073751204N00330401WA0112801250
B1444083751209N00330398WA0112601247
B1444093751214N00330395WA0112501244
B1444103751219N00330390WA0112201243
B1444113751223N00330386WA0112001241
B1444123751227N00330382WA0111601238
B1444133751232N00330377WA0111201235
B1444143751236N00330373WA0110901232
B1444153751242N00330369WA0110601228
B1444163751247N00330363WA0110201223
B1444173751252N00330358WA0110001220
B1444183751257N00330352WA0109801219
B1444193751261N00330346WA0109401217
B1444203751265N00330341WA0109001215
B1444213751270N00330336WA0108701211
B1444223751276N00330330WA0108501207
B1444233751281N00330323WA0108101202
B1444243751286N00330317WA0107901198
B1444253751290N00330311WA0107601197
B1444263751294N00330305WA0107401195
B1444273751297N00330300WA0107001192
B1444283751302N00330294WA0106601189
B1444293751307N00330288WA0106301185
B1444303751313N00330282WA0105901181
B1444313751318N00330277WA0105901179
B1444323751323N00330273WA0106001179
B1444333751326N00330269WA0105901180
B1444343751330N00330264WA0105601178
B1444353751335N00330259WA0105301175
B1444363751340N00330255WA0105101172
B1444373751345N00330250WA0105001170
B1444383751349N00330246WA0104801168
B1444393751353N00330241WA0104701167
B1444403751358N00330237WA0104501165
B1444413751362N00330233WA0104301163
B1444423751367N00330228WA0104201161
B1444433751371N00330223WA0104001159
B1444443751375N00330218WA0103901158
B1444453751379N00330214WA0103601156
B1444463751383N00330209WA0103401154
B1444473751388N00330206WA0102801151
B1444483751393N00330202WA0102501148
B1444493751398N00330197WA0102701146
B1444503751402N00330191WA0102501144
B1444513751405N00330186WA0102301142
B1444523751408N00330181WA0102101140
B1444533751411N00330176WA0101901138
B1444543751414N00330170WA0101701135
B1444553751416N00330164WA0101301132
B1444563751419N00330156WA0100901128
B1444573751420N00330146WA0100601124
B1444583751422N00330138WA0100401121
B1444593751424N00330131WA0100201119
B1445003751426N00330124WA0100101117
B1445013751428N00330117WA0099601114
B1445023751429N00330109WA0099301111
B1445033751431N00330101WA0099001108
B1445043751433N00330093WA0098601104
B1445053751435N00330085WA0098201100
B1445063751439N00330079WA0097801095
B1445073751443N00330072WA0097301091
B1445083751447N00330065WA0096701085
B1445093751451N00330056WA0096201081
B1445103751455N00330048WA0096001077
B1445113751459N00330040WA0095701072
B1445123751463N00330033WA0095201068
B1445133751468N00330025WA0095001064
B1445143751472N00330017WA0094601060
B1445153751476N00330009WA0094101056
B1445163751480N00330000WA0093801052
B1445173751484N00329990WA0093301047
B1445183751489N00329982WA0092901042
B1445193751494N00329974WA0092501037
B1445203751500N00329966WA0092101034
B1445213751504N00329959WA0091901030
B1445223751509N00329951WA0091401026
B1445233751513N00329943WA0091101022
B1445243751517N00329934WA0090701018
B1445253751523N00329927WA0090401014
B1445263751528N00329920WA0090101011
B1445273751533N00329913WA0089901008
B1445283751538N00329907WA0089701006
B1445293751542N00329901WA0089401004
B1445303751546N00329894WA0089101001
B1445313751550N00329887WA0088600997
B1445323751556N00329879WA0088200992
B1445333751561N00329872WA0088000988
B1445343751566N00329866WA0087800985
B1445353751570N00329860WA0087600984
B1445363751573N00329854WA0087400981
B1445373751577N00329847WA0087100978
B1445383751580N00329840WA0086600974
B1445393751585N00329833WA0086300970
B1445403751589N00329827WA0086000966
B1445413751594N00329823WA0085700963
B1445423751599N00329819WA0085700961
B1445433751603N00329815WA0085600960
B1445443751604N00329809WA0085300958
B1445453751605N00329802WA0084800955
B1445463751607N00329794WA0084300949
B1445473751610N00329787WA0083500945
B1445483751615N00329779WA0083000940
B1445493751618N00329770WA0082600935
B1445503751619N00329760WA0082400931
B1445513751620N00329749WA0082200928
B1445523751619N00329740WA0082400928
B1445533751620N00329734WA0082400930
B1445543751621N00329729WA0082200929
B1445553751623N00329723WA0082200929
B1445563751623N00329717WA0082300928
B1445573751623N00329710WA0082500928
B1445583751623N00329703WA0082800929
B1445593751622N00329696WA0083100930
B1446003751620N00329689WA0083200932
B1446013751617N00329682WA0083400933
B1446023751611N00329675WA0083500935
B1446033751604N00329671WA0083600936
B1446043751597N00329670WA0083700936
B1446053751592N00329672WA0083900937
B1446063751589N00329676WA0084000938
B1446073751589N00329679WA0084000938
B1446083751590N00329680WA0084100940
B1446093751591N00329680WA0084100940
B1446103751593N00329680WA0084100941
B1446113751595N00329679WA0084000941
B1446123751597N00329676WA0083900940
B1446133751600N00329672WA0083900939
B1446143751601N00329666WA0084100940
B1446153751601N00329661WA0084300940
B1446163751600N00329655WA0084500942
B1446173751599N00329649WA0084700944
B1446183751596N00329643WA0084900945
B1446193751592N00329637WA0085000946
B1446203751587N00329630WA0085000947
B1446213751581N00329625WA0085200948
B1446223751574N00329621WA0085300949
B1446233751568N00329619WA0085400949
B1446243751562N00329618WA0085200949
B1446253751557N00329619WA0085200950
B1446263751553N00329621WA0085000949
B1446273751550N00329625WA0084900949
B1446283751547N00329628WA0084900949
B1446293751545N00329631WA0084500947
B1446303751543N00329634WA0084300944
B1446313751542N00329636WA0083800941
B1446323751542N00329638WA0083600938
B1446333751543N00329638WA0083400935
B1446343751545N00329637WA0083000931
B1446353751548N00329635WA0082600927
B1446363751552N00329631WA0082500923
B1446373751557N00329627WA0082500921
B1446383751561N00329624WA0082600920
B1446393751563N00329621WA0082900922
B1446403751564N00329620WA0082900924
B1446413751564N00329620WA0082700924
B1446423751565N00329619WA0082500923
B1446433751567N00329616WA0082000920
B1446443751571N00329611WA0081900915
B1446453751574N00329606WA0081800913
B1446463751576N00329600WA0082000915
B1446473751576N00329594WA0082200915
B1446483751575N00329587WA0082200916
B1446493751575N00329579WA0082100916
B1446503751576N00329571WA0082000916
B1446513751578N00329563WA0081900915
B1446523751580N00329555WA0081900915
B1446533751583N00329549WA0081900915
B1446543751585N00329543WA0082000916
B1446553751588N00329536WA0082200918
B1446563751590N00329529WA0082400919
B1446573751593N00329522WA0082400920
B1446583751596N00329515WA0082500922
B1446593751598N00329508WA0082800924
B1447003751598N00329500WA0083000926
B1447013751597N00329493WA0083200928
B1447023751593N00329486WA0083200928
B1447033751588N00329479WA0083300929
B1447043751582N00329475WA0083300929
B1447053751576N00329474WA0083500931
B1447063751571N00329476WA0083800933
B1447073751569N00329480WA0083900935
B1447083751570N00329484WA0084100937
B1447093751572N00329488WA0084300939
B1447103751575N00329489WA0084300941
B1447113751579N00329490WA0084300941
B1447123751584N00329488WA0084400943
B1447133751588N00329485WA0084600944
B1447143751592N00329481WA0084900947
B1447153751595N00329477WA0085100949
B1447163751598N00329473WA0085200952
B1447173751601N00329467WA0085300954
B1447183751602N00329461WA0085400956
B1447193751602N00329454WA0085600958
B1447203751601N00329447WA0085700959
B1447213751600N00329439WA0085800960
B1447223751597N00329430WA0085900962
B1447233751594N00329422WA0085900963
B1447243751591N00329415WA0086100964
B1447253751588N00329408WA0086200965
B1447263751584N00329401WA0086200966
B1447273751581N00329393WA0086300967
B1447283751576N00329385WA0086300969
B1447293751570N00329376WA0086300969
B1447303751565N00329368WA0086500970
B1447313751559N00329363WA0086800972
B1447323751553N00329359WA0087000975
B1447333751547N00329357WA0086900975
B1447343751542N00329357WA0086800975
B1447353751535N00329358WA0086500975
B1447363751530N00329360WA0086800974
B1447373751526N00329364WA0086900975
B1447383751525N00329369WA0087000975
B1447393751526N00329373WA0087200975
B1447403751528N00329377WA0087300977
B1447413751531N00329379WA0087500979
B1447423751534N00329380WA0087700981
B1447433751537N00329380WA0087900982
B1447443751541N00329379WA0088000984
B1447453751546N00329376WA0088100984
B1447463751551N00329372WA0088300985
B1447473751555N00329365WA0088500987
B1447483751557N00329359WA0088900989
B1447493751557N00329352WA0089100991
B1447503751556N00329345WA0089100993
B1447513751555N00329336WA0089100994
B1447523751552N00329327WA0089000994
B1447533751548N00329318WA0089100994
B1447543751543N00329309WA0089200995
B1447553751537N00329302WA0089500997
B1447563751531N00329296WA0089701000
B1447573751526N00329290WA0089801002
B1447583751520N00329287WA0090001004
B1447593751513N00329286WA0090001004
B1448003751507N00329288WA0089901004
B1448013751502N00329292WA0089901003
B1448023751499N00329296WA0090101003
B1448033751498N00329300WA0090101005
B1448043751498N00329303WA0090201008
B1448053751498N00329306WA0090301009
B1448063751500N00329308WA0090301009
B1448073751503N00329311WA0090401009
B1448083751506N00329314WA0090401008
B1448093751510N00329316WA0090601009
B1448103751513N00329318WA0090901011
B1448113751516N00329319WA0091101013
B1448123751519N00329320WA0091201016
B1448133751521N00329322WA0091301017
B1448143751523N00329324WA0091401018
B1448153751526N00329326WA0091501020
B1448163751528N00329326WA0091601021
B1448173751531N00329325WA0091701021
B1448183751535N00329321WA0091701022
B1448193751538N00329316WA0091701022
B1448203751540N00329309WA0091801022
B1448213751542N00329302WA0091701023
B1448223751542N00329294WA0091401023
B1448233751541N00329287WA0091501024
B1448243751540N00329279WA0091801024
B1448253751538N00329272WA0091701024
B1448263751534N00329264WA0091501023
B1448273751530N00329255WA0091401021
B1448283751526N00329246WA0091401020
B1448293751521N00329239WA0091501020
B1448303751516N00329233WA0091601021
B1448313751511N00329229WA0091701023
B1448323751506N00329226WA0091601024
B1448333751501N00329223WA0091501024
B1448343751496N00329220WA0091701025
B1448353751490N00329217WA0091901026
B1448363751485N00329214WA0091901026
B1448373751479N00329211WA0091901026
B1448383751474N00329209WA0091901026
B1448393751468N00329208WA0092101027
B1448403751462N00329206WA0092001027
B1448413751456N00329204WA0092101028
B1448423751451N00329203WA0092101029
B1448433751446N00329204WA0092101029
B1448443751441N00329207WA0092001029
B1448453751437N00329212WA0091801028
B1448463751434N00329217WA0091901027
B1448473751433N00329221WA0092001028
B1448483751434N00329224WA0091901028
B1448493751436N00329226WA0091801028
B1448503751439N00329228WA0091701027
B1448513751443N00329230WA0091601026
B1448523751447N00329229WA0091801026
B1448533751451N00329227WA0092001026
B1448543751454N00329224WA0092101028
B1448553751456N00329219WA0092101029
B1448563751457N00329214WA0092201030
B1448573751458N00329209WA0092201030
B1448583751460N00329204WA0092101030
B1448593751463N00329198WA0092101030
B1449003751466N00329192WA0092101029
B1449013751469N00329187WA0092101029
B1449023751471N00329181WA0092301031
B1449033751473N00329176WA0092401032
B1449043751474N00329171WA0092501033
B1449053751476N00329165WA0092401033
B1449063751478N00329158WA0092401034
B1449073751479N00329151WA0092501034
B1449083751480N00329144WA0092601035
B1449093751480N00329136WA0092701035
B1449103751481N00329128WA0092701036
B1449113751482N00329120WA0092801036
B1449123751483N00329112WA0092901037
B1449133751483N00329104WA0093001038
B1449143751483N00329096WA0093101040
B1449153751483N00329088WA0093201041
B1449163751482N00329080WA0093101041
B1449173751480N00329072WA0093101042
B1449183751477N00329065WA0093101042
B1449193751473N00329058WA0093101041
B1449203751468N00329052WA0093101042
B1449213751463N00329046WA0093101041
B1449223751458N00329040WA0093101041
B1449233751452N00329035WA0093301042
B1449243751446N00329030WA0093501043
B1449253751440N00329026WA0093601045
B1449263751435N00329023WA0093701046
B1449273751431N00329022WA0093801047
B1449283751427N00329023WA0093901048
B1449293751423N00329025WA0094001049
B1449303751420N00329028WA0093901049
B1449313751419N00329032WA0094101050
B1449323751420N00329035WA0094201051
B1449333751422N00329037WA0094301052
B1449343751425N00329038WA0094401053
B1449353751428N00329037WA0094501054
B1449363751432N00329036WA0094501055
B1449373751436N00329034WA0094401054
B1449383751440N00329030WA0094301054
B1449393751444N00329024WA0094301053
B1449403751449N00329018WA0094301051
B1449413751452N00329011WA0094501053
B1449423751454N00329005WA0094801055
B1449433751455N00328998WA0095001056
B1449443751454N00328990WA0095001057
B1449453751452N00328982WA0094901058
B1449463751448N00328974WA0095001058
B1449473751444N00328967WA0094901059
B1449483751439N00328961WA0094801059
B1449493751433N00328955WA0094701060
B1449503751428N00328951WA0094901060
B1449513751423N00328946WA0095001060
B1449523751417N00328942WA0095101061
B1449533751412N00328938WA0095201062
B1449543751406N00328934WA0095401063
B1449553751401N00328930WA0095501064
B1449563751395N00328929WA0095601065
B1449573751389N00328928WA0095701066
B1449583751383N00328928WA0095901067
B1449593751378N00328929WA0096201069
B1450003751373N00328930WA0096301072
B1450013751369N00328931WA0096401074
B1450023751366N00328932WA0096501074
B1450033751364N00328934WA0096201074
B1450043751363N00328938WA0096201073
B1450053751363N00328941WA0096401073
B1450063751364N00328942WA0096501074
B1450073751365N00328942WA0096601075
B1450083751368N00328941WA0096601075
B1450093751371N00328939WA0096601075
B1450103751375N00328936WA0096601075
B1450113751379N00328931WA0096701075
B1450123751382N00328924WA0096701075
B1450133751383N00328916WA0096901076
B1450143751383N00328907WA0097201077
B1450153751382N00328899WA0097301078
B1450163751380N00328890WA0097501080
B1450173751378N00328882WA0097601081
B1450183751376N00328873WA0097801083
B1450193751372N00328866WA0097801084
B1450203751367N00328860WA0097801085
B1450213751362N00328854WA0097701084
B1450223751356N00328850WA0097801083
B1450233751349N00328847WA0098001084
B1450243751343N00328845WA0098201086
B1450253751337N00328844WA0098401088
B1450263751332N00328844WA0098601089
B1450273751328N00328844WA0098801091
B1450283751323N00328845WA0098901093
B1450293751320N00328846WA0099001094
B1450303751317N00328848WA0099101096
B1450313751314N00328851WA0099201097
B1450323751313N00328853WA0099201098
B1450333751313N00328855WA0099401099
B1450343751313N00328857WA0099301100
B1450353751315N00328857WA0099301100
B1450363751318N00328857WA0099101100
B1450373751322N00328856WA0099001100
B1450383751325N00328853WA0099401101
B1450393751329N00328848WA0099601103
B1450403751331N00328841WA0099701103
B1450413751331N00328832WA0099901104
B1450423751330N00328823WA0100001106
B1450433751328N00328815WA0100301107
B1450443751324N00328808WA0100401109
B1450453751320N00328801WA0100401110
B1450463751314N00328795WA0100601111
B1450473751308N00328789WA0100601112
B1450483751302N00328784WA0100701113
B1450493751295N00328779WA0100801116
B1450503751289N00328775WA0101101119
B1450513751283N00328774WA0101201121
B1450523751278N00328774WA0101401122
B1450533751272N00328774WA0101401124
B1450543751267N00328775WA0101601125
B1450553751262N00328775WA0101701127
B1450563751258N00328777WA0101701128
B1450573751255N00328779WA0101601128
B1450583751250N00328782WA0101301127
B1450593751246N00328784WA0101201127
B1451003751242N00328786WA0101601128
B1451013751239N00328787WA0101901131
B1451023751237N00328788WA0102101133
B1451033751234N00328790WA0102101133
B1451043751231N00328792WA0102001133
B1451053751228N00328796WA0102001132
B1451063751227N00328799WA0102001133
B1451073751227N00328803WA0102001132
B1451083751229N00328807WA0101901132
B1451093751232N00328809WA0101901132
B1451103751237N00328809WA0101901131
B1451113751242N00328806WA0101801130
B1451123751246N00328800WA0101801130
B1451133751249N00328792WA0101801130
B1451143751251N00328784WA0101801130
B1451153751252N00328776WA0101701130
B1451163751254N00328768WA0101401129
B1451173751255N00328761WA0101401128
B1451183751257N00328753WA0101501127
B1451193751258N00328745WA0101301126
B1451203751259N00328736WA0101201125
B1451213751261N00328727WA0101201123
B1451223751262N00328717WA0101201123
B1451233751263N00328708WA0101501123
B1451243751263N00328700WA0101701125
B1451253751263N00328692WA0101701126
B1451263751263N00328684WA0101801127
B1451273751263N00328675WA0101801128
B1451283751262N00328665WA0101701128
B1451293751260N00328656WA0101701127
B1451303751256N00328647WA0101701127
B1451313751251N00328638WA0101601127
B1451323751246N00328630WA0101701126
B1451333751240N00328623WA0101701127
B1451343751234N00328617WA0101901129
B1451353751228N00328612WA0102001130
B1451363751222N00328607WA0102001130
B1451373751215N00328604WA0101801129
B1451383751207N00328601WA0101801129
B1451393751199N00328600WA0101701128
B1451403751193N00328600WA0101801129
B1451413751187N00328601WA0101801129
B1451423751182N00328603WA0101501128
B1451433751178N00328605WA0101401128
B1451443751176N00328608WA0101401127
B1451453751176N00328611WA0101501125
B1451463751177N00328612WA0101401123
B1451473751180N00328613WA0101301122
B1451483751182N00328613WA0101201122
B1451493751184N00328612WA0101201122
B1451503751187N00328612WA0101001122
B1451513751190N00328611WA0100901120
B1451523751193N00328610WA0100801119
B1451533751197N00328607WA0100801118
B1451543751201N00328604WA0100801118
B1451553751204N00328600WA0100801118
B1451563751207N00328596WA0100801118
B1451573751210N00328592WA0100601119
B1451583751212N00328589WA0100601118
B1451593751215N00328585WA0100601118
B1452003751216N00328580WA0100601118
B1452013751218N00328574WA0100401118
B1452023751219N00328566WA0100601116
B1452033751221N00328559WA0100501116
B1452043751224N00328552WA0100501116
B1452053751226N00328545WA0100401115
B1452063751228N00328539WA0100301115
B1452073751229N00328532WA0100201113
B1452083751231N00328525WA0100001112
B1452093751232N00328517WA0099801111
B1452103751232N00328510WA0099601109
B1452113751233N00328503WA0099401108
B1452123751235N00328495WA0099201105
B1452133751238N00328487WA0099101103
B1452143751240N00328479WA0099001102
B1452153751242N00328472WA0098901102
B1452163751244N00328465WA0098801102
B1452173751245N00328458WA0098701101
B1452183751248N00328451WA0098501099
B1452193751250N00328443WA0098401097
B1452203751251N00328436WA0098301096
B1452213751252N00328428WA0098301094
B1452223751253N00328419WA0098201093
B1452233751252N00328411WA0098201092
B1452243751251N00328401WA0098101092
B1452253751250N00328392WA0098201091
B1452263751249N00328382WA0098301092
B1452273751248N00328373WA0098401092
B1452283751248N00328364WA0098401093
B1452293751247N00328355WA0098601094
B1452303751244N00328346WA0098701095
B1452313751241N00328337WA0098801096
B1452323751237N00328329WA0099201097
B1452333751234N00328322WA0099401100
B1452343751230N00328317WA0099601103
B1452353751227N00328312WA0099601105
B1452363751222N00328309WA0099501105
B1452373751216N00328307WA0099501103
B1452383751209N00328306WA0099501103
B1452393751204N00328307WA0099601103
B1452403751199N00328308WA0099901105
B1452413751195N00328309WA0100101107
B1452423751193N00328311WA0100301109
B1452433751191N00328314WA0100301110
B1452443751191N00328318WA0100501110
B1452453751192N00328321WA0100601112
B1452463751193N00328323WA0100701114
B1452473751194N00328325WA0100901116
B1452483751196N00328326WA0101001118
B1452493751199N00328327WA0101101119
B1452503751202N00328327WA0101201119
B1452513751206N00328326WA0101301121
B1452523751210N00328324WA0101401122
B1452533751213N00328322WA0101501124
B1452543751216N00328319WA0101701125
B1452553751219N00328315WA0101701126
B1452563751223N00328310WA0101601126
B1452573751227N00328302WA0101501126
B1452583751229N00328293WA0101701126
B1452593751230N00328283WA0101801126
B1453003751230N00328274WA0102101128
B1453013751228N00328266WA0102401130
B1453023751225N00328259WA0102701132
B1453033751222N00328254WA0102801134
B1453043751217N00328250WA0103001136
B1453053751211N00328248WA0103001136
B1453063751206N00328248WA0103201137
B1453073751201N00328250WA0103401140
B1453083751197N00328252WA0103601142
B1453093751195N00328255WA0103901145
B1453103751193N00328258WA0104101148
B1453113751192N00328262WA0104201150
B1453123751193N00328265WA0104301151
B1453133751195N00328267WA0104301152
B1453143751198N00328269WA0104401151
B1453153751201N00328270WA0104301152
B1453163751205N00328270WA0104301152
B1453173751209N00328270WA0104101152
B1453183751212N00328269WA0104001152
B1453193751217N00328268WA0103701150
B1453203751222N00328266WA0103201148
B1453213751227N00328262WA0103401146
B1453223751232N00328255WA0103301145
B1453233751235N00328248WA0103301144
B1453243751236N00328241WA0103401145
B1453253751237N00328234WA0103501145
B1453263751237N00328227WA0103501145
B1453273751237N00328218WA0103501145
B1453283751236N00328209WA0103501144
B1453293751233N00328199WA0103601144
B1453303751230N00328191WA0103801145
B1453313751227N00328184WA0104001146
B1453323751223N00328177WA0104201149
B1453333751219N00328172WA0104301151
B1453343751214N00328167WA0104501152
B1453353751209N00328163WA0104701154
B1453363751204N00328159WA0105101157
B1453373751200N00328157WA0105301161
B1453383751195N00328155WA0105701165
B1453393751192N00328156WA0106001168
B1453403751189N00328158WA0106101171
B1453413751189N00328162WA0106201173
B1453423751190N00328166WA0106301174
B1453433751192N00328168WA0106401175
B1453443751195N00328170WA0106401176
B1453453751199N00328170WA0106301176
B1453463751204N00328169WA0106001176
B1453473751210N00328166WA0105901175
B1453483751215N00328162WA0106101174
B1453493751220N00328155WA0106101174
B1453503751223N00328148WA0106101173
B1453513751226N00328142WA0106101174
B1453523751228N00328136WA0106301175
B1453533751229N00328129WA0106301175
B1453543751229N00328121WA0106201175
B1453553751229N00328110WA0106101175
B1453563751228N00328099WA0106201175
B1453573751226N00328089WA0106401175
B1453583751224N00328080WA0106801179
B1453593751221N00328073WA0107201184
B1454003751218N00328067WA0107301186
B1454013751214N00328062WA0107501188
B1454023751209N00328059WA0107501189
B1454033751204N00328057WA0107501189
B1454043751200N00328058WA0107601190
B1454053751197N00328060WA0107801192
B1454063751194N00328063WA0108001193
B1454073751192N00328066WA0108301195
B1454083751191N00328069WA0108601198
B1454093751190N00328071WA0108801202
B1454103751189N00328073WA0109101205
B1454113751189N00328075WA0109301208
B1454123751191N00328077WA0109401210
B1454133751194N00328079WA0109401210
B1454143751198N00328080WA0109301209
B1454153751203N00328079WA0109201209
B1454163751208N00328076WA0109201209
B1454173751212N00328071WA0109201209
B1454183751215N00328065WA0109301209
B1454193751217N00328060WA0109301209
B1454203751219N00328053WA0109101209
B1454213751220N00328045WA0109101209
B1454223751222N00328036WA0109201209
B1454233751222N00328027WA0109301209
B1454243751223N00328018WA0109401209
B1454253751222N00328009WA0109501210
B1454263751220N00328001WA0109801211
B1454273751218N00327993WA0110001212
B1454283751215N00327986WA0110101214
B1454293751212N00327981WA0110301217
B1454303751208N00327978WA0110501218
B1454313751204N00327976WA0110501219
B1454323751200N00327975WA0110501220
B1454333751196N00327975WA0110501221
B1454343751191N00327976WA0110501222
B1454353751187N00327977WA0110701222
B1454363751183N00327978WA0110701223
B1454373751180N00327980WA0110901224
B1454383751176N00327982WA0111101226
B1454393751173N00327984WA0111301228
B1454403751170N00327986WA0111501230
B1454413751168N00327988WA0111601233
B1454423751167N00327990WA0111801234
B1454433751167N00327994WA0111801235
B1454443751169N00327997WA0112001236
B1454453751173N00327999WA0112101238
B1454463751178N00327999WA0112301239
B1454473751183N00327997WA0112301240
B1454483751188N00327993WA0112401241
B1454493751192N00327988WA0112401242
B1454503751196N00327982WA0112401243
B1454513751200N00327976WA0112501243
B1454523751202N00327969WA0112501244
B1454533751203N00327960WA0112301244
B1454543751203N00327950WA0112301244
B1454553751201N00327940WA0112201243
B1454563751198N00327930WA0112301243
B1454573751194N00327922WA0112501244
B1454583751191N00327914WA0112801246
B1454593751187N00327909WA0113001248
B1455003751183N00327905WA0113101250
B1455013751178N00327902WA0113201250
B1455023751173N00327900WA0113101250
B1455033751167N00327899WA0112801251
B1455043751163N00327899WA0113101251
B1455053751159N00327901WA0113301252
B1455063751156N00327903WA0113401252
B1455073751153N00327906WA0113301253
B1455083751150N00327910WA0113301253
B1455093751148N00327913WA0113201254
B1455103751145N00327917WA0113101254
B1455113751144N00327921WA0112801254
B1455123751144N00327926WA0113001254
B1455133751145N00327929WA0113301254
B1455143751147N00327932WA0113501256
B1455153751149N00327934WA0113701257
B1455163751152N00327935WA0113801258
B1455173751154N00327937WA0113801259
B1455183751157N00327938WA0113801260
B1455193751160N00327939WA0113901261
B1455203751163N00327939WA0114001262
B1455213751166N00327939WA0114001262
B1455223751169N00327940WA0114001262
B1455233751172N00327942WA0114001262
B1455243751175N00327944WA0114101262
B1455253751178N00327945WA0114201263
B1455263751181N00327947WA0114401265
B1455273751184N00327948WA0114501266
B1455283751187N00327949WA0114601267
B1455293751190N00327950WA0114701268
B1455303751193N00327951WA0114801269
B1455313751195N00327951WA0115001270
B1455323751198N00327952WA0115001271
B1455333751201N00327953WA0115101271
B1455343751204N00327953WA0115101272
B1455353751208N00327955WA0115201272
B1455363751212N00327955WA0115201273
B1455373751216N00327956WA0115201274
B1455383751219N00327957WA0115301275
B1455393751222N00327958WA0115201275
B1455403751226N00327959WA0115201274
B1455413751230N00327960WA0115201273
B1455423751234N00327961WA0115201272
B1455433751237N00327962WA0115201272
B1455443751240N00327963WA0115301273
B1455453751243N00327964WA0115301274
B1455463751245N00327964WA0115201274
B1455473751248N00327965WA0115001274
B1455483751251N00327967WA0114701272
B1455493751253N00327968WA0115001271
B1455503751255N00327970WA0115101272
B1455513751257N00327972WA0115101272
B1455523751258N00327973WA0115101272
B1455533751260N00327975WA0115101272
B1455543751263N00327976WA0115001271
B1455553751266N00327978WA0114901270
B1455563751269N00327979WA0114801269
B1455573751272N00327980WA0114801269
B1455583751275N00327980WA0114901270
B1455593751278N00327981WA0114801270
B1456003751281N00327983WA0114801270
B1456013751283N00327985WA0114801270
B1456023751285N00327987WA0114901270
B1456033751287N00327989WA0115001271
B1456043751289N00327990WA0115101272
B1456053751292N00327991WA0115201272
B1456063751295N00327992WA0115201273
B1456073751297N00327992WA0115101273
B1456083751300N00327993WA0115101273
B1456093751302N00327995WA0115201273
B1456103751305N00327996WA0115201273
B1456113751307N00327998WA0115301274
B1456123751309N00327999WA0115401276
B1456133751310N00328001WA0115501277
B1456143751312N00328003WA0115501277
B1456153751314N00328005WA0115601278
B1456163751316N00328006WA0115601277
B1456173751319N00328008WA0115601278
B1456183751321N00328009WA0115701278
B1456193751323N00328010WA0115601278
B1456203751325N00328010WA0115301278
B1456213751328N00328011WA0115201276
B1456223751331N00328013WA0115101273
B1456233751335N00328016WA0114901271
B1456243751337N00328018WA0115001270
B1456253751338N00328022WA0115201270
B1456263751339N00328024WA0115301272
B1456273751340N00328026WA0115201273
B1456283751342N00328028WA0115201273
B1456293751344N00328030WA0115101272
B1456303751347N00328034WA0114901271
B1456313751350N00328037WA0114901270
B1456323751352N00328041WA0114901270
B1456333751354N00328043WA0115101271
B1456343751356N00328045WA0115101271
B1456353751358N00328047WA0115001271
B1456363751360N00328049WA0114901271
B1456373751362N00328052WA0114901270
B1456383751364N00328055WA0114801269
B1456393751366N00328058WA0114701269
B1456403751368N00328060WA0114701269
B1456413751370N00328063WA0114701269
B1456423751372N00328066WA0114701268
B1456433751374N00328070WA0114601268
B1456443751376N00328073WA0114701269
B1456453751378N00328076WA0114801269
B1456463751381N00328078WA0114801269
B1456473751384N00328081WA0114801269
B1456483751386N00328083WA0114801269
B1456493751389N00328086WA0114801269
B1456503751392N00328089WA0114701269
B1456513751394N00328092WA0114701269
B1456523751396N00328095WA0114701269
B1456533751397N00328098WA0114601270
B1456543751399N00328101WA0114401269
B1456553751402N00328105WA0114201269
B1456563751404N00328109WA0114401268
B1456573751406N00328113WA0114401268
B1456583751408N00328117WA0114401267
B1456593751410N00328120WA0114401267
B1457003751412N00328123WA0114301267
B1457013751414N00328127WA0114201266
B1457023751417N00328130WA0114201265
B1457033751419N00328133WA0114101264
B1457043751422N00328135WA0114001264
B1457053751425N00328137WA0113901263
B1457063751428N00328140WA0113501262
B1457073751431N00328143WA0113301260
B1457083751434N00328145WA0113401258
B1457093751437N00328147WA0113101256
B1457103751441N00328150WA0112901253
B1457113751444N00328153WA0112801251
B1457123751447N00328155WA0112501250
B1457133751449N00328158WA0112501248
B1457143751451N00328161WA0112501246
B1457153751454N00328163WA0112401246
B1457163751456N00328165WA0112501245
B1457173751459N00328167WA0112501245
B1457183751461N00328169WA0112601245
B1457193751463N00328170WA0112701246
B1457203751464N00328172WA0112801247
B1457213751465N00328174WA0112801248
B1457223751466N00328176WA0112901248
B1457233751468N00328178WA0113001249
B1457243751469N00328179WA0113201250
B1457253751470N00328180WA0113401252
B1457263751471N00328182WA0113501253
B1457273751472N00328182WA0113601254
B1457283751472N00328183WA0113601256
B1457293751474N00328184WA0113701256
B1457303751475N00328185WA0113701256
B1457313751477N00328187WA0113701256
B1457323751478N00328189WA0113801257
B1457333751480N00328191WA0113901258
B1457343751481N00328193WA0114001260
B1457353751482N00328195WA0114101261
B1457363751483N00328196WA0114301262
B1457373751486N00328197WA0114401263
B1457383751488N00328198WA0114301263
B1457393751490N00328199WA0114601264
B1457403751491N00328199WA0114701265
B1457413751492N00328200WA0114701266
B1457423751494N00328201WA0114801267
B1457433751496N00328201WA0114601267
B1457443751498N00328202WA0114701267
B1457453751501N00328202WA0114801268
B1457463751503N00328204WA0114901270
B1457473751505N00328205WA0115201271
B1457483751507N00328207WA0115201274
B1457493751510N00328208WA0115301276
B1457503751511N00328209WA0115601278
B1457513751513N00328210WA0115801280
B1457523751515N00328213WA0115901281
B1457533751517N00328216WA0116101281
B1457543751519N00328219WA0116401283
B1457553751520N00328221WA0116601286
B1457563751521N00328222WA0116701289
B1457573751522N00328224WA0116901291
B1457583751523N00328225WA0117101291
B1457593751524N00328227WA0117201293
B1458003751525N00328228WA0117501294
B1458013751527N00328228WA0117701297
B1458023751530N00328228WA0117801298
B1458033751533N00328227WA0117901300
B1458043751536N00328226WA0117801301
B1458053751540N00328222WA0117801300
B1458063751543N00328216WA0117501300
B1458073751545N00328207WA0117401300
B1458083751544N00328197WA0117301299
B1458093751543N00328187WA0117301298
B1458103751539N00328178WA0117501298
B1458113751534N00328170WA0117701299
B1458123751529N00328165WA0117901300
B1458133751523N00328162WA0118001302
B1458143751517N00328161WA0118201304
B1458153751512N00328162WA0118301305
B1458163751508N00328165WA0118501306
B1458173751505N00328168WA0118701308
B1458183751503N00328171WA0118801310
B1458193751504N00328175WA0118901312
B1458203751504N00328177WA0119101314
B1458213751504N00328180WA0119201315
B1458223751504N00328182WA0119301317
B1458233751504N00328184WA0119301319
B1458243751504N00328186WA0119401320
B1458253751506N00328188WA0119401320
B1458263751507N00328191WA0119401319
B1458273751509N00328194WA0119501319
B1458283751511N00328196WA0119601320
B1458293751512N00328199WA0119601321
B1458303751514N00328201WA0119501321
B1458313751516N00328202WA0119301320
B1458323751518N00328204WA0119101320
B1458333751520N00328204WA0119001319
B1458343751522N00328204WA0118801318
B1458353751524N00328204WA0118801317
B1458363751526N00328203WA0118801315
B1458373751529N00328201WA0118601313
B1458383751531N00328199WA0118301310
B1458393751535N00328197WA0118001308
B1458403751538N00328195WA0117901306
B1458413751542N00328192WA0117801304
B1458423751545N00328190WA0117801303
B1458433751548N00328189WA0117901303
B1458443751550N00328187WA0118101303
B1458453751552N00328184WA0118101304
B1458463751554N00328182WA0118101305
B1458473751557N00328179WA0118001305
B1458483751560N00328176WA0117901305
B1458493751564N00328173WA0117901304
B1458503751567N00328170WA0117901305
B1458513751570N00328167WA0118101306
B1458523751572N00328164WA0118101307
B1458533751575N00328162WA0118001307
B1458543751578N00328159WA0117901306
B1458553751581N00328155WA0117901305
B1458563751585N00328152WA0117901304
B1458573751588N00328150WA0117701303
B1458583751591N00328149WA0117801303
B1458593751593N00328148WA0117801303
B1459003751596N00328147WA0117901304
B1459013751599N00328145WA0117801303
B1459023751602N00328144WA0117701303
B1459033751604N00328143WA0117701302
B1459043751607N00328142WA0117601301
B1459053751610N00328141WA0117501300
B1459063751613N00328140WA0117401300
B1459073751615N00328138WA0117401299
B1459083751618N00328137WA0117301298
B1459093751621N00328136WA0117301298
B1459103751623N00328135WA0117101297
B1459113751626N00328133WA0117101296
B1459123751629N00328132WA0117001295
B1459133751633N00328130WA0116901294
B1459143751636N00328129WA0116901293
B1459153751639N00328127WA0116901293
B1459163751642N00328125WA0116801293
B1459173751645N00328123WA0116801292
B1459183751648N00328121WA0116801292
B1459193751651N00328120WA0116701292
B1459203751655N00328119WA0116701291
B1459213751659N00328117WA0116801292
B1459223751662N00328116WA0117001293
B1459233751664N00328114WA0117101294
B1459243751667N00328112WA0117101295
B1459253751669N00328109WA0117101296
B1459263751672N00328106WA0116901295
B1459273751676N00328104WA0116801294
B1459283751680N00328102WA0116901294
B1459293751683N00328099WA0117001294
B1459303751686N00328097WA0117101295
B1459313751689N00328094WA0117201296
B1459323751692N00328092WA0117201296
B1459333751696N00328090WA0117101296
B1459343751699N00328088WA0117301296
B1459353751703N00328086WA0117401297
B1459363751706N00328084WA0117501297
B1459373751709N00328081WA0117601298
B1459383751712N00328079WA0117601299
B1459393751715N00328075WA0117501299
B1459403751717N00328072WA0117301298
B1459413751721N00328069WA0117201297
B1459423751724N00328066WA0117101297
B1459433751727N00328062WA0117001296
B1459443751729N00328059WA0117001296
B1459453751732N00328055WA0116701295
B1459463751736N00328052WA0116501293
B1459473751739N00328049WA0116501292
B1459483751742N00328045WA0116501291
B1459493751746N00328042WA0116201289
B1459503751749N00328038WA0116201288
B1459513751753N00328034WA0116001286
B1459523751757N00328030WA0115901285
B1459533751760N00328026WA0115701283
B1459543751764N00328023WA0115501282
B1459553751768N00328020WA0115401280
B1459563751772N00328018WA0115301279
B1459573751777N00328016WA0115201278
B1459583751781N00328014WA0115201277
B1459593751785N00328011WA0115301277
B1500003751788N00328008WA0115301277
B1500013751792N00328006WA0115201277
B1500023751796N00328004WA0115101276
B1500033751801N00328003WA0115001274
B1500043751805N00328001WA0114901273
B1500053751810N00328000WA0114901272
B1500063751814N00327998WA0114901272
B1500073751817N00327996WA0114901272
B1500083751821N00327995WA0114801272
B1500093751825N00327995WA0114701271
B1500103751829N00327994WA0114601270
B1500113751834N00327993WA0114601269
B1500123751838N00327992WA0114601269
B1500133751842N00327991WA0114701269
B1500143751846N00327990WA0114701269
B1500153751851N00327989WA0114801269
B1500163751856N00327987WA0114701269
B1500173751860N00327984WA0114701269
B1500183751865N00327981WA0114701269
B1500193751869N00327977WA0114601269
B1500203751873N00327973WA0114501268
B1500213751877N00327970WA0114401267
B1500223751882N00327967WA0114301266
B1500233751887N00327964WA0114301265
B1500243751891N00327960WA0114401265
B1500253751895N00327955WA0114201266
B1500263751898N00327949WA0114101264
B1500273751902N00327943WA0113901263
B1500283751907N00327937WA0113801262
B1500293751911N00327932WA0113701260
B1500303751915N00327927WA0113701259
B1500313751919N00327921WA0113601258
B1500323751923N00327916WA0113501258
B1500333751927N00327910WA0113401257
B1500343751931N00327905WA0113301256
B1500353751936N00327900WA0113101255
B1500363751940N00327895WA0113101254
B1500373751945N00327889WA0113001253
B1500383751949N00327883WA0113001252
B1500393751953N00327877WA0112801252
B1500403751956N00327871WA0112501251
B1500413751961N00327865WA0112501250
B1500423751965N00327860WA0112401248
B1500433751970N00327855WA0112201246
B1500443751974N00327849WA0112201244
B1500453751979N00327844WA0112101244
B1500463751983N00327839WA0112001243
B1500473751988N00327834WA0111801242
B1500483751992N00327830WA0111701240
B1500493751997N00327825WA0111501239
B1500503752002N00327820WA0111401237
B1500513752007N00327815WA0111401235
B1500523752011N00327808WA0111301235
B1500533752015N00327801WA0111201234
B1500543752018N00327793WA0111001233
B1500553752022N00327786WA0110701231
B1500563752027N00327779WA0110401228
B1500573752032N00327772WA0110201226
B1500583752036N00327765WA0110201224
B1500593752041N00327758WA0110001222
B1501003752045N00327751WA0109901221
B1501013752049N00327744WA0109701219
B1501023752053N00327738WA0109401216
B1501033752058N00327732WA0109001214
B1501043752063N00327726WA0108801211
B1501053752068N00327721WA0108701209
B1501063752073N00327716WA0108601207
B1501073752076N00327712WA0108401205
B1501083752080N00327707WA0108001203
B1501093752084N00327702WA0107701200
B1501103752089N00327697WA0107501196
B1501113752094N00327692WA0107301194
B1501123752099N00327688WA0107201192
B1501133752103N00327685WA0107301192
B1501143752106N00327681WA0107101192
B1501153752111N00327678WA0106501190
B1501163752115N00327674WA0106301187
B1501173752120N00327670WA0106301183
B1501183752125N00327667WA0106201181
B1501193752129N00327664WA0106201180
B1501203752133N00327661WA0106201179
B1501213752136N00327658WA0106101179
B1501223752140N00327655WA0105901177
B1501233752144N00327650WA0105701175
B1501243752149N00327645WA0105501173
B1501253752153N00327641WA0105401171
B1501263752158N00327636WA0105301170
B1501273752163N00327632WA0105201169
B1501283752167N00327627WA0105101168
B1501293752172N00327622WA0105001166
B1501303752177N00327617WA0104901165
B1501313752181N00327611WA0104801165
B1501323752185N00327605WA0104701164
B1501333752189N00327600WA0104601163
B1501343752193N00327596WA0104601163
B1501353752198N00327592WA0104501162
B1501363752202N00327587WA0104401162
B1501373752205N00327583WA0104401162
B1501383752209N00327579WA0104501163
B1501393752212N00327576WA0104601163
B1501403752216N00327573WA0104401162
B1501413752222N00327570WA0104201161
B1501423752227N00327568WA0104201160
B1501433752233N00327567WA0104401161
B1501443752237N00327565WA0104601163
B1501453752241N00327564WA0104801165
B1501463752245N00327563WA0104901166
B1501473752249N00327562WA0105001166
B1501483752253N00327559WA0105001167
B1501493752257N00327556WA0105101168
B1501503752261N00327551WA0105101168
B1501513752265N00327544WA0105301169
B1501523752268N00327535WA0105501171
B1501533752269N00327526WA0105801172
B1501543752268N00327517WA0106101173
B1501553752265N00327510WA0106301176
B1501563752260N00327503WA0106401177
B1501573752254N00327499WA0106601179
B1501583752247N00327497WA0106801181
B1501593752241N00327498WA0107001183
B1502003752238N00327501WA0107301185
B1502013752236N00327505WA0107501189
B1502023752236N00327508WA0107701192
B1502033752238N00327511WA0107801194
B1502043752240N00327514WA0108001195
B1502053752244N00327515WA0108101196
B1502063752248N00327515WA0108201198
B1502073752253N00327512WA0108401199
B1502083752258N00327508WA0108701201
B1502093752262N00327503WA0108901204
B1502103752265N00327497WA0109301208
B1502113752266N00327490WA0109501210
B1502123752266N00327482WA0109701213
B1502133752264N00327474WA0109801214
B1502143752261N00327467WA0109901216
B1502153752257N00327459WA0110001218
B1502163752253N00327453WA0110201219
B1502173752248N00327448WA0110401221
B1502183752243N00327444WA0110601224
B1502193752238N00327442WA0110801226
B1502203752232N00327442WA0110901227
B1502213752227N00327444WA0111001228
B1502223752222N00327446WA0111001229
B1502233752219N00327450WA0111201230
B1502243752216N00327455WA0111301232
B1502253752215N00327458WA0111601234
B1502263752215N00327461WA0111701238
B1502273752217N00327463WA0111901238
B1502283752220N00327464WA0111901238
B1502293752225N00327464WA0111901238
B1502303752230N00327463WA0112101238
B1502313752235N00327458WA0112201240
B1502323752239N00327452WA0112501242
B1502333752241N00327444WA0112601244
B1502343752241N00327437WA0112701245
B1502353752239N00327429WA0112701247
B1502363752235N00327422WA0113101248
B1502373752230N00327415WA0113201249
B1502383752224N00327410WA0113201250
B1502393752218N00327406WA0113501251
B1502403752212N00327405WA0113601254
B1502413752206N00327406WA0113801256
B1502423752202N00327409WA0113801258
B1502433752198N00327412WA0113901259
B1502443752197N00327415WA0114001261
B1502453752198N00327419WA0114101260
B1502463752199N00327422WA0114101259
B1502473752202N00327425WA0114001259
B1502483752205N00327427WA0114001260
B1502493752210N00327427WA0114001260
B1502503752215N00327426WA0114101261
B1502513752220N00327424WA0114201261
B1502523752225N00327421WA0114401263
B1502533752229N00327419WA0114601265
B1502543752232N00327417WA0114801267
B1502553752236N00327415WA0115001269
B1502563752240N00327413WA0115101271
B1502573752244N00327412WA0115201272
B1502583752247N00327410WA0115201274
B1502593752250N00327407WA0115301275
B1503003752252N00327400WA0115401276
B1503013752253N00327392WA0115501276
B1503023752252N00327384WA0115701277
B1503033752249N00327377WA0115901281
B1503043752245N00327371WA0116001283
B1503053752240N00327368WA0116201285
B1503063752234N00327366WA0116301285
B1503073752229N00327365WA0116501287
B1503083752223N00327366WA0116601289
B1503093752219N00327368WA0116801291
B1503103752215N00327371WA0117001292
B1503113752213N00327374WA0117101294
B1503123752211N00327378WA0117201296
B1503133752210N00327381WA0117201297
B1503143752211N00327385WA0117301297
B1503153752213N00327388WA0117201296
B1503163752217N00327391WA0117201296
B1503173752221N00327391WA0117301296
B1503183752226N00327390WA0117501297
B1503193752230N00327387WA0117701298
B1503203752235N00327384WA0117901301
B1503213752238N00327380WA0118101303
B1503223752242N00327376WA0118201306
B1503233752245N00327370WA0118401308
B1503243752247N00327362WA0118401309
B1503253752247N00327353WA0118401310
B1503263752247N00327343WA0118601311
B1503273752245N00327335WA0118701313
B1503283752243N00327328WA0119001315
B1503293752241N00327322WA0119101317
B1503303752237N00327317WA0119201319
B1503313752233N00327313WA0119201319
B1503323752228N00327309WA0119201319
B1503333752222N00327306WA0119101318
B1503343752215N00327303WA0119101317
B1503353752209N00327302WA0119301318
B1503363752204N00327301WA0119501320
B1503373752200N00327301WA0119801324
B1503383752196N00327301WA0119901326
B1503393752193N00327303WA0119901327
B1503403752190N00327307WA0119901328
B1503413752189N00327312WA0119801326
B1503423752189N00327317WA0119801325
B1503433752191N00327322WA0119901326
B1503443752193N00327325WA0120201328
B1503453752196N00327326WA0120301330
B1503463752200N00327326WA0120401331
B1503473752205N00327325WA0120501332
B1503483752210N00327322WA0120501332
B1503493752215N00327316WA0120601332
B1503503752218N00327309WA0120701333
B1503513752220N00327301WA0120801334
B1503523752220N00327293WA0120901334
B1503533752219N00327285WA0121101336
B1503543752217N00327278WA0121301337
B1503553752214N00327271WA0121301338
B1503563752210N00327264WA0121401339
B1503573752204N00327260WA0121501339
B1503583752199N00327257WA0121501339
B1503593752193N00327256WA0121601340
B1504003752189N00327255WA0121701341
B1504013752184N00327255WA0121801343
B1504023752180N00327255WA0121901344
B1504033752175N00327255WA0121701345
B1504043752171N00327256WA0121701346
B1504053752167N00327258WA0121901346
B1504063752164N00327262WA0122001346
B1504073752161N00327266WA0122001347
B1504083752158N00327270WA0122101348
B1504093752156N00327273WA0122201349
B1504103752155N00327276WA0122201350
B1504113752153N00327278WA0122201350
B1504123752152N00327281WA0121901349
B1504133752151N00327285WA0121401348
B1504143752151N00327288WA0121401346
B1504153752153N00327291WA0121401344
B1504163752157N00327292WA0121101341
B1504173752161N00327293WA0121001339
B1504183752165N00327292WA0120901338
B1504193752169N00327292WA0120901337
B1504203752173N00327290WA0120801336
B1504213752177N00327288WA0120701335
B1504223752182N00327286WA0120501333
B1504233752187N00327284WA0120401330
B1504243752193N00327280WA0120201328
B1504253752198N00327275WA0120201328
B1504263752202N00327270WA0120301329
B1504273752206N00327266WA0120401330
B1504283752210N00327261WA0120501330
B1504293752214N00327256WA0120501330
B1504303752217N00327251WA0120601331
B1504313752220N00327245WA0120701331
B1504323752223N00327240WA0120701332
B1504333752226N00327234WA0120701332
B1504343752229N00327227WA0120601333
B1504353752230N00327219WA0120201333
B1504363752230N00327210WA0120301333
B1504373752229N00327201WA0120801333
B1504383752227N00327192WA0120801334
B1504393752224N00327182WA0120801335
B1504403752220N00327173WA0120901335
B1504413752217N00327164WA0120901335
B1504423752213N00327155WA0121001336
B1504433752209N00327148WA0121201336
B1504443752205N00327141WA0121201337
B1504453752201N00327134WA0121201337
B1504463752195N00327129WA0121101337
B1504473752189N00327125WA0121001336
B1504483752183N00327122WA0120801335
B1504493752176N00327121WA0120601334
B1504503752170N00327123WA0120801334
B1504513752166N00327127WA0120901334
B1504523752163N00327132WA0121001333
B1504533752161N00327136WA0121101335
B1504543752161N00327139WA0121201337
B1504553752161N00327142WA0121301338
B1504563752162N00327144WA0121201339
B1504573752164N00327147WA0121101338
B1504583752166N00327150WA0121001338
B1504593752169N00327154WA0121101338
B1505003752172N00327156WA0121201339
B1505013752175N00327156WA0121401340
B1505023752179N00327155WA0121401341
B1505033752183N00327153WA0121201341
B1505043752187N00327150WA0121001339
B1505053752192N00327147WA0120801337
B1505063752198N00327143WA0120801335
B1505073752202N00327139WA0120901336
B1505083752206N00327135WA0121101337
B1505093752210N00327132WA0121201338
B1505103752214N00327129WA0121201338
B1505113752218N00327125WA0121201338
B1505123752221N00327120WA0121301339
B1505133752224N00327115WA0121401339
B1505143752227N00327108WA0121401340
B1505153752229N00327101WA0121501341
B1505163752231N00327094WA0121501341
B1505173752233N00327087WA0121601342
B1505183752235N00327080WA0121701343
B1505193752237N00327073WA0121701343
B1505203752238N00327066WA0121501343
B1505213752239N00327058WA0121201343
B1505223752240N00327051WA0121001342
B1505233752241N00327043WA0120901342
B1505243752241N00327035WA0120901341
B1505253752242N00327027WA0120801339
B1505263752244N00327019WA0120501336
B1505273752246N00327011WA0120301334
B1505283752248N00327003WA0120201332
B1505293752250N00326996WA0120001330
B1505303752252N00326988WA0119801328
B1505313752255N00326980WA0119701326
B1505323752259N00326972WA0119701324
B1505333752262N00326965WA0119701326
B1505343752264N00326959WA0119701326
B1505353752267N00326953WA0119601326
B1505363752270N00326946WA0119401325
B1505373752274N00326940WA0119301323
B1505383752278N00326935WA0119301322
B1505393752281N00326931WA0119301322
B1505403752284N00326926WA0119301322
B1505413752287N00326921WA0119101322
B1505423752290N00326916WA0119001321
B1505433752292N00326910WA0119001320
B1505443752294N00326903WA0119001319
B1505453752296N00326896WA0118901318
B1505463752299N00326889WA0118801316
B1505473752302N00326881WA0118701315
B1505483752305N00326874WA0118701314
B1505493752307N00326866WA0118801315
B1505503752309N00326858WA0118901315
B1505513752311N00326850WA0118901315
B1505523752312N00326842WA0119001315
B1505533752314N00326833WA0118901315
B1505543752315N00326824WA0118901315
B1505553752316N00326815WA0118901315
B1505563752316N00326806WA0119001315
B1505573752316N00326798WA0119001316
B1505583752315N00326790WA0118901316
B1505593752315N00326782WA0118901316
B1506003752314N00326773WA0118501315
B1506013752315N00326763WA0118501315
B1506023752315N00326754WA0118701315
B1506033752315N00326745WA0118901315
B1506043752315N00326736WA0118901315
B1506053752315N00326727WA0118601315
B1506063752315N00326717WA0118301312
B1506073752316N00326707WA0118001309
B1506083752318N00326697WA0117901307
B1506093752319N00326688WA0117801305
B1506103752319N00326680WA0117701304
B1506113752318N00326671WA0117401302
B1506123752318N00326662WA0117101300
B1506133752319N00326652WA0116801297
B1506143752321N00326642WA0116501293
B1506153752323N00326632WA0116501292
B1506163752325N00326624WA0116701292
B1506173752326N00326616WA0116801293
B1506183752327N00326609WA0116801295
B1506193752327N00326602WA0116701294
B1506203752326N00326595WA0116501293
B1506213752325N00326586WA0116201291
B1506223752324N00326578WA0115801289
B1506233752325N00326570WA0115401286
B1506243752327N00326562WA0115001283
B1506253752330N00326555WA0115001281
B1506263752333N00326549WA0115201281
B1506273752335N00326544WA0114901280
B1506283752337N00326539WA0114801279
B1506293752340N00326534WA0114501276
B1506303752344N00326529WA0114101271
B1506313752348N00326524WA0113801267
B1506323752352N00326519WA0113801265
B1506333752355N00326515WA0113601263
B1506343752358N00326510WA0113501262
B1506353752361N00326505WA0113201260
B1506363752364N00326499WA0113001257
B1506373752367N00326493WA0112701254
B1506383752369N00326486WA0112601252
B1506393752371N00326480WA0112501250
B1506403752373N00326474WA0112401248
B1506413752375N00326468WA0112201246
B1506423752377N00326462WA0112001244
B1506433752379N00326455WA0111801242
B1506443752381N00326448WA0111701240
B1506453752384N00326441WA0111501239
B1506463752387N00326435WA0111401238
B1506473752389N00326429WA0111401237
B1506483752392N00326423WA0111201236
B1506493752394N00326416WA0110801235
B1506503752397N00326409WA0110901234
B1506513752398N00326403WA0111201233
B1506523752400N00326398WA0111301233
B1506533752402N00326393WA0111201234
B1506543752403N00326389WA0111101233
B1506553752405N00326385WA0110901232
B1506563752408N00326379WA0110701230
B1506573752410N00326373WA0110501228
B1506583752411N00326367WA0110401226
B1506593752413N00326362WA0110301225
B1507003752414N00326358WA0110101223
B1507013752416N00326354WA0109801221
B1507023752418N00326348WA0109301217
B1507033752419N00326342WA0109201215
B1507043752420N00326336WA0109201212
B1507053752421N00326329WA0109301211
B1507063752423N00326323WA0109101210
B1507073752426N00326318WA0109001209
B1507083752429N00326313WA0108901208
B1507093752432N00326308WA0108901207
B1507103752434N00326302WA0108801206
B1507113752436N00326296WA0108701206
B1507123752437N00326291WA0108601205
B1507133752439N00326285WA0108601205
B1507143752441N00326279WA0108401203
B1507153752444N00326272WA0108201201
B1507163752447N00326266WA0108001199
B1507173752450N00326260WA0107801197
B1507183752454N00326255WA0107901196
B1507193752458N00326250WA0108001195
B1507203752463N00326245WA0108001195
B1507213752467N00326241WA0108001195
B1507223752471N00326237WA0108001198
B1507233752475N00326233WA0108001198
B1507243752479N00326229WA0107801197
B1507253752483N00326225WA0107701196
B1507263752488N00326221WA0107601195
B1507273752494N00326217WA0107601194
B1507283752498N00326213WA0107601195
B1507293752502N00326210WA0107701196
B1507303752505N00326206WA0107701196
B1507313752508N00326201WA0107501196
B1507323752512N00326195WA0107501196
B1507333752516N00326188WA0107501195
B1507343752520N00326182WA0107601195
B1507353752524N00326178WA0107801198
B1507363752526N00326173WA0108001200
B1507373752528N00326167WA0108101201
B1507383752529N00326161WA0108101201
B1507393752528N00326154WA0108101202
B1507403752526N00326147WA0108001202
B1507413752524N00326141WA0108001201
B1507423752521N00326137WA0108001201
B1507433752517N00326133WA0107901201
B1507443752512N00326132WA0107801199
B1507453752507N00326133WA0107701197
B1507463752502N00326137WA0107501195
B1507473752499N00326142WA0107501194
B1507483752497N00326148WA0107501193
B1507493752496N00326154WA0107601194
B1507503752496N00326159WA0107601195
B1507513752497N00326165WA0107601195
B1507523752499N00326170WA0107501194
B1507533752502N00326176WA0107301192
B1507543752506N00326181WA0107101191
B1507553752510N00326186WA0107501191
B1507563752514N00326189WA0107501191
B1507573752519N00326191WA0107601191
B1507583752523N00326194WA0107701192
B1507593752527N00326196WA0107801192
B1508003752532N00326197WA0107601192
B1508013752537N00326197WA0107601192
B1508023752543N00326197WA0107501191
B1508033752549N00326196WA0107501191
B1508043752554N00326195WA0107501191
B1508053752559N00326194WA0107501191
B1508063752564N00326192WA0107401190
B1508073752569N00326190WA0107301189
B1508083752575N00326188WA0107301188
B1508093752580N00326185WA0107201187
B1508103752585N00326181WA0107201187
B1508113752589N00326177WA0107101187
B1508123752594N00326172WA0106801187
B1508133752598N00326168WA0106601185
B1508143752602N00326164WA0106501184
B1508153752607N00326160WA0106401183
B1508163752613N00326156WA0106301181
B1508173752619N00326152WA0106101179
B1508183752626N00326150WA0106001176
B1508193752633N00326147WA0105901175
B1508203752639N00326144WA0106101176
B1508213752644N00326140WA0106301178
B1508223752648N00326134WA0106501180
B1508233752650N00326127WA0106801183
B1508243752652N00326120WA0107001185
B1508253752653N00326111WA0106901186
B1508263752653N00326101WA0106901187
B1508273752653N00326091WA0106701187
B1508283752651N00326081WA0106701187
B1508293752649N00326073WA0106801188
B1508303752646N00326066WA0106901188
B1508313752642N00326060WA0106901188
B1508323752637N00326056WA0106801187
B1508333752631N00326054WA0106601186
B1508343752625N00326053WA0106601184
B1508353752619N00326054WA0106501183
B1508363752614N00326055WA0106701183
B1508373752610N00326058WA0106901184
B1508383752607N00326061WA0107101186
B1508393752605N00326065WA0107101187
B1508403752604N00326068WA0107201188
B1508413752605N00326073WA0107201186
B1508423752606N00326076WA0107001186
B1508433752609N00326080WA0106901184
B1508443752614N00326084WA0106701182
B1508453752620N00326086WA0106601181
B1508463752626N00326087WA0106701181
B1508473752632N00326086WA0106901181
B1508483752637N00326084WA0107201182
B1508493752641N00326083WA0107501183
B1508503752644N00326081WA0107501185
B1508513752646N00326080WA0107601187
B1508523752648N00326077WA0107601188
B1508533752651N00326073WA0107501188
B1508543752655N00326066WA0107201185
B1508553752658N00326058WA0107101183
B1508563752660N00326050WA0107301183
B1508573752659N00326042WA0107501184
B1508583752658N00326035WA0107501184
B1508593752656N00326028WA0107301184
B1509003752653N00326020WA0107101184
B1509013752648N00326012WA0107301183
B1509023752643N00326005WA0107301183
B1509033752638N00326001WA0107301182
B1509043752633N00325999WA0107301182
B1509053752629N00325998WA0107101182
B1509063752626N00326000WA0106901181
B1509073752623N00326003WA0106701180
B1509083752620N00326008WA0106601182
B1509093752620N00326013WA0106501182
B1509103752623N00326018WA0106601181
B1509113752627N00326021WA0106701182
B1509123752631N00326021WA0106801183
B1509133752635N00326021WA0107001184
B1509143752638N00326019WA0107101186
B1509153752641N00326017WA0107201187
B1509163752643N00326014WA0107101187
B1509173752646N00326009WA0107001186
B1509183752650N00326004WA0106801184
B1509193752654N00325999WA0106801183
B1509203752657N00325995WA0106901183
B1509213752660N00325991WA0106901185
B1509223752661N00325987WA0106901185
B1509233752663N00325982WA0106701184
B1509243752666N00325975WA0106401183
B1509253752669N00325966WA0106301181
B1509263752671N00325957WA0106301180
B1509273752672N00325949WA0106401180
B1509283752672N00325942WA0106501182
B1509293752671N00325935WA0106501182
B1509303752670N00325927WA0106301181
B1509313752670N00325919WA0106101180
B1509323752670N00325910WA0105901178
B1509333752671N00325902WA0105801177
B1509343752671N00325894WA0105701176
B1509353752672N00325888WA0105501175
B1509363752673N00325880WA0105101173
B1509373752674N00325872WA0104901171
B1509383752676N00325864WA0104601169
B1509393752678N00325856WA0104601166
B1509403752680N00325849WA0104501165
B1509413752682N00325842WA0104301163
B1509423752685N00325835WA0104101161
B1509433752688N00325827WA0104101158
B1509443752691N00325819WA0104001156
B1509453752694N00325812WA0104001155
B1509463752696N00325806WA0104201156
B1509473752698N00325800WA0104401158
B1509483752700N00325793WA0104501158
B1509493752701N00325785WA0104601159
B1509503752702N00325777WA0104701160
B1509513752702N00325768WA0104901161
B1509523752700N00325759WA0105001162
B1509533752697N00325750WA0105101162
B1509543752692N00325742WA0105101163
B1509553752686N00325736WA0105101164
B1509563752680N00325731WA0105201165
B1509573752674N00325729WA0105401166
B1509583752668N00325728WA0105401167
B1509593752663N00325728WA0105501168
B1510003752659N00325730WA0105501167
B1510013752656N00325734WA0105401167
B1510023752654N00325738WA0105401166
B1510033752653N00325742WA0105401166
B1510043752654N00325745WA0105401167
B1510053752656N00325748WA0105501167
B1510063752658N00325749WA0105401167
B1510073752663N00325750WA0105401167
B1510083752668N00325750WA0105401166
B1510093752673N00325747WA0105601167
B1510103752677N00325743WA0105901169
B1510113752680N00325739WA0106101172
B1510123752683N00325733WA0106301175
B1510133752685N00325727WA0106301177
B1510143752687N00325720WA0106401178
B1510153752689N00325711WA0106401179
B1510163752689N00325703WA0106401179
B1510173752689N00325693WA0106501180
B1510183752688N00325684WA0106701181
B1510193752686N00325675WA0106901183
B1510203752683N00325668WA0107001184
B1510213752678N00325661WA0107001185
B1510223752672N00325656WA0107101186
B1510233752665N00325652WA0107001185
B1510243752659N00325650WA0107001185
B1510253752653N00325651WA0107101186
B1510263752648N00325652WA0107201186
B1510273752645N00325654WA0107301187
B1510283752642N00325657WA0107501189
B1510293752641N00325660WA0107501189
B1510303752641N00325663WA0107501190
B1510313752642N00325665WA0107701192
B1510323752644N00325666WA0107901194
B1510333752647N00325666WA0108101195
B1510343752650N00325665WA0108201197
B1510353752653N00325662WA0108301198
B1510363752656N00325658WA0108401199
B1510373752659N00325654WA0108601201
B1510383752662N00325650WA0108701202
B1510393752665N00325646WA0108701203
B1510403752668N00325642WA0108701204
B1510413752670N00325636WA0108901204
B1510423752672N00325629WA0108901205
B1510433752673N00325621WA0109001206
B1510443752672N00325613WA0109101206
B1510453752669N00325605WA0109201207
B1510463752665N00325598WA0109301208
B1510473752659N00325591WA0109301208
B1510483752653N00325585WA0109301208
B1510493752646N00325582WA0109501210
B1510503752640N00325581WA0109601212
B1510513752635N00325581WA0109701213
B1510523752630N00325583WA0109801214
B1510533752625N00325584WA0109901214
B1510543752622N00325588WA0110001215
B1510553752620N00325593WA0110001215
B1510563752621N00325597WA0110001215
B1510573752623N00325600WA0110201216
B1510583752626N00325601WA0110301220
B1510593752629N00325600WA0110501222
B1511003752632N00325598WA0110701223
B1511013752635N00325595WA0110801225
B1511023752639N00325591WA0110701224
B1511033752643N00325585WA0110701223
B1511043752646N00325579WA0110901223
B1511053752649N00325573WA0111001224
B1511063752650N00325566WA0111201225
B1511073752650N00325559WA0111201226
B1511083752651N00325552WA0111401228
B1511093752652N00325544WA0111501229
B1511103752653N00325536WA0111801230
B1511113752652N00325527WA0111801231
B1511123752649N00325519WA0112001232
B1511133752644N00325511WA0112001233
B1511143752637N00325505WA0111801233
B1511153752630N00325500WA0111701234
B1511163752623N00325496WA0112201235
B1511173752617N00325495WA0112501238
B1511183752612N00325495WA0112701241
B1511193752608N00325497WA0112801242
B1511203752604N00325498WA0112701242
B1511213752600N00325501WA0112701243
B1511223752597N00325506WA0112801243
B1511233752595N00325510WA0113001244
B1511243752594N00325515WA0113101246
B1511253752594N00325518WA0113301249
B1511263752595N00325519WA0113501252
B1511273752597N00325520WA0113501253
B1511283752599N00325519WA0113401253
B1511293752603N00325518WA0113201252
B1511303752607N00325516WA0113201250
B1511313752612N00325511WA0113301249
B1511323752615N00325506WA0113501251
B1511333752617N00325502WA0113601252
B1511343752618N00325498WA0113701254
B1511353752620N00325492WA0113601255
B1511363752622N00325485WA0113401254
B1511373752625N00325477WA0113301253
B1511383752627N00325469WA0113301252
B1511393752629N00325462WA0113301253
B1511403752630N00325456WA0113301253
B1511413752631N00325450WA0113201253
B1511423752633N00325442WA0112901251
B1511433752636N00325434WA0112601250
B1511443752639N00325426WA0112701249
B1511453752641N00325419WA0113301251
B1511463752644N00325414WA0113801256
B1511473752646N00325409WA0114001259
B1511483752647N00325404WA0114201261
B1511493752646N00325396WA0114201263
B1511503752643N00325388WA0114001263
B1511513752637N00325382WA0113901263
B1511523752631N00325378WA0113901263
B1511533752624N00325377WA0114101263
B1511543752618N00325378WA0114301265
B1511553752613N00325381WA0114401266
B1511563752609N00325383WA0114601267
B1511573752606N00325386WA0114601268
B1511583752605N00325389WA0114601268
B1511593752604N00325393WA0114501268
B1512003752605N00325398WA0114501268
B1512013752607N00325402WA0114501267
B1512023752610N00325404WA0114701269
B1512033752612N00325405WA0114901270
B1512043752615N00325405WA0114901272
B1512053752618N00325403WA0114801272
B1512063752620N00325400WA0114801271
B1512073752623N00325395WA0114801270
B1512083752626N00325389WA0114801269
B1512093752628N00325383WA0114801269
B1512103752630N00325377WA0114901269
B1512113752631N00325371WA0115001270
B1512123752633N00325364WA0115001270
B1512133752635N00325358WA0115201271
B1512143752637N00325352WA0115201272
B1512153752639N00325346WA0115201273
B1512163752641N00325340WA0115201273
B1512173752643N00325334WA0115201274
B1512183752645N00325327WA0115201274
B1512193752648N00325320WA0115201273
B1512203752650N00325312WA0115201273
B1512213752653N00325305WA0115001273
B1512223752656N00325298WA0114901273
B1512233752659N00325291WA0115201274
B1512243752661N00325283WA0115201275
B1512253752663N00325276WA0115301276
B1512263752666N00325269WA0115601277
B1512273752668N00325262WA0115701277
B1512283752671N00325256WA0116001279
B1512293752673N00325250WA0116301282
B1512303752673N00325244WA0116501285
B1512313752671N00325237WA0116501286
B1512323752667N00325230WA0116501286
B1512333752662N00325224WA0116501287
B1512343752656N00325220WA0116701288
B1512353752649N00325218WA0116901289
B1512363752643N00325217WA0117101291
B1512373752638N00325219WA0117201293
B1512383752634N00325221WA0117401294
B1512393752630N00325225WA0117601296
B1512403752627N00325229WA0117701297
B1512413752625N00325234WA0117801298
B1512423752625N00325238WA0117901300
B1512433752626N00325242WA0118001300
B1512443752629N00325244WA0118001299
B1512453752633N00325245WA0117901300
B1512463752637N00325243WA0117901300
B1512473752641N00325240WA0117901300
B1512483752646N00325237WA0118001300
B1512493752650N00325233WA0118101301
B1512503752654N00325230WA0118201302
B1512513752658N00325226WA0118301302
B1512523752661N00325221WA0118501304
B1512533752664N00325216WA0118601305
B1512543752666N00325210WA0118801307
B1512553752668N00325204WA0118901308
B1512563752670N00325197WA0118901310
B1512573752671N00325190WA0119101311
B1512583752672N00325182WA0119201311
B1512593752673N00325174WA0119301313
B1513003752672N00325165WA0119301313
B1513013752670N00325157WA0119501315
B1513023752667N00325150WA0119601317
B1513033752663N00325144WA0119701318
B1513043752659N00325139WA0119701318
B1513053752654N00325135WA0119701319
B1513063752648N00325132WA0119701318
B1513073752642N00325130WA0119701318
B1513083752635N00325130WA0119801318
B1513093752629N00325132WA0119801318
B1513103752624N00325135WA0119901319
B1513113752621N00325140WA0119901320
B1513123752620N00325145WA0119801320
B1513133752619N00325150WA0120001320
B1513143752620N00325155WA0120101321
B1513153752621N00325159WA0120201323
B1513163752623N00325162WA0120401325
B1513173752626N00325164WA0120401326
B1513183752629N00325165WA0120501327
B1513193752633N00325166WA0120701328
B1513203752637N00325166WA0120801329
B1513213752640N00325164WA0120901331
B1513223752644N00325161WA0121001333
B1513233752648N00325156WA0121001333
B1513243752651N00325151WA0121101333
B1513253752654N00325144WA0121201334
B1513263752656N00325136WA0121301334
B1513273752657N00325127WA0121401335
B1513283752657N00325118WA0121501336
B1513293752657N00325110WA0121601337
B1513303752656N00325102WA0121701338
B1513313752654N00325094WA0121701339
B1513323752650N00325086WA0121501339
B1513333752644N00325080WA0121601339
B1513343752638N00325076WA0121701339
B1513353752631N00325075WA0121901342
B1513363752626N00325076WA0122001344
B1513373752622N00325078WA0122101345
B1513383752619N00325081WA0122201347
B1513393752616N00325085WA0122201347
B1513403752614N00325089WA0122201348
B1513413752613N00325093WA0122201349
B1513423752614N00325097WA0122201350
B1513433752615N00325101WA0122301350
B1513443752616N00325104WA0122401351
B1513453752618N00325106WA0122601352
B1513463752620N00325108WA0122601353
B1513473752624N00325108WA0122701353
B1513483752627N00325107WA0122701354
B1513493752631N00325105WA0122801354
B1513503752634N00325102WA0123001355
B1513513752637N00325099WA0123001357
B1513523752640N00325095WA0123101357
B1513533752643N00325090WA0123101357
B1513543752647N00325084WA0123101357
B1513553752651N00325079WA0123101357
B1513563752655N00325073WA0123201357
B1513573752658N00325066WA0123301358
B1513583752661N00325060WA0123401359
B1513593752665N00325053WA0123501360
B1514003752668N00325046WA0123601361
B1514013752671N00325038WA0123701361
B1514023752673N00325031WA0123801362
B1514033752674N00325024WA0123801363
B1514043752675N00325016WA0123801364
B1514053752675N00325007WA0123801364
B1514063752674N00324998WA0123801364
B1514073752673N00324989WA0123701364
B1514083752671N00324980WA0123701364
B1514093752669N00324972WA0123701363
B1514103752665N00324965WA0123601363
B1514113752661N00324958WA0123401363
B1514123752656N00324953WA0123401363
B1514133752650N00324947WA0123501362
B1514143752644N00324944WA0123501362
B1514153752639N00324942WA0123601363
B1514163752634N00324942WA0123701364
B1514173752629N00324943WA0123701364
B1514183752626N00324946WA0123701364
B1514193752624N00324950WA0123701364
B1514203752622N00324954WA0123701363
B1514213752622N00324958WA0123801364
B1514223752623N00324961WA0123901366
B1514233752625N00324964WA0124001367
B1514243752627N00324966WA0124201368
B1514253752630N00324967WA0124301370
B1514263752634N00324967WA0124501371
B1514273752638N00324966WA0124501372
B1514283752642N00324964WA0124601373
B1514293752647N00324961WA0124701373
B1514303752651N00324957WA0124601373
B1514313752655N00324951WA0124601373
B1514323752658N00324945WA0124701373
B1514333752661N00324938WA0124601372
B1514343752664N00324932WA0124601372
B1514353752666N00324924WA0124401372
B1514363752668N00324917WA0124101372
B1514373752670N00324909WA0123901371
B1514383752671N00324900WA0124101370
B1514393752673N00324891WA0124201370
B1514403752675N00324883WA0124201369
B1514413752678N00324875WA0124101369
B1514423752680N00324867WA0124101369
B1514433752682N00324860WA0124101369
B1514443752684N00324851WA0124001368
B1514453752687N00324843WA0123901368
B1514463752689N00324834WA0123801367
B1514473752692N00324826WA0123801366
B1514483752695N00324817WA0123701366
B1514493752698N00324809WA0123401364
B1514503752701N00324800WA0123001362
B1514513752705N00324791WA0122901360
B1514523752708N00324783WA0122901359
B1514533752711N00324776WA0123001358
B1514543752714N00324770WA0122801357
B1514553752718N00324763WA0122601354
B1514563752721N00324756WA0122401352
B1514573752725N00324748WA0122301349
B1514583752728N00324741WA0122201348
B1514593752732N00324734WA0122201346
B1515003752735N00324728WA0122101346
B1515013752739N00324721WA0121901345
B1515023752742N00324714WA0121801344
B1515033752745N00324706WA0121601342
B1515043752748N00324698WA0121401341
B1515053752751N00324691WA0121401340
B1515063752754N00324685WA0121301339
B1515073752758N00324678WA0121101338
B1515083752762N00324672WA0120901336
B1515093752766N00324664WA0120701333
B1515103752769N00324657WA0120601331
B1515113752773N00324650WA0120401330
B1515123752777N00324644WA0120301329
B1515133752781N00324638WA0120201327
B1515143752785N00324632WA0120001325
B1515153752789N00324625WA0119801323
B1515163752793N00324619WA0119601321
B1515173752797N00324612WA0119501319
B1515183752800N00324605WA0119401318
B1515193752804N00324599WA0119301316
B1515203752807N00324592WA0119101315
B1515213752810N00324585WA0119001313
B1515223752814N00324578WA0118801311
B1515233752817N00324570WA0118701310
B1515243752820N00324564WA0118501309
B1515253752823N00324557WA0118401308
B1515263752826N00324550WA0118201307
B1515273752829N00324542WA0118001305
B1515283752832N00324535WA0117901303
B1515293752835N00324528WA0117801301
B1515303752838N00324521WA0117701300
B1515313752840N00324514WA0117601299
B1515323752842N00324507WA0117501297
B1515333752844N00324500WA0117201295
B1515343752847N00324493WA0117001293
B1515353752849N00324485WA0116801291
B1515363752850N00324478WA0116701289
B1515373752852N00324470WA0116501287
B1515383752852N00324463WA0116301285
B1515393752853N00324455WA0115701283
B1515403752854N00324447WA0115401281
B1515413752855N00324439WA0115201278
B1515423752857N00324431WA0115101275
B1515433752859N00324422WA0114901272
B1515443752861N00324414WA0114701270
B1515453752863N00324406WA0114501269
B1515463752865N00324398WA0114301267
B1515473752867N00324391WA0114201265
B1515483752870N00324383WA0113901263
B1515493752873N00324375WA0113801261
B1515503752876N00324367WA0113501258
B1515513752880N00324360WA0113401256
B1515523752883N00324354WA0113301255
B1515533752886N00324347WA0113201254
B1515543752888N00324339WA0112701252
B1515553752890N00324331WA0112401249
B1515563752893N00324322WA0112101245
B1515573752896N00324314WA0111701241
B1515583752900N00324306WA0111501237
B1515593752903N00324299WA0111301235
B1516003752905N00324291WA0111101233
B1516013752906N00324283WA0110601230
B1516023752907N00324274WA0110201228
B1516033752908N00324265WA0110301225
B1516043752910N00324256WA0110001222
B1516053752911N00324247WA0109801219
B1516063752913N00324238WA0109701216
B1516073752914N00324229WA0109301214
B1516083752914N00324221WA0109201213
B1516093752915N00324213WA0109001210
B1516103752917N00324204WA0108701207
B1516113752918N00324195WA0108301204
B1516123752920N00324186WA0108101200
B1516133752922N00324177WA0107901198
B1516143752924N00324169WA0107701196
B1516153752925N00324161WA0107501194
B1516163752927N00324152WA0107301191
B1516173752928N00324143WA0106901188
B1516183752930N00324134WA0106701185
B1516193752932N00324125WA0106301182
B1516203752935N00324116WA0106201179
B1516213752937N00324107WA0106001177
B1516223752938N00324098WA0105801175
B1516233752940N00324089WA0105501172
B1516243752942N00324080WA0105301170
B1516253752944N00324072WA0105101168
B1516263752946N00324063WA0104901165
B1516273752949N00324055WA0104801163
B1516283752951N00324048WA0104601162
B1516293752953N00324040WA0104301159
B1516303752956N00324032WA0104001156
B1516313752959N00324024WA0103801153
B1516323752962N00324016WA0103601150
B1516333752966N00324008WA0103601148
B1516343752969N00324001WA0103601148
B1516353752972N00323994WA0103401147
B1516363752975N00323988WA0103101145
B1516373752978N00323982WA0102901142
B1516383752981N00323976WA0102601139
B1516393752985N00323969WA0102301136
B1516403752989N00323962WA0102101133
B1516413752992N00323955WA0101901131
B1516423752996N00323949WA0101701129
B1516433753000N00323942WA0101601127
B1516443753003N00323936WA0101401126
B1516453753007N00323931WA0101101123
B1516463753011N00323925WA0100901121
B1516473753015N00323921WA0100701119
B1516483753020N00323916WA0100601117
B1516493753024N00323910WA0100501115
B1516503753029N00323905WA0100401113
B1516513753034N00323900WA0100301113
B1516523753039N00323894WA0100401113
B1516533753042N00323890WA0100401114
B1516543753046N00323886WA0100201114
B1516553753050N00323881WA0100101113
B1516563753054N00323877WA0099801113
B1516573753058N00323872WA0100001111
B1516583753062N00323867WA0100001110
B1516593753066N00323862WA0099801109
B1517003753070N00323857WA0099801109
B1517013753073N00323852WA0099701109
B1517023753076N00323847WA0099601108
B1517033753080N00323842WA0099401106
B1517043753084N00323836WA0099101103
B1517053753088N00323829WA0099001101
B1517063753092N00323821WA0098801099
B1517073753096N00323815WA0098801098
B1517083753098N00323808WA0098701098
B1517093753100N00323803WA0098501097
B1517103753102N00323796WA0098201094
B1517113753105N00323790WA0097701090
B1517123753110N00323783WA0097301087
B1517133753114N00323776WA0097101084
B1517143753118N00323769WA0097101082
B1517153753121N00323763WA0097101082
B1517163753124N00323756WA0097001081
B1517173753128N00323750WA0096801079
B1517183753132N00323743WA0096401077
B1517193753137N00323736WA0096201074
B1517203753141N00323729WA0096201072
B1517213753143N00323722WA0096101072
B1517223753146N00323716WA0095901071
B1517233753149N00323709WA0095601068
B1517243753152N00323702WA0095301066
B1517253753156N00323694WA0095101063
B1517263753160N00323687WA0094901060
B1517273753163N00323679WA0094801058
B1517283753166N00323671WA0094701057
B1517293753168N00323663WA0094401057
B1517303753170N00323655WA0094301055
B1517313753172N00323647WA0094101054
B1517323753175N00323638WA0094001051
B1517333753178N00323630WA0093801048
B1517343753180N00323621WA0093601046
B1517353753182N00323612WA0093401044
B1517363753185N00323604WA0093101042
B1517373753187N00323596WA0093001039
B1517383753190N00323588WA0092701037
B1517393753194N00323580WA0092501034
B1517403753197N00323572WA0092301032
B1517413753200N00323565WA0092101030
B1517423753203N00323558WA0092001028
B1517433753206N00323550WA0091701026
B1517443753209N00323543WA0091401023
B1517453753212N00323536WA0091201021
B1517463753216N00323529WA0090901018
B1517473753219N00323523WA0090701016
B1517483753222N00323516WA0090501014
B1517493753226N00323509WA0090301012
B1517503753229N00323502WA0090101009
B1517513753233N00323495WA0090001007
B1517523753237N00323489WA0089701003
B1517533753241N00323484WA0089401000
B1517543753244N00323478WA0089100997
B1517553753248N00323473WA0088900994
B1517563753251N00323467WA0088300991
B1517573753256N00323460WA0087800986
B1517583753260N00323454WA0087600982
B1517593753264N00323448WA0087400979
B1518003753267N00323442WA0087400978
B1518013753271N00323436WA0087100975
B1518023753274N00323430WA0086800972
B1518033753279N00323424WA0086400967
B1518043753283N00323417WA0086100962
B1518053753288N00323411WA0085900959
B1518063753292N00323405WA0085600958
B1518073753295N00323398WA0085500956
B1518083753298N00323392WA0085300954
B1518093753301N00323385WA0085000952
B1518103753304N00323377WA0084700950
B1518113753308N00323369WA0084700948
B1518123753311N00323362WA0084600947
B1518133753314N00323354WA0084400946
B1518143753316N00323346WA0084300945
B1518153753319N00323338WA0084000943
B1518163753322N00323328WA0083800941
B1518173753325N00323320WA0083500938
B1518183753330N00323311WA0083500937
B1518193753334N00323304WA0083600938
B1518203753337N00323298WA0083800940
B1518213753339N00323292WA0083700941
B1518223753342N00323284WA0083500940
B1518233753344N00323275WA0083300939
B1518243753348N00323266WA0083100937
B1518253753352N00323257WA0083000935
B1518263753356N00323249WA0083000935
B1518273753359N00323242WA0083100935
B1518283753362N00323235WA0083100935
B1518293753365N00323228WA0082800934
B1518303753369N00323220WA0082500932
B1518313753372N00323213WA0082500931
B1518323753376N00323206WA0082500929
B1518333753379N00323199WA0082300928
B1518343753381N00323193WA0082200926
B1518353753384N00323187WA0082100924
B1518363753386N00323180WA0081600921
B1518373753389N00323172WA0081500918
B1518383753391N00323163WA0081400916
B1518393753393N00323156WA0081400915
B1518403753393N00323148WA0081400915
B1518413753393N00323141WA0081300914
B1518423753392N00323135WA0081200913
B1518433753390N00323127WA0080900912
B1518443753390N00323119WA0080500908
B1518453753390N00323109WA0080200905
B1518463753392N00323100WA0080000903
B1518473753394N00323092WA0079900901
B1518483753396N00323084WA0079900900
B1518493753398N00323076WA0079900899
B1518503753400N00323069WA0079800899
B1518513753402N00323061WA0079700897
B1518523753405N00323053WA0079700896
B1518533753407N00323046WA0079500895
B1518543753411N00323039WA0079500894
B1518553753414N00323033WA0079400893
B1518563753418N00323027WA0079300892
B1518573753421N00323020WA0079200890
B1518583753425N00323013WA0079100889
B1518593753428N00323005WA0078900888
B1519003753432N00322997WA0078600886
B1519013753435N00322989WA0078600885
B1519023753439N00322981WA0078800884
B1519033753444N00322973WA0078700883
B1519043753448N00322965WA0078600883
B1519053753451N00322957WA0078700883
B1519063753453N00322949WA0078700883
B1519073753454N00322941WA0078600883
B1519083753457N00322933WA0078400882
B1519093753460N00322924WA0078200881
B1519103753464N00322916WA0078100879
B1519113753466N00322907WA0078000879
B1519123753468N00322898WA0078100878
B1519133753469N00322889WA0078200878
B1519143753470N00322880WA0078200878
B1519153753472N00322872WA0078100878
B1519163753474N00322863WA0078000878
B1519173753477N00322855WA0078100878
B1519183753479N00322847WA0078100878
B1519193753482N00322841WA0078200879
B1519203753485N00322835WA0078100879
B1519213753490N00322828WA0078000878
B1519223753494N00322821WA0078100878
B1519233753498N00322814WA0078300879
B1519243753499N00322806WA0078600882
B1519253753499N00322798WA0078800883
B1519263753497N00322790WA0078900884
B1519273753493N00322783WA0078900884
B1519283753488N00322777WA0078900884
B1519293753482N00322775WA0078900883
B1519303753477N00322775WA0078800883
B1519313753473N00322779WA0078700882
B1519323753471N00322783WA0078800881
B1519333753471N00322787WA0078900882
B1519343753472N00322790WA0078900882
B1519353753475N00322792WA0078900882
B1519363753478N00322792WA0078900883
B1519373753482N00322791WA0079000883
B1519383753486N00322789WA0079100884
B1519393753490N00322786WA0079200885
B1519403753494N00322782WA0079200886
B1519413753497N00322776WA0079200886
B1519423753501N00322770WA0079200886
B1519433753505N00322763WA0079100885
B1519443753509N00322757WA0079200885
B1519453753512N00322750WA0079300886
B1519463753515N00322743WA0079400887
B1519473753518N00322736WA0079500887
B1519483753520N00322728WA0079600888
B1519493753523N00322720WA0079700889
B1519503753524N00322712WA0079800890
B1519513753526N00322704WA0079900891
B1519523753525N00322695WA0079900892
B1519533753523N00322686WA0080000892
B1519543753520N00322678WA0080100893
B1519553753517N00322671WA0080200894
B1519563753513N00322665WA0080300895
B1519573753509N00322661WA0080400896
B1519583753505N00322659WA0080400897
B1519593753500N00322658WA0080400897
B1520003753496N00322660WA0080500897
B1520013753493N00322663WA0080600898
B1520023753491N00322667WA0080800899
B1520033753492N00322671WA0081100902
B1520043753493N00322674WA0081200904
B1520053753495N00322677WA0081400907
B1520063753499N00322679WA0081600908
B1520073753503N00322679WA0081700909
B1520083753508N00322676WA0081700911
B1520093753513N00322670WA0081700911
B1520103753516N00322661WA0081800912
B1520113753518N00322652WA0081900913
B1520123753518N00322644WA0082300914
B1520133753517N00322636WA0082500916
B1520143753516N00322628WA0082800919
B1520153753513N00322621WA0082900921
B1520163753509N00322615WA0083000922
B1520173753504N00322611WA0083000923
B1520183753499N00322609WA0083000924
B1520193753493N00322608WA0083200925
B1520203753488N00322607WA0083400926
B1520213753483N00322608WA0083500928
B1520223753478N00322608WA0083900931
B1520233753474N00322610WA0084000934
B1520243753471N00322612WA0084200936
B1520253753471N00322616WA0084300937
B1520263753474N00322619WA0084300938
B1520273753477N00322622WA0084300938
B1520283753482N00322622WA0084300938
B1520293753487N00322619WA0084300939
B1520303753491N00322614WA0084400941
B1520313753495N00322609WA0084600942
B1520323753499N00322603WA0084700944
B1520333753501N00322595WA0084800945
B1520343753503N00322585WA0084700945
B1520353753502N00322574WA0084900945
B1520363753500N00322564WA0085100946
B1520373753497N00322557WA0085300950
B1520383753493N00322553WA0085600954
B1520393753489N00322551WA0085900957
B1520403753484N00322551WA0086000959
B1520413753479N00322552WA0086200960
B1520423753476N00322555WA0086200962
B1520433753474N00322558WA0086500963
B1520443753473N00322562WA0086600965
B1520453753473N00322565WA0086700967
B1520463753474N00322567WA0086900968
B1520473753476N00322568WA0086900968
B1520483753480N00322568WA0086800967
B1520493753484N00322566WA0086700966
B1520503753489N00322562WA0086700966
B1520513753493N00322556WA0086800967
B1520523753496N00322550WA0086900967
B1520533753499N00322543WA0087000968
B1520543753501N00322535WA0087200969
B1520553753502N00322526WA0087100970
B1520563753502N00322516WA0087100970
B1520573753501N00322507WA0086900971
B1520583753499N00322497WA0087200972
B1520593753496N00322489WA0087500974
B1521003753492N00322482WA0087800976
B1521013753488N00322476WA0088100978
B1521023753484N00322472WA0088100980
B1521033753480N00322468WA0088200982
B1521043753475N00322467WA0088200983
B1521053753471N00322469WA0088300983
B1521063753468N00322471WA0088200984
B1521073753465N00322473WA0088400984
B1521083753464N00322475WA0088600986
B1521093753463N00322477WA0088700988
B1521103753464N00322479WA0088700988
B1521113753465N00322481WA0088800988
B1521123753468N00322482WA0088800988
B1521133753471N00322482WA0088700988
B1521143753475N00322481WA0088700988
B1521153753480N00322479WA0088800988
B1521163753484N00322475WA0088900989
B1521173753487N00322471WA0089000990
B1521183753490N00322467WA0089000991
B1521193753494N00322462WA0088800992
B1521203753498N00322457WA0088700991
B1521213753502N00322450WA0089000991
B1521223753505N00322441WA0089000991
B1521233753509N00322433WA0089100992
B1521243753512N00322426WA0089100993
B1521253753516N00322419WA0089200994
B1521263753519N00322411WA0089300994
B1521273753522N00322402WA0089300994
B1521283753524N00322391WA0089200994
B1521293753525N00322381WA0089400995
B1521303753526N00322371WA0089600996
B1521313753526N00322361WA0089800998
B1521323753526N00322352WA0089801000
B1521333753523N00322344WA0089701000
B1521343753519N00322336WA0089100998
B1521353753513N00322330WA0089300997
B1521363753507N00322325WA0089700998
B1521373753503N00322324WA0090101001
B1521383753500N00322323WA0090301005
B1521393753498N00322323WA0090401007
B1521403753496N00322324WA0090401008
B1521413753495N00322327WA0090301007
B1521423753495N00322331WA0090301007
B1521433753497N00322335WA0090401007
B1521443753500N00322337WA0090601007
B1521453753505N00322337WA0090801009
B1521463753510N00322335WA0090901011
B1521473753514N00322330WA0091001013
B1521483753518N00322323WA0091101013
B1521493753521N00322314WA0091101013
B1521503753523N00322304WA0091001013
B1521513753525N00322293WA0091001013
B1521523753525N00322282WA0091101014
B1521533753525N00322272WA0091101014
B1521543753523N00322262WA0091301016
B1521553753521N00322254WA0091401017
B1521563753518N00322246WA0091401018
B1521573753514N00322239WA0091601018
B1521583753510N00322234WA0091601018
B1521593753505N00322230WA0091601019
B1522003753501N00322227WA0091801020
B1522013753497N00322226WA0091801021
B1522023753493N00322226WA0091601021
B1522033753490N00322227WA0091401021
B1522043753487N00322228WA0091601021
B1522053753486N00322231WA0091701021
B1522063753485N00322234WA0091601021
B1522073753486N00322237WA0091601020
B1522083753487N00322240WA0091701020
B1522093753489N00322242WA0091701020
B1522103753493N00322244WA0091801020
B1522113753497N00322244WA0091801020
B1522123753503N00322242WA0091801021
B1522133753508N00322239WA0091901021
B1522143753513N00322234WA0092001021
B1522153753518N00322227WA0092001022
B1522163753522N00322219WA0092001022
B1522173753526N00322212WA0091801021
B1522183753529N00322204WA0091701021
B1522193753532N00322196WA0091601020
B1522203753535N00322187WA0091401019
B1522213753535N00322176WA0091101017
B1522223753534N00322165WA0090901015
B1522233753531N00322154WA0090601013
B1522243753527N00322145WA0090601013
B1522253753523N00322137WA0090901013
B1522263753519N00322133WA0091101014
B1522273753514N00322129WA0091101015
B1522283753510N00322127WA0091101014
B1522293753506N00322126WA0091001014
B1522303753502N00322126WA0090901013
B1522313753498N00322126WA0091001013
B1522323753495N00322127WA0090901012
B1522333753492N00322128WA0090501011
B1522343753491N00322131WA0090501011
B1522353753490N00322134WA0090801010
B1522363753492N00322136WA0090901010
B1522373753495N00322138WA0090901010
B1522383753499N00322139WA0090901010
B1522393753503N00322138WA0090901010
B1522403753508N00322136WA0090901010
B1522413753512N00322133WA0090801010
B1522423753517N00322129WA0090701009
B1522433753520N00322123WA0090601009
B1522443753524N00322117WA0090201008
B1522453753528N00322110WA0090101007
B1522463753531N00322103WA0090301005
B1522473753533N00322095WA0090201004
B1522483753536N00322087WA0089901003
B1522493753538N00322078WA0089601000
B1522503753540N00322068WA0089300997
B1522513753542N00322058WA0089100995
B1522523753543N00322049WA0088900992
B1522533753544N00322040WA0088700990
B1522543753544N00322031WA0088500988
B1522553753545N00322023WA0088200986
B1522563753545N00322014WA0087900984
B1522573753546N00322005WA0087500981
B1522583753546N00321996WA0087300978
B1522593753546N00321986WA0087200975
B1523003753546N00321977WA0087000973
B1523013753547N00321968WA0086800972
B1523023753547N00321960WA0086700970
B1523033753548N00321951WA0086200967
B1523043753549N00321942WA0085600964
B1523053753549N00321932WA0085600962
B1523063753548N00321923WA0085400959
B1523073753548N00321914WA0085200956
B1523083753547N00321904WA0084900954
B1523093753547N00321894WA0084600950
B1523103753548N00321885WA0084500948
B1523113753548N00321875WA0084300946
B1523123753548N00321867WA0084100944
B1523133753548N00321858WA0083900942
B1523143753548N00321849WA0083600939
B1523153753548N00321839WA0083300936
B1523163753548N00321829WA0083200933
B1523173753549N00321818WA0083000931
B1523183753549N00321808WA0083000930
B1523193753549N00321799WA0082900929
B1523203753548N00321789WA0082900929
B1523213753548N00321780WA0082700928
B1523223753548N00321770WA0082600926
B1523233753547N00321760WA0082500924
B1523243753547N00321750WA0082300923
B1523253753547N00321740WA0082100922
B1523263753547N00321730WA0082100922
B1523273753547N00321721WA0082100921
B1523283753547N00321711WA0082300921
B1523293753547N00321702WA0082300920
B1523303753547N00321693WA0082100919
B1523313753548N00321684WA0081900918
B1523323753550N00321675WA0081800917
B1523333753551N00321665WA0081900916
B1523343753553N00321656WA0082200918
B1523353753554N00321647WA0082500920
B1523363753554N00321639WA0082700922
B1523373753553N00321631WA0082900924
B1523383753551N00321623WA0083100926
B1523393753547N00321615WA0083100926
B1523403753540N00321609WA0083100926
B1523413753533N00321605WA0083200927
B1523423753527N00321603WA0083400927
B1523433753521N00321603WA0083400929
B1523443753517N00321604WA0083400930
B1523453753513N00321606WA0083300930
B1523463753510N00321609WA0083200931
B1523473753508N00321613WA0083000931
B1523483753508N00321618WA0083100932
B1523493753512N00321623WA0083000930
B1523503753516N00321625WA0083100928
B1523513753520N00321625WA0083400930
B1523523753524N00321622WA0083400933
B1523533753526N00321618WA0083400934
B1523543753529N00321615WA0083300933
B1523553753533N00321611WA0083200933
B1523563753538N00321605WA0083200932
B1523573753543N00321599WA0083400932
B1523583753546N00321592WA0083600934
B1523593753548N00321585WA0084000937
B1524003753550N00321578WA0084300940
B1524013753550N00321569WA0084500942
B1524023753549N00321560WA0084800944
B1524033753547N00321551WA0085000945
B1524043753542N00321542WA0085300948
B1524053753537N00321536WA0085500951
B1524063753531N00321532WA0085900954
B1524073753524N00321532WA0086100956
B1524083753520N00321536WA0086200958
B1524093753518N00321541WA0086200959
B1524103753519N00321545WA0086200960
B1524113753522N00321548WA0086400962
B1524123753526N00321548WA0086700965
B1524133753529N00321547WA0087000968
B1524143753532N00321545WA0087200970
B1524153753536N00321541WA0087200970
B1524163753540N00321536WA0087400971
B1524173753544N00321530WA0087700972
B1524183753546N00321524WA0088100975
B1524193753547N00321517WA0088400978
B1524203753546N00321510WA0088700981
B1524213753543N00321502WA0088800983
B1524223753540N00321495WA0089100984
B1524233753535N00321488WA0089200986
B1524243753530N00321483WA0089300988
B1524253753524N00321481WA0089500990
B1524263753519N00321481WA0089700992
B1524273753514N00321482WA0090000994
B1524283753511N00321485WA0090100997
B1524293753509N00321487WA0090501001
B1524303753509N00321491WA0090601003
B1524313753510N00321494WA0090901004
B1524323753513N00321496WA0091101006
B1524333753517N00321496WA0091201009
B1524343753522N00321493WA0091601012
B1524353753526N00321487WA0091801014
B1524363753528N00321480WA0092001016
B1524373753529N00321472WA0092301019
B1524383753528N00321465WA0092501022
B1524393753526N00321457WA0092801025
B1524403753523N00321450WA0092901028
B1524413753520N00321443WA0093101029
B1524423753515N00321437WA0093101031
B1524433753509N00321433WA0093301033
B1524443753504N00321431WA0093701035
B1524453753498N00321430WA0093901038
B1524463753494N00321430WA0094101040
B1524473753490N00321432WA0094301043
B1524483753487N00321434WA0094501046
B1524493753485N00321438WA0094701048
B1524503753485N00321441WA0095001050
B1524513753486N00321444WA0095201052
B1524523753489N00321445WA0095501054
B1524533753493N00321444WA0095601057
B1524543753498N00321441WA0095901059
B1524553753502N00321436WA0096101061
B1524563753505N00321431WA0096301064
B1524573753506N00321425WA0096501067
B1524583753507N00321418WA0096801070
B1524593753507N00321410WA0096801072
B1525003753505N00321401WA0097101073
B1525013753502N00321393WA0097201075
B1525023753497N00321386WA0097401077
B1525033753492N00321381WA0097701081
B1525043753487N00321379WA0098001083
B1525053753483N00321378WA0098201086
B1525063753479N00321380WA0098301088
B1525073753476N00321382WA0098401090
B1525083753473N00321386WA0098501092
B1525093753472N00321390WA0098601093
B1525103753472N00321395WA0098901094
B1525113753474N00321398WA0099301098
B1525123753476N00321399WA0099501102
B1525133753478N00321399WA0099601104
B1525143753481N00321399WA0099701105
B1525153753485N00321397WA0099901106
B1525163753489N00321394WA0100201107
B1525173753492N00321388WA0100501109
B1525183753493N00321381WA0100601112
B1525193753493N00321373WA0100801114
B1525203753492N00321365WA0101101116
B1525213753490N00321357WA0101301118
B1525223753486N00321351WA0101601121
B1525233753481N00321347WA0101701124
B1525243753476N00321344WA0101901125
B1525253753470N00321343WA0102101127
B1525263753466N00321345WA0102301130
B1525273753462N00321348WA0102601132
B1525283753460N00321352WA0102801134
B1525293753460N00321356WA0103001137
B1525303753461N00321360WA0103201139
B1525313753462N00321362WA0103401141
B1525323753465N00321363WA0103601142
B1525333753469N00321363WA0103801143
B1525343753473N00321362WA0103901145
B1525353753477N00321359WA0104101147
B1525363753480N00321355WA0104301150
B1525373753483N00321350WA0104501152
B1525383753484N00321343WA0104701155
B1525393753484N00321336WA0104801157
B1525403753484N00321327WA0105101159
B1525413753482N00321319WA0105301161
B1525423753478N00321313WA0105501164
B1525433753474N00321308WA0105701166
B1525443753468N00321305WA0105901167
B1525453753463N00321305WA0106101169
B1525463753458N00321306WA0106301171
B1525473753454N00321310WA0106501173
B1525483753452N00321314WA0106701176
B1525493753453N00321319WA0106801178
B1525503753454N00321323WA0107101180
B1525513753457N00321326WA0107301181
B1525523753461N00321327WA0107501184
B1525533753465N00321325WA0107701187
B1525543753468N00321320WA0107901189
B1525553753471N00321313WA0108201192
B1525563753472N00321305WA0108401194
B1525573753471N00321297WA0108601196
B1525583753468N00321290WA0108701198
B1525593753464N00321284WA0108801200
B1526003753459N00321280WA0109101201
B1526013753453N00321277WA0109401204
B1526023753448N00321276WA0109601207
B1526033753444N00321278WA0109901209
B1526043753441N00321281WA0110001212
B1526053753439N00321286WA0110101214
B1526063753438N00321291WA0110401216
B1526073753438N00321296WA0110601218
B1526083753440N00321299WA0110901221
B1526093753442N00321301WA0111101224
B1526103753446N00321302WA0111201225
B1526113753450N00321302WA0111301226
B1526123753455N00321300WA0111501228
B1526133753460N00321296WA0111801230
B1526143753463N00321291WA0112101233
B1526153753465N00321285WA0112301235
B1526163753466N00321278WA0112501238
B1526173753465N00321270WA0112701240
B1526183753462N00321264WA0112901242
B1526193753457N00321258WA0113001243
B1526203753451N00321255WA0113301245
B1526213753446N00321254WA0113601247
B1526223753441N00321255WA0113801251
B1526233753437N00321257WA0114001254
B1526243753434N00321261WA0114301256
B1526253753432N00321265WA0114401259
B1526263753431N00321270WA0114601260
B1526273753431N00321276WA0114901262
B1526283753433N00321280WA0115101264
B1526293753436N00321283WA0115201266
B1526303753440N00321284WA0115201267
B1526313753445N00321285WA0115301268
B1526323753449N00321283WA0115401269
B1526333753453N00321280WA0115701272
B1526343753456N00321276WA0115901275
B1526353753458N00321271WA0116101277
B1526363753460N00321265WA0116201278
B1526373753460N00321257WA0116201280
B1526383753458N00321249WA0116401281
B1526393753455N00321242WA0116501283
B1526403753452N00321236WA0116801286
B1526413753448N00321232WA0117001289
B1526423753444N00321228WA0117201291
B1526433753439N00321226WA0117301293
B1526443753433N00321226WA0117401294
B1526453753427N00321227WA0117701295
B1526463753422N00321229WA0117901297
B1526473753419N00321232WA0118201300
B1526483753417N00321236WA0118401303
B1526493753417N00321240WA0118501304
B1526503753419N00321244WA0118501305
B1526513753421N00321249WA0118601304
B1526523753425N00321253WA0118701305
B1526533753429N00321256WA0118801306
B1526543753434N00321257WA0119001307
B1526553753438N00321257WA0119101309
B1526563753442N00321256WA0119201310
B1526573753446N00321255WA0119201311
B1526583753450N00321251WA0119201311
B1526593753453N00321245WA0119301311
B1527003753456N00321239WA0119301312
B1527013753458N00321232WA0119501312
B1527023753459N00321225WA0119701314
B1527033753460N00321219WA0119901317
B1527043753459N00321213WA0120101319
B1527053753458N00321207WA0120201320
B1527063753455N00321200WA0120301320
B1527073753452N00321194WA0120401321
B1527083753449N00321188WA0120601323
B1527093753444N00321184WA0120801324
B1527103753439N00321182WA0120801325
B1527113753434N00321181WA0120901327
B1527123753429N00321180WA0121101328
B1527133753425N00321180WA0121301331
B1527143753421N00321179WA0121401333
B1527153753417N00321180WA0121501335
B1527163753413N00321183WA0121501335
B1527173753410N00321189WA0121401336
B1527183753409N00321195WA0121401336
B1527193753410N00321200WA0121501336
B1527203753412N00321205WA0121801339
B1527213753414N00321208WA0122001342
B1527223753416N00321210WA0122101343
B1527233753419N00321211WA0122101345
B1527243753423N00321211WA0122101344
B1527253753427N00321211WA0122101344
B1527263753432N00321210WA0122201344
B1527273753437N00321207WA0122201345
B1527283753442N00321205WA0122401346
B1527293753446N00321202WA0122601349
B1527303753449N00321200WA0122701350
B1527313753453N00321196WA0122901352
B1527323753456N00321192WA0122801353
B1527333753458N00321185WA0122701353
B1527343753460N00321177WA0122401353
B1527353753459N00321169WA0122501353
B1527363753457N00321161WA0122901354
B1527373753453N00321155WA0123101355
B1527383753449N00321150WA0123201356
B1527393753444N00321147WA0123201356
B1527403753439N00321145WA0123301356
B1527413753433N00321144WA0123301356
B1527423753428N00321145WA0123301357
B1527433753424N00321147WA0123401357
B1527443753421N00321151WA0123501358
B1527453753420N00321154WA0123701359
B1527463753419N00321158WA0123701360
B1527473753419N00321162WA0123801361
B1527483753420N00321166WA0123701360
B1527493753422N00321171WA0123701360
B1527503753424N00321175WA0123801360
B1527513753426N00321177WA0123801361
B1527523753429N00321179WA0123901361
B1527533753433N00321179WA0123801361
B1527543753437N00321179WA0123701360
B1527553753442N00321177WA0123601358
B1527563753447N00321174WA0123501357
B1527573753451N00321169WA0123501357
B1527583753455N00321165WA0123501357
B1527593753457N00321159WA0123401357
B1528003753461N00321152WA0123201357
B1528013753464N00321145WA0123501357
B1528023753467N00321138WA0123601357
B1528033753469N00321130WA0123701358
B1528043753471N00321122WA0123801359
B1528053753472N00321114WA0123801360
B1528063753474N00321107WA0124001361
B1528073753475N00321099WA0124101363
B1528083753474N00321091WA0124201364
B1528093753473N00321082WA0124201365
B1528103753470N00321073WA0124301365
B1528113753466N00321065WA0124401366
B1528123753461N00321057WA0124601367
B1528133753456N00321051WA0124801368
B1528143753451N00321047WA0124801370
B1528153753445N00321044WA0124801371
B1528163753440N00321042WA0124801371
B1528173753434N00321043WA0124701371
B1528183753429N00321044WA0124501370
B1528193753424N00321047WA0124401368
B1528203753420N00321049WA0124301368
B1528213753416N00321052WA0124401368
B1528223753414N00321055WA0124301367
B1528233753412N00321059WA0124201367
B1528243753412N00321064WA0124201366
B1528253753413N00321068WA0124101365
B1528263753414N00321072WA0124101365
B1528273753414N00321076WA0124001365
B1528283753415N00321080WA0123801364
B1528293753416N00321084WA0123801362
B1528303753417N00321089WA0123701361
B1528313753420N00321093WA0123601359
B1528323753424N00321095WA0123601359
B1528333753428N00321096WA0123601358
B1528343753433N00321095WA0123601358
B1528353753438N00321093WA0123601358
B1528363753442N00321091WA0123601358
B1528373753447N00321090WA0123701359
B1528383753452N00321088WA0123801360
B1528393753456N00321085WA0124001361
B1528403753460N00321081WA0124101363
B1528413753464N00321076WA0124201365
B1528423753467N00321072WA0124401366
B1528433753471N00321067WA0124601368
B1528443753473N00321062WA0124701369
B1528453753475N00321056WA0124801371
B1528463753476N00321048WA0124701371
B1528473753476N00321039WA0124501371
B1528483753475N00321029WA0124501370
B1528493753473N00321020WA0124501370
B1528503753471N00321011WA0124701371
B1528513753468N00321004WA0124801373
B1528523753464N00320997WA0124801374
B1528533753459N00320991WA0124801373
B1528543753453N00320985WA0124301373
B1528553753446N00320982WA0124301372
B1528563753440N00320980WA0124601371
B1528573753435N00320980WA0124801371
B1528583753430N00320982WA0125001372
B1528593753427N00320983WA0125101375
B1529003753425N00320985WA0125301377
B1529013753423N00320987WA0125301377
B1529023753423N00320991WA0125201376
B1529033753424N00320995WA0125101374
B1529043753427N00320999WA0125201373
B1529053753431N00321001WA0125301373
B1529063753435N00321001WA0125401375
B1529073753439N00320999WA0125501377
B1529083753442N00320996WA0125601379
B1529093753446N00320992WA0125601379
B1529103753450N00320987WA0125701380
B1529113753454N00320981WA0125701380
B1529123753457N00320974WA0125801380
B1529133753459N00320967WA0125801381
B1529143753460N00320958WA0125801381
B1529153753460N00320949WA0125701381
B1529163753458N00320940WA0125601381
B1529173753455N00320931WA0125701381
B1529183753451N00320922WA0125701381
B1529193753446N00320915WA0125801382
B1529203753441N00320909WA0125901383
B1529213753435N00320904WA0125901384
B1529223753428N00320900WA0126001384
B1529233753421N00320897WA0126001384
B1529243753415N00320894WA0126101384
B1529253753410N00320893WA0126101385
B1529263753405N00320894WA0126101385
B1529273753401N00320896WA0125901385
B1529283753399N00320899WA0125701383
B1529293753398N00320904WA0125601381
B1529303753400N00320908WA0125501378
B1529313753403N00320912WA0125401377
B1529323753408N00320913WA0125501377
B1529333753412N00320912WA0125601378
B1529343753416N00320908WA0125801380
B1529353753419N00320905WA0126001382
B1529363753421N00320900WA0126101383
B1529373753423N00320894WA0126001384
B1529383753425N00320886WA0125901383
B1529393753426N00320876WA0125701382
B1529403753425N00320866WA0125601380
B1529413753422N00320855WA0125601380
B1529423753419N00320846WA0125801381
B1529433753415N00320838WA0125901382
B1529443753410N00320832WA0126101384
B1529453753405N00320827WA0126201385
B1529463753399N00320824WA0126201386
B1529473753394N00320821WA0126101386
B1529483753389N00320820WA0126001386
B1529493753384N00320821WA0126001386
B1529503753380N00320823WA0125801385
B1529513753376N00320826WA0125701383
B1529523753373N00320829WA0125601382
B1529533753372N00320833WA0125501381
B1529543753370N00320838WA0125401380
B1529553753369N00320843WA0125301379
B1529563753367N00320847WA0125301378
B1529573753365N00320852WA0125301377
B1529583753362N00320856WA0125301377
B1529593753360N00320860WA0125101376
B1530003753357N00320864WA0125001375
B1530013753355N00320869WA0125001374
B1530023753353N00320874WA0124901373
B1530033753351N00320878WA0124801372
B1530043753348N00320881WA0124701372
B1530053753346N00320883WA0124701373
B1530063753345N00320886WA0124701373
B1530073753345N00320889WA0124901373
B1530083753345N00320894WA0124901372
B1530093753345N00320898WA0125001373
B1530103753344N00320901WA0125101374
B1530113753343N00320905WA0125201375
B1530123753343N00320908WA0125301376
B1530133753343N00320911WA0125501377
B1530143753343N00320914WA0125501378
B1530153753344N00320918WA0125601378
B1530163753344N00320921WA0125701380
B1530173753344N00320924WA0125701381
B1530183753344N00320928WA0125701381
B1530193753344N00320931WA0125801382
B1530203753345N00320935WA0125701382
B1530213753345N00320937WA0125601382
B1530223753346N00320940WA0125601382
B1530233753346N00320943WA0125501381
B1530243753348N00320946WA0125201380
B1530253753350N00320949WA0125001378
B1530263753352N00320951WA0125101377
B1530273753355N00320952WA0125001376
B1530283753360N00320952WA0124801374
B1530293753364N00320951WA0124601372
B1530303753369N00320949WA0124401370
B1530313753374N00320947WA0124201368
B1530323753379N00320945WA0124001366
B1530333753384N00320943WA0123901364
B1530343753389N00320941WA0123801362
B1530353753394N00320939WA0123801361
B1530363753399N00320936WA0123601360
B1530373753404N00320933WA0123501359
B1530383753409N00320929WA0123301358
B1530393753413N00320924WA0123101357
B1530403753418N00320920WA0122901356
B1530413753423N00320916WA0123001355
B1530423753427N00320913WA0123401356
B1530433753429N00320910WA0123601358
B1530443753431N00320907WA0123701359
B1530453753433N00320902WA0123601360
B1530463753435N00320896WA0123401359
B1530473753438N00320889WA0123101357
B1530483753441N00320881WA0123101355
B1530493753443N00320874WA0123101355
B1530503753445N00320869WA0123201357
B1530513753447N00320865WA0123301358
B1530523753449N00320860WA0123201358
B1530533753452N00320854WA0123001356
B1530543753454N00320846WA0122801353
B1530553753457N00320839WA0122701351
B1530563753460N00320832WA0122701351
B1530573753463N00320827WA0122701350
B1530583753465N00320821WA0122601351
B1530593753468N00320815WA0122301350
B1531003753471N00320809WA0122201349
B1531013753474N00320803WA0122201347
B1531023753477N00320796WA0122001345
B1531033753481N00320789WA0121901343
B1531043753484N00320783WA0122001343
B1531053753487N00320777WA0122201345
B1531063753490N00320772WA0122201346
B1531073753492N00320766WA0122501348
B1531083753494N00320761WA0122601349
B1531093753496N00320755WA0122701351
B1531103753498N00320749WA0122601351
B1531113753501N00320742WA0122501351
B1531123753504N00320734WA0122501351
B1531133753507N00320726WA0122701351
B1531143753511N00320719WA0122901353
B1531153753514N00320713WA0123201356
B1531163753517N00320708WA0123401358
B1531173753519N00320702WA0123601360
B1531183753520N00320695WA0123801362
B1531193753520N00320686WA0123801364
B1531203753517N00320677WA0123801364
B1531213753512N00320669WA0123801364
B1531223753506N00320663WA0124101365
B1531233753501N00320660WA0124301367
B1531243753496N00320659WA0124501369
B1531253753491N00320660WA0124501370
B1531263753487N00320662WA0124601371
B1531273753484N00320665WA0124701372
B1531283753481N00320669WA0124701372
B1531293753481N00320673WA0124801372
B1531303753481N00320677WA0125001374
B1531313753483N00320680WA0125101376
B1531323753485N00320681WA0125301378
B1531333753488N00320682WA0125301379
B1531343753491N00320681WA0125401380
B1531353753494N00320680WA0125501381
B1531363753497N00320679WA0125601382
B1531373753501N00320677WA0125801383
B1531383753505N00320674WA0125901384
B1531393753508N00320669WA0126101385
B1531403753510N00320663WA0126301387
B1531413753511N00320655WA0126501389
B1531423753509N00320647WA0126701390
B1531433753506N00320639WA0126801392
B1531443753502N00320632WA0126901393
B1531453753497N00320626WA0127001394
B1531463753490N00320622WA0127201396
B1531473753484N00320620WA0127301397
B1531483753478N00320620WA0127501398
B1531493753473N00320623WA0127601400
B1531503753470N00320626WA0127701401
B1531513753469N00320630WA0127801403
B1531523753469N00320634WA0127701403
B1531533753470N00320638WA0127601404
B1531543753473N00320641WA0128101405
B1531553753475N00320643WA0128401407
B1531563753478N00320643WA0128501409
B1531573753482N00320641WA0128601411
B1531583753485N00320638WA0128801413
B1531593753488N00320633WA0129001415
B1532003753490N00320626WA0129101416
B1532013753490N00320619WA0129201418
B1532023753488N00320610WA0129201419
B1532033753484N00320602WA0129401420
B1532043753478N00320594WA0129501420
B1532053753472N00320589WA0129701421
B1532063753466N00320585WA0129901424
B1532073753460N00320583WA0130101427
B1532083753454N00320583WA0130301429
B1532093753449N00320584WA0130401430
B1532103753445N00320586WA0130301431
B1532113753440N00320589WA0130301432
B1532123753437N00320595WA0130301433
B1532133753434N00320600WA0130401433
B1532143753432N00320606WA0130701434
B1532153753430N00320611WA0130901437
B1532163753429N00320615WA0131101440
B1532173753430N00320618WA0131301442
B1532183753431N00320621WA0131401443
B1532193753434N00320622WA0131401443
B1532203753438N00320622WA0131301442
B1532213753442N00320620WA0131201441
B1532223753446N00320616WA0131201441
B1532233753449N00320610WA0131001441
B1532243753453N00320603WA0130601440
B1532253753456N00320595WA0130901439
B1532263753458N00320588WA0131001439
B1532273753461N00320580WA0131201439
B1532283753463N00320572WA0131301439
B1532293753464N00320564WA0131401440
B1532303753464N00320556WA0131501441
B1532313753463N00320547WA0131601443
B1532323753461N00320539WA0131701444
B1532333753458N00320531WA0131701444
B1532343753453N00320524WA0131801445
B1532353753447N00320517WA0131601445
B1532363753441N00320512WA0131401445
B1532373753433N00320510WA0131701445
B1532383753426N00320509WA0131901446
B1532393753420N00320510WA0132001446
B1532403753415N00320512WA0132101447
B1532413753411N00320514WA0132201449
B1532423753408N00320518WA0132401450
B1532433753407N00320523WA0132401451
B1532443753407N00320527WA0132501451
B1532453753408N00320531WA0132701453
B1532463753410N00320532WA0132901456
B1532473753413N00320532WA0133001458
B1532483753417N00320530WA0133101458
B1532493753421N00320526WA0133001458
B1532503753424N00320520WA0133001458
B1532513753427N00320512WA0132901458
B1532523753429N00320503WA0133001458
B1532533753430N00320494WA0133101458
B1532543753430N00320486WA0133301459
B1532553753430N00320478WA0133301460
B1532563753429N00320470WA0133301461
B1532573753427N00320461WA0133401461
B1532583753423N00320453WA0133301461
B1532593753418N00320445WA0133201460
B1533003753411N00320439WA0133201459
B1533013753404N00320436WA0133201459
B1533023753397N00320436WA0133301460
B1533033753391N00320437WA0133401460
B1533043753387N00320439WA0133501461
B1533053753383N00320442WA0133601462
B1533063753380N00320444WA0133701463
B1533073753378N00320447WA0133801464
B1533083753377N00320451WA0133901465
B1533093753377N00320454WA0133801465
B1533103753378N00320458WA0133901466
B1533113753380N00320460WA0134101467
B1533123753382N00320461WA0134201469
B1533133753385N00320461WA0134201470
B1533143753389N00320459WA0134301471
B1533153753392N00320457WA0134301471
B1533163753396N00320453WA0134301472
B1533173753399N00320448WA0134301472
B1533183753402N00320443WA0134301472
B1533193753405N00320436WA0134301472
B1533203753407N00320428WA0134301472
B1533213753408N00320421WA0134401472
B1533223753410N00320414WA0134501473
B1533233753411N00320406WA0134701474
B1533243753411N00320398WA0134701475
B1533253753411N00320389WA0134701475
B1533263753409N00320380WA0134801476
B1533273753406N00320371WA0135001477
B1533283753402N00320364WA0135201479
B1533293753398N00320358WA0135201480
B1533303753393N00320353WA0135301482
B1533313753387N00320350WA0135301482
B1533323753381N00320347WA0134901482
B1533333753375N00320346WA0134901482
B1533343753368N00320347WA0135001482
B1533353753362N00320350WA0134801480
B1533363753358N00320355WA0134801479
B1533373753355N00320359WA0135001480
B1533383753353N00320363WA0135201483
B1533393753353N00320365WA0135401486
B1533403753353N00320366WA0135401487
B1533413753355N00320367WA0135401488
B1533423753358N00320367WA0135301488
B1533433753362N00320366WA0135201486
B1533443753367N00320364WA0135201486
B1533453753371N00320361WA0135401486
B1533463753374N00320358WA0135501488
B1533473753377N00320354WA0135601490
B1533483753379N00320349WA0135601491
B1533493753381N00320343WA0135601491
B1533503753383N00320335WA0135601491
B1533513753384N00320326WA0135601491
B1533523753384N00320316WA0135801491
B1533533753383N00320308WA0135901491
B1533543753380N00320299WA0135901492
B1533553753376N00320292WA0135901493
B1533563753372N00320285WA0135901492
B1533573753367N00320278WA0135801492
B1533583753362N00320272WA0136001492
B1533593753357N00320267WA0136101493
B1534003753351N00320264WA0136201494
B1534013753346N00320261WA0136201495
B1534023753341N00320261WA0136201495
B1534033753335N00320260WA0136101495
B1534043753329N00320260WA0136101494
B1534053753324N00320260WA0136101494
B1534063753318N00320260WA0136101494
B1534073753313N00320260WA0136101494
B1534083753309N00320262WA0136201494
B1534093753305N00320264WA0136001494
B1534103753303N00320267WA0135901492
B1534113753301N00320272WA0135901491
B1534123753301N00320276WA0135901491
B1534133753302N00320279WA0136001492
B1534143753304N00320281WA0136101493
B1534153753306N00320281WA0136101494
B1534163753309N00320280WA0136201493
B1534173753312N00320279WA0136201494
B1534183753315N00320277WA0136201494
B1534193753318N00320274WA0136201494
B1534203753322N00320271WA0136201494
B1534213753326N00320267WA0136201494
B1534223753329N00320262WA0136301494
B1534233753332N00320257WA0136301495
B1534243753334N00320251WA0136301495
B1534253753335N00320244WA0136301495
B1534263753336N00320237WA0136301495
B1534273753337N00320229WA0136301495
B1534283753338N00320221WA0136301495
B1534293753339N00320213WA0136401495
B1534303753340N00320205WA0136501496
B1534313753341N00320198WA0136601497
B1534323753341N00320189WA0136601498
B1534333753340N00320181WA0136701499
B1534343753339N00320173WA0136801500
B1534353753337N00320166WA0136901501
B1534363753335N00320159WA0136901501
B1534373753331N00320152WA0137001502
B1534383753328N00320145WA0137001502
B1534393753323N00320139WA0136901502
B1534403753318N00320134WA0136901502
B1534413753312N00320130WA0136701502
B1534423753306N00320128WA0136701502
B1534433753300N00320126WA0136901502
B1534443753295N00320126WA0137001502
B1534453753290N00320127WA0137101502
B1534463753285N00320128WA0137201503
B1534473753282N00320130WA0137301504
B1534483753280N00320133WA0137301505
B1534493753279N00320136WA0137301505
B1534503753279N00320139WA0137301505
B1534513753280N00320143WA0137201504
B1534523753282N00320146WA0137201504
B1534533753285N00320148WA0137201504
B1534543753289N00320149WA0137401504
B1534553753293N00320149WA0137401504
B1534563753297N00320149WA0137401505
B1534573753302N00320148WA0137501506
B1534583753306N00320146WA0137501507
B1534593753310N00320142WA0137601508
B1535003753314N00320138WA0137601509
B1535013753317N00320133WA0137701509
B1535023753320N00320127WA0137701510
B1535033753322N00320121WA0137801511
B1535043753324N00320113WA0137801511
B1535053753325N00320106WA0137801511
B1535063753325N00320097WA0137601511
B1535073753326N00320089WA0137501511
B1535083753327N00320081WA0137501510
B1535093753327N00320073WA0137501510
B1535103753328N00320065WA0137401509
B1535113753329N00320055WA0137401508
B1535123753330N00320046WA0137301507
B1535133753332N00320036WA0137501507
B1535143753333N00320029WA0137801510
B1535153753332N00320022WA0138001513
B1535163753330N00320015WA0138201515
B1535173753327N00320008WA0138101515
B1535183753323N00320001WA0137901513
B1535193753317N00319994WA0137701511
B1535203753311N00319988WA0137701509
B1535213753304N00319983WA0137701510
B1535223753297N00319980WA0137801510
B1535233753291N00319978WA0137901510
B1535243753284N00319979WA0137801510
B1535253753278N00319981WA0137701510
B1535263753273N00319985WA0137601509
B1535273753268N00319990WA0137601509
B1535283753265N00319993WA0137701510
B1535293753262N00319996WA0137801511
B1535303753260N00320000WA0137701511
B1535313753259N00320004WA0137601510
B1535323753260N00320008WA0137501508
B1535333753262N00320011WA0137101506
B1535343753265N00320013WA0137101504
B1535353753269N00320014WA0137101503
B1535363753273N00320012WA0137001502
B1535373753278N00320011WA0137001501
B1535383753281N00320008WA0137201502
B1535393753285N00320005WA0137301503
B1535403753288N00320000WA0137301504
B1535413753292N00319995WA0137301504
B1535423753296N00319989WA0137201504
B1535433753299N00319983WA0137201504
B1535443753303N00319977WA0137301504
B1535453753306N00319970WA0137401504
B1535463753308N00319963WA0137501505
B1535473753310N00319955WA0137501505
B1535483753312N00319948WA0137501506
B1535493753314N00319941WA0137701507
B1535503753315N00319935WA0137801509
B1535513753316N00319928WA0137901510
B1535523753316N00319920WA0137901511
B1535533753315N00319912WA0138001511
B1535543753313N00319903WA0138001511
B1535553753311N00319894WA0138001511
B1535563753307N00319886WA0138101512
B1535573753304N00319879WA0138101514
B1535583753299N00319872WA0138001513
B1535593753294N00319865WA0137901512
B1536003753288N00319860WA0137801511
B1536013753280N00319856WA0137801510
B1536023753273N00319854WA0137801510
B1536033753267N00319853WA0138001511
B1536043753262N00319853WA0138101511
B1536053753258N00319855WA0138101511
B1536063753254N00319857WA0137901511
B1536073753251N00319861WA0137701510
B1536083753250N00319866WA0137501510
B1536093753251N00319869WA0137801510
B1536103753252N00319872WA0138001510
B1536113753254N00319874WA0138001512
B1536123753256N00319875WA0138101513
B1536133753258N00319875WA0138201513
B1536143753261N00319874WA0138101513
B1536153753265N00319872WA0138001512
B1536163753269N00319869WA0138001511
B1536173753273N00319866WA0138201512
B1536183753277N00319863WA0138401514
B1536193753280N00319860WA0138601517
B1536203753282N00319857WA0138701518
B1536213753286N00319853WA0138801519
B1536223753289N00319849WA0138801520
B1536233753291N00319844WA0138901521
B1536243753292N00319838WA0138801521
B1536253753293N00319830WA0138701521
B1536263753292N00319822WA0138501520
B1536273753290N00319814WA0138401519
B1536283753287N00319806WA0138301518
B1536293753283N00319798WA0138201517
B1536303753279N00319791WA0138101516
B1536313753274N00319785WA0138001515
B1536323753268N00319780WA0138001515
B1536333753261N00319776WA0138001514
B1536343753254N00319774WA0137801514
B1536353753248N00319774WA0137701514
B1536363753243N00319776WA0137901513
B1536373753239N00319779WA0138001513
B1536383753236N00319783WA0137901512
B1536393753233N00319788WA0138001512
B1536403753232N00319792WA0138201514
B1536413753232N00319795WA0138201515
B1536423753234N00319798WA0138301516
B1536433753237N00319800WA0138401516
B1536443753239N00319802WA0138501517
B1536453753242N00319802WA0138701519
B1536463753244N00319803WA0138801520
B1536473753247N00319803WA0138801520
B1536483753250N00319802WA0138801521
B1536493753254N00319800WA0138901521
B1536503753258N00319798WA0138901521
B1536513753262N00319795WA0139001522
B1536523753265N00319792WA0138901522
B1536533753269N00319788WA0138801522
B1536543753272N00319783WA0138801522
B1536553753275N00319778WA0138601521
B1536563753278N00319771WA0138201519
B1536573753280N00319765WA0137801518
B1536583753283N00319760WA0137701516
B1536593753287N00319755WA0137701515
B1537003753291N00319750WA0137801513
B1537013753295N00319746WA0137701512
B1537023753298N00319741WA0137601512
B1537033753301N00319737WA0137501511
B1537043753305N00319733WA0137401510
B1537053753309N00319729WA0137201508
B1537063753313N00319725WA0137001507
B1537073753317N00319721WA0136901505
B1537083753321N00319717WA0136701504
B1537093753325N00319713WA0136501502
B1537103753329N00319709WA0136401501
B1537113753333N00319705WA0136201499
B1537123753337N00319702WA0136001497
B1537133753341N00319698WA0135801495
B1537143753345N00319695WA0135601493
B1537153753349N00319691WA0135601491
B1537163753353N00319688WA0135301489
B1537173753357N00319685WA0135101487
B1537183753362N00319682WA0134901484
B1537193753366N00319679WA0134701482
B1537203753371N00319676WA0134501480
B1537213753376N00319673WA0134401478
B1537223753380N00319670WA0134201477
B1537233753384N00319667WA0134001475
B1537243753388N00319665WA0133801474
B1537253753393N00319663WA0133601471
B1537263753398N00319660WA0133401469
B1537273753403N00319658WA0133101466
B1537283753408N00319655WA0132801463
B1537293753413N00319652WA0132501460
B1537303753418N00319650WA0132301457
B1537313753423N00319648WA0132001455
B1537323753427N00319646WA0131701452
B1537333753432N00319644WA0131701450
B1537343753437N00319642WA0131501447
B1537353753441N00319639WA0131201445
B1537363753446N00319636WA0131001442
B1537373753450N00319633WA0130801440
B1537383753455N00319630WA0130501437
B1537393753459N00319627WA0130201435
B1537403753464N00319625WA0130101432
B1537413753468N00319622WA0129801429
B1537423753473N00319618WA0129501426
B1537433753479N00319615WA0129201423
B1537443753484N00319612WA0128901420
B1537453753490N00319609WA0128701417
B1537463753495N00319605WA0128501415
B1537473753499N00319601WA0128401414
B1537483753504N00319598WA0128301412
B1537493753509N00319594WA0128001410
B1537503753514N00319591WA0127701407
B1537513753519N00319588WA0127501404
B1537523753524N00319584WA0127301401
B1537533753530N00319579WA0127101399
B1537543753535N00319575WA0126901397
B1537553753539N00319571WA0126801395
B1537563753544N00319566WA0126501393
B1537573753549N00319561WA0126201391
B1537583753554N00319556WA0125901388
B1537593753559N00319550WA0125701385
B1538003753565N00319545WA0125501382
B1538013753570N00319540WA0125401381
B1538023753575N00319536WA0125301380
B1538033753580N00319532WA0125201378
B1538043753585N00319528WA0124901376
B1538053753590N00319523WA0124601373
B1538063753596N00319518WA0124301370
B1538073753601N00319514WA0124201369
B1538083753606N00319510WA0124101368
B1538093753610N00319506WA0123901366
B1538103753615N00319501WA0123701365
B1538113753620N00319496WA0123501362
B1538123753626N00319491WA0123301359
B1538133753631N00319487WA0123101356
B1538143753636N00319483WA0122901354
B1538153753641N00319480WA0122801353
B1538163753645N00319476WA0122501351
B1538173753650N00319472WA0122201348
B1538183753655N00319468WA0122001345
B1538193753661N00319463WA0121801343
B1538203753666N00319459WA0121701342
B1538213753671N00319454WA0121601341
B1538223753675N00319450WA0121401340
B1538233753679N00319445WA0121101338
B1538243753684N00319440WA0120801335
B1538253753689N00319435WA0120601332
B1538263753694N00319431WA0120401329
B1538273753700N00319426WA0120201327
B1538283753704N00319422WA0119801325
B1538293753709N00319418WA0119601323
B1538303753714N00319412WA0119501320
B1538313753719N00319407WA0119301317
B1538323753725N00319402WA0119101315
B1538333753730N00319397WA0118901312
B1538343753735N00319392WA0118701310
B1538353753740N00319387WA0118501308
B1538363753744N00319381WA0118301306
B1538373753749N00319376WA0118101304
B1538383753754N00319370WA0117901302
B1538393753759N00319365WA0117701299
B1538403753764N00319359WA0117501297
B1538413753769N00319353WA0117301296
B1538423753772N00319345WA0117101294
B1538433753775N00319337WA0116801291
B1538443753778N00319328WA0116601289
B1538453753782N00319320WA0116401286
B1538463753786N00319312WA0116101284
B1538473753791N00319306WA0116001282
B1538483753796N00319300WA0115801280
B1538493753800N00319294WA0115601278
B1538503753805N00319287WA0115401276
B1538513753809N00319281WA0115201273
B1538523753814N00319275WA0115001271
B1538533753818N00319269WA0114801269
B1538543753824N00319263WA0114601267
B1538553753829N00319258WA0114401264
B1538563753834N00319253WA0114101262
B1538573753839N00319248WA0114001260
B1538583753844N00319243WA0113801258
B1538593753849N00319238WA0113601256
B1539003753854N00319233WA0113401253
B1539013753859N00319229WA0113201251
B1539023753864N00319224WA0113001250
B1539033753869N00319219WA0112801248
B1539043753874N00319215WA0112601246
B1539053753879N00319211WA0112401243
B1539063753884N00319207WA0112101241
B1539073753890N00319203WA0112001239
B1539083753895N00319199WA0111801237
B1539093753900N00319196WA0111601236
B1539103753906N00319192WA0111501234
B1539113753911N00319189WA0111201232
B1539123753917N00319186WA0111201230
B1539133753922N00319183WA0111001228
B1539143753928N00319181WA0110801227
B1539153753934N00319178WA0110701225
B1539163753939N00319176WA0110401223
B1539173753945N00319173WA0110201221
B1539183753950N00319170WA0110001219
B1539193753956N00319168WA0109801216
B1539203753962N00319165WA0109401214
B1539213753967N00319163WA0109101211
B1539223753973N00319160WA0109101209
B1539233753979N00319157WA0109001207
B1539243753984N00319154WA0108801205
B1539253753990N00319150WA0108601203
B1539263753995N00319147WA0108401201
B1539273754000N00319143WA0108101198
B1539283754006N00319139WA0107901196
B1539293754012N00319135WA0107701193
B1539303754017N00319131WA0107501191
B1539313754022N00319127WA0107401189
B1539323754027N00319124WA0107201187
B1539333754032N00319120WA0106901185
B1539343754037N00319116WA0106601182
B1539353754042N00319112WA0106301179
B1539363754047N00319108WA0106001175
B1539373754052N00319103WA0105801173
B1539383754056N00319097WA0105501170
B1539393754060N00319091WA0105201167
B1539403754064N00319086WA0105101165
B1539413754069N00319081WA0104901162
B1539423754074N00319077WA0104701160
B1539433754079N00319074WA0104501159
B1539443754083N00319069WA0104301157
B1539453754087N00319065WA0104001155
B1539463754092N00319060WA0103601152
B1539473754096N00319055WA0103301149
B1539483754101N00319051WA0103401147
B1539493754106N00319047WA0103201145
B1539503754111N00319044WA0103101144
B1539513754115N00319040WA0102901143
B1539523754119N00319037WA0102801141
B1539533754124N00319034WA0102501138
B1539543754129N00319030WA0102301135
B1539553754134N00319027WA0102001133
B1539563754138N00319023WA0101901131
B1539573754143N00319019WA0101801130
B1539583754147N00319015WA0101701129
B1539593754152N00319010WA0101501127
B1540003754157N00319006WA0101301125
B1540013754162N00319002WA0101201123
B1540023754167N00318999WA0101201122
B1540033754171N00318995WA0101101122
B1540043754175N00318991WA0101001121
B1540053754178N00318986WA0100801120
B1540063754181N00318980WA0100601118
B1540073754185N00318974WA0100301116
B1540083754189N00318968WA0100001113
B1540093754193N00318964WA0099701111
B1540103754198N00318960WA0099501107
B1540113754202N00318955WA0099301105
B1540123754206N00318950WA0099101102
B1540133754209N00318945WA0098801100
B1540143754212N00318939WA0098601097
B1540153754216N00318933WA0098401094
B1540163754221N00318928WA0098101092
B1540173754225N00318923WA0098001089
B1540183754229N00318918WA0097901088
B1540193754233N00318914WA0097801088
B1540203754238N00318909WA0097701087
B1540213754243N00318905WA0097601086
B1540223754248N00318900WA0097601085
B1540233754253N00318895WA0097701084
B1540243754258N00318891WA0097901085
B1540253754261N00318887WA0097801087
B1540263754265N00318882WA0097501086
B1540273754270N00318877WA0097201083
B1540283754276N00318873WA0096801081
B1540293754283N00318870WA0096501078
B1540303754288N00318867WA0096501076
B1540313754293N00318864WA0096501076
B1540323754296N00318862WA0096301076
B1540333754301N00318860WA0096201075
B1540343754306N00318857WA0095901072
B1540353754311N00318854WA0095501067
B1540363754317N00318852WA0095201063
B1540373754322N00318849WA0095201061
B1540383754326N00318846WA0095101060
B1540393754330N00318843WA0094901058
B1540403754334N00318840WA0094601056
B1540413754339N00318836WA0094201052
B1540423754344N00318832WA0094101049
B1540433754349N00318827WA0094001047
B1540443754352N00318822WA0093901046
B1540453754356N00318817WA0093601045
B1540463754360N00318812WA0093301043
B1540473754364N00318807WA0093101041
B1540483754370N00318803WA0092901039
B1540493754375N00318798WA0092701036
B1540503754380N00318793WA0092601034
B1540513754384N00318788WA0092601033
B1540523754388N00318784WA0092501032
B1540533754393N00318780WA0092201030
B1540543754397N00318776WA0092001028
B1540553754402N00318771WA0091801025
B1540563754407N00318765WA0091601022
B1540573754411N00318759WA0091301020
B1540583754415N00318753WA0091101018
B1540593754420N00318748WA0091001016
B1541003754424N00318743WA0090701013
B1541013754429N00318739WA0090401010
B1541023754434N00318735WA0090201008
B1541033754439N00318731WA0090101006
B1541043754444N00318727WA0090001004
B1541053754449N00318724WA0089801002
B1541063754454N00318721WA0089601000
B1541073754459N00318719WA0089400998
B1541083754463N00318715WA0089300996
B1541093754468N00318710WA0089300995
B1541103754473N00318704WA0089200993
B1541113754477N00318699WA0089100992
B1541123754481N00318693WA0089000991
B1541133754485N00318688WA0088800990
B1541143754490N00318683WA0088400988
B1541153754495N00318677WA0088300986
B1541163754500N00318671WA0088300984
B1541173754504N00318665WA0088200983
B1541183754508N00318659WA0088100982
B1541193754512N00318654WA0088000981
B1541203754517N00318648WA0087700980
B1541213754521N00318643WA0087500978
B1541223754526N00318637WA0087300976
B1541233754531N00318632WA0087200974
B1541243754535N00318628WA0087000972
B1541253754539N00318623WA0086800970
B1541263754543N00318618WA0086600968
B1541273754547N00318613WA0086300966
B1541283754551N00318608WA0086100963
B1541293754556N00318602WA0085900961
B1541303754560N00318597WA0085800959
B1541313754565N00318593WA0085600957
B1541323754569N00318589WA0085500956
B1541333754574N00318585WA0085400955
B1541343754578N00318579WA0085300954
B1541353754582N00318573WA0085100952
B1541363754586N00318567WA0084900950
B1541373754589N00318561WA0084700948
B1541383754593N00318555WA0084500946
B1541393754597N00318549WA0084300944
B1541403754602N00318543WA0083900942
B1541413754607N00318538WA0083700940
B1541423754612N00318534WA0083800938
B1541433754616N00318530WA0083700937
B1541443754620N00318526WA0083600936
B1541453754625N00318521WA0083400934
B1541463754629N00318516WA0083200933
B1541473754634N00318511WA0083000931
B1541483754640N00318506WA0082800929
B1541493754645N00318503WA0082800927
B1541503754650N00318500WA0082800926
B1541513754654N00318497WA0082700926
B1541523754659N00318493WA0082500924
B1541533754664N00318489WA0082300922
B1541543754669N00318485WA0082100920
B1541553754675N00318482WA0081900918
B1541563754680N00318479WA0081900917
B1541573754685N00318477WA0081800916
B1541583754690N00318474WA0081600915
B1541593754696N00318469WA0081500913
B1542003754702N00318464WA0081300911
B1542013754708N00318460WA0081100909
B1542023754714N00318457WA0081000909
B1542033754719N00318455WA0081000908
B1542043754723N00318453WA0081100907
B1542053754727N00318451WA0080900906
B1542063754732N00318449WA0080700903
B1542073754738N00318448WA0080400900
B1542083754744N00318447WA0080100897
B1542093754750N00318446WA0080100895
B1542103754755N00318445WA0080100896
B1542113754759N00318444WA0080000896
B1542123754763N00318443WA0079900895
B1542133754768N00318443WA0079800894
B1542143754773N00318442WA0079500892
B1542153754779N00318441WA0079400890
B1542163754785N00318439WA0079400889
B1542173754790N00318436WA0079400890
B1542183754795N00318432WA0079400890
B1542193754799N00318429WA0079400890
B1542203754804N00318425WA0079300889
B1542213754809N00318421WA0079100888
B1542223754815N00318416WA0078900887
B1542233754820N00318411WA0078900885
B1542243754825N00318406WA0078900884
B1542253754830N00318401WA0078900884
B1542263754834N00318396WA0078800884
B1542273754838N00318391WA0078500882
B1542283754843N00318387WA0078100880
B1542293754848N00318382WA0078000879
B1542303754853N00318377WA0078000877
B1542313754858N00318372WA0077900875
B1542323754862N00318367WA0077800874
B1542333754866N00318363WA0077600872
B1542343754871N00318359WA0077400870
B1542353754876N00318355WA0077200868
B1542363754881N00318351WA0077100866
B1542373754885N00318346WA0077100865
B1542383754889N00318341WA0077100864
B1542393754893N00318336WA0076900864
B1542403754897N00318331WA0076700863
B1542413754902N00318326WA0076600862
B1542423754907N00318322WA0076400860
B1542433754912N00318318WA0076400859
B1542443754917N00318314WA0076300859
B1542453754921N00318311WA0076300859
B1542463754925N00318308WA0076200858
B1542473754929N00318304WA0076000855
B1542483754934N00318300WA0075700853
B1542493754940N00318296WA0075500851
B1542503754945N00318293WA0075400849
B1542513754950N00318290WA0075200847
B1542523754955N00318288WA0075100846
B1542533754959N00318285WA0074900845
B1542543754964N00318281WA0074700843
B1542553754969N00318278WA0074600841
B1542563754974N00318275WA0074500839
B1542573754978N00318273WA0074400838
B1542583754983N00318271WA0074500836
B1542593754988N00318269WA0074200835
B1543003754993N00318267WA0074100833
B1543013754998N00318264WA0074000832
B1543023755002N00318261WA0073900830
B1543033755006N00318257WA0073700829
B1543043755010N00318251WA0073500827
B1543053755014N00318245WA0073100824
B1543063755018N00318239WA0072900821
B1543073755023N00318233WA0072800819
B1543083755027N00318227WA0072500817
B1543093755031N00318222WA0072300815
B1543103755035N00318217WA0072100813
B1543113755039N00318211WA0071900810
B1543123755043N00318206WA0071600807
B1543133755047N00318201WA0071400804
B1543143755052N00318196WA0071200802
B1543153755055N00318191WA0071000799
B1543163755059N00318185WA0070900798
B1543173755063N00318180WA0070800796
B1543183755066N00318174WA0070700795
B1543193755071N00318168WA0070500794
B1543203755076N00318161WA0070700793
B1543213755081N00318155WA0070800792
B1543223755086N00318150WA0071000794
B1543233755091N00318146WA0071200797
B1543243755094N00318143WA0071300799
B1543253755097N00318139WA0071500800
B1543263755099N00318133WA0071600802
B1543273755098N00318126WA0071800803
B1543283755096N00318119WA0071800804
B1543293755092N00318113WA0072000805
B1543303755087N00318108WA0072100806
B1543313755081N00318106WA0072100807
B1543323755076N00318107WA0072100808
B1543333755073N00318110WA0072000808
B1543343755071N00318114WA0072100807
B1543353755071N00318119WA0072000807
B1543363755072N00318122WA0072100807
B1543373755074N00318124WA0072100808
B1543383755076N00318125WA0071900808
B1543393755079N00318128WA0071400807
B1543403755083N00318130WA0071500805
B1543413755089N00318131WA0071700804
B1543423755095N00318130WA0071900804
B1543433755100N00318128WA0072100807
B1543443755104N00318124WA0072500812
B1543453755106N00318120WA0072900816
B1543463755106N00318116WA0073000819
B1543473755106N00318110WA0073100821
B1543483755105N00318102WA0073100822
B1543493755102N00318095WA0073200821
B1543503755098N00318088WA0073300822
B1543513755093N00318083WA0073500823
B1543523755088N00318081WA0073800826
B1543533755084N00318081WA0073900828
B1543543755080N00318083WA0074100830
B1543553755079N00318086WA0074100831
B1543563755080N00318091WA0074000830
B1543573755084N00318095WA0073900829
B1543583755089N00318098WA0074100829
B1543593755094N00318099WA0074400832
B1544003755098N00318097WA0074600836
B1544013755101N00318095WA0074900840
B1544023755103N00318092WA0075100842
B1544033755106N00318087WA0075300844
B1544043755109N00318081WA0075300846
B1544053755112N00318074WA0075500847
B1544063755112N00318066WA0075800850
B1544073755111N00318059WA0076100853
B1544083755108N00318053WA0076300855
B1544093755103N00318049WA0076500857
B1544103755098N00318048WA0076600858
B1544113755092N00318049WA0076800860
B1544123755088N00318052WA0077100861
B1544133755085N00318056WA0077200864
B1544143755084N00318060WA0077400866
B1544153755084N00318064WA0077700868
B1544163755085N00318068WA0077700870
B1544173755087N00318071WA0077900871
B1544183755091N00318074WA0077900871
B1544193755096N00318074WA0078000871
B1544203755102N00318073WA0078000870
B1544213755107N00318071WA0078100872
B1544223755111N00318067WA0078500874
B1544233755114N00318062WA0078800877
B1544243755115N00318056WA0078900878
B1544253755114N00318049WA0079100880
B1544263755112N00318042WA0079200882
B1544273755107N00318036WA0079400884
B1544283755102N00318033WA0079700886
B1544293755096N00318032WA0079900888
B1544303755092N00318034WA0080100890
B1544313755089N00318037WA0080300893
B1544323755087N00318042WA0080500895
B1544333755087N00318047WA0080600896
B1544343755087N00318052WA0080700898
B1544353755088N00318057WA0080800899
B1544363755089N00318062WA0080900900
B1544373755093N00318065WA0081000901
B1544383755098N00318066WA0080900901
B1544393755104N00318064WA0080800900
B1544403755108N00318059WA0080700898
B1544413755112N00318054WA0080700898
B1544423755114N00318048WA0080900899
B1544433755116N00318041WA0080900900
B1544443755117N00318034WA0081000900
B1544453755117N00318025WA0081100901
B1544463755116N00318016WA0081200901
B1544473755116N00318007WA0081600903
B1544483755114N00318000WA0081900907
B1544493755113N00317994WA0082200911
B1544503755110N00317989WA0082500914
B1544513755106N00317986WA0082600916
B1544523755100N00317984WA0082700917
B1544533755095N00317985WA0082900919
B1544543755090N00317988WA0083100921
B1544553755088N00317991WA0083300923
B1544563755086N00317995WA0083400926
B1544573755086N00317999WA0083500928
B1544583755088N00318004WA0083600928
B1544593755091N00318010WA0083700927
B1545003755095N00318013WA0083900928
B1545013755100N00318014WA0084100931
B1545023755104N00318012WA0084300935
B1545033755107N00318008WA0084300937
B1545043755109N00318002WA0084000937
B1545053755111N00317994WA0084100938
B1545063755113N00317986WA0084300939
B1545073755114N00317977WA0084400940
B1545083755114N00317968WA0084700942
B1545093755113N00317961WA0085100945
B1545103755110N00317956WA0085300949
B1545113755107N00317953WA0085400951
B1545123755102N00317952WA0085500953
B1545133755096N00317953WA0085600954
B1545143755091N00317956WA0085800956
B1545153755088N00317960WA0086000957
B1545163755087N00317965WA0086200959
B1545173755087N00317969WA0086200960
B1545183755090N00317974WA0086200960
B1545193755094N00317976WA0086200960
B1545203755099N00317977WA0086300961
B1545213755103N00317976WA0086500962
B1545223755108N00317973WA0086400962
B1545233755111N00317968WA0086400962
B1545243755114N00317962WA0086400962
B1545253755117N00317954WA0086400962
B1545263755119N00317947WA0086500962
B1545273755121N00317938WA0086700963
B1545283755122N00317930WA0087000965
B1545293755123N00317922WA0087200968
B1545303755122N00317916WA0087500971
B1545313755119N00317910WA0087700973
B1545323755115N00317906WA0087800975
B1545333755109N00317904WA0087800975
B1545343755104N00317904WA0088000976
B1545353755099N00317906WA0087900978
B1545363755096N00317910WA0088100980
B1545373755095N00317916WA0088500982
B1545383755097N00317920WA0088600983
B1545393755100N00317924WA0088800984
B1545403755104N00317925WA0089000986
B1545413755108N00317925WA0089100987
B1545423755112N00317924WA0089200988
B1545433755117N00317921WA0089200988
B1545443755121N00317916WA0089300989
B1545453755124N00317910WA0089300989
B1545463755127N00317902WA0089400990
B1545473755128N00317895WA0089600991
B1545483755129N00317886WA0089900993
B1545493755128N00317879WA0090100995
B1545503755126N00317872WA0090300998
B1545513755123N00317867WA0090501001
B1545523755119N00317863WA0090601002
B1545533755114N00317861WA0090701003
B1545543755109N00317862WA0090701004
B1545553755105N00317864WA0091001006
B1545563755102N00317868WA0091101007
B1545573755100N00317871WA0091301009
B1545583755100N00317874WA0091501011
B1545593755101N00317877WA0091601012
B1546003755103N00317880WA0091501012
B1546013755106N00317882WA0091501011
B1546023755111N00317883WA0091501010
B1546033755116N00317883WA0091501010
B1546043755121N00317882WA0091701012
B1546053755126N00317879WA0091801013
B1546063755129N00317876WA0091801014
B1546073755133N00317870WA0091301015
B1546083755137N00317864WA0091401014
B1546093755140N00317856WA0091701014
B1546103755143N00317848WA0091701014
B1546113755145N00317840WA0091901016
B1546123755146N00317832WA0092101017
B1546133755146N00317825WA0092101019
B1546143755144N00317818WA0092101019
B1546153755141N00317811WA0092101019
B1546163755138N00317803WA0092301020
B1546173755135N00317796WA0092501021
B1546183755132N00317789WA0092801024
B1546193755128N00317783WA0093101027
B1546203755125N00317778WA0093301030
B1546213755120N00317774WA0093701033
B1546223755116N00317773WA0094001036
B1546233755111N00317775WA0094101039
B1546243755108N00317780WA0094301041
B1546253755107N00317786WA0094601043
B1546263755110N00317791WA0094801045
B1546273755114N00317794WA0095101049
B1546283755119N00317794WA0095401052
B1546293755123N00317790WA0095601055
B1546303755127N00317785WA0095801058
B1546313755129N00317778WA0096001061
B1546323755131N00317770WA0096101063
B1546333755132N00317761WA0096201065
B1546343755131N00317751WA0096301066
B1546353755128N00317744WA0096501068
B1546363755124N00317737WA0096801070
B1546373755120N00317733WA0097101073
B1546383755115N00317730WA0097401076
B1546393755111N00317728WA0097701079
B1546403755107N00317729WA0098001082
B1546413755103N00317731WA0098301085
B1546423755100N00317736WA0098401088
B1546433755098N00317741WA0098501090
B1546443755098N00317747WA0098901092
B1546453755101N00317751WA0099301095
B1546463755105N00317753WA0099601099
B1546473755110N00317752WA0099801102
B1546483755114N00317749WA0099901104
B1546493755118N00317743WA0100101104
B1546503755121N00317735WA0100101106
B1546513755123N00317726WA0100301107
B1546523755123N00317717WA0100401108
B1546533755121N00317708WA0100501109
B1546543755118N00317699WA0100701111
B1546553755115N00317692WA0101001115
B1546563755111N00317687WA0101401118
B1546573755106N00317684WA0101701121
B1546583755101N00317684WA0101801123
B1546593755096N00317685WA0102001125
B1547003755093N00317688WA0102301127
B1547013755090N00317691WA0102601130
B1547023755088N00317695WA0102901133
B1547033755088N00317698WA0103101136
B1547043755090N00317702WA0103301138
B1547053755093N00317704WA0103501139
B1547063755098N00317706WA0103701141
B1547073755103N00317704WA0104001142
B1547083755108N00317700WA0104101145
B1547093755111N00317693WA0104301147
B1547103755113N00317685WA0104501149
B1547113755113N00317677WA0104601150
B1547123755112N00317668WA0104801152
B1547133755109N00317659WA0105001153
B1547143755105N00317651WA0105101155
B1547153755101N00317646WA0105401158
B1547163755096N00317643WA0105701161
B1547173755092N00317641WA0106001165
B1547183755087N00317640WA0106301168
B1547193755083N00317641WA0106401170
B1547203755079N00317643WA0106701173
B1547213755076N00317647WA0107001175
B1547223755074N00317652WA0107201177
B1547233755075N00317658WA0107401179
B1547243755078N00317661WA0107601182
B1547253755081N00317663WA0107801185
B1547263755085N00317662WA0108101187
B1547273755090N00317660WA0108301189
B1547283755094N00317656WA0108401191
B1547293755098N00317650WA0108501193
B1547303755101N00317641WA0108701195
B1547313755102N00317632WA0108901197
B1547323755101N00317624WA0109201199
B1547333755098N00317617WA0109401202
B1547343755094N00317611WA0109601205
B1547353755090N00317606WA0109901207
B1547363755085N00317602WA0110001209
B1547373755079N00317601WA0110201212
B1547383755074N00317601WA0110501214
B1547393755070N00317603WA0110901217
B1547403755067N00317606WA0111201220
B1547413755065N00317610WA0111501223
B1547423755065N00317615WA0111601225
B1547433755067N00317619WA0111701226
B1547443755070N00317622WA0111801227
B1547453755074N00317623WA0112001228
B1547463755078N00317624WA0112301231
B1547473755083N00317623WA0112501234
B1547483755087N00317621WA0112501236
B1547493755092N00317616WA0112601238
B1547503755095N00317609WA0112701238
B1547513755097N00317600WA0112701239
B1547523755097N00317591WA0112601239
B1547533755094N00317582WA0112501240
B1547543755091N00317575WA0112701242
B1547553755087N00317568WA0113301245
B1547563755082N00317563WA0113701248
B1547573755077N00317560WA0113801250
B1547583755071N00317559WA0114101253
B1547593755067N00317561WA0114401256
B1548003755063N00317564WA0114701258
B1548013755060N00317567WA0114901261
B1548023755060N00317571WA0115001263
B1548033755060N00317575WA0115001262
B1548043755063N00317579WA0115201263
B1548053755066N00317583WA0115201263
B1548063755069N00317586WA0115401265
B1548073755074N00317587WA0115601267
B1548083755079N00317584WA0115601268
B1548093755083N00317577WA0115601269
B1548103755085N00317570WA0115601270
B1548113755086N00317562WA0115601270
B1548123755086N00317554WA0115801271
B1548133755084N00317545WA0115901272
B1548143755083N00317537WA0116001273
B1548153755081N00317529WA0116201275
B1548163755078N00317522WA0116501277
B1548173755074N00317515WA0116701280
B1548183755069N00317510WA0116801282
B1548193755064N00317508WA0117001284
B1548203755058N00317508WA0117301285
B1548213755054N00317510WA0117501288
B1548223755052N00317514WA0117601290
B1548233755052N00317518WA0117801291
B1548243755053N00317522WA0117801293
B1548253755055N00317526WA0117901294
B1548263755057N00317529WA0118001295
B1548273755060N00317532WA0118201297
B1548283755063N00317534WA0118501300
B1548293755067N00317535WA0118601302
B1548303755071N00317534WA0118701303
B1548313755075N00317533WA0118601303
B1548323755078N00317528WA0118401302
B1548333755081N00317522WA0117901302
B1548343755083N00317513WA0117901301
B1548353755082N00317503WA0118001299
B1548363755079N00317494WA0118001298
B1548373755077N00317485WA0118201299
B1548383755074N00317477WA0118601303
B1548393755071N00317470WA0118801306
B1548403755068N00317465WA0119001309
B1548413755064N00317460WA0119201311
B1548423755059N00317457WA0119301312
B1548433755053N00317455WA0119401313
B1548443755047N00317455WA0119501313
B1548453755042N00317455WA0119701315
B1548463755038N00317457WA0120001317
B1548473755035N00317459WA0120101319
B1548483755033N00317462WA0120201321
B1548493755033N00317466WA0120001319
B1548503755033N00317471WA0119801317
B1548513755035N00317476WA0119301316
B1548523755038N00317480WA0119601314
B1548533755042N00317482WA0119701314
B1548543755047N00317482WA0119701313
B1548553755052N00317480WA0119601313
B1548563755056N00317477WA0119701314
B1548573755060N00317473WA0119801314
B1548583755063N00317468WA0119801315
B1548593755065N00317462WA0119801315
B1549003755067N00317456WA0119701315
B1549013755068N00317448WA0119601315
B1549023755070N00317440WA0119701314
B1549033755070N00317432WA0119801314
B1549043755070N00317425WA0119901315
B1549053755069N00317418WA0120101316
B1549063755068N00317411WA0120301317
B1549073755065N00317405WA0120501319
B1549083755062N00317400WA0120701321
B1549093755057N00317396WA0120701322
B1549103755051N00317395WA0120801323
B1549113755046N00317396WA0120901324
B1549123755041N00317398WA0121101325
B1549133755037N00317400WA0121301327
B1549143755034N00317403WA0121501329
B1549153755032N00317408WA0121501331
B1549163755032N00317414WA0121301331
B1549173755033N00317421WA0120801331
B1549183755035N00317426WA0121101331
B1549193755039N00317429WA0121201330
B1549203755043N00317429WA0121001328
B1549213755048N00317428WA0120801326
B1549223755052N00317426WA0120501325
B1549233755056N00317424WA0120501324
B1549243755060N00317421WA0120501323
B1549253755064N00317416WA0120201321
B1549263755067N00317410WA0120001319
B1549273755071N00317404WA0119801317
B1549283755074N00317397WA0119701315
B1549293755077N00317391WA0119701314
B1549303755078N00317384WA0119601314
B1549313755079N00317377WA0119601313
B1549323755080N00317370WA0119401312
B1549333755080N00317362WA0119301311
B1549343755081N00317354WA0119301311
B1549353755082N00317347WA0119501312
B1549363755081N00317339WA0119601314
B1549373755080N00317331WA0119701314
B1549383755079N00317323WA0119601314
B1549393755078N00317314WA0119701314
B1549403755079N00317305WA0119801315
B1549413755080N00317297WA0120001317
B1549423755081N00317290WA0120201319
B1549433755081N00317282WA0120301320
B1549443755080N00317274WA0120601321
B1549453755077N00317268WA0120801324
B1549463755073N00317264WA0120901327
B1549473755069N00317260WA0121001328
B1549483755064N00317258WA0121201330
B1549493755059N00317257WA0121401332
B1549503755054N00317257WA0121601334
B1549513755050N00317259WA0121801336
B1549523755048N00317263WA0122001338
B1549533755047N00317267WA0122201340
B1549543755049N00317270WA0122201341
B1549553755053N00317272WA0122101340
B1549563755058N00317271WA0122101338
B1549573755063N00317268WA0122201339
B1549583755066N00317263WA0122401341
B1549593755069N00317257WA0122601344
B1550003755071N00317251WA0122701347
B1550013755072N00317243WA0122801347
B1550023755074N00317234WA0122901348
B1550033755075N00317225WA0123201349
B1550043755075N00317216WA0123501352
B1550053755074N00317209WA0123801356
B1550063755071N00317202WA0124001359
B1550073755066N00317196WA0124301361
B1550083755061N00317192WA0124501363
B1550093755056N00317190WA0124701365
B1550103755052N00317191WA0124901367
B1550113755048N00317194WA0125101369
B1550123755046N00317198WA0125201371
B1550133755045N00317203WA0125301372
B1550143755045N00317208WA0125501373
B1550153755046N00317213WA0125601375
B1550163755049N00317216WA0125901377
B1550173755052N00317218WA0126101380
B1550183755056N00317217WA0126101382
B1550193755060N00317215WA0126301383
B1550203755064N00317213WA0126401384
B1550213755069N00317209WA0126501384
B1550223755074N00317204WA0126601385
B1550233755077N00317198WA0126801387
B1550243755079N00317190WA0126901389
B1550253755079N00317182WA0127001391
B1550263755078N00317174WA0127201392
B1550273755076N00317166WA0127401394
B1550283755073N00317158WA0127601396
B1550293755069N00317153WA0127901398
B1550303755064N00317149WA0128201402
B1550313755060N00317147WA0128501405
B1550323755056N00317146WA0128501407
B1550333755052N00317148WA0128601409
B1550343755047N00317150WA0128601410
B1550353755044N00317155WA0128701411
B1550363755042N00317160WA0128801412
B1550373755041N00317165WA0129001413
B1550383755042N00317170WA0129101415
B1550393755044N00317174WA0129201416
B1550403755047N00317176WA0129301417
B1550413755052N00317177WA0129301417
B1550423755057N00317176WA0129301417
B1550433755062N00317172WA0129401417
B1550443755067N00317167WA0129601418
B1550453755070N00317162WA0129801419
B1550463755072N00317155WA0129901421
B1550473755073N00317149WA0130001422
B1550483755074N00317141WA0130001423
B1550493755073N00317133WA0130001423
B1550503755071N00317125WA0129701423
B1550513755068N00317117WA0129801423
B1550523755064N00317110WA0130201425
B1550533755061N00317105WA0130501427
B1550543755057N00317101WA0130701430
B1550553755052N00317099WA0130901433
B1550563755048N00317099WA0131001434
B1550573755043N00317099WA0131101435
B1550583755038N00317100WA0131201436
B1550593755033N00317102WA0131401437
B1551003755029N00317104WA0131401438
B1551013755027N00317108WA0131501440
B1551023755026N00317112WA0131501440
B1551033755026N00317117WA0131401439
B1551043755029N00317122WA0131301438
B1551053755032N00317125WA0131001437
B1551063755036N00317127WA0130901437
B1551073755041N00317127WA0131101438
B1551083755046N00317125WA0131301438
B1551093755050N00317120WA0131401438
B1551103755054N00317115WA0131401438
B1551113755057N00317110WA0131401439
B1551123755060N00317104WA0131501439
B1551133755062N00317098WA0131401439
B1551143755064N00317091WA0131401438
B1551153755066N00317083WA0131301438
B1551163755067N00317075WA0131401438
B1551173755068N00317067WA0131501439
B1551183755068N00317059WA0131501439
B1551193755068N00317051WA0131601440
B1551203755067N00317044WA0131601441
B1551213755066N00317036WA0131701441
B1551223755065N00317027WA0131801441
B1551233755063N00317020WA0132001443
B1551243755061N00317013WA0132101446
B1551253755058N00317007WA0132301449
B1551263755054N00317002WA0132501450
B1551273755050N00317000WA0132501451
B1551283755045N00317000WA0132501452
B1551293755040N00317001WA0132601452
B1551303755037N00317004WA0132601453
B1551313755035N00317009WA0132601453
B1551323755034N00317014WA0132601454
B1551333755035N00317019WA0132501452
B1551343755037N00317025WA0132501452
B1551353755041N00317029WA0132701452
B1551363755045N00317031WA0132801454
B1551373755049N00317032WA0133001456
B1551383755053N00317032WA0133001457
B1551393755057N00317031WA0133001457
B1551403755061N00317028WA0132901457
B1551413755065N00317024WA0132801457
B1551423755069N00317019WA0132801456
B1551433755073N00317013WA0132801455
B1551443755076N00317006WA0132701455
B1551453755077N00316999WA0132701455
B1551463755078N00316991WA0132801455
B1551473755078N00316984WA0132901455
B1551483755078N00316976WA0132901455
B1551493755077N00316968WA0133001456
B1551503755076N00316960WA0133101457
B1551513755074N00316953WA0133201458
B1551523755072N00316945WA0133301458
B1551533755070N00316938WA0133401460
B1551543755067N00316932WA0133601461
B1551553755063N00316927WA0133701463
B1551563755059N00316923WA0133801465
B1551573755055N00316920WA0134001467
B1551583755050N00316918WA0134201468
B1551593755046N00316918WA0134201469
B1552003755041N00316919WA0134401470
B1552013755038N00316922WA0134401471
B1552023755035N00316925WA0134501472
B1552033755033N00316930WA0134701473
B1552043755032N00316935WA0134701474
B1552053755033N00316939WA0134801475
B1552063755034N00316943WA0134801475
B1552073755037N00316946WA0135001476
B1552083755040N00316949WA0134901477
B1552093755044N00316949WA0134901477
B1552103755048N00316949WA0134701476
B1552113755052N00316946WA0134401476
B1552123755057N00316942WA0134701475
B1552133755060N00316936WA0134801474
B1552143755064N00316929WA0134801474
B1552153755067N00316922WA0134901475
B1552163755069N00316915WA0134901475
B1552173755071N00316909WA0135001476
B1552183755072N00316902WA0135101478
B1552193755073N00316896WA0135201479
B1552203755073N00316888WA0135001479
B1552213755072N00316879WA0134901478
B1552223755072N00316870WA0135101478
B1552233755072N00316861WA0135401481
B1552243755072N00316854WA0135701484
B1552253755072N00316848WA0136001488
B1552263755071N00316843WA0136201490
B1552273755068N00316838WA0136301491
B1552283755063N00316834WA0136201491
B1552293755058N00316832WA0136401491
B1552303755053N00316833WA0136501492
B1552313755049N00316835WA0136701493
B1552323755046N00316839WA0136901495
B1552333755045N00316843WA0137001497
B1552343755045N00316847WA0137101498
B1552353755046N00316850WA0137201499
B1552363755048N00316853WA0137301500
B1552373755051N00316855WA0137301501
B1552383755056N00316855WA0137301501
B1552393755061N00316854WA0137301500
B1552403755065N00316853WA0137401501
B1552413755070N00316851WA0137501502
B1552423755075N00316849WA0137501502
B1552433755080N00316846WA0137501503
B1552443755085N00316843WA0137501503
B1552453755090N00316840WA0137501504
B1552463755094N00316835WA0137701505
B1552473755098N00316831WA0138001507
B1552483755101N00316827WA0138101509
B1552493755104N00316822WA0138301511
B1552503755106N00316817WA0138401512
B1552513755108N00316811WA0138501514
B1552523755108N00316804WA0138601515
B1552533755108N00316797WA0138701516
B1552543755105N00316791WA0138801517
B1552553755101N00316786WA0138801518
B1552563755097N00316783WA0139001519
B1552573755093N00316781WA0139301521
B1552583755089N00316782WA0139501523
B1552593755086N00316784WA0139501524
B1553003755084N00316788WA0139601525
B1553013755083N00316793WA0139401525
B1553023755084N00316799WA0139201523
B1553033755086N00316804WA0139401523
B1553043755090N00316807WA0139401523
B1553053755094N00316810WA0139301523
B1553063755098N00316813WA0139301523
B1553073755103N00316815WA0139401523
B1553083755109N00316816WA0139401524
B1553093755114N00316816WA0139501524
B1553103755120N00316813WA0139401524
B1553113755124N00316809WA0139401523
B1553123755129N00316804WA0139101523
B1553133755132N00316798WA0138901522
B1553143755136N00316792WA0138801522
B1553153755139N00316785WA0138701520
B1553163755143N00316778WA0138401519
B1553173755146N00316769WA0138201516
B1553183755150N00316760WA0138001512
B1553193755152N00316750WA0137801510
B1553203755154N00316740WA0137801510
B1553213755157N00316731WA0137801510
B1553223755159N00316723WA0137901510
B1553233755161N00316714WA0137901510
B1553243755163N00316706WA0138001510
B1553253755165N00316698WA0137801510
B1553263755168N00316689WA0137801509
B1553273755170N00316680WA0137701509
B1553283755172N00316671WA0137801509
B1553293755174N00316662WA0137801509
B1553303755176N00316653WA0137901510
B1553313755178N00316644WA0138001511
B1553323755179N00316636WA0138001511
B1553333755180N00316627WA0137901512
B1553343755182N00316618WA0137801511
B1553353755184N00316608WA0137901511
B1553363755185N00316599WA0137901511
B1553373755187N00316590WA0137701512
B1553383755189N00316581WA0137701512
B1553393755192N00316571WA0137901512
B1553403755194N00316562WA0137901512
B1553413755196N00316553WA0138001512
B1553423755198N00316543WA0138101512
B1553433755199N00316535WA0138301514
B1553443755200N00316527WA0138301515
B1553453755201N00316520WA0138401516
B1553463755202N00316512WA0138001516
B1553473755203N00316504WA0137701515
B1553483755205N00316494WA0137601513
B1553493755205N00316484WA0137501511
B1553503755206N00316475WA0137501510
B1553513755206N00316466WA0137501510
B1553523755207N00316458WA0137501510
B1553533755208N00316450WA0137501509
B1553543755209N00316441WA0137401508
B1553553755210N00316433WA0137201507
B1553563755211N00316424WA0137001505
B1553573755212N00316415WA0136801502
B1553583755214N00316406WA0136501500
B1553593755215N00316396WA0136001497
B1554003755216N00316387WA0135701495
B1554013755217N00316378WA0135901493
B1554023755218N00316370WA0135701491
B1554033755218N00316361WA0135601489
B1554043755219N00316352WA0135301485
B1554053755220N00316343WA0135101482
B1554063755221N00316333WA0134901480
B1554073755222N00316325WA0134701478
B1554083755223N00316317WA0134501476
B1554093755223N00316309WA0134101474
B1554103755224N00316299WA0133801470
B1554113755224N00316289WA0133601467
B1554123755225N00316279WA0133501465
B1554133755226N00316271WA0133401464
B1554143755228N00316263WA0133301463
B1554153755229N00316255WA0133001461
B1554163755231N00316246WA0132701459
B1554173755233N00316237WA0132401456
B1554183755235N00316228WA0132201452
B1554193755237N00316219WA0132001450
B1554203755240N00316212WA0132001449
B1554213755243N00316205WA0131801448
B1554223755246N00316197WA0131501445
B1554233755249N00316188WA0131201442
B1554243755253N00316179WA0131101439
B1554253755256N00316170WA0131001438
B1554263755259N00316163WA0130901437
B1554273755262N00316156WA0130901437
B1554283755266N00316150WA0130701436
B1554293755269N00316142WA0130501435
B1554303755272N00316134WA0130401432
B1554313755275N00316126WA0130401431
B1554323755277N00316118WA0130301430
B1554333755279N00316110WA0130201429
B1554343755282N00316103WA0130201429
B1554353755284N00316094WA0130001427
B1554363755287N00316086WA0129801425
B1554373755290N00316077WA0129801424
B1554383755292N00316069WA0129801423
B1554393755295N00316062WA0129801423
B1554403755297N00316055WA0129701423
B1554413755300N00316047WA0129601422
B1554423755303N00316040WA0129401421
B1554433755306N00316032WA0129201418
B1554443755309N00316023WA0129001417
B1554453755313N00316016WA0129001416
B1554463755316N00316008WA0129001416
B1554473755318N00316002WA0128901416
B1554483755321N00315995WA0128801415
B1554493755324N00315988WA0128601414
B1554503755327N00315980WA0128501413
B1554513755331N00315973WA0128501411
B1554523755334N00315966WA0128501411
B1554533755337N00315959WA0128401411
B1554543755339N00315952WA0128301410
B1554553755342N00315945WA0128201409
B1554563755345N00315937WA0128001407
B1554573755348N00315930WA0127801405
B1554583755351N00315922WA0127701403
B1554593755354N00315915WA0127501402
B1555003755356N00315907WA0127501402
B1555013755359N00315900WA0127401401
B1555023755361N00315893WA0127301400
B1555033755363N00315886WA0127301399
B1555043755365N00315878WA0127201398
B1555053755367N00315870WA0127101397
B1555063755368N00315863WA0127101397
B1555073755369N00315854WA0127001396
B1555083755369N00315846WA0126901395
B1555093755369N00315837WA0126701394
B1555103755369N00315828WA0126601392
B1555113755369N00315819WA0126501391
B1555123755369N00315810WA0126301390
B1555133755368N00315802WA0126201389
B1555143755367N00315793WA0126101388
B1555153755366N00315784WA0126001386
B1555163755365N00315775WA0125901385
B1555173755365N00315766WA0125801384
B1555183755364N00315757WA0125801384
B1555193755364N00315749WA0125801384
B1555203755363N00315741WA0125801384
B1555213755362N00315733WA0125701383
B1555223755362N00315724WA0125701383
B1555233755361N00315716WA0125601382
B1555243755361N00315707WA0125601382
B1555253755360N00315699WA0125601381
B1555263755360N00315691WA0125501381
B1555273755360N00315682WA0125301380
B1555283755359N00315674WA0125201379
B1555293755359N00315665WA0125001378
B1555303755359N00315656WA0124901376
B1555313755358N00315646WA0124701374
B1555323755358N00315637WA0124601373
B1555333755358N00315629WA0124401371
B1555343755357N00315620WA0124101369
B1555353755357N00315612WA0123801366
B1555363755357N00315604WA0123501363
B1555373755356N00315594WA0123101359
B1555383755355N00315585WA0122701355
B1555393755354N00315574WA0122401351
B1555403755353N00315565WA0122201348
B1555413755351N00315555WA0122101346
B1555423755350N00315547WA0122001345
B1555433755348N00315539WA0121901344
B1555443755347N00315531WA0121601342
B1555453755345N00315523WA0121201339
B1555463755344N00315514WA0120801336
B1555473755342N00315504WA0120501332
B1555483755341N00315494WA0120301329
B1555493755340N00315485WA0120101326
B1555503755339N00315477WA0119901324
B1555513755338N00315468WA0119801322
B1555523755337N00315460WA0119501320
B1555533755337N00315450WA0119301317
B1555543755336N00315441WA0119001314
B1555553755335N00315432WA0118801311
B1555563755334N00315424WA0118601309
B1555573755333N00315415WA0118301306
B1555583755333N00315407WA0118101304
B1555593755332N00315398WA0117901301
B1556003755332N00315389WA0117501298
B1556013755333N00315379WA0117401295
B1556023755333N00315370WA0117301293
B1556033755334N00315361WA0117001292
B1556043755335N00315352WA0116701290
B1556053755336N00315343WA0116301287
B1556063755337N00315334WA0115901285
B1556073755337N00315324WA0115701282
B1556083755336N00315316WA0115701280
B1556093755336N00315309WA0115601278
B1556103755336N00315301WA0115201274
B1556113755336N00315292WA0114701270
B1556123755337N00315281WA0114201264
B1556133755337N00315271WA0113801259
B1556143755337N00315261WA0113701256
B1556153755337N00315252WA0113501255
B1556163755337N00315244WA0113301253
B1556173755337N00315235WA0113001250
B1556183755338N00315226WA0112601247
B1556193755337N00315216WA0112401243
B1556203755337N00315207WA0112101240
B1556213755337N00315197WA0112001238
B1556223755338N00315189WA0111901237
B1556233755339N00315180WA0111701235
B1556243755340N00315171WA0111401232
B1556253755342N00315161WA0111101229
B1556263755343N00315151WA0110701225
B1556273755344N00315141WA0110301222
B1556283755345N00315132WA0110001218
B1556293755347N00315122WA0109701214
B1556303755349N00315113WA0109401211
B1556313755352N00315104WA0109001207
B1556323755354N00315095WA0108701204
B1556333755356N00315086WA0108501201
B1556343755358N00315077WA0108201198
B1556353755360N00315068WA0107901195
B1556363755363N00315060WA0107501192
B1556373755365N00315051WA0107101188
B1556383755368N00315043WA0106901185
B1556393755370N00315034WA0106801182
B1556403755371N00315025WA0106501180
B1556413755373N00315016WA0106301177
B1556423755375N00315006WA0106101175
B1556433755376N00314997WA0105801173
B1556443755378N00314988WA0105601170
B1556453755380N00314978WA0105301167
B1556463755382N00314969WA0105101164
B1556473755385N00314960WA0104801161
B1556483755387N00314951WA0104501158
B1556493755389N00314942WA0104301156
B1556503755390N00314933WA0104001153
B1556513755391N00314925WA0103701150
B1556523755393N00314916WA0103301147
B1556533755394N00314907WA0102901143
B1556543755396N00314899WA0102701139
B1556553755398N00314890WA0102401136
B1556563755400N00314882WA0102101133
B1556573755401N00314874WA0101801130
B1556583755403N00314866WA0101501127
B1556593755405N00314857WA0101201123
B1557003755407N00314848WA0100801119
B1557013755410N00314840WA0100501115
B1557023755412N00314832WA0100201112
B1557033755414N00314823WA0099901109
B1557043755417N00314815WA0099601106
B1557053755419N00314807WA0099301103
B1557063755422N00314798WA0099201100
B1557073755424N00314789WA0099101098
B1557083755426N00314781WA0099101097
B1557093755427N00314774WA0099001096
B1557103755428N00314766WA0098701095
B1557113755429N00314757WA0098501093
B1557123755430N00314748WA0098301091
B1557133755431N00314739WA0098301089
B1557143755432N00314731WA0098301088
B1557153755432N00314723WA0098201088
B1557163755432N00314715WA0098101088
B1557173755433N00314707WA0097901087
B1557183755433N00314699WA0097701085
B1557193755434N00314691WA0097501083
B1557203755434N00314683WA0097301080
B1557213755434N00314674WA0097201078
B1557223755433N00314665WA0096901076
B1557233755433N00314657WA0096801074
B1557243755433N00314648WA0096601072
B1557253755433N00314640WA0096501071
B1557263755433N00314632WA0096301070
B1557273755434N00314624WA0096201069
B1557283755435N00314615WA0096201069
B1557293755436N00314606WA0096201068
B1557303755437N00314597WA0096201067
B1557313755438N00314588WA0096201067
B1557323755439N00314580WA0096301067
B1557333755441N00314572WA0096301068
B1557343755442N00314563WA0096401068
B1557353755444N00314555WA0096401068
B1557363755445N00314546WA0096401068
B1557373755446N00314537WA0096401068
B1557383755447N00314527WA0096401068
B1557393755448N00314518WA0096401068
B1557403755449N00314510WA0096401069
B1557413755451N00314501WA0096401070
B1557423755453N00314493WA0096501070
B1557433755455N00314485WA0096701071
B1557443755457N00314477WA0096801071
B1557453755459N00314468WA0096701071
B1557463755460N00314459WA0096701071
B1557473755462N00314451WA0096701071
B1557483755463N00314442WA0096601071
B1557493755464N00314433WA0096501070
B1557503755466N00314424WA0096301069
B1557513755467N00314415WA0096101067
B1557523755469N00314405WA0096001065
B1557533755470N00314396WA0095901064
B1557543755471N00314388WA0095801063
B1557553755472N00314379WA0095601062
B1557563755473N00314370WA0095401060
B1557573755474N00314361WA0095201057
B1557583755475N00314351WA0095001055
B1557593755477N00314343WA0094801053
B1558003755478N00314334WA0094501051
B1558013755479N00314326WA0094301048
B1558023755480N00314316WA0094001045
B1558033755480N00314307WA0093601042
B1558043755480N00314297WA0093301038
B1558053755481N00314288WA0093101036
B1558063755482N00314279WA0092801033
B1558073755483N00314270WA0092601030
B1558083755485N00314260WA0092201027
B1558093755487N00314251WA0092001023
B1558103755490N00314241WA0091801019
B1558113755492N00314232WA0091601017
B1558123755494N00314223WA0091401016
B1558133755496N00314215WA0091201015
B1558143755498N00314207WA0090901012
B1558153755501N00314198WA0090501009
B1558163755505N00314188WA0090001005
B1558173755508N00314178WA0089901002
B1558183755511N00314168WA0089901000
B1558193755514N00314160WA0089800999
B1558203755517N00314152WA0089800999
B1558213755520N00314144WA0089500997
B1558223755523N00314135WA0089200994
B1558233755526N00314126WA0089000991
B1558243755528N00314116WA0088900989
B1558253755530N00314107WA0088900988
B1558263755532N00314098WA0089000989
B1558273755534N00314091WA0088900989
B1558283755536N00314083WA0088700988
B1558293755538N00314074WA0088500986
B1558303755539N00314064WA0088400983
B1558313755541N00314054WA0088400982
B1558323755541N00314046WA0088500983
B1558333755543N00314039WA0088600984
B1558343755544N00314031WA0088400984
B1558353755546N00314023WA0088200983
B1558363755547N00314014WA0088100982
B1558373755549N00314005WA0088100981
B1558383755551N00313996WA0088100980
B1558393755552N00313989WA0088100981
B1558403755555N00313982WA0088100981
B1558413755557N00313974WA0088100980
B1558423755559N00313966WA0087900979
B1558433755562N00313957WA0087800977
B1558443755564N00313948WA0087700976
B1558453755567N00313940WA0087700976
B1558463755569N00313933WA0087700976
B1558473755572N00313926WA0087600976
B1558483755574N00313918WA0087400975
B1558493755576N00313909WA0087300973
B1558503755579N00313901WA0087200971
B1558513755582N00313892WA0087200969
B1558523755584N00313884WA0087200969
B1558533755586N00313877WA0087200969
B1558543755587N00313869WA0087000968
B1558553755588N00313860WA0086800967
B1558563755590N00313851WA0086600965
B1558573755593N00313842WA0086400963
B1558583755595N00313833WA0086300962
B1558593755597N00313825WA0086200961
B1559003755599N00313817WA0086200960
B1559013755601N00313809WA0086200960
B1559023755604N00313801WA0086100959
B1559033755606N00313793WA0085900957
B1559043755609N00313785WA0085600955
B1559053755612N00313777WA0085400953
B1559063755614N00313768WA0085300951
B1559073755616N00313760WA0085300950
B1559083755619N00313752WA0085300950
B1559093755621N00313745WA0085200949
B1559103755623N00313737WA0085100948
B1559113755625N00313729WA0084900947
B1559123755628N00313721WA0084700945
B1559133755631N00313713WA0084500943
B1559143755633N00313705WA0084400942
B1559153755636N00313698WA0084300941
B1559163755639N00313691WA0084200940
B1559173755642N00313684WA0083900938
B1559183755644N00313676WA0083600935
B1559193755647N00313667WA0083600933
B1559203755650N00313659WA0083500931
B1559213755652N00313651WA0083400930
B1559223755654N00313644WA0083400929
B1559233755657N00313636WA0083300928
B1559243755659N00313628WA0083100927
B1559253755662N00313620WA0082800925
B1559263755665N00313612WA0082600923
B1559273755668N00313604WA0082500920
B1559283755671N00313596WA0082200918
B1559293755673N00313588WA0082200916
B1559303755676N00313580WA0081900915
B1559313755678N00313571WA0081700913
B1559323755681N00313563WA0081600911
B1559333755684N00313555WA0081500910
B1559343755688N00313548WA0081300908
B1559353755691N00313540WA0081200906
B1559363755694N00313532WA0081000904
B1559373755698N00313524WA0080800903
B1559383755701N00313516WA0080700901
B1559393755704N00313508WA0080600900
B1559403755706N00313500WA0080500898
B1559413755709N00313492WA0080400897
B1559423755711N00313484WA0080100896
B1559433755714N00313476WA0079800894
B1559443755717N00313468WA0079500892
B1559453755719N00313459WA0079200888
B1559463755722N00313449WA0079100885
B1559473755724N00313440WA0078900883
B1559483755726N00313432WA0078900881
B1559493755728N00313423WA0078900880
B1559503755730N00313415WA0078900880
B1559513755732N00313407WA0078800880
B1559523755734N00313399WA0078800880
B1559533755736N00313391WA0078800879
B1559543755739N00313383WA0078800879
B1559553755741N00313375WA0078800879
B1559563755743N00313368WA0078700878
B1559573755744N00313360WA0078600877
B1559583755745N00313352WA0078400876
B1559593755747N00313344WA0078200875
B1600003755748N00313336WA0078100873
B1600013755750N00313328WA0077900872
B1600023755752N00313320WA0077900871
B1600033755754N00313312WA0077800870
B1600043755756N00313304WA0077700869
B1600053755758N00313296WA0077600869
B1600063755760N00313288WA0077400868
B1600073755763N00313281WA0077200867
B1600083755765N00313272WA0077200866
B1600093755767N00313264WA0077200864
B1600103755769N00313256WA0077000863
B1600113755772N00313248WA0077000861
B1600123755774N00313240WA0076800861
B1600133755775N00313232WA0076700860
B1600143755777N00313223WA0076500858
B1600153755778N00313215WA0076400857
B1600163755780N00313206WA0076300856
B1600173755781N00313199WA0076300855
B1600183755783N00313192WA0076300856
B1600193755783N00313185WA0076300855
B1600203755784N00313178WA0076100854
B1600213755785N00313170WA0075900852
B1600223755786N00313161WA0075700850
B1600233755787N00313152WA0075700849
B1600243755788N00313144WA0075800849
B1600253755789N00313137WA0075900849
B1600263755791N00313130WA0075700849
B1600273755792N00313122WA0075500848
B1600283755794N00313112WA0075400846
B1600293755796N00313103WA0075400845
B1600303755798N00313094WA0075500845
B1600313755800N00313087WA0075800847
B1600323755801N00313081WA0075800848
B1600333755803N00313074WA0075700848
B1600343755804N00313066WA0075500846
B1600353755806N00313057WA0075400845
B1600363755807N00313048WA0075400844
B1600373755809N00313040WA0075600846
B1600383755810N00313033WA0075600846
B1600393755812N00313026WA0075400845
B1600403755814N00313018WA0075100843
B1600413755816N00313009WA0074700840
B1600423755818N00312999WA0074600837
B1600433755819N00312991WA0074500835
B1600443755822N00312983WA0074400834
B1600453755824N00312975WA0074200832
B1600463755826N00312967WA0073900830
B1600473755828N00312958WA0073700828
B1600483755831N00312950WA0073400825
B1600493755834N00312941WA0073200822
B1600503755837N00312933WA0073100821
B1600513755839N00312924WA0073000819
B1600523755840N00312916WA0072900818
B1600533755841N00312908WA0072800817
B1600543755840N00312899WA0072600815
B1600553755841N00312890WA0072300813
B1600563755842N00312881WA0072100811
B1600573755844N00312872WA0071900808
B1600583755847N00312863WA0071700806
B1600593755850N00312856WA0071700806
B1601003755853N00312848WA0071600806
B1601013755854N00312841WA0071300804
B1601023755857N00312833WA0070800802
B1601033755860N00312824WA0070600800
B1601043755863N00312816WA0070500797
B1601053755867N00312808WA0070400795
B1601063755871N00312802WA0070500796
B1601073755874N00312796WA0070500796
B1601083755878N00312790WA0070400795
B1601093755882N00312783WA0070100793
B1601103755886N00312777WA0069800792
B1601113755891N00312770WA0069600789
B1601123755895N00312764WA0069600788
B1601133755899N00312758WA0069700787
B1601143755903N00312751WA0069700786
B1601153755906N00312744WA0069500785
B1601163755909N00312737WA0069300783
B1601173755912N00312729WA0069100781
B1601183755916N00312723WA0068900779
B1601193755921N00312717WA0068800778
B1601203755925N00312711WA0068700776
B1601213755929N00312705WA0068500774
B1601223755933N00312698WA0068200772
B1601233755938N00312691WA0068100770
B1601243755942N00312685WA0068000768
B1601253755947N00312680WA0068000766
B1601263755952N00312675WA0068000765
B1601273755957N00312671WA0067900765
B1601283755961N00312666WA0067700764
B1601293755965N00312660WA0067500762
B1601303755969N00312654WA0067300760
B1601313755972N00312646WA0067200758
B1601323755974N00312638WA0066800756
B1601333755976N00312628WA0066700754
B1601343755978N00312620WA0066700752
B1601353755980N00312612WA0066600752
B1601363755983N00312605WA0066500751
B1601373755985N00312598WA0066400750
B1601383755987N00312590WA0066400749
B1601393755989N00312582WA0066200747
B1601403755990N00312574WA0066000746
B1601413755991N00312566WA0065900745
B1601423755991N00312558WA0065800744
B1601433755990N00312550WA0065600742
B1601443755990N00312541WA0065300740
B1601453755989N00312532WA0065300739
B1601463755989N00312524WA0065200737
B1601473755989N00312516WA0065100737
B1601483755989N00312507WA0065000736
B1601493755989N00312499WA0064900734
B1601503755989N00312490WA0064700733
B1601513755989N00312481WA0064500730
B1601523755988N00312473WA0064400729
B1601533755988N00312464WA0064300728
B1601543755989N00312455WA0064200726
B1601553755990N00312447WA0064100725
B1601563755991N00312437WA0063800724
B1601573755991N00312428WA0063800722
B1601583755992N00312418WA0063800721
B1601593755993N00312409WA0063900720
B1602003755995N00312401WA0063900720
B1602013755997N00312392WA0063900721
B1602023755998N00312384WA0063900720
B1602033755999N00312375WA0063800720
B1602043756000N00312366WA0063600719
B1602053756001N00312356WA0063500718
B1602063756003N00312346WA0063400717
B1602073756005N00312338WA0063300716
B1602083756006N00312330WA0063300716
B1602093756007N00312322WA0063200714
B1602103756009N00312314WA0062800713
B1602113756010N00312305WA0062300710
B1602123756012N00312296WA0062400707
B1602133756014N00312288WA0062400706
B1602143756015N00312281WA0062200705
B1602153756017N00312273WA0061900703
B1602163756020N00312265WA0061700700
B1602173756023N00312256WA0061400697
B1602183756026N00312247WA0061300695
B1602193756028N00312238WA0061300694
B1602203756029N00312231WA0061100694
B1602213756031N00312223WA0061000692
B1602223756033N00312215WA0060600690
B1602233756035N00312206WA0060200686
B1602243756037N00312197WA0059900682
B1602253756039N00312188WA0059700679
B1602263756039N00312179WA0059600677
B1602273756039N00312170WA0059400675
B1602283756038N00312162WA0059300673
B1602293756038N00312154WA0059000670
B1602303756038N00312145WA0058800668
B1602313756039N00312137WA0058500665
B1602323756040N00312128WA0058300662
B1602333756040N00312120WA0058100660
B1602343756041N00312112WA0057900658
B1602353756042N00312103WA0057500656
B1602363756043N00312095WA0057200653
B1602373756044N00312086WA0057000651
B1602383756045N00312077WA0056900648
B1602393756047N00312068WA0056900647
B1602403756049N00312060WA0056800646
B1602413756050N00312052WA0056800645
B1602423756052N00312044WA0056700644
B1602433756053N00312036WA0056600643
B1602443756055N00312028WA0056400641
B1602453756057N00312020WA0056200639
B1602463756059N00312011WA0056000637
B1602473756062N00312003WA0055900635
B1602483756064N00311995WA0055800634
B1602493756066N00311987WA0055700633
B1602503756068N00311979WA0055500632
B1602513756070N00311971WA0055200630
B1602523756073N00311963WA0055100628
B1602533756075N00311956WA0054900627
B1602543756077N00311948WA0054900626
B1602553756079N00311941WA0054800625
B1602563756081N00311933WA0054700623
B1602573756084N00311926WA0054400620
B1602583756087N00311918WA0054200618
B1602593756089N00311910WA0054000616
B1603003756092N00311903WA0053800614
B1603013756094N00311895WA0053700612
B1603023756097N00311889WA0053400610
B1603033756100N00311883WA0053000607
B1603043756105N00311876WA0052600604
B1603053756109N00311870WA0052300601
B1603063756113N00311863WA0052200599
B1603073756117N00311857WA0052100597
B1603083756120N00311850WA0051900595
B1603093756124N00311844WA0051600592
B1603103756128N00311838WA0051400590
B1603113756132N00311831WA0051000587
B1603123756136N00311825WA0050900584
B1603133756139N00311818WA0050600582
B1603143756143N00311812WA0050400580
B1603153756147N00311806WA0050200578
B1603163756151N00311800WA0050100575
B1603173756155N00311794WA0049900573
B1603183756159N00311787WA0049800571
B1603193756163N00311781WA0049800570
B1603203756168N00311777WA0049700569
B1603213756172N00311772WA0049600569
B1603223756177N00311767WA0049600567
B1603233756182N00311762WA0049500566
B1603243756187N00311756WA0049600567
B1603253756192N00311751WA0049800568
B1603263756195N00311746WA0049900571
B1603273756198N00311742WA0050100573
B1603283756200N00311736WA0050000574
B1603293756203N00311729WA0049800573
B1603303756208N00311721WA0049600573
B1603313756213N00311714WA0049700572
B1603323756219N00311710WA0049900573
B1603333756225N00311708WA0050100575
B1603343756230N00311706WA0050400577
B1603353756233N00311703WA0050600579
B1603363756237N00311698WA0050400579
B1603373756239N00311691WA0050200576
B1603383756241N00311683WA0050000575
B1603393756242N00311674WA0049800573
B1603403756244N00311666WA0049700572
B1603413756247N00311659WA0049600571
B1603423756252N00311652WA0049400570
B1603433756256N00311647WA0049400570
B1603443756261N00311642WA0049300569
B1603453756265N00311636WA0049100568
B1603463756270N00311630WA0048900567
B1603473756275N00311625WA0048900565
B1603483756280N00311620WA0048800564
B1603493756285N00311615WA0048900564
B1603503756288N00311610WA0048900564
B1603513756292N00311606WA0048900563
B1603523756296N00311601WA0048400561
B1603533756302N00311597WA0048000558
B1603543756307N00311592WA0047700555
B1603553756312N00311586WA0047700552
B1603563756316N00311581WA0047600550
B1603573756319N00311575WA0047400548
B1603583756323N00311571WA0047100547
B1603593756328N00311567WA0046700544
B1604003756333N00311563WA0046300541
B1604013756338N00311558WA0046100538
B1604023756343N00311554WA0046000534
B1604033756347N00311549WA0045900531
B1604043756352N00311544WA0045700530
B1604053756357N00311540WA0045500528
B1604063756361N00311536WA0045300525
B1604073756366N00311532WA0044800523
B1604083756371N00311526WA0044300519
B1604093756376N00311520WA0044000516
B1604103756380N00311514WA0043700513
B1604113756386N00311508WA0043500510
B1604123756391N00311504WA0043500508
B1604133756395N00311499WA0043600506
B1604143756400N00311494WA0043500505
B1604153756404N00311489WA0043400503
B1604163756409N00311484WA0043100502
B1604173756414N00311479WA0042900500
B1604183756419N00311475WA0042800498
B1604193756425N00311472WA0042900497
B1604203756430N00311472WA0042800496
B1604213756435N00311473WA0042500495
B1604223756441N00311474WA0042500494
B1604233756446N00311473WA0042400494
B1604243756451N00311470WA0042500493
B1604253756455N00311468WA0042800494
B1604263756458N00311465WA0042900495
B1604273756462N00311463WA0043200496
B1604283756466N00311461WA0043200497
B1604293756470N00311460WA0043200497
B1604303756474N00311460WA0043300497
B1604313756478N00311462WA0042900498
B1604323756482N00311466WA0042800497
B1604333756484N00311470WA0042800496
B1604343756486N00311474WA0042800496
B1604353756488N00311477WA0042900496
B1604363756491N00311479WA0042900496
B1604373756492N00311482WA0043000496
B1604383756494N00311485WA0042900496
B1604393756494N00311489WA0042500495
B1604403756493N00311494WA0042500494
B1604413756490N00311498WA0042800493
B1604423756486N00311501WA0042800492
B1604433756482N00311501WA0042800492
B1604443756478N00311500WA0043000492
B1604453756474N00311498WA0043000493
B1604463756470N00311493WA0042900492
B1604473756466N00311486WA0042500491
B1604483756464N00311477WA0042200490
B1604493756465N00311468WA0042200489
B1604503756468N00311460WA0042500490
B1604513756471N00311455WA0042700491
B1604523756474N00311450WA0042800491
B1604533756478N00311445WA0042800492
B1604543756482N00311443WA0042500492
B1604553756487N00311442WA0042200491
B1604563756492N00311442WA0042000490
B1604573756497N00311443WA0042100489
B1604583756501N00311443WA0042200490
B1604593756504N00311444WA0042300490
B1605003756507N00311446WA0042300491
B1605013756509N00311449WA0042100490
B1605023756511N00311452WA0041900488
B1605033756511N00311457WA0041800487
B1605043756508N00311460WA0041700486
B1605053756504N00311463WA0041700485
B1605063756499N00311463WA0041800484
B1605073756494N00311461WA0042000484
B1605083756489N00311460WA0042200485
B1605093756485N00311457WA0042200486
B1605103756481N00311453WA0042000486
B1605113756477N00311446WA0041700485
B1605123756474N00311439WA0041700484
B1605133756472N00311431WA0041900485
B1605143756472N00311424WA0042100486
B1605153756473N00311417WA0042200487
B1605163756476N00311411WA0042000486
B1605173756480N00311406WA0041700485
B1605183756486N00311402WA0041600483
B1605193756491N00311400WA0041600482
B1605203756496N00311399WA0041600482
B1605213756501N00311399WA0041600482
B1605223756504N00311400WA0041600482
B1605233756507N00311402WA0041500482
B1605243756508N00311405WA0041200481
B1605253756509N00311410WA0040900479
B1605263756508N00311415WA0040900477
B1605273756505N00311420WA0040800476
B1605283756502N00311423WA0040900476
B1605293756499N00311425WA0041100477
B1605303756497N00311427WA0041200478
B1605313756495N00311428WA0041200479
B1605323756491N00311428WA0041000478
B1605333756487N00311428WA0040700477
B1605343756481N00311424WA0040400476
B1605353756476N00311418WA0040300475
B1605363756473N00311411WA0040600475
B1605373756472N00311404WA0040900478
B1605383756472N00311398WA0040900478
B1605393756474N00311393WA0040600479
B1605403756478N00311388WA0040400479
B1605413756482N00311383WA0040300479
B1605423756487N00311381WA0040300478
B1605433756492N00311379WA0040300477
B1605443756497N00311378WA0040400477
B1605453756501N00311377WA0040500478
B1605463756506N00311376WA0040500477
B1605473756510N00311374WA0040500476
B1605483756514N00311373WA0040500476
B1605493756518N00311373WA0040500475
B1605503756522N00311374WA0040400474
B1605513756525N00311376WA0040300474
B1605523756528N00311378WA0040100473
B1605533756532N00311380WA0040100472
B1605543756536N00311382WA0040000470
B1605553756540N00311383WA0040000469
B1605563756544N00311383WA0039900467
B1605573756549N00311383WA0039600466
B1605583756554N00311382WA0039600464
B1605593756558N00311380WA0039500463
B1606003756563N00311376WA0039500462
B1606013756567N00311372WA0039300460
B1606023756572N00311366WA0039100458
B1606033756575N00311361WA0039000457
B1606043756579N00311355WA0038800455
B1606053756582N00311349WA0038400453
B1606063756585N00311342WA0038100450
B1606073756589N00311335WA0037800447
B1606083756592N00311328WA0037700444
B1606093756596N00311321WA0037500442
B1606103756600N00311315WA0037400440
B1606113756604N00311309WA0037200438
B1606123756608N00311302WA0037000436
B1606133756612N00311297WA0036800434
B1606143756616N00311292WA0036700433
B1606153756621N00311287WA0036500431
B1606163756625N00311282WA0036500430
B1606173756629N00311278WA0036400429
B1606183756634N00311274WA0036300427
B1606193756639N00311271WA0036000426
B1606203756644N00311269WA0035800424
B1606213756650N00311267WA0035600422
B1606223756655N00311265WA0035500420
B1606233756660N00311264WA0035500420
B1606243756664N00311264WA0035400418
B1606253756668N00311267WA0035200417
B1606263756672N00311270WA0035000415
B1606273756674N00311274WA0034900413
B1606283756675N00311278WA0034900412
B1606293756674N00311281WA0034800411
B1606303756673N00311285WA0034600409
B1606313756671N00311288WA0034600408
B1606323756670N00311291WA0034500407
B1606333756670N00311294WA0034300406
B1606343756669N00311297WA0034300403
B1606353756669N00311300WA0034300406
B1606363756668N00311301WA0034300406
B1606373756669N00311300WA0034300406
B1606383756669N00311299WA0034300406
B1606393756669N00311299WA0034300406
B1606403756669N00311298WA0034300406
B1606413756668N00311298WA0034300406
B1606423756668N00311298WA0034300405
B1606433756668N00311298WA0034300405
B1606443756668N00311298WA0034300405
B1606453756669N00311298WA0034300405
B1606463756669N00311298WA0034300405
B1606473756669N00311298WA0034300404
B1606483756669N00311299WA0034300404
B1606493756669N00311299WA0034300404
B1606503756669N00311299WA0034300404
B1606513756669N00311299WA0034300403
B1606523756669N00311299WA0034300403
B1606533756669N00311300WA0034300403
B1606543756669N00311300WA0034300403
B1606553756669N00311300WA0034300403
B1606563756670N00311300WA0034300402
B1606573756670N00311299WA0034300402
B1606583756670N00311299WA0034300402
B1606593756670N00311299WA0034300402
B1607003756670N00311299WA0034300402
B1607013756670N00311299WA0034200402
B1607023756670N00311299WA0034300402
B1607033756670N00311299WA0034300401
B1607043756669N00311299WA0034300401
B1607053756669N00311299WA0034300401
B1607063756669N00311298WA0034300401
B1607073756669N00311298WA0034300401
B1607083756670N00311298WA0034300401
B1607093756670N00311298WA0034300401
B1607103756670N00311298WA0034300401
B1607113756670N00311298WA0034300401
B1607123756670N00311298WA0034300401
B1607133756670N00311299WA0034300401
B1607143756669N00311299WA0034300400
B1607153756669N00311299WA0034300400
B1607163756669N00311299WA0034300400
B1607173756669N00311299WA0034300400
B1607183756669N00311299WA0034200400
B1607193756669N00311299WA0034300400
B1607203756669N00311299WA0034300400
B1607213756669N00311299WA0034300400
B1607223756669N00311299WA0034300400
B1607233756669N00311299WA0034300400
B1607243756669N00311299WA0034300400
B1607253756669N00311299WA0034300400
B1607263756669N00311300WA0034300400
B1607273756668N00311299WA0034300400
B1607283756668N00311299WA0034300400
B1607293756668N00311299WA0034300400
B1607303756668N00311300WA0034300400
B1607313756668N00311300WA0034300400
B1607323756668N00311300WA0034300400
B1607333756668N00311300WA0034300400
B1607343756668N00311300WA0034300400
B1607353756668N00311301WA0034300400
B1607363756668N00311301WA0034300400
B1607373756668N00311300WA0034300400
B1607383756668N00311299WA0034300399
B1607393756668N00311299WA0034300399
B1607403756668N00311300WA0034200399
B1607413756668N00311300WA0034200399
B1607423756668N00311300WA0034200399
B1607433756668N00311300WA0034200399
B1607443756668N00311300WA0034200400
B1607453756668N00311300WA0034200400
B1607463756668N00311300WA0034300400
B1607473756668N00311300WA0034200400
B1607483756668N00311300WA0034300400
B1607493756668N00311300WA0034300400
B1607503756668N00311300WA0034200401
B1607513756668N00311300WA0034200401
B1607523756668N00311300WA0034200401
B1607533756668N00311300WA0034300401
B1607543756668N00311300WA0034300402
B1607553756668N00311300WA0034200402
B1607563756668N00311300WA0034200402
B1607573756668N00311300WA0034300402
B1607583756668N00311300WA0034300402
B1607593756668N00311300WA0034200402
B1608003756668N00311300WA0034300402
B1608013756668N00311300WA0034200403
B1608023756668N00311300WA0034300403
B1608033756668N00311301WA0034200403
B1608043756668N00311301WA0034300403
B1608053756668N00311301WA0034200403
B1608063756668N00311301WA0034200403
B1608073756668N00311301WA0034300403
B1608083756668N00311301WA0034300403
B1608093756668N00311301WA0034300403
B1608103756668N00311301WA0034200403
B1608113756668N00311301WA0034300403
B1608123756668N00311301WA0034300403
B1608133756668N00311301WA0034300403
B1608143756668N00311301WA0034300404
B1608153756668N00311301WA0034300404
B1608163756668N00311301WA0034300404
B1608173756668N00311301WA0034300404
B1608183756668N00311301WA0034300404
B1608193756668N00311301WA0034300404
B1608203756668N00311301WA0034300404
B1608213756668N00311301WA0034300404
B1608223756668N00311301WA0034300404
B1608233756668N00311301WA0034300404
B1608243756668N00311301WA0034300404
B1608253756669N00311301WA0034300404
B1608263756669N00311301WA0034300404
B1608273756669N00311301WA0034300404
B1608283756669N00311301WA0034200404
B1608293756669N00311301WA0034300405
B1608303756669N00311301WA0034300405
B1608313756669N00311301WA0034300405
B1608323756669N00311301WA0034300405
B1608333756669N00311301WA0034300406
B1608343756669N00311301WA0034200406
B1608353756669N00311301WA0034300406
B1608363756669N00311302WA0034300406
B1608373756669N00311302WA0034300406
B1608383756669N00311302WA0034300406
B1608393756669N00311302WA0034300407
B1608403756669N00311302WA0034300407
B1608413756669N00311302WA0034300407
B1608423756669N00311302WA0034300407
B1608433756669N00311302WA0034300408
B1608443756669N00311302WA0034300408
B1608453756669N00311302WA0034300408
B1608463756669N00311302WA0034300409
B1608473756669N00311302WA0034300409
B1608483756669N00311302WA0034300409
B1608493756669N00311302WA0034300409
B1608503756669N00311302WA0034300409
B1608513756668N00311302WA0034300410
B1608523756668N00311302WA0034300410
B1608533756668N00311302WA0034300410
B1608543756668N00311301WA0034300410
B1608553756668N00311301WA0034300410
B1608563756668N00311301WA0034300410
B1608573756668N00311301WA0034300410
B1608583756668N00311301WA0034300409
B1608593756668N00311301WA0034300409
B1609003756668N00311301WA0034300409
B1609013756668N00311301WA0034300409
B1609023756668N00311301WA0034300409
B1609033756668N00311301WA0034300409
B1609043756668N00311301WA0034300408
B1609053756668N00311301WA0034300408
B1609063756668N00311301WA0034300408
B1609073756669N00311301WA0034300408
B1609083756669N00311301WA0034300408
B1609093756669N00311301WA0034300408
B1609103756669N00311301WA0034300408
B1609113756669N00311301WA0034300408
B1609123756669N00311301WA0034300408
B1609133756669N00311301WA0034300408
B1609143756669N00311301WA0034300408
B1609153756669N00311301WA0034300408
B1609163756669N00311301WA0034300408
B1609173756669N00311301WA0034300408
B1609183756669N00311301WA0034300408
B1609193756669N00311301WA0034300408
B1609203756669N00311301WA0034300408
B1609213756669N00311301WA0034300408
B1609223756669N00311301WA0034300408
B1609233756669N00311301WA0034300408
B1609243756669N00311301WA0034300408
B1609253756669N00311301WA0034300408
B1609263756669N00311301WA0034300408
B1609273756669N00311301WA0034300408
B1609283756669N00311302WA0034300408
B1609293756669N00311302WA0034300408
B1609303756669N00311302WA0034300408
B1609313756669N00311302WA0034300409
B1609323756669N00311302WA0034300409
B1609333756669N00311302WA0034300409
B1609343756669N00311302WA0034300409
B1609353756669N00311302WA0034300409
B1609363756669N00311302WA0034300408
B1609373756669N00311302WA0034300408
B1609383756669N00311302WA0034300408
B1609393756669N00311302WA0034300408
B1609403756669N00311302WA0034300408
B1609413756669N00311302WA0034300408
B1609423756669N00311301WA0034300408
B1609433756669N00311301WA0034300408
B1609443756669N00311301WA0034300408
B1609453756669N00311301WA0034300408
B1609463756669N00311301WA0034300408
B1609473756669N00311301WA0034300408
B1609483756669N00311301WA0034300408
B1609493756669N00311301WA0034300408
B1609503756669N00311301WA0034300408
B1609513756669N00311301WA0034300408
B1609523756669N00311301WA0034300408
B1609533756669N00311301WA0034300408
B1609543756669N00311301WA0034300408
B1609553756669N00311301WA0034300408
B1609563756669N00311301WA0034300408
B1609573756669N00311301WA0034300407
B1609583756669N00311301WA0034300407
B1609593756669N00311301WA0034300407
B1610003756669N00311301WA0034300407
B1610013756669N00311301WA0034300407
B1610023756669N00311301WA0034300407
B1610033756669N00311301WA0034300407
B1610043756669N00311301WA0034300407
B1610053756669N00311301WA0034300407
B1610063756669N00311301WA0034300407
B1610073756669N00311302WA0034300407
B1610083756669N00311302WA0034300408
B1610093756669N00311302WA0034300408
B1610103756669N00311302WA0034300408
B1610113756669N00311302WA0034300409
B1610123756669N00311302WA0034300409
B1610133756669N00311302WA0034300409
B1610143756669N00311302WA0034300409
B1610153756669N00311302WA0034300410
B1610163756669N00311302WA0034300410
B1610173756670N00311302WA0034300410
B1610183756670N00311302WA0034300410
B1610193756670N00311302WA0034300411
B1610203756670N00311302WA0034300411
B1610213756670N00311302WA0034300410
B1610223756670N00311302WA0034300410
B1610233756670N00311302WA0034300410
B1610243756670N00311302WA0034300410
B1610253756670N00311302WA0034300410
B1610263756670N00311302WA0034300410
B1610273756670N00311302WA0034300410
B1610283756670N00311302WA0034300410
B1610293756670N00311302WA0034300410
B1610303756670N00311302WA0034300410
B1610313756670N00311302WA0034300410
B1610323756670N00311302WA0034300410
B1610333756670N00311302WA0034300410
B1610343756670N00311302WA0034300410
B1610353756670N00311302WA0034300410
B1610363756670N00311302WA0034300410
B1610373756670N00311302WA0034300410
B1610383756669N00311302WA0034300410
B1610393756669N00311302WA0034300410
B1610403756669N00311302WA0034300410
B1610413756669N00311302WA0034300410
B1610423756669N00311302WA0034300410
B1610433756669N00311302WA0034300410
B1610443756669N00311302WA0034300410
B1610453756669N00311302WA0034300410
B1610463756669N00311302WA0034300409
B1610473756669N00311302WA0034300409
B1610483756669N00311302WA0034300409
B1610493756669N00311302WA0034300409
B1610503756669N00311302WA0034300409
B1610513756669N00311302WA0034300409
B1610523756669N00311302WA0034300409
B1610533756669N00311302WA0034300409
B1610543756669N00311302WA0034300409
B1610553756669N00311302WA0034300409
B1610563756669N00311302WA0034300409
B1610573756669N00311302WA0034300409
B1610583756669N00311302WA0034300409
B1610593756669N00311302WA0034300409
B1611003756669N00311302WA0034300410
B1611013756669N00311302WA0034300410
B1611023756669N00311302WA0034300410
B1611033756669N00311302WA0034300410
B1611043756669N00311302WA0034300410
B1611053756669N00311302WA0034300410
B1611063756669N00311302WA0034300410
B1611073756669N00311301WA0034300410
B1611083756669N00311301WA0034300410
B1611093756669N00311301WA0034300410
B1611103756669N00311302WA0034300410
B1611113756669N00311301WA0034300410
B1611123756669N00311301WA0034300410
B1611133756669N00311301WA0034300410
B1611143756669N00311301WA0034300410
B1611153756669N00311301WA0034300410
B1611163756669N00311301WA0034300410
B1611173756669N00311301WA0034300410
B1611183756669N00311301WA0034300410
B1611193756669N00311301WA0034300410
B1611203756669N00311301WA0034300410
B1611213756669N00311301WA0034300410
B1611223756670N00311301WA0034300411
B1611233756670N00311301WA0034300411
B1611243756670N00311301WA0034300411
B1611253756670N00311301WA0034300411
B1611263756670N00311301WA0034300411
B1611273756670N00311302WA0034300411
B1611283756670N00311302WA0034300410
B1611293756670N00311302WA0034300410
B1611303756670N00311302WA0034300410
B1611313756670N00311302WA0034300410
B1611323756670N00311302WA0034300410
B1611333756670N00311302WA0034300410
B1611343756670N00311302WA0034300410
B1611353756670N00311302WA0034300409
B1611363756670N00311302WA0034300409
B1611373756670N00311302WA0034300409
B1611383756670N00311302WA0034300409
B1611393756670N00311302WA0034300409
B1611403756670N00311302WA0034300409
B1611413756670N00311302WA0034300409
B1611423756670N00311302WA0034300409
B1611433756670N00311302WA0034300409
B1611443756670N00311302WA0034300409
B1611453756670N00311302WA0034300409
B1611463756670N00311302WA0034300409
B1611473756670N00311302WA0034300409
B1611483756670N00311302WA0034300409
B1611493756670N00311302WA0034300409
B1611503756670N00311302WA0034300409
B1611513756670N00311302WA0034300409
B1611523756670N00311302WA0034300409
B1611533756670N00311302WA0034300409
B1611543756670N00311302WA0034400409
B1611553756670N00311302WA0034300409
B1611563756670N00311302WA0034300409
B1611573756670N00311302WA0034300408
B1611583756670N00311302WA0034300408
B1611593756670N00311301WA0034300408
B1612003756670N00311301WA0034300408
B1612013756670N00311301WA0034300408
B1612023756670N00311301WA0034300408
B1612033756670N00311301WA0034300408
B1612043756670N00311301WA0034300408
B1612053756669N00311301WA0034300408
B1612063756669N00311301WA0034300408
B1612073756669N00311301WA0034300408
B1612083756669N00311301WA0034400408
B1612093756669N00311301WA0034300408
B1612103756669N00311301WA0034300408
B1612113756669N00311301WA0034300408
B1612123756669N00311301WA0034300408
B1612133756669N00311301WA0034400408
B1612143756669N00311301WA0034300408
B1612153756669N00311301WA0034300408
B1612163756669N00311301WA0034300408
B1612173756669N00311301WA0034300408
B1612183756669N00311301WA0034400408
B1612193756669N00311301WA0034400408
B1612203756669N00311301WA0034300408
B1612213756669N00311301WA0034300409
B1612223756669N00311301WA0034300409
B1612233756669N00311301WA0034300409
B1612243756669N00311301WA0034300409
B1612253756669N00311301WA0034400409
B1612263756669N00311301WA0034300409
B1612273756669N00311301WA0034400409
B1612283756669N00311301WA0034300409
B1612293756669N00311301WA0034400409
B1612303756669N00311301WA0034400409
B1612313756669N00311301WA0034400409
B1612323756669N00311301WA0034300409
B1612333756669N00311301WA0034400409
B1612343756668N00311301WA0034400409
B1612353756668N00311301WA0034300409
B1612363756668N00311301WA0034400408
B1612373756668N00311301WA0034400408
B1612383756668N00311301WA0034300408
B1612393756668N00311301WA0034400408
B1612403756668N00311301WA0034400408
B1612413756668N00311300WA0034400407
B1612423756668N00311300WA0034400407
B1612433756668N00311300WA0034300407
B1612443756668N00311300WA0034400407
B1612453756668N00311300WA0034400407
B1612463756668N00311300WA0034400406
B1612473756668N00311300WA0034400406
B1612483756668N00311300WA0034400406
B1612493756668N00311300WA0034300406
B1612503756668N00311300WA0034300406
B1612513756668N00311300WA0034400406
B1612523756668N00311300WA0034300406
B1612533756668N00311301WA0034300406
B1612543756668N00311301WA0034400406
B1612553756668N00311301WA0034400406
B1612563756668N00311301WA0034400406
B1612573756668N00311301WA0034400406
B1612583756668N00311301WA0034400406
B1612593756668N00311301WA0034400406
B1613003756668N00311301WA0034300406
B1613013756668N00311301WA0034400406
B1613023756669N00311301WA0034400407
B1613033756669N00311301WA0034400407
B1613043756669N00311302WA0034400407
B1613053756669N00311302WA0034400407
B1613063756669N00311302WA0034400408
B1613073756669N00311302WA0034400408
B1613083756669N00311302WA0034400408
B1613093756669N00311302WA0034400408
B1613103756669N00311302WA0034400408
B1613113756669N00311302WA0034400408
B1613123756669N00311302WA0034400408
B1613133756669N00311302WA0034400408
B1613143756669N00311302WA0034400408
B1613153756669N00311302WA0034400408
B1613163756669N00311302WA0034400408
B1613173756669N00311302WA0034400408
B1613183756669N00311302WA0034400408
B1613193756669N00311302WA0034400407
B1613203756669N00311302WA0034400407
B1613213756669N00311302WA0034400407
B1613223756669N00311302WA0034400407
B1613233756669N00311302WA0034400407
B1613243756669N00311301WA0034400406
B1613253756669N00311301WA0034400406
B1613263756669N00311301WA0034400406
B1613273756669N00311301WA0034400406
B1613283756669N00311301WA0034400406
B1613293756669N00311301WA0034400406
B1613303756669N00311301WA0034400406
B1613313756669N00311301WA0034400406
B1613323756669N00311301WA0034400406
B1613333756669N00311301WA0034400407
B1613343756669N00311301WA0034400407
B1613353756668N00311301WA0034400407
B1613363756668N00311301WA0034400407
B1613373756668N00311301WA0034400407
B1613383756668N00311301WA0034400407
B1613393756668N00311301WA0034400407
B1613403756668N00311301WA0034400407
B1613413756668N00311301WA0034400406
B1613423756668N00311301WA0034400406
B1613433756668N00311301WA0034400406
B1613443756668N00311301WA0034400406
B1613453756668N00311301WA0034400406
B1613463756668N00311301WA0034400406
B1613473756668N00311301WA0034400406
B1613483756668N00311301WA0034400406
B1613493756668N00311301WA0034400406
B1613503756668N00311301WA0034400406
B1613513756668N00311301WA0034400406
B1613523756668N00311301WA0034400406
B1613533756668N00311301WA0034400406
B1613543756668N00311301WA0034400407
B1613553756668N00311301WA0034400407
B1613563756668N00311301WA0034400407
B1613573756668N00311301WA0034400407
B1613583756668N00311301WA0034400407
B1613593756668N00311301WA0034400407
B1614003756668N00311301WA0034400407
B1614013756668N00311301WA0034400407
B1614023756668N00311301WA0034400407
B1614033756668N00311301WA0034400408
B1614043756668N00311301WA0034400408
B1614053756668N00311301WA0034400408
B1614063756668N00311301WA0034400408
B1614073756668N00311301WA0034400408
B1614083756668N00311301WA0034400408
B1614093756668N00311301WA0034400408
B1614103756668N00311301WA0034400408
B1614113756668N00311301WA0034400408
B1614123756668N00311301WA0034400408
B1614133756668N00311301WA0034400408
B1614143756668N00311301WA0034400408
B1614153756668N00311301WA0034400408
B1614163756668N00311301WA0034400408
B1614173756668N00311301WA0034400408
B1614183756668N00311301WA0034400408
B1614193756668N00311301WA0034400408
B1614203756668N00311301WA0034400409
B1614213756668N00311301WA0034400409
B1614223756668N00311301WA0034400409
B1614233756668N00311301WA0034400410
B1614243756668N00311301WA0034400410
B1614253756668N00311301WA0034400410
B1614263756668N00311301WA0034400410
B1614273756668N00311301WA0034400410
B1614283756668N00311301WA0034400410
B1614293756668N00311301WA0034400410
B1614303756669N00311302WA0034400411
B1614313756669N00311302WA0034400410
B1614323756669N00311302WA0034400410
B1614333756669N00311302WA0034400410
B1614343756669N00311302WA0034400410
B1614353756669N00311302WA0034400411
B1614363756669N00311301WA0034400410
B1614373756669N00311301WA0034400411
B1614383756669N00311301WA0034400411
B1614393756669N00311301WA0034400411
B1614403756669N00311301WA0034400411
B1614413756669N00311301WA0034400411
B1614423756669N00311301WA0034400411
B1614433756669N00311301WA0034400411
B1614443756669N00311301WA0034400410
B1614453756669N00311301WA0034400410
B1614463756669N00311301WA0034400410
B1614473756669N00311302WA0034400410
B1614483756669N00311302WA0034400410
B1614493756669N00311302WA0034400410
B1614503756669N00311302WA0034400411
B1614513756669N00311302WA0034400411
B1614523756669N00311302WA0034400410
B1614533756669N00311302WA0034400410
B1614543756669N00311302WA0034400410
B1614553756669N00311302WA0034400410
B1614563756669N00311302WA0034400410
B1614573756669N00311302WA0034400410
B1614583756669N00311302WA0034400410
B1614593756669N00311302WA0034400410
B1615003756669N00311302WA0034400410
B1615013756669N00311302WA0034400410
B1615023756669N00311302WA0034400410
B1615033756669N00311302WA0034400410
B1615043756669N00311302WA0034400410
B1615053756669N00311302WA0034400409
B1615063756669N00311302WA0034400409
B1615073756669N00311302WA0034400409
B1615083756669N00311302WA0034400409
B1615093756669N00311302WA0034400409
B1615103756669N00311302WA0034400409
B1615113756669N00311302WA0034400409
B1615123756669N00311302WA0034400409
B1615133756670N00311302WA0034400409
B1615143756670N00311302WA0034400409
B1615153756670N00311302WA0034400409
B1615163756670N00311302WA0034400409
B1615173756670N00311302WA0034400409
B1615183756670N00311302WA0034400409
B1615193756670N00311302WA0034400409
B1615203756670N00311302WA0034400408
B1615213756670N00311302WA0034400408
B1615223756670N00311302WA0034400408
B1615233756670N00311302WA0034400408
B1615243756670N00311302WA0034400408
B1615253756670N00311302WA0034400408
B1615263756670N00311302WA0034400408
B1615273756670N00311302WA0034400408
B1615283756670N00311302WA0034400408
B1615293756670N00311302WA0034400408
B1615303756669N00311302WA0034400408
B1615313756669N00311302WA0034400408
B1615323756669N00311302WA0034400408
B1615333756669N00311302WA0034400408
B1615343756669N00311302WA0034400408
B1615353756669N00311302WA0034400408
B1615363756669N00311302WA0034400408
B1615373756669N00311302WA0034400408
B1615383756669N00311302WA0034400409
B1615393756669N00311302WA0034400409
B1615403756669N00311302WA0034400409
B1615413756669N00311302WA0034400409
B1615423756669N00311302WA0034400409
B1615433756669N00311302WA0034400409
B1615443756669N00311302WA0034400409
B1615453756669N00311302WA0034400409
B1615463756669N00311302WA0034400409
B1615473756669N00311302WA0034400410
B1615483756669N00311302WA0034400410
B1615493756669N00311302WA0034400410
B1615503756669N00311302WA0034400410
B1615513756669N00311302WA0034400410
B1615523756669N00311302WA0034400410
B1615533756669N00311302WA0034400410
B1615543756669N00311302WA0034400411
B1615553756669N00311302WA0034400411
B1615563756669N00311302WA0034400411
B1615573756669N00311302WA0034400411
B1615583756669N00311302WA0034400410
B1615593756669N00311302WA0034400410
B1616003756669N00311302WA0034400410
B1616013756669N00311302WA0034400410
B1616023756669N00311302WA0034400410
B1616033756669N00311302WA0034400410
B1616043756669N00311302WA0034400410
B1616053756669N00311302WA0034400409
B1616063756669N00311302WA0034400409
B1616073756669N00311302WA0034400409
B1616083756669N00311302WA0034400409
B1616093756669N00311302WA0034400409
B1616103756669N00311302WA0034400409
B1616113756669N00311302WA0034400408
B1616123756669N00311302WA0034400408
B1616133756669N00311302WA0034400408
B1616143756669N00311302WA0034400408
B1616153756669N00311302WA0034400408
B1616163756669N00311302WA0034400409
B1616173756669N00311302WA0034400409
B1616183756669N00311302WA0034400409
B1616193756669N00311302WA0034400409
B1616203756669N00311302WA0034400409
B1616213756669N00311302WA0034400409
B1616223756669N00311302WA0034400409
B1616233756669N00311302WA0034400409
B1616243756669N00311302WA0034400409
B1616253756669N00311302WA0034400409
B1616263756669N00311302WA0034400409
B1616273756669N00311302WA0034400409
B1616283756669N00311302WA0034400409
B1616293756669N00311302WA0034400409
B1616303756669N00311302WA0034400409
B1616313756669N00311302WA0034400409
B1616323756669N00311302WA0034400409
B1616333756669N00311302WA0034400409
B1616343756669N00311302WA0034400409
B1616353756669N00311302WA0034400409
B1616363756669N00311302WA0034400409
B1616373756669N00311302WA0034400409
B1616383756669N00311302WA0034400409
B1616393756669N00311302WA0034400409
B1616403756669N00311302WA0034400409
B1616413756669N00311302WA0034400408
B1616423756669N00311302WA0034400408
B1616433756669N00311302WA0034400408
B1616443756669N00311302WA0034400408
B1616453756669N00311302WA0034400408
B1616463756669N00311302WA0034400408
B1616473756669N00311302WA0034400408
B1616483756669N00311302WA0034400408
B1616493756669N00311302WA0034400408
B1616503756669N00311302WA0034400408
B1616513756669N00311302WA0034400408
B1616523756669N00311302WA0034400408
B1616533756669N00311301WA0034400408
B1616543756669N00311301WA0034400408
B1616553756669N00311301WA0034400408
B1616563756669N00311301WA0034400408
B1616573756669N00311301WA0034500408
B1616583756669N00311301WA0034400408
B1616593756669N00311301WA0034400408
B1617003756669N00311301WA0034400408
B1617013756669N00311301WA0034400408
B1617023756669N00311301WA0034400408
B1617033756669N00311301WA0034400408
B1617043756669N00311301WA0034400408
B1617053756669N00311301WA0034400408
B1617063756669N00311301WA0034400408
B1617073756669N00311302WA0034400408
B1617083756669N00311302WA0034400408
B1617093756669N00311302WA0034400409
B1617103756669N00311302WA0034400409
B1617113756669N00311302WA0034400409
B1617123756669N00311302WA0034500409
B1617133756669N00311302WA0034400410
B1617143756669N00311302WA0034400410
B1617153756669N00311302WA0034400410
B1617163756669N00311302WA0034400410
B1617173756669N00311302WA0034400409
B1617183756669N00311302WA0034400409
B1617193756669N00311302WA0034500409
B1617203756669N00311302WA0034400409
B1617213756669N00311302WA0034400409
B1617223756669N00311302WA0034400409
B1617233756669N00311302WA0034400409
B1617243756669N00311302WA0034400409
B1617253756669N00311302WA0034400410
B1617263756669N00311302WA0034400409
B1617273756669N00311302WA0034400410
B1617283756669N00311302WA0034400410
B1617293756669N00311302WA0034400409
B1617303756669N00311302WA0034400409
B1617313756669N00311302WA0034400410
B1617323756669N00311302WA0034400410
B1617333756669N00311302WA0034400410
B1617343756669N00311302WA0034400410
B1617353756669N00311302WA0034400410
B1617363756668N00311302WA0034400410
B1617373756668N00311302WA0034400410
B1617383756668N00311301WA0034400410
B1617393756668N00311301WA0034500410
B1617403756668N00311301WA0034500410
B1617413756668N00311301WA0034500410
B1617423756668N00311301WA0034500410
B1617433756668N00311301WA0034400410
B1617443756668N00311301WA0034400410
B1617453756668N00311301WA0034400410
B1617463756668N00311301WA0034500410
B1617473756668N00311301WA0034500409
B1617483756668N00311301WA0034400409
B1617493756668N00311301WA0034400409
B1617503756668N00311301WA0034400409
B1617513756668N00311301WA0034400409
B1617523756668N00311301WA0034400409
B1617533756668N00311301WA0034400409
B1617543756668N00311301WA0034400409
B1617553756668N00311301WA0034400409
B1617563756668N00311300WA0034400409
B1617573756668N00311300WA0034500409
B1617583756668N00311300WA0034400409
B1617593756668N00311300WA0034400409
B1618003756668N00311300WA0034500409
B1618013756668N00311300WA0034400409
B1618023756668N00311301WA0034400409
B1618033756668N00311301WA0034400409
B1618043756668N00311301WA0034400409
B1618053756669N00311301WA0034400409
B1618063756669N00311301WA0034400409
B1618073756669N00311301WA0034400409
B1618083756669N00311301WA0034500409
B1618093756669N00311301WA0034500409
B1618103756669N00311301WA0034400409
B1618113756669N00311301WA0034400409
B1618123756669N00311301WA0034400409
B1618133756669N00311301WA0034500409
B1618143756669N00311301WA0034400409
B1618153756669N00311301WA0034500409
B1618163756669N00311301WA0034500409
B1618173756669N00311301WA0034500409
B1618183756669N00311301WA0034400409
B1618193756669N00311301WA0034400408
B1618203756669N00311301WA0034400408
B1618213756669N00311301WA0034500408
B1618223756669N00311301WA0034400408
B1618233756669N00311301WA0034400408
B1618243756669N00311301WA0034500408
B1618253756669N00311301WA0034400408
B1618263756669N00311301WA0034400407
B1618273756669N00311301WA0034500407
B1618283756669N00311301WA0034500407
B1618293756669N00311301WA0034500407
B1618303756669N00311301WA0034500407
B1618313756669N00311301WA0034500407
B1618323756669N00311301WA0034500407
B1618333756669N00311301WA0034500407
B1618343756669N00311301WA0034400407
B1618353756669N00311301WA0034500407
B1618363756669N00311301WA0034400407
B1618373756669N00311301WA0034500407
B1618383756669N00311301WA0034500407
B1618393756669N00311301WA0034500407
B1618403756669N00311301WA0034500407
B1618413756669N00311301WA0034500407
B1618423756669N00311301WA0034400407
B1618433756669N00311301WA0034400407
B1618443756669N00311301WA0034500407
B1618453756669N00311301WA0034500408
B1618463756669N00311301WA0034500408
B1618473756669N00311301WA0034500408
B1618483756669N00311301WA0034500408
B1618493756669N00311301WA0034500408
B1618503756669N00311301WA0034400409
B1618513756669N00311301WA0034400409
B1618523756669N00311301WA0034400409
B1618533756669N00311301WA0034500409
B1618543756669N00311301WA0034500409
B1618553756669N00311301WA0034500409
B1618563756669N00311301WA0034500409
B1618573756669N00311301WA0034500409
B1618583756669N00311301WA0034500409
B1618593756669N00311301WA0034500409
B1619003756669N00311301WA0034500409
B1619013756669N00311301WA0034500409
B1619023756669N00311301WA0034500408
B1619033756669N00311301WA0034500408
B1619043756669N00311301WA0034400408
B1619053756669N00311301WA0034500408
B1619063756669N00311301WA0034500408
B1619073756669N00311301WA0034500408
B1619083756668N00311301WA0034500408
B1619093756668N00311301WA0034500408
B1619103756668N00311301WA0034500408
B1619113756668N00311301WA0034500408
B1619123756668N00311301WA0034500408
B1619133756668N00311301WA0034500408
B1619143756668N00311301WA0034500408
B1619153756668N00311301WA0034500408
B1619163756668N00311301WA0034500408
B1619173756668N00311301WA0034500408
B1619183756668N00311301WA0034500408
B1619193756668N00311301WA0034500408
B1619203756668N00311301WA0034500408
B1619213756668N00311301WA0034500408
B1619223756668N00311301WA0034500408
B1619233756669N00311301WA0034500408
B1619243756669N00311301WA0034500408
B1619253756669N00311301WA0034500408
B1619263756669N00311301WA0034500408
B1619273756669N00311301WA0034500408
B1619283756669N00311301WA0034400408
B1619293756669N00311301WA0034500407
B1619303756669N00311301WA0034500407
B1619313756669N00311301WA0034500407
B1619323756669N00311301WA0034500407
B1619333756669N00311301WA0034500407
B1619343756669N00311301WA0034500407
B1619353756669N00311301WA0034500407
B1619363756669N00311301WA0034500407
B1619373756669N00311301WA0034500407
B1619383756668N00311301WA0034500407
B1619393756668N00311301WA0034500407
B1619403756668N00311301WA0034500408
B1619413756669N00311301WA0034500408
B1619423756669N00311301WA0034500408
B1619433756669N00311301WA0034500408
B1619443756669N00311301WA0034500408
B1619453756669N00311301WA0034500408
B1619463756668N00311302WA0034500408
B1619473756668N00311302WA0034500408
B1619483756668N00311302WA0034500409
B1619493756668N00311302WA0034500409
B1619503756668N00311301WA0034500409
B1619513756668N00311301WA0034500409
B1619523756668N00311301WA0034500409
B1619533756668N00311301WA0034500409
B1619543756668N00311301WA0034500409
B1619553756668N00311301WA0034500409
B1619563756668N00311301WA0034500409
B1619573756668N00311301WA0034500409
B1619583756668N00311301WA0034500409
B1619593756668N00311301WA0034500409
B1620003756668N00311301WA0034500409
B1620013756668N00311301WA0034500409
B1620023756668N00311301WA0034500409
B1620033756668N00311301WA0034500409
B1620043756668N00311301WA0034500409
B1620053756668N00311301WA0034500409
B1620063756668N00311301WA0034500409
B1620073756668N00311301WA0034500409
B1620083756667N00311301WA0034500410
B1620093756667N00311301WA0034500410
B1620103756667N00311301WA0034500410
B1620113756667N00311301WA0034500410
B1620123756667N00311301WA0034500410
B1620133756668N00311301WA0034500410
B1620143756668N00311301WA0034500410
B1620153756667N00311301WA0034500409
B1620163756667N00311301WA0034500409
B1620173756668N00311301WA0034500409
B1620183756668N00311301WA0034500409
B1620193756668N00311301WA0034500409
B1620203756668N00311301WA0034500409
B1620213756668N00311301WA0034500408
B1620223756668N00311301WA0034500408
B1620233756668N00311301WA0034500408
B1620243756668N00311301WA0034500408
B1620253756668N00311301WA0034500408
B1620263756668N00311301WA0034500407
B1620273756668N00311301WA0034500407
B1620283756668N00311301WA0034500407
B1620293756668N00311301WA0034500407
B1620303756668N00311301WA0034500407
B1620313756668N00311301WA0034500407
B1620323756668N00311301WA0034500407
B1620333756668N00311301WA0034500407
B1620343756668N00311301WA0034500407
B1620353756668N00311301WA0034500407
B1620363756668N00311301WA0034500407
B1620373756669N00311301WA0034500407
B1620383756669N00311301WA0034500407
B1620393756669N00311301WA0034500407
B1620403756669N00311302WA0034500407
B1620413756669N00311302WA0034500407
B1620423756669N00311302WA0034500407
B1620433756669N00311302WA0034500407
B1620443756669N00311302WA0034500407
B1620453756669N00311302WA0034500407
B1620463756669N00311302WA0034500407
B1620473756669N00311302WA0034500407
B1620483756669N00311302WA0034500407
B1620493756669N00311302WA0034500407
B1620503756669N00311302WA0034500407
B1620513756669N00311302WA0034500407
B1620523756669N00311302WA0034500407
B1620533756669N00311302WA0034500407
B1620543756669N00311302WA0034500407
B1620553756669N00311302WA0034500407
B1620563756669N00311302WA0034500407
B1620573756669N00311301WA0034500407
B1620583756669N00311301WA0034500408
B1620593756669N00311301WA0034500408
B1621003756668N00311301WA0034500408
B1621013756668N00311301WA0034500408
B1621023756668N00311301WA0034500408
B1621033756668N00311301WA0034500408
B1621043756668N00311301WA0034500408
B1621053756669N00311301WA0034500408
B1621063756669N00311301WA0034500408
B1621073756668N00311301WA0034500408
B1621083756668N00311301WA0034500408
B1621093756669N00311301WA0034500408
B1621103756669N00311301WA0034500408
B1621113756669N00311301WA0034500408
B1621123756669N00311301WA0034500408
B1621133756669N00311301WA0034500408
B1621143756669N00311301WA0034500408
B1621153756669N00311301WA0034500407
B1621163756669N00311301WA0034500407
B1621173756669N00311301WA0034500407
B1621183756669N00311301WA0034500407
B1621193756669N00311301WA0034500407
B1621203756669N00311301WA0034500407
B1621213756669N00311301WA0034500407
B1621223756669N00311301WA0034500407
B1621233756669N00311301WA0034500407
B1621243756669N00311301WA0034500407
B1621253756669N00311301WA0034500407
B1621263756669N00311301WA0034500407
B1621273756669N00311301WA0034500407
B1621283756669N00311301WA0034500407
B1621293756669N00311301WA0034500407
B1621303756669N00311301WA0034500407
B1621313756669N00311301WA0034500407
B1621323756669N00311301WA0034500407
B1621333756669N00311301WA0034500407
B1621343756669N00311301WA0034500407
B1621353756669N00311301WA0034500407
B1621363756669N00311301WA0034500407
B1621373756669N00311301WA0034500407
B1621383756669N00311301WA0034500407
B1621393756669N00311301WA0034500407
B1621403756669N00311301WA0034500407
B1621413756669N00311301WA0034500407
B1621423756669N00311301WA0034500406
B1621433756669N00311301WA0034500406
B1621443756669N00311301WA0034500406
B1621453756669N00311301WA0034500406
B1621463756669N00311301WA0034500406
B1621473756669N00311301WA0034500405
B1621483756669N00311301WA0034500405
B1621493756669N00311301WA0034500405
B1621503756669N00311301WA0034500405
B1621513756669N00311301WA0034500405
B1621523756669N00311301WA0034500405
B1621533756669N00311301WA0034500405
B1621543756669N00311301WA0034500405
B1621553756669N00311301WA0034500405
B1621563756669N00311301WA0034500405
B1621573756669N00311301WA0034500405
B1621583756669N00311301WA0034500405
B1621593756669N00311301WA0034500405
B1622003756669N00311301WA0034500405
B1622013756669N00311301WA0034500405
B1622023756669N00311301WA0034500405
B1622033756669N00311301WA0034500405
B1622043756669N00311301WA0034500406
B1622053756669N00311301WA0034500406
B1622063756669N00311301WA0034500406
B1622073756669N00311301WA0034500406
B1622083756669N00311301WA0034500406
B1622093756669N00311301WA0034500406
B1622103756669N00311301WA0034500406
B1622113756669N00311301WA0034500406
B1622123756669N00311301WA0034500406
B1622133756669N00311301WA0034500407
B1622143756669N00311301WA0034500407
B1622153756669N00311301WA0034500407
B1622163756669N00311301WA0034500407
B1622173756669N00311301WA0034500407
B1622183756669N00311301WA0034500407
B1622193756669N00311301WA0034500407
B1622203756669N00311301WA0034500407
B1622213756669N00311301WA0034500407
B1622223756669N00311301WA0034500407
B1622233756669N00311301WA0034500407
B1622243756669N00311301WA0034500407
B1622253756669N00311301WA0034500407
B1622263756669N00311301WA0034500407
B1622273756669N00311301WA0034500407
B1622283756669N00311301WA0034500407
B1622293756669N00311301WA0034500407
B1622303756669N00311301WA0034500407
B1622313756669N00311301WA0034500406
B1622323756669N00311301WA0034500406
B1622333756669N00311301WA0034500406
B1622343756669N00311301WA0034500406
B1622353756669N00311301WA0034500407
B1622363756669N00311301WA0034500407
B1622373756669N00311301WA0034500407
B1622383756669N00311301WA0034500407
B1622393756669N00311301WA0034500407
B1622403756669N00311301WA0034500407
B1622413756669N00311301WA0034500407
B1622423756669N00311301WA0034500407
B1622433756669N00311301WA0034500407
B1622443756669N00311301WA0034500407
B1622453756669N00311301WA0034500407
B1622463756669N00311301WA0034500406
B1622473756669N00311301WA0034500406
B1622483756669N00311301WA0034500406
B1622493756669N00311301WA0034500406
B1622503756669N00311301WA0034500407
B1622513756669N00311301WA0034500407
B1622523756669N00311301WA0034500407
B1622533756669N00311301WA0034500407
B1622543756669N00311301WA0034500407
B1622553756669N00311301WA0034500408
B1622563756669N00311301WA0034500408
B1622573756669N00311301WA0034500408
B1622583756669N00311301WA0034500408
B1622593756669N00311301WA0034500408
B1623003756669N00311301WA0034500408
B1623013756669N00311301WA0034500408
B1623023756669N00311301WA0034500408
B1623033756669N00311301WA0034500408
B1623043756669N00311301WA0034500408
B1623053756669N00311301WA0034500408
B1623063756669N00311301WA0034500408
B1623073756669N00311301WA0034500408
B1623083756669N00311301WA0034500408
B1623093756669N00311301WA0034500408
B1623103756669N00311301WA0034500408
B1623113756669N00311301WA0034500408
B1623123756669N00311301WA0034500408
B1623133756669N00311301WA0034500408
B1623143756669N00311301WA0034500408
B1623153756669N00311301WA0034500409
B1623163756669N00311301WA0034500409
B1623173756669N00311301WA0034500409
B1623183756669N00311301WA0034500409
B1623193756669N00311301WA0034500409
B1623203756669N00311301WA0034500409
B1623213756669N00311301WA0034500408
B1623223756669N00311302WA0034500408
B1623233756669N00311302WA0034500408
B1623243756669N00311302WA0034500408
B1623253756669N00311302WA0034500408
B1623263756669N00311302WA0034500408
B1623273756669N00311302WA0034500408
B1623283756669N00311302WA0034500408
B1623293756669N00311302WA0034500408
B1623303756669N00311302WA0034500408
B1623313756669N00311302WA0034500408
B1623323756669N00311302WA0034500408
B1623333756669N00311302WA0034500408
B1623343756669N00311302WA0034500408
B1623353756669N00311302WA0034500407
B1623363756669N00311301WA0034500407
B1623373756669N00311301WA0034500407
B1623383756669N00311301WA0034500407
B1623393756669N00311301WA0034500407
B1623403756669N00311301WA0034500407
B1623413756669N00311301WA0034500407
B1623423756669N00311301WA0034500407
B1623433756669N00311301WA0034500407
B1623443756669N00311301WA0034500406
B1623453756669N00311301WA0034500407
B1623463756669N00311301WA0034500406
B1623473756669N00311301WA0034500406
B1623483756669N00311301WA0034500406
B1623493756669N00311301WA0034500406
B1623503756669N00311301WA0034500406
B1623513756669N00311301WA0034600406
B1623523756669N00311301WA0034500407
B1623533756669N00311301WA0034500406
B1623543756669N00311301WA0034500406
B1623553756669N00311301WA0034500406
B1623563756669N00311301WA0034500406
B1623573756669N00311301WA0034500406
B1623583756669N00311301WA0034500406
B1623593756669N00311301WA0034500406
B1624003756669N00311301WA0034500406
B1624013756669N00311301WA0034500406
B1624023756669N00311301WA0034500406
B1624033756669N00311301WA0034500406
B1624043756669N00311301WA0034500406
B1624053756669N00311301WA0034500406
B1624063756669N00311301WA0034500407
B1624073756669N00311301WA0034500407
B1624083756669N00311301WA0034500407
B1624093756669N00311301WA0034500407
B1624103756669N00311301WA0034500407
B1624113756669N00311301WA0034500407
B1624123756669N00311301WA0034500406
B1624133756669N00311301WA0034500406
B1624143756669N00311301WA0034500406
B1624153756669N00311301WA0034500406
B1624163756669N00311301WA0034500406
B1624173756669N00311301WA0034500406
B1624183756669N00311301WA0034500406
B1624193756669N00311301WA0034500405
B1624203756669N00311301WA0034500405
B1624213756669N00311301WA0034500405
B1624223756669N00311301WA0034500405
B1624233756669N00311301WA0034500405
B1624243756669N00311302WA0034500405
B1624253756669N00311302WA0034500405
B1624263756669N00311302WA0034500405
B1624273756669N00311302WA0034500405
B1624283756669N00311302WA0034500405
B1624293756669N00311302WA0034500405
B1624303756669N00311301WA0034500405
B1624313756669N00311301WA0034500405
B1624323756669N00311301WA0034500405
B1624333756669N00311301WA0034500405
B1624343756669N00311302WA0034500405
B1624353756669N00311302WA0034500405
B1624363756669N00311302WA0034500405
B1624373756669N00311302WA0034500405
B1624383756669N00311301WA0034500405
B1624393756669N00311301WA0034500405
B1624403756669N00311301WA0034500405
B1624413756669N00311301WA0034500405
B1624423756668N00311301WA0034500405
B1624433756668N00311301WA0034500405
B1624443756668N00311301WA0034500405
B1624453756668N00311301WA0034500406
B1624463756668N00311301WA0034500406
B1624473756668N00311301WA0034500406
B1624483756668N00311301WA0034500406
B1624493756668N00311301WA0034500406
B1624503756668N00311301WA0034500406
B1624513756668N00311301WA0034500406
B1624523756668N00311301WA0034500406
B1624533756668N00311301WA0034500406
B1624543756669N00311301WA0034500406
B1624553756669N00311301WA0034500406
B1624563756669N00311301WA0034500406
B1624573756669N00311301WA0034500406
B1624583756669N00311301WA0034500406
B1624593756669N00311301WA0034500406
B1625003756669N00311301WA0034500406
B1625013756669N00311301WA0034500406
B1625023756669N00311301WA0034500406
B1625033756669N00311301WA0034500406
B1625043756669N00311301WA0034600406
B1625053756669N00311301WA0034500406
B1625063756669N00311301WA0034500406
B1625073756669N00311301WA0034500406
B1625083756669N00311301WA0034500406
B1625093756669N00311301WA0034600406
B1625103756669N00311301WA0034500406
B1625113756669N00311301WA0034500406
B1625123756669N00311301WA0034500406
B1625133756669N00311301WA0034500406
B1625143756669N00311301WA0034500406
B1625153756669N00311301WA0034500406
B1625163756669N00311301WA0034500406
B1625173756669N00311301WA0034500406
B1625183756669N00311301WA0034500405
B1625193756669N00311301WA0034500405
B1625203756669N00311301WA0034500405
B1625213756669N00311301WA0034500405
B1625223756669N00311301WA0034500405
B1625233756669N00311301WA0034500405
B1625243756669N00311301WA0034500405
B1625253756669N00311301WA0034500405
B1625263756669N00311301WA0034500405
B1625273756669N00311301WA0034500405
B1625283756669N00311301WA0034500405
B1625293756669N00311301WA0034500405
B1625303756669N00311301WA0034500405
B1625313756669N00311301WA0034500405
B1625323756669N00311301WA0034500405
B1625333756669N00311301WA0034500405
B1625343756669N00311301WA0034500405
B1625353756669N00311301WA0034500405
B1625363756669N00311301WA0034600405
B1625373756669N00311301WA0034500405
B1625383756669N00311301WA0034500405
B1625393756668N00311301WA0034500405
B1625403756668N00311301WA0034500405
B1625413756668N00311301WA0034600405
B1625423756668N00311301WA0034500405
B1625433756668N00311301WA0034500405
B1625443756668N00311301WA0034500405
B1625453756668N00311301WA0034600405
B1625463756668N00311301WA0034500405
B1625473756668N00311301WA0034500404
B1625483756668N00311301WA0034500404
B1625493756668N00311301WA0034500404
B1625503756668N00311301WA0034500404
B1625513756668N00311301WA0034500404
B1625523756668N00311301WA0034500404
B1625533756668N00311301WA0034600404
B1625543756668N00311301WA0034500404
B1625553756668N00311301WA0034500404
B1625563756668N00311301WA0034600404
B1625573756668N00311301WA0034500404
B1625583756668N00311301WA0034500405
B1625593756668N00311301WA0034600405
B1626003756668N00311301WA0034600405
B1626013756668N00311301WA0034500405
B1626023756668N00311301WA0034500405
B1626033756668N00311301WA0034500404
B1626043756668N00311301WA0034500404
B1626053756668N00311301WA0034600404
B1626063756668N00311301WA0034500404
B1626073756668N00311301WA0034500404
B1626083756668N00311301WA0034600404
B1626093756668N00311300WA0034500404
B1626103756668N00311301WA0034600404
B1626113756668N00311301WA0034600404
B1626123756669N00311301WA0034600404
B1626133756669N00311301WA0034500404
B1626143756669N00311301WA0034500404
B1626153756669N00311301WA0034500404
B1626163756669N00311301WA0034500404
B1626173756669N00311301WA0034500404
B1626183756669N00311301WA0034600404
B1626193756669N00311301WA0034500404
B1626203756669N00311301WA0034500404
B1626213756669N00311301WA0034500404
B1626223756669N00311301WA0034500404
B1626233756669N00311301WA0034500404
B1626243756669N00311301WA0034500404
B1626253756669N00311301WA0034500404
B1626263756669N00311301WA0034600404
B1626273756669N00311301WA0034500404
B1626283756669N00311301WA0034500404
B1626293756669N00311301WA0034600404
B1626303756669N00311301WA0034500404
B1626313756669N00311301WA0034600404
B1626323756669N00311301WA0034600404
B1626333756669N00311301WA0034600404
B1626343756669N00311301WA0034600404
B1626353756669N00311301WA0034600404
B1626363756669N00311301WA0034500404
B1626373756669N00311301WA0034600404
B1626383756669N00311301WA0034500404
B1626393756669N00311301WA0034600404
B1626403756669N00311301WA0034600404
B1626413756669N00311301WA0034600404
B1626423756668N00311301WA0034600404
B1626433756668N00311301WA0034600404
B1626443756668N00311301WA0034600404
B1626453756668N00311301WA0034500404
B1626463756668N00311301WA0034500404
B1626473756668N00311300WA0034600404
B1626483756668N00311300WA0034500404
B1626493756668N00311300WA0034500404
B1626503756668N00311300WA0034600404
B1626513756668N00311300WA0034500404
B1626523756668N00311300WA0034500404
B1626533756668N00311300WA0034500404
B1626543756668N00311300WA0034600404
B1626553756668N00311300WA0034500404
B1626563756668N00311300WA0034600404
B1626573756668N00311300WA0034600404
B1626583756668N00311300WA0034500404
B1626593756668N00311300WA0034600404
B1627003756668N00311300WA0034600404
B1627013756668N00311300WA0034600404
B1627023756668N00311300WA0034600404
B1627033756668N00311300WA0034600404
B1627043756668N00311300WA0034600405
B1627053756668N00311301WA0034600405
B1627063756668N00311301WA0034600405
B1627073756668N00311301WA0034600405
B1627083756668N00311301WA0034600405
B1627093756668N00311301WA0034600405
B1627103756668N00311301WA0034600405
B1627113756668N00311301WA0034600405
B1627123756668N00311301WA0034600405
B1627133756668N00311301WA0034600405
B1627143756668N00311301WA0034600404
B1627153756668N00311301WA0034500404
B1627163756668N00311301WA0034600404
B1627173756668N00311301WA0034600404
B1627183756668N00311301WA0034600404
B1627193756668N00311301WA0034600404
B1627203756668N00311301WA0034500404
B1627213756668N00311301WA0034500404
B1627223756669N00311301WA0034600404
B1627233756669N00311301WA0034600402
B1627243756669N00311301WA0034600402
B1627253756669N00311301WA0034600402
B1627263756670N00311301WA0034600402
B1627273756670N00311301WA0034600402
B1627283756669N00311301WA0034600403
B1627293756669N00311301WA0034600403
B1627303756669N00311301WA0034600403
B1627313756669N00311301WA0034600403
B1627323756669N00311301WA0034600403
B1627333756669N00311301WA0034600403
B1627343756669N00311301WA0034600403
B1627353756669N00311301WA0034600403
B1627363756669N00311301WA0034600403
B1627373756669N00311301WA0034600403
B1627383756668N00311301WA0034600403
B1627393756668N00311301WA0034500403
B1627403756668N00311301WA0034600403
B1627413756668N00311301WA0034600403
B1627423756668N00311301WA0034600403
B1627433756668N00311301WA0034600403
B1627443756669N00311301WA0034600403
B1627453756669N00311301WA0034600404
B1627463756669N00311301WA0034600404
B1627473756669N00311301WA0034600404
B1627483756669N00311301WA0034600404
B1627493756669N00311301WA0034600404
B1627503756669N00311301WA0034600404
B1627513756669N00311301WA0034600404
B1627523756669N00311301WA0034600404
B1627533756669N00311301WA0034600404
B1627543756669N00311301WA0034600404
B1627553756668N00311301WA0034600405
B1627563756668N00311301WA0034600405
B1627573756668N00311301WA0034600405
B1627583756668N00311301WA0034500405
B1627593756668N00311301WA0034600405
B1628003756668N00311301WA0034600405
B1628013756668N00311301WA0034600405
B1628023756668N00311301WA0034600405
B1628033756668N00311301WA0034600405
B1628043756668N00311301WA0034600405
B1628053756668N00311301WA0034600405
B1628063756668N00311301WA0034600405
B1628073756668N00311301WA0034600405
B1628083756668N00311301WA0034600405
B1628093756668N00311301WA0034600405
B1628103756668N00311301WA0034600405
B1628113756668N00311301WA0034600405
B1628123756669N00311301WA0034600405
B1628133756669N00311301WA0034600405
B1628143756669N00311301WA0034600405
B1628153756669N00311301WA0034600405
B1628163756669N00311301WA0034500405
B1628173756669N00311301WA0034600405
B1628183756669N00311302WA0034600405
B1628193756669N00311302WA0034600405
B1628203756669N00311302WA0034600405
B1628213756669N00311302WA0034500405
B1628223756669N00311302WA0034600405
B1628233756669N00311302WA0034600405
B1628243756669N00311302WA0034600405
B1628253756669N00311302WA0034600405
B1628263756669N00311302WA0034600405
B1628273756669N00311302WA0034600405
B1628283756669N00311302WA0034600405
B1628293756669N00311301WA0034600405
B1628303756669N00311301WA0034600405
B1628313756669N00311301WA0034600405
B1628323756669N00311301WA0034600405
B1628333756669N00311301WA0034600405
B1628343756669N00311301WA0034600405
B1628353756669N00311301WA0034600405
B1628363756669N00311301WA0034600405
B1628373756669N00311301WA0034600405
B1628383756669N00311301WA0034600404
B1628393756669N00311301WA0034600404
B1628403756669N00311301WA0034600404
B1628413756669N00311301WA0034600404
B1628423756669N00311301WA0034600404
B1628433756669N00311301WA0034600404
B1628443756669N00311301WA0034600404
B1628453756669N00311301WA0034600404
B1628463756669N00311301WA0034600404
B1628473756669N00311301WA0034600404
B1628483756669N00311301WA0034600404
B1628493756669N00311301WA0034600404
B1628503756669N00311301WA0034600404
B1628513756669N00311301WA0034600404
B1628523756669N00311301WA0034600404
B1628533756669N00311301WA0034600404
B1628543756669N00311301WA0034600404
B1628553756670N00311301WA0034600404
B1628563756670N00311301WA0034600404
B1628573756670N00311301WA0034600404
B1628583756670N00311301WA0034600404
B1628593756670N00311301WA0034600404
B1629003756670N00311301WA0034500404
B1629013756670N00311301WA0034600404
B1629023756670N00311301WA0034600404
B1629033756670N00311301WA0034500404
B1629043756670N00311301WA0034600404
B1629053756669N00311301WA0034500404
B1629063756669N00311301WA0034500404
B1629073756669N00311301WA0034600404
B1629083756669N00311301WA0034600405
B1629093756669N00311301WA0034600405
B1629103756669N00311301WA0034600405
B1629113756669N00311301WA0034600405
B1629123756669N00311301WA0034600405
B1629133756669N00311301WA0034600405
B1629143756669N00311301WA0034600405
B1629153756669N00311301WA0034600405
B1629163756669N00311301WA0034500405
B1629173756669N00311301WA0034600405
B1629183756669N00311301WA0034600406
B1629193756669N00311301WA0034600405
B1629203756669N00311301WA0034600405
B1629213756669N00311301WA0034600405
B1629223756669N00311301WA0034600405
B1629233756669N00311301WA0034600405
B1629243756669N00311301WA0034600405
B1629253756669N00311301WA0034600405
B1629263756669N00311301WA0034600405
B1629273756669N00311301WA0034600405
B1629283756669N00311301WA0034600404
B1629293756669N00311301WA0034600404
B1629303756669N00311301WA0034600405
B1629313756669N00311301WA0034600405
B1629323756669N00311301WA0034600405
B1629333756669N00311301WA0034600405
B1629343756669N00311301WA0034600405
B1629353756669N00311301WA0034600405
B1629363756669N00311301WA0034500404
B1629373756669N00311301WA0034600404
B1629383756669N00311301WA0034600404
B1629393756669N00311301WA0034600404
B1629403756669N00311301WA0034600404
B1629413756669N00311301WA0034600404
B1629423756669N00311301WA0034600405
B1629433756669N00311301WA0034600405
B1629443756669N00311301WA0034600405
B1629453756669N00311301WA0034600405
B1629463756669N00311301WA0034600405
B1629473756669N00311301WA0034600405
B1629483756669N00311301WA0034600405
B1629493756668N00311301WA0034600405
B1629503756668N00311301WA0034600405
B1629513756668N00311301WA0034600405
B1629523756668N00311301WA0034600405
B1629533756668N00311301WA0034600405
B1629543756668N00311301WA0034600406
B1629553756668N00311301WA0034600406
B1629563756668N00311301WA0034600406
B1629573756668N00311301WA0034600406
B1629583756668N00311301WA0034600406
B1629593756668N00311301WA0034600406
B1630003756668N00311301WA0034600406
B1630013756668N00311301WA0034600407
B1630023756668N00311301WA0034600407
B1630033756668N00311301WA0034600407
B1630043756668N00311301WA0034600407
B1630053756669N00311301WA0034600407
B1630063756669N00311301WA0034600407
B1630073756669N00311301WA0034600407
B1630083756669N00311301WA0034600407
B1630093756669N00311301WA0034600407
B1630103756669N00311301WA0034600407
B1630113756669N00311301WA0034600407
B1630123756669N00311301WA0034600407
B1630133756669N00311301WA0034600407
B1630143756669N00311301WA0034600407
B1630153756669N00311301WA0034600407
B1630163756669N00311301WA0034600407
B1630173756669N00311301WA0034600407
B1630183756669N00311301WA0034600407
B1630193756669N00311301WA0034600407
B1630203756669N00311301WA0034600408
B1630213756669N00311301WA0034600408
B1630223756669N00311301WA0034600408
B1630233756669N00311301WA0034600408
B1630243756669N00311301WA0034600408
B1630253756669N00311301WA0034600407
B1630263756669N00311301WA0034600407
B1630273756669N00311301WA0034600407
B1630283756669N00311301WA0034600407
B1630293756669N00311301WA0034600407
B1630303756669N00311301WA0034600407
B1630313756669N00311301WA0034500407
B1630323756669N00311301WA0034500406
B1630333756669N00311301WA0034600406
B1630343756669N00311301WA0034600406
B1630353756669N00311301WA0034600406
B1630363756669N00311301WA0034500406
B1630373756668N00311301WA0034600407
B1630383756668N00311301WA0034600407
B1630393756668N00311301WA0034500407
B1630403756668N00311301WA0034500407
B1630413756668N00311301WA0034500407
B1630423756668N00311301WA0034500407
B1630433756668N00311301WA0034600407
B1630443756668N00311301WA0034500407
B1630453756668N00311301WA0034600407
B1630463756668N00311301WA0034600407
B1630473756668N00311301WA0034600407
B1630483756668N00311301WA0034600407
B1630493756668N00311301WA0034600407
B1630503756668N00311301WA0034600407
B1630513756668N00311301WA0034600407
B1630523756668N00311301WA0034600407
B1630533756668N00311301WA0034600407
B1630543756668N00311301WA0034600407
B1630553756668N00311301WA0034600407
B1630563756668N00311301WA0034600407
B1630573756668N00311301WA0034600407
B1630583756668N00311301WA0034600407
B1630593756668N00311301WA0034600407
B1631003756668N00311301WA0034600407
B1631013756668N00311301WA0034600408
B1631023756668N00311301WA0034600407
B1631033756668N00311301WA0034600407
B1631043756668N00311301WA0034600407
B1631053756668N00311301WA0034600407
B1631063756668N00311301WA0034600407
B1631073756668N00311301WA0034600407
B1631083756668N00311301WA0034600407
B1631093756668N00311301WA0034600407
B1631103756668N00311301WA0034600406
B1631113756668N00311301WA0034600406
B1631123756668N00311301WA0034600406
B1631133756668N00311301WA0034600406
B1631143756668N00311301WA0034600405
B1631153756668N00311301WA0034600405
B1631163756668N00311301WA0034600405
B1631173756668N00311301WA0034600405
B1631183756668N00311301WA0034600405
B1631193756669N00311301WA0034600405
B1631203756669N00311301WA0034600405
B1631213756669N00311301WA0034600405
B1631223756669N00311301WA0034500405
B1631233756669N00311301WA0034600405
B1631243756669N00311301WA0034600405
B1631253756669N00311301WA0034600405
B1631263756669N00311301WA0034600405
B1631273756669N00311301WA0034600405
B1631283756669N00311301WA0034600405
B1631293756669N00311301WA0034600405
B1631303756669N00311301WA0034600405
B1631313756669N00311301WA0034600405
B1631323756669N00311301WA0034600405
B1631333756669N00311301WA0034600405
B1631343756669N00311301WA0034600404
B1631353756669N00311301WA0034600405
B1631363756669N00311301WA0034600405
B1631373756669N00311301WA0034600405
B1631383756669N00311301WA0034600405
B1631393756669N00311301WA0034600405
B1631403756669N00311301WA0034600405
B1631413756669N00311301WA0034600405
B1631423756669N00311301WA0034600405
B1631433756669N00311300WA0034600405
B1631443756669N00311300WA0034600405
B1631453756669N00311300WA0034600405
B1631463756669N00311300WA0034600405
B1631473756669N00311300WA0034600405
B1631483756669N00311300WA0034600405
B1631493756669N00311300WA0034600405
B1631503756669N00311300WA0034600405
B1631513756669N00311300WA0034600404
B1631523756669N00311300WA0034600404
B1631533756669N00311300WA0034600404
B1631543756669N00311300WA0034600404
B1631553756669N00311300WA0034600404
B1631563756669N00311300WA0034600404
B1631573756669N00311300WA0034600403
B1631583756669N00311300WA0034600403
B1631593756669N00311300WA0034600403
B1632003756669N00311300WA0034600403
B1632013756669N00311300WA0034600403
B1632023756669N00311300WA0034600403
B1632033756669N00311300WA0034600403
B1632043756669N00311300WA0034600403
B1632053756669N00311300WA0034600404
B1632063756669N00311300WA0034600404
B1632073756669N00311300WA0034600404
B1632083756669N00311300WA0034600404
B1632093756668N00311300WA0034600404
B1632103756668N00311300WA0034600404
B1632113756668N00311300WA0034600404
B1632123756668N00311300WA0034600404
B1632133756668N00311300WA0034600404
B1632143756668N00311300WA0034600404
B1632153756668N00311300WA0034600404
B1632163756668N00311300WA0034600404
B1632173756668N00311300WA0034600404
B1632183756668N00311300WA0034600404
B1632193756668N00311300WA0034600404
B1632203756668N00311300WA0034600404
B1632213756668N00311300WA0034600403
B1632223756668N00311300WA0034600403
B1632233756668N00311300WA0034600403
B1632243756668N00311300WA0034600403
B1632253756668N00311300WA0034600404
B1632263756668N00311300WA0034600404
B1632273756668N00311300WA0034600404
B1632283756668N00311300WA0034600404
B1632293756668N00311300WA0034600404
B1632303756668N00311300WA0034600404
B1632313756668N00311300WA0034600404
B1632323756668N00311300WA0034600404
B1632333756668N00311300WA0034600404
B1632343756668N00311300WA0034600404
B1632353756668N00311300WA0034600404
B1632363756668N00311300WA0034600404
B1632373756668N00311300WA0034600404
B1632383756668N00311300WA0034600404
B1632393756668N00311300WA0034600403
B1632403756668N00311300WA0034500403
B1632413756668N00311301WA0034600403
B1632423756668N00311301WA0034600403
B1632433756668N00311301WA0034600403
B1632443756668N00311301WA0034600403
B1632453756668N00311301WA0034600403
B1632463756668N00311301WA0034600403
B1632473756668N00311301WA0034600403
B1632483756668N00311301WA0034600403
B1632493756668N00311301WA0034600403
B1632503756668N00311301WA0034600403
B1632513756668N00311301WA0034600404
B1632523756668N00311301WA0034600404
B1632533756668N00311301WA0034600404
B1632543756668N00311301WA0034600404
B1632553756668N00311301WA0034600404
B1632563756668N00311301WA0034600404
B1632573756669N00311301WA0034600404
B1632583756669N00311301WA0034600403
B1632593756669N00311301WA0034600403
B1633003756669N00311301WA0034600403
B1633013756669N00311301WA0034600403
B1633023756669N00311301WA0034600403
B1633033756668N00311301WA0034600403
B1633043756668N00311301WA0034600403
B1633053756668N00311301WA0034600403
B1633063756668N00311301WA0034600403
B1633073756668N00311301WA0034600403
B1633083756668N00311301WA0034600403
B1633093756668N00311301WA0034600403
B1633103756668N00311301WA0034600402
B1633113756669N00311301WA0034600402
B1633123756669N00311301WA0034600402
B1633133756669N00311301WA0034600402
B1633143756669N00311301WA0034600402
B1633153756669N00311301WA0034600402
B1633163756669N00311301WA0034600402
B1633173756669N00311301WA0034600402
B1633183756669N00311301WA0034600402
B1633193756669N00311301WA0034600402
B1633203756669N00311301WA0034600402
B1633213756669N00311301WA0034600402
B1633223756669N00311301WA0034600402
B1633233756669N00311301WA0034600402
B1633243756669N00311301WA0034600402
B1633253756669N00311301WA0034600403
B1633263756669N00311301WA0034600403
B1633273756669N00311301WA0034600403
B1633283756669N00311301WA0034600403
B1633293756669N00311301WA0034600403
B1633303756669N00311301WA0034600403
B1633313756669N00311301WA0034600403
B1633323756669N00311301WA0034600403
B1633333756669N00311301WA0034600403
B1633343756669N00311301WA0034600403
B1633353756669N00311301WA0034600404
B1633363756669N00311301WA0034600404
B1633373756669N00311301WA0034600404
B1633383756669N00311301WA0034600404
B1633393756669N00311301WA0034600404
B1633403756669N00311301WA0034600404
B1633413756669N00311301WA0034600404
B1633423756669N00311301WA0034600404
B1633433756669N00311301WA0034600405
B1633443756669N00311301WA0034600404
B1633453756669N00311301WA0034600404
B1633463756669N00311301WA0034600404
B1633473756669N00311301WA0034600404
B1633483756669N00311301WA0034600403
B1633493756669N00311301WA0034600403
B1633503756669N00311301WA0034600403
B1633513756669N00311301WA0034600403
B1633523756669N00311301WA0034600404
B1633533756669N00311301WA0034600404
B1633543756669N00311301WA0034600404
B1633553756669N00311301WA0034600404
B1633563756669N00311301WA0034600405
B1633573756669N00311301WA0034600404
B1633583756669N00311301WA0034600405
B1633593756669N00311301WA0034600405
B1634003756669N00311301WA0034600405
B1634013756669N00311301WA0034600405
B1634023756669N00311301WA0034600405
B1634033756669N00311301WA0034600405
B1634043756669N00311301WA0034600405
B1634053756668N00311300WA0034600405
B1634063756668N00311300WA0034600405
B1634073756668N00311300WA0034600405
B1634083756668N00311300WA0034600405
B1634093756668N00311300WA0034600405
B1634103756668N00311300WA0034600405
B1634113756668N00311300WA0034600405
B1634123756668N00311300WA0034600405
B1634133756668N00311300WA0034600405
B1634143756668N00311300WA0034600405
B1634153756668N00311300WA0034600406
B1634163756668N00311300WA0034600406
B1634173756668N00311300WA0034600405
B1634183756668N00311300WA0034600405
B1634193756668N00311300WA0034600405
B1634203756668N00311300WA0034600405
B1634213756668N00311300WA0034600404
B1634223756668N00311300WA0034600404
B1634233756668N00311300WA0034600404
B1634243756668N00311300WA0034600403
B1634253756668N00311300WA0034600403
B1634263756668N00311300WA0034600403
B1634273756669N00311300WA0034600403
B1634283756669N00311300WA0034600403
B1634293756669N00311300WA0034600403
B1634303756668N00311300WA0034600403
B1634313756668N00311300WA0034600403
B1634323756668N00311300WA0034600403
B1634333756668N00311300WA0034600404
B1634343756668N00311300WA0034600404
B1634353756668N00311301WA0034600404
B1634363756668N00311301WA0034600404
B1634373756668N00311301WA0034600405
B1634383756668N00311301WA0034600405
B1634393756668N00311301WA0034600405
B1634403756668N00311301WA0034600405
B1634413756668N00311301WA0034600405
B1634423756668N00311301WA0034600405
B1634433756668N00311301WA0034600405
B1634443756668N00311301WA0034600405
B1634453756668N00311301WA0034600405
B1634463756668N00311301WA0034600405
B1634473756668N00311301WA0034600405
B1634483756668N00311301WA0034600405
B1634493756668N00311301WA0034600405
B1634503756668N00311301WA0034600405
B1634513756668N00311301WA0034600405
B1634523756668N00311301WA0034600405
B1634533756668N00311301WA0034600405
B1634543756668N00311301WA0034600404
B1634553756668N00311301WA0034600404
B1634563756668N00311301WA0034600404
B1634573756668N00311301WA0034600404
B1634583756668N00311301WA0034600404
B1634593756668N00311301WA0034600404
B1635003756668N00311301WA0034600404
B1635013756668N00311301WA0034600404
B1635023756668N00311301WA0034600404
B1635033756668N00311301WA0034600404
B1635043756668N00311301WA0034600404
B1635053756668N00311301WA0034600405
B1635063756668N00311301WA0034600405
B1635073756668N00311301WA0034600405
B1635083756668N00311301WA0034600406
B1635093756668N00311301WA0034600406
B1635103756668N00311301WA0034600406
B1635113756668N00311301WA0034600406
B1635123756668N00311301WA0034600406
B1635133756668N00311301WA0034600406
B1635143756668N00311301WA0034600406
B1635153756668N00311301WA0034600406
B1635163756668N00311301WA0034600406
B1635173756668N00311301WA0034600406
B1635183756668N00311301WA0034600406
B1635193756668N00311301WA0034600405
B1635203756668N00311301WA0034600405
B1635213756668N00311301WA0034600405
B1635223756668N00311301WA0034600405
B1635233756668N00311301WA0034600405
B1635243756668N00311301WA0034600405
B1635253756668N00311301WA0034600405
B1635263756668N00311301WA0034600404
B1635273756669N00311301WA0034600404
B1635283756669N00311301WA0034600403
B1635293756669N00311301WA0034600403
B1635303756669N00311301WA0034600403
B1635313756669N00311301WA0034600403
B1635323756669N00311301WA0034600403
B1635333756669N00311301WA0034600403
B1635343756669N00311301WA0034600403
B1635353756669N00311301WA0034600403
B1635363756669N00311301WA0034600403
B1635373756669N00311301WA0034600403
B1635383756669N00311301WA0034600403
B1635393756669N00311301WA0034600402
B1635403756669N00311301WA0034600402
B1635413756669N00311301WA0034600401
B1635423756669N00311301WA0034600401
B1635433756669N00311301WA0034600401
B1635443756669N00311301WA0034600401
B1635453756669N00311301WA0034600401
B1635463756669N00311301WA0034600401
B1635473756669N00311301WA0034600401
B1635483756669N00311301WA0034600402
B1635493756669N00311301WA0034600402
B1635503756669N00311301WA0034600402
B1635513756669N00311301WA0034600402
B1635523756669N00311301WA0034600402
B1635533756669N00311301WA0034600402
B1635543756669N00311301WA0034600403
B1635553756669N00311301WA0034600403
B1635563756669N00311301WA0034600403
B1635573756669N00311301WA0034600402
B1635583756669N00311301WA0034600402
B1635593756669N00311301WA0034600402
B1636003756669N00311301WA0034600402
B1636013756669N00311301WA0034600403
B1636023756669N00311301WA0034600403
B1636033756669N00311301WA0034600403
B1636043756669N00311301WA0034600403
B1636053756669N00311301WA0034600403
B1636063756669N00311301WA0034600403
B1636073756669N00311301WA0034600403
B1636083756669N00311301WA0034600403
B1636093756669N00311301WA0034600403
B1636103756669N00311301WA0034600403
B1636113756669N00311301WA0034600403
B1636123756669N00311301WA0034600403
B1636133756669N00311301WA0034600403
B1636143756669N00311301WA0034600403
B1636153756669N00311301WA0034600404
B1636163756669N00311301WA0034600404
B1636173756669N00311301WA0034600404
B1636183756669N00311301WA0034600404
B1636193756669N00311301WA0034600404
B1636203756669N00311301WA0034600404
B1636213756669N00311301WA0034600404
B1636223756669N00311301WA0034600403
B1636233756669N00311301WA0034600403
B1636243756669N00311301WA0034600403
B1636253756668N00311301WA0034600403
B1636263756668N00311301WA0034600404
B1636273756668N00311301WA0034600404
B1636283756668N00311301WA0034600404
B1636293756668N00311301WA0034600404
B1636303756668N00311301WA0034600404
B1636313756668N00311301WA0034600404
B1636323756668N00311301WA0034600404
B1636333756668N00311301WA0034600404
B1636343756668N00311301WA0034600404
B1636353756668N00311301WA0034600405
B1636363756669N00311301WA0034600404
B1636373756669N00311301WA0034600404
B1636383756669N00311301WA0034600404
B1636393756669N00311301WA0034600404
B1636403756669N00311301WA0034600404
B1636413756669N00311301WA0034600404
B1636423756669N00311301WA0034600404
B1636433756669N00311301WA0034600404
B1636443756669N00311301WA0034600404
B1636453756669N00311301WA0034600404
B1636463756669N00311301WA0034600404
B1636473756669N00311301WA0034600404
B1636483756669N00311301WA0034600404
B1636493756669N00311301WA0034600404
B1636503756669N00311301WA0034600404
B1636513756669N00311301WA0034600404
B1636523756669N00311301WA0034600404
B1636533756669N00311301WA0034600404
B1636543756669N00311301WA0034600404
B1636553756669N00311301WA0034600404
B1636563756669N00311301WA0034600404
B1636573756669N00311301WA0034600404
B1636583756669N00311301WA0034600404
B1636593756669N00311301WA0034600404
B1637003756669N00311301WA0034600404
B1637013756668N00311301WA0034600404
B1637023756668N00311301WA0034600404
B1637033756668N00311301WA0034600404
B1637043756668N00311301WA0034600405
B1637053756668N00311301WA0034600405
B1637063756668N00311301WA0034600405
B1637073756668N00311301WA0034600405
B1637083756668N00311301WA0034600405
B1637093756668N00311301WA0034600405
B1637103756668N00311301WA0034600405
B1637113756668N00311301WA0034600405
B1637123756668N00311301WA0034600405
B1637133756668N00311301WA0034600405
B1637143756668N00311301WA0034600405
B1637153756668N00311301WA0034600405
B1637163756668N00311301WA0034600405
B1637173756668N00311301WA0034600405
B1637183756668N00311301WA0034600405
B1637193756668N00311301WA0034600405
B1637203756669N00311301WA0034600404
B1637213756668N00311301WA0034600404
B1637223756668N00311301WA0034600404
B1637233756668N00311301WA0034600404
B1637243756668N00311301WA0034600404
B1637253756668N00311301WA0034600404
B1637263756668N00311301WA0034600405
B1637273756668N00311301WA0034600405
B1637283756668N00311301WA0034600405
B1637293756668N00311301WA0034600404
B1637303756668N00311301WA0034600404
B1637313756669N00311301WA0034600404
B1637323756669N00311301WA0034600404
B1637333756669N00311301WA0034600404
B1637343756669N00311301WA0034600404
B1637353756669N00311301WA0034600404
B1637363756669N00311301WA0034600404
B1637373756669N00311301WA0034600403
B1637383756669N00311300WA0034600403
B1637393756669N00311300WA0034600403
B1637403756669N00311300WA0034600403
B1637413756669N00311300WA0034600403
B1637423756669N00311300WA0034600403
B1637433756669N00311301WA0034600403
B1637443756669N00311301WA0034600403
B1637453756669N00311301WA0034600404
B1637463756669N00311301WA0034600404
B1637473756669N00311301WA0034600404
B1637483756669N00311301WA0034600404
B1637493756669N00311301WA0034600404
B1637503756669N00311301WA0034600404
B1637513756669N00311301WA0034600404
B1637523756669N00311301WA0034600404
B1637533756669N00311301WA0034600405
B1637543756669N00311301WA0034600405
B1637553756669N00311301WA0034600405
B1637563756669N00311301WA0034600405
B1637573756669N00311301WA0034600405
B1637583756669N00311301WA0034600405
B1637593756669N00311301WA0034600405
B1638003756669N00311301WA0034600405
B1638013756669N00311301WA0034600405
B1638023756669N00311301WA0034600405
B1638033756669N00311302WA0034600406
B1638043756669N00311302WA0034600406
B1638053756668N00311302WA0034600406
B1638063756668N00311302WA0034600406
B1638073756668N00311302WA0034600406
B1638083756668N00311302WA0034600406
B1638093756668N00311302WA0034600406
B1638103756668N00311302WA0034600406
B1638113756668N00311302WA0034600406
B1638123756668N00311302WA0034600406
B1638133756668N00311302WA0034600406
B1638143756668N00311302WA0034600406
B1638153756668N00311302WA0034600407
B1638163756668N00311302WA0034600406
B1638173756668N00311302WA0034600406
B1638183756668N00311302WA0034600406
B1638193756668N00311302WA0034600406
B1638203756669N00311302WA0034600406
B1638213756669N00311302WA0034600406
B1638223756669N00311301WA0034600405
B1638233756669N00311301WA0034600405
B1638243756669N00311301WA0034600405
B1638253756669N00311301WA0034600404
B1638263756669N00311301WA0034600404
B1638273756669N00311301WA0034600404
B1638283756669N00311301WA0034600404
B1638293756669N00311301WA0034600404
B1638303756669N00311301WA0034600404
B1638313756669N00311301WA0034600404
B1638323756669N00311301WA0034600404
B1638333756669N00311301WA0034600403
B1638343756669N00311301WA0034600403
B1638353756669N00311301WA0034600403
B1638363756669N00311301WA0034600403
B1638373756669N00311301WA0034600403
B1638383756669N00311301WA0034600403
B1638393756669N00311301WA0034600403
B1638403756669N00311301WA0034600403
B1638413756669N00311301WA0034600403
B1638423756669N00311301WA0034600404
B1638433756669N00311301WA0034600404
B1638443756669N00311301WA0034600404
B1638453756669N00311301WA0034600404
B1638463756669N00311301WA0034600404
B1638473756669N00311301WA0034600404
B1638483756669N00311301WA0034600404
B1638493756669N00311301WA0034600404
B1638503756669N00311301WA0034600404
B1638513756669N00311301WA0034600404
B1638523756669N00311301WA0034600404
B1638533756669N00311301WA0034600403
B1638543756669N00311301WA0034600404
B1638553756669N00311301WA0034600404
B1638563756669N00311301WA0034600403
B1638573756669N00311301WA0034600404
B1638583756668N00311301WA0034600404
B1638593756668N00311301WA0034600404
B1639003756668N00311301WA0034600404
B1639013756668N00311301WA0034600404
B1639023756668N00311301WA0034600404
B1639033756668N00311301WA0034600404
B1639043756668N00311301WA0034600404
B1639053756668N00311301WA0034600404
B1639063756668N00311301WA0034600404
B1639073756668N00311301WA0034600403
B1639083756668N00311301WA0034600403
B1639093756668N00311301WA0034600403
B1639103756668N00311301WA0034600403
B1639113756668N00311301WA0034600404
B1639123756668N00311301WA0034600404
B1639133756668N00311301WA0034600404
B1639143756668N00311302WA0034600405
B1639153756668N00311302WA0034600405
B1639163756668N00311302WA0034600405
B1639173756668N00311301WA0034600405
B1639183756668N00311301WA0034600405
B1639193756668N00311301WA0034600405
B1639203756668N00311301WA0034600405
B1639213756668N00311301WA0034600404
B1639223756668N00311301WA0034600404
B1639233756668N00311301WA0034600404
B1639243756668N00311301WA0034600404
B1639253756668N00311301WA0034600404
B1639263756668N00311301WA0034600405
B1639273756668N00311301WA0034600405
B1639283756668N00311301WA0034600405
B1639293756668N00311301WA0034600405
B1639303756668N00311301WA0034600405
B1639313756668N00311301WA0034600405
B1639323756668N00311301WA0034600405
B1639333756668N00311302WA0034600406
B1639343756668N00311302WA0034600406
B1639353756668N00311302WA0034600406
B1639363756668N00311302WA0034600406
B1639373756668N00311302WA0034600406
B1639383756668N00311302WA0034600406
B1639393756668N00311302WA0034600407
B1639403756668N00311302WA0034600408
B1639413756667N00311302WA0034600408
B1639423756667N00311302WA0034600408
B1639433756667N00311302WA0034600408
B1639443756667N00311302WA0034600408
B1639453756667N00311302WA0034600408
B1639463756667N00311302WA0034600408
B1639473756668N00311302WA0034600408
B1639483756668N00311302WA0034600408
B1639493756668N00311302WA0034600408
B1639503756668N00311302WA0034600407
B1639513756668N00311302WA0034600407
B1639523756668N00311302WA0034600407
B1639533756668N00311302WA0034600406
B1639543756669N00311301WA0034600406
B1639553756669N00311301WA0034600405
B1639563756669N00311301WA0034600405
B1639573756669N00311301WA0034600405
B1639583756669N00311301WA0034600404
B1639593756669N00311301WA0034600404
B1640003756669N00311301WA0034600404
B1640013756669N00311301WA0034600404
B1640023756669N00311301WA0034600404
B1640033756669N00311301WA0034600404
B1640043756669N00311302WA0034600405
B1640053756669N00311302WA0034600405
B1640063756669N00311302WA0034600405
B1640073756669N00311302WA0034600405
B1640083756669N00311302WA0034600405
B1640093756669N00311302WA0034600405
B1640103756669N00311302WA0034600405
B1640113756669N00311301WA0034600405
B1640123756669N00311301WA0034600405
B1640133756669N00311301WA0034600405
B1640143756669N00311301WA0034600404
B1640153756669N00311301WA0034600404
B1640163756669N00311301WA0034600404
B1640173756669N00311301WA0034600404
B1640183756669N00311301WA0034600405
B1640193756669N00311301WA0034600405
B1640203756669N00311301WA0034600405
B1640213756669N00311301WA0034600405
B1640223756669N00311302WA0034600406
B1640233756669N00311302WA0034600406
B1640243756669N00311302WA0034600407
B1640253756668N00311302WA0034600408
B1640263756668N00311302WA0034600408
B1640273756668N00311302WA0034600408
B1640283756668N00311302WA0034600408
B1640293756668N00311302WA0034600408
B1640303756668N00311302WA0034600408
B1640313756668N00311302WA0034600408
B1640323756668N00311302WA0034600409
B1640333756668N00311302WA0034600409
B1640343756668N00311302WA0034600409
B1640353756668N00311302WA0034600409
B1640363756668N00311302WA0034600409
B1640373756668N00311302WA0034600409
B1640383756668N00311302WA0034600409
B1640393756668N00311302WA0034600409
B1640403756668N00311302WA0034600409
B1640413756668N00311302WA0034600409
B1640423756668N00311302WA0034600409
B1640433756668N00311302WA0034600408
B1640443756668N00311302WA0034600408
B1640453756668N00311302WA0034600408
B1640463756668N00311302WA0034600407
B1640473756668N00311302WA0034600407
B1640483756669N00311301WA0034600406
B1640493756669N00311301WA0034600406
B1640503756669N00311301WA0034600405
B1640513756669N00311301WA0034600405
B1640523756669N00311301WA0034600405
B1640533756669N00311301WA0034600405
B1640543756669N00311301WA0034600405
B1640553756669N00311301WA0034600405
B1640563756669N00311301WA0034600405
B1640573756669N00311301WA0034600405
B1640583756669N00311301WA0034600404
B1640593756669N00311301WA0034600405
B1641003756669N00311301WA0034600405
B1641013756668N00311301WA0034600405
B1641023756668N00311301WA0034600405
B1641033756668N00311301WA0034600405
B1641043756668N00311301WA0034600405
B1641053756668N00311301WA0034600405
B1641063756669N00311300WA0034600404
B1641073756669N00311300WA0034600403
B1641083756669N00311300WA0034600402
B1641093756669N00311300WA0034600402
B1641103756669N00311300WA0034600402
B1641113756669N00311300WA0034600402
B1641123756669N00311300WA0034600401
B1641133756669N00311300WA0034600401
B1641143756669N00311299WA0034600401
B1641153756669N00311299WA0034600401
B1641163756669N00311299WA0034600401
B1641173756669N00311299WA0034600401
B1641183756669N00311299WA0034600401
B1641193756669N00311300WA0034600401
B1641203756669N00311300WA0034600401
B1641213756669N00311300WA0034600401
B1641223756669N00311300WA0034600401
B1641233756668N00311301WA0034600401
B1641243756668N00311301WA0034600401
B1641253756668N00311301WA0034600401
B1641263756668N00311301WA0034600401
B1641273756668N00311301WA0034600401
B1641283756668N00311301WA0034600401
B1641293756668N00311301WA0034600402
B1641303756669N00311301WA0034600402
B1641313756669N00311300WA0034600401
B1641323756669N00311300WA0034600401
B1641333756669N00311300WA0034600401
B1641343756669N00311301WA0034600401
B1641353756669N00311300WA0034600401
B1641363756669N00311300WA0034600401
B1641373756669N00311300WA0034600401
B1641383756669N00311300WA0034600401
B1641393756669N00311299WA0034600401
B1641403756669N00311300WA0034600401
B1641413756669N00311300WA0034600401
B1641423756669N00311300WA0034600401
B1641433756669N00311299WA0034600401
B1641443756669N00311299WA0034600401
B1641453756669N00311299WA0034600401
B1641463756669N00311299WA0034600401
B1641473756669N00311299WA0034600401
B1641483756669N00311299WA0034600402
B1641493756669N00311299WA0034600402
B1641503756669N00311299WA0034600402
B1641513756669N00311299WA0034600402
B1641523756669N00311299WA0034600401
B1641533756669N00311299WA0034600401
B1641543756669N00311299WA0034600401
B1641553756669N00311299WA0034600401
B1641563756669N00311299WA0034600400
B1641573756670N00311299WA0034600400
B1641583756670N00311298WA0034600399
B1641593756670N00311298WA0034600399
B1642003756670N00311298WA0034600398
B1642013756670N00311298WA0034600398
B1642023756670N00311298WA0034600397
B1642033756670N00311298WA0034600397
B1642043756670N00311298WA0034600396
B1642053756670N00311298WA0034600396
B1642063756670N00311298WA0034600395
B1642073756670N00311298WA0034600395
B1642083756670N00311298WA0034600395
B1642093756670N00311298WA0034600395
B1642103756670N00311298WA0034600394
B1642113756670N00311298WA0034600394
B1642123756670N00311298WA0034600394
B1642133756670N00311298WA0034600394
B1642143756670N00311298WA0034600394
B1642153756670N00311298WA0034600394
B1642163756670N00311298WA0034600394
B1642173756670N00311298WA0034600394
B1642183756670N00311298WA0034600395
B1642193756670N00311298WA0034600396
B1642203756669N00311299WA0034600397
B1642213756669N00311299WA0034600397
B1642223756669N00311299WA0034600398
B1642233756669N00311299WA0034600398
B1642243756669N00311299WA0034600399
B1642253756669N00311299WA0034600399
B1642263756669N00311299WA0034600399
B1642273756669N00311299WA0034600399
B1642283756669N00311299WA0034600398
B1642293756670N00311298WA0034600398
B1642303756670N00311298WA0034600397
B1642313756670N00311298WA0034600397
B1642323756670N00311298WA0034600397
B1642333756670N00311298WA0034600398
B1642343756670N00311298WA0034600398
B1642353756669N00311298WA0034600398
B1642363756670N00311298WA0034600398
B1642373756669N00311298WA0034600397
B1642383756670N00311298WA0034600398
B1642393756670N00311298WA0034600397
B1642403756670N00311298WA0034600397
B1642413756670N00311298WA0034600396
B1642423756670N00311298WA0034600396
B1642433756670N00311298WA0034600396
B1642443756670N00311298WA0034600395
B1642453756670N00311298WA0034600395
B1642463756670N00311298WA0034600395
B1642473756670N00311298WA0034600394
B1642483756670N00311298WA0034600394
B1642493756670N00311298WA0034600394
B1642503756670N00311298WA0034600394
B1642513756671N00311297WA0034600394
B1642523756671N00311297WA0034600393
B1642533756671N00311297WA0034600393
B1642543756671N00311297WA0034600393
B1642553756671N00311297WA0034600393
B1642563756671N00311297WA0034600393
B1642573756671N00311297WA0034600393
B1642583756671N00311297WA0034600393
B1642593756671N00311297WA0034600393
B1643003756671N00311297WA0034600393
B1643013756671N00311297WA0034600394
B1643023756670N00311297WA0034600394
B1643033756670N00311297WA0034600394
B1643043756670N00311297WA0034600394
B1643053756670N00311297WA0034600394
B1643063756671N00311297WA0034600394
B1643073756671N00311297WA0034600393
B1643083756670N00311297WA0034600393
B1643093756670N00311297WA0034600394
B1643103756670N00311297WA0034600394
B1643113756670N00311297WA0034600394
B1643123756671N00311297WA0034600394
B1643133756671N00311297WA0034600394
B1643143756671N00311297WA0034600394
B1643153756671N00311297WA0034600394
B1643163756671N00311297WA0034600394
B1643173756671N00311297WA0034600393
B1643183756671N00311297WA0034600393
B1643193756671N00311297WA0034600394
B1643203756671N00311297WA0034600393
B1643213756670N00311298WA0034600394
B1643223756670N00311298WA0034600394
B1643233756670N00311299WA0034600395
B1643243756670N00311299WA0034600395
B1643253756670N00311299WA0034600395
B1643263756670N00311300WA0034600395
B1643273756670N00311300WA0034600395
B1643283756670N00311301WA0034600395
B1643293756670N00311301WA0034600396
B1643303756670N00311301WA0034600396
B1643313756670N00311301WA0034600396
B1643323756671N00311301WA0034600396
B1643333756671N00311301WA0034600396
B1643343756671N00311301WA0034600396
B1643353756671N00311301WA0034600396
B1643363756672N00311301WA0034600396
B1643373756672N00311300WA0034600396
B1643383756671N00311300WA0034600396
B1643393756671N00311300WA0034600396
B1643403756671N00311301WA0034600396
B1643413756672N00311301WA0034600396
B1643423756672N00311301WA0034600396
B1643433756672N00311301WA0034600396
B1643443756671N00311301WA0034600395
B1643453756671N00311301WA0034600395
B1643463756671N00311302WA0034600395
B1643473756671N00311302WA0034600395
B1643483756671N00311302WA0034600395
B1643493756671N00311302WA0034600395
B1643503756671N00311303WA0034600395
B1643513756671N00311303WA0034600395
B1643523756671N00311303WA0034600395
B1643533756671N00311303WA0034600395
B1643543756671N00311303WA0034600395
B1643553756672N00311303WA0034600395
B1643563756672N00311302WA0034600395
B1643573756672N00311302WA0034600395
B1643583756672N00311302WA0034600395
B1643593756672N00311302WA0034600395
B1644003756671N00311301WA0034600395
B1644013756671N00311301WA0034600395
B1644023756672N00311301WA0034600395
B1644033756672N00311301WA0034600396
B1644043756672N00311301WA0034600396
B1644053756672N00311301WA0034600396
B1644063756671N00311302WA0034600396
B1644073756671N00311302WA0034600396
B1644083756671N00311302WA0034600396
B1644093756671N00311302WA0034600396
B1644103756671N00311302WA0034600397
B1644113756671N00311302WA0034600397
B1644123756671N00311301WA0034600397
B1644133756671N00311301WA0034600397
B1644143756670N00311301WA0034600397
B1644153756670N00311301WA0034600397
B1644163756670N00311301WA0034600397
B1644173756670N00311302WA0034600397
B1644183756670N00311302WA0034600397
B1644193756670N00311302WA0034600397
B1644203756671N00311302WA0034600397
B1644213756671N00311301WA0034600397
B1644223756671N00311301WA0034600397
B1644233756671N00311301WA0034600397
B1644243756671N00311300WA0034600397
B1644253756671N00311300WA0034600398
B1644263756671N00311300WA0034600398
B1644273756671N00311300WA0034600398
B1644283756671N00311300WA0034600398
B1644293756672N00311300WA0034600398
B1644303756672N00311300WA0034600398
B1644313756672N00311300WA0034600398
B1644323756671N00311299WA0034600398
B1644333756671N00311299WA0034600398
B1644343756671N00311299WA0034600398
B1644353756671N00311299WA0034600398
B1644363756671N00311300WA0034600398
B1644373756671N00311300WA0034600398
B1644383756670N00311301WA0034600398
B1644393756670N00311302WA0034600398
B1644403756670N00311303WA0034600398
B1644413756670N00311304WA0034600398
B1644423756670N00311304WA0034600398
B1644433756670N00311302WA0034600398
B1644443756670N00311302WA0034600398
B1644453756670N00311302WA0034600398
B1644463756669N00311301WA0034600398
B1644473756669N00311301WA0034600398
B1644483756669N00311301WA0034600398
B1644493756669N00311300WA0034600398
B1644503756669N00311300WA0034600398
B1644513756669N00311300WA0034600399
B1644523756669N00311300WA0034600399
B1644533756669N00311300WA0034600399
B1644543756669N00311300WA0034600399
B1644553756669N00311300WA0034600399
B1644563756669N00311300WA0034600399
B1644573756669N00311300WA0034600399
B1644583756669N00311300WA0034500399
B1644593756669N00311300WA0034500399
B1645003756669N00311300WA0034500399
B1645013756669N00311300WA0034500399
LXGD GpsDump version 4.66
LXGD Downloaded 2012-09-09  10:47:04
G4EF7A2C1F57A9564
